<?xml version="1.0" encoding="UTF-8" standalone="no" ?>
<gpx xmlns="http://www.topografix.com/GPX/1/1" xmlns:xsi="http://www.w3.org/2001/XMLSchema-instance" xsi:schemaLocation="http://www.topografix.com/GPX/1/1 http://www.topografix.com/GPX/1/1/gpx.xsd" version="1.1" creator="VisuGPX - https://www.visugpx.com">
  <metadata>
    <name>sortie du dimanche 3 septembre 2017</name>
    <desc><![CDATA[Sortie à Puchay (27) autour de Lyons la forêt...]]></desc>
  </metadata>
  <trk>
    <name><![CDATA[sortie du dimanche 3 septembre 2017_1]]></name>
    <trkseg>
      <trkpt lat="49.34808" lon="1.53266">
        <ele>128.75157165527</ele>
        <time>2017-09-03T06:40:40.000Z</time>
      </trkpt>
      <trkpt lat="49.34814" lon="1.53257">
        <ele>128.82257080078</ele>
        <time>2017-09-03T06:40:43.000Z</time>
      </trkpt>
      <trkpt lat="49.34822" lon="1.53244">
        <ele>128.90948486328</ele>
        <time>2017-09-03T06:40:46.000Z</time>
      </trkpt>
      <trkpt lat="49.34827" lon="1.53235">
        <ele>128.98083496094</ele>
        <time>2017-09-03T06:40:49.000Z</time>
      </trkpt>
      <trkpt lat="49.34832" lon="1.53229">
        <ele>129.03590393066</ele>
        <time>2017-09-03T06:40:51.000Z</time>
      </trkpt>
      <trkpt lat="49.34838" lon="1.53223">
        <ele>129.12724304199</ele>
        <time>2017-09-03T06:40:53.000Z</time>
      </trkpt>
      <trkpt lat="49.34846" lon="1.53214">
        <ele>129.17077636719</ele>
        <time>2017-09-03T06:40:56.000Z</time>
      </trkpt>
      <trkpt lat="49.34855" lon="1.53205">
        <ele>129.16027832031</ele>
        <time>2017-09-03T06:40:59.000Z</time>
      </trkpt>
      <trkpt lat="49.34861" lon="1.53199">
        <ele>129.11401367188</ele>
        <time>2017-09-03T06:41:01.000Z</time>
      </trkpt>
      <trkpt lat="49.3487" lon="1.53191">
        <ele>129.0299987793</ele>
        <time>2017-09-03T06:41:04.000Z</time>
      </trkpt>
      <trkpt lat="49.3488" lon="1.53181">
        <ele>128.93103027344</ele>
        <time>2017-09-03T06:41:07.000Z</time>
      </trkpt>
      <trkpt lat="49.34887" lon="1.53175">
        <ele>128.83430480957</ele>
        <time>2017-09-03T06:41:09.000Z</time>
      </trkpt>
      <trkpt lat="49.34894" lon="1.53168">
        <ele>128.73352050781</ele>
        <time>2017-09-03T06:41:11.000Z</time>
      </trkpt>
      <trkpt lat="49.34901" lon="1.53162">
        <ele>128.63812255859</ele>
        <time>2017-09-03T06:41:13.000Z</time>
      </trkpt>
      <trkpt lat="49.34907" lon="1.53155">
        <ele>128.57055664062</ele>
        <time>2017-09-03T06:41:15.000Z</time>
      </trkpt>
      <trkpt lat="49.34915" lon="1.53141">
        <ele>128.55485534668</ele>
        <time>2017-09-03T06:41:18.000Z</time>
      </trkpt>
      <trkpt lat="49.34922" lon="1.53125">
        <ele>128.62178039551</ele>
        <time>2017-09-03T06:41:21.000Z</time>
      </trkpt>
      <trkpt lat="49.34928" lon="1.5311">
        <ele>128.77886962891</ele>
        <time>2017-09-03T06:41:24.000Z</time>
      </trkpt>
      <trkpt lat="49.34934" lon="1.53096">
        <ele>129.01445007324</ele>
        <time>2017-09-03T06:41:27.000Z</time>
      </trkpt>
      <trkpt lat="49.34938" lon="1.53087">
        <ele>129.29565429688</ele>
        <time>2017-09-03T06:41:29.000Z</time>
      </trkpt>
      <trkpt lat="49.34943" lon="1.53078">
        <ele>129.61051940918</ele>
        <time>2017-09-03T06:41:31.000Z</time>
      </trkpt>
      <trkpt lat="49.34946" lon="1.53067">
        <ele>129.93310546875</ele>
        <time>2017-09-03T06:41:33.000Z</time>
      </trkpt>
      <trkpt lat="49.34951" lon="1.53053">
        <ele>130.29162597656</ele>
        <time>2017-09-03T06:41:36.000Z</time>
      </trkpt>
      <trkpt lat="49.34956" lon="1.53038">
        <ele>130.68588256836</ele>
        <time>2017-09-03T06:41:39.000Z</time>
      </trkpt>
      <trkpt lat="49.3496" lon="1.53023">
        <ele>131.13772583008</ele>
        <time>2017-09-03T06:41:42.000Z</time>
      </trkpt>
      <trkpt lat="49.34964" lon="1.5301">
        <ele>131.62507629395</ele>
        <time>2017-09-03T06:41:45.000Z</time>
      </trkpt>
      <trkpt lat="49.34967" lon="1.52997">
        <ele>132.12968444824</ele>
        <time>2017-09-03T06:41:48.000Z</time>
      </trkpt>
      <trkpt lat="49.3497" lon="1.52983">
        <ele>132.61758422852</ele>
        <time>2017-09-03T06:41:51.000Z</time>
      </trkpt>
      <trkpt lat="49.34971" lon="1.52973">
        <ele>133.05964660645</ele>
        <time>2017-09-03T06:41:53.000Z</time>
      </trkpt>
      <trkpt lat="49.34974" lon="1.52963">
        <ele>133.46366882324</ele>
        <time>2017-09-03T06:41:56.000Z</time>
      </trkpt>
      <trkpt lat="49.34976" lon="1.52954">
        <ele>133.8355255127</ele>
        <time>2017-09-03T06:41:59.000Z</time>
      </trkpt>
      <trkpt lat="49.34978" lon="1.52945">
        <ele>134.17770385742</ele>
        <time>2017-09-03T06:42:02.000Z</time>
      </trkpt>
      <trkpt lat="49.34981" lon="1.52937">
        <ele>134.49096679688</ele>
        <time>2017-09-03T06:42:05.000Z</time>
      </trkpt>
      <trkpt lat="49.34983" lon="1.5293">
        <ele>134.78909301758</ele>
        <time>2017-09-03T06:42:07.000Z</time>
      </trkpt>
      <trkpt lat="49.34985" lon="1.52923">
        <ele>135.07136535645</ele>
        <time>2017-09-03T06:42:09.000Z</time>
      </trkpt>
      <trkpt lat="49.34986" lon="1.52917">
        <ele>135.33396911621</ele>
        <time>2017-09-03T06:42:11.000Z</time>
      </trkpt>
      <trkpt lat="49.34988" lon="1.52908">
        <ele>135.58642578125</ele>
        <time>2017-09-03T06:42:14.000Z</time>
      </trkpt>
      <trkpt lat="49.34988" lon="1.52903">
        <ele>135.8063659668</ele>
        <time>2017-09-03T06:42:16.000Z</time>
      </trkpt>
      <trkpt lat="49.3499" lon="1.52898">
        <ele>136.00982666016</ele>
        <time>2017-09-03T06:42:18.000Z</time>
      </trkpt>
      <trkpt lat="49.34991" lon="1.52893">
        <ele>136.19096374512</ele>
        <time>2017-09-03T06:42:20.000Z</time>
      </trkpt>
      <trkpt lat="49.34995" lon="1.52886">
        <ele>136.3635559082</ele>
        <time>2017-09-03T06:42:23.000Z</time>
      </trkpt>
      <trkpt lat="49.35002" lon="1.52877">
        <ele>136.53201293945</ele>
        <time>2017-09-03T06:42:26.000Z</time>
      </trkpt>
      <trkpt lat="49.35009" lon="1.52874">
        <ele>136.66291809082</ele>
        <time>2017-09-03T06:42:28.000Z</time>
      </trkpt>
      <trkpt lat="49.3502" lon="1.52869">
        <ele>136.74848937988</ele>
        <time>2017-09-03T06:42:31.000Z</time>
      </trkpt>
      <trkpt lat="49.35028" lon="1.52863">
        <ele>136.79544067383</ele>
        <time>2017-09-03T06:42:33.000Z</time>
      </trkpt>
      <trkpt lat="49.35036" lon="1.52857">
        <ele>136.79699707031</ele>
        <time>2017-09-03T06:42:35.000Z</time>
      </trkpt>
      <trkpt lat="49.35046" lon="1.5285">
        <ele>136.73904418945</ele>
        <time>2017-09-03T06:42:37.000Z</time>
      </trkpt>
      <trkpt lat="49.35056" lon="1.52842">
        <ele>136.67260742188</ele>
        <time>2017-09-03T06:42:39.000Z</time>
      </trkpt>
      <trkpt lat="49.35069" lon="1.52836">
        <ele>136.57885742188</ele>
        <time>2017-09-03T06:42:42.000Z</time>
      </trkpt>
      <trkpt lat="49.35083" lon="1.52827">
        <ele>136.4507598877</ele>
        <time>2017-09-03T06:42:45.000Z</time>
      </trkpt>
      <trkpt lat="49.35095" lon="1.52815">
        <ele>136.32873535156</ele>
        <time>2017-09-03T06:42:48.000Z</time>
      </trkpt>
      <trkpt lat="49.35102" lon="1.52809">
        <ele>136.21589660645</ele>
        <time>2017-09-03T06:42:50.000Z</time>
      </trkpt>
      <trkpt lat="49.35111" lon="1.52804">
        <ele>136.11387634277</ele>
        <time>2017-09-03T06:42:52.000Z</time>
      </trkpt>
      <trkpt lat="49.35124" lon="1.52797">
        <ele>136.0414276123</ele>
        <time>2017-09-03T06:42:55.000Z</time>
      </trkpt>
      <trkpt lat="49.35132" lon="1.52792">
        <ele>136.0032043457</ele>
        <time>2017-09-03T06:42:57.000Z</time>
      </trkpt>
      <trkpt lat="49.35141" lon="1.52788">
        <ele>135.95886230469</ele>
        <time>2017-09-03T06:42:59.000Z</time>
      </trkpt>
      <trkpt lat="49.35149" lon="1.52783">
        <ele>135.90896606445</ele>
        <time>2017-09-03T06:43:01.000Z</time>
      </trkpt>
      <trkpt lat="49.35162" lon="1.52776">
        <ele>135.85134887695</ele>
        <time>2017-09-03T06:43:04.000Z</time>
      </trkpt>
      <trkpt lat="49.35175" lon="1.5277">
        <ele>135.81878662109</ele>
        <time>2017-09-03T06:43:07.000Z</time>
      </trkpt>
      <trkpt lat="49.35183" lon="1.52765">
        <ele>135.80976867676</ele>
        <time>2017-09-03T06:43:09.000Z</time>
      </trkpt>
      <trkpt lat="49.35192" lon="1.5276">
        <ele>135.82180786133</ele>
        <time>2017-09-03T06:43:11.000Z</time>
      </trkpt>
      <trkpt lat="49.35204" lon="1.52752">
        <ele>135.8567199707</ele>
        <time>2017-09-03T06:43:14.000Z</time>
      </trkpt>
      <trkpt lat="49.35217" lon="1.52745">
        <ele>135.93423461914</ele>
        <time>2017-09-03T06:43:17.000Z</time>
      </trkpt>
      <trkpt lat="49.35225" lon="1.5274">
        <ele>136.02499389648</ele>
        <time>2017-09-03T06:43:19.000Z</time>
      </trkpt>
      <trkpt lat="49.35233" lon="1.52735">
        <ele>136.12533569336</ele>
        <time>2017-09-03T06:43:21.000Z</time>
      </trkpt>
      <trkpt lat="49.35246" lon="1.52729">
        <ele>136.24482727051</ele>
        <time>2017-09-03T06:43:24.000Z</time>
      </trkpt>
      <trkpt lat="49.35258" lon="1.52722">
        <ele>136.43876647949</ele>
        <time>2017-09-03T06:43:27.000Z</time>
      </trkpt>
      <trkpt lat="49.35266" lon="1.52717">
        <ele>136.6867980957</ele>
        <time>2017-09-03T06:43:29.000Z</time>
      </trkpt>
      <trkpt lat="49.35278" lon="1.5271">
        <ele>137.03298950195</ele>
        <time>2017-09-03T06:43:32.000Z</time>
      </trkpt>
      <trkpt lat="49.35291" lon="1.52703">
        <ele>137.47926330566</ele>
        <time>2017-09-03T06:43:35.000Z</time>
      </trkpt>
      <trkpt lat="49.35304" lon="1.52697">
        <ele>138.01751708984</ele>
        <time>2017-09-03T06:43:38.000Z</time>
      </trkpt>
      <trkpt lat="49.35317" lon="1.52691">
        <ele>138.591796875</ele>
        <time>2017-09-03T06:43:41.000Z</time>
      </trkpt>
      <trkpt lat="49.35329" lon="1.52684">
        <ele>139.20825195312</ele>
        <time>2017-09-03T06:43:44.000Z</time>
      </trkpt>
      <trkpt lat="49.35337" lon="1.5268">
        <ele>139.77903747559</ele>
        <time>2017-09-03T06:43:46.000Z</time>
      </trkpt>
      <trkpt lat="49.35349" lon="1.52673">
        <ele>140.3412322998</ele>
        <time>2017-09-03T06:43:49.000Z</time>
      </trkpt>
      <trkpt lat="49.3536" lon="1.52667">
        <ele>140.88757324219</ele>
        <time>2017-09-03T06:43:52.000Z</time>
      </trkpt>
      <trkpt lat="49.3537" lon="1.52662">
        <ele>141.40609741211</ele>
        <time>2017-09-03T06:43:55.000Z</time>
      </trkpt>
      <trkpt lat="49.35381" lon="1.52656">
        <ele>141.89169311523</ele>
        <time>2017-09-03T06:43:58.000Z</time>
      </trkpt>
      <trkpt lat="49.35392" lon="1.52651">
        <ele>142.39360046387</ele>
        <time>2017-09-03T06:44:01.000Z</time>
      </trkpt>
      <trkpt lat="49.35399" lon="1.52647">
        <ele>142.84066772461</ele>
        <time>2017-09-03T06:44:03.000Z</time>
      </trkpt>
      <trkpt lat="49.35406" lon="1.52644">
        <ele>143.24125671387</ele>
        <time>2017-09-03T06:44:05.000Z</time>
      </trkpt>
      <trkpt lat="49.35414" lon="1.5264">
        <ele>143.6022644043</ele>
        <time>2017-09-03T06:44:07.000Z</time>
      </trkpt>
      <trkpt lat="49.35421" lon="1.52637">
        <ele>143.91891479492</ele>
        <time>2017-09-03T06:44:09.000Z</time>
      </trkpt>
      <trkpt lat="49.35428" lon="1.52633">
        <ele>144.18688964844</ele>
        <time>2017-09-03T06:44:11.000Z</time>
      </trkpt>
      <trkpt lat="49.35439" lon="1.52627">
        <ele>144.462890625</ele>
        <time>2017-09-03T06:44:14.000Z</time>
      </trkpt>
      <trkpt lat="49.35448" lon="1.52623">
        <ele>144.7294921875</ele>
        <time>2017-09-03T06:44:16.000Z</time>
      </trkpt>
      <trkpt lat="49.35457" lon="1.52619">
        <ele>144.99435424805</ele>
        <time>2017-09-03T06:44:18.000Z</time>
      </trkpt>
      <trkpt lat="49.3547" lon="1.52612">
        <ele>145.29205322266</ele>
        <time>2017-09-03T06:44:21.000Z</time>
      </trkpt>
      <trkpt lat="49.35482" lon="1.52605">
        <ele>145.61904907227</ele>
        <time>2017-09-03T06:44:24.000Z</time>
      </trkpt>
      <trkpt lat="49.3549" lon="1.526">
        <ele>145.92694091797</ele>
        <time>2017-09-03T06:44:26.000Z</time>
      </trkpt>
      <trkpt lat="49.35502" lon="1.52592">
        <ele>146.26260375977</ele>
        <time>2017-09-03T06:44:29.000Z</time>
      </trkpt>
      <trkpt lat="49.35513" lon="1.52586">
        <ele>146.64065551758</ele>
        <time>2017-09-03T06:44:32.000Z</time>
      </trkpt>
      <trkpt lat="49.3552" lon="1.52582">
        <ele>146.99978637695</ele>
        <time>2017-09-03T06:44:34.000Z</time>
      </trkpt>
      <trkpt lat="49.35531" lon="1.52575">
        <ele>147.38334655762</ele>
        <time>2017-09-03T06:44:37.000Z</time>
      </trkpt>
      <trkpt lat="49.35539" lon="1.52571">
        <ele>147.78277587891</ele>
        <time>2017-09-03T06:44:39.000Z</time>
      </trkpt>
      <trkpt lat="49.35551" lon="1.52566">
        <ele>148.19869995117</ele>
        <time>2017-09-03T06:44:42.000Z</time>
      </trkpt>
      <trkpt lat="49.35558" lon="1.52562">
        <ele>148.58218383789</ele>
        <time>2017-09-03T06:44:44.000Z</time>
      </trkpt>
      <trkpt lat="49.35566" lon="1.52558">
        <ele>148.96838378906</ele>
        <time>2017-09-03T06:44:46.000Z</time>
      </trkpt>
      <trkpt lat="49.35573" lon="1.52553">
        <ele>149.32333374023</ele>
        <time>2017-09-03T06:44:48.000Z</time>
      </trkpt>
      <trkpt lat="49.35584" lon="1.52546">
        <ele>149.70825195312</ele>
        <time>2017-09-03T06:44:51.000Z</time>
      </trkpt>
      <trkpt lat="49.35591" lon="1.5254">
        <ele>150.0785369873</ele>
        <time>2017-09-03T06:44:53.000Z</time>
      </trkpt>
      <trkpt lat="49.35601" lon="1.52531">
        <ele>150.49928283691</ele>
        <time>2017-09-03T06:44:56.000Z</time>
      </trkpt>
      <trkpt lat="49.35607" lon="1.52525">
        <ele>150.93319702148</ele>
        <time>2017-09-03T06:44:58.000Z</time>
      </trkpt>
      <trkpt lat="49.35616" lon="1.52517">
        <ele>151.41076660156</ele>
        <time>2017-09-03T06:45:01.000Z</time>
      </trkpt>
      <trkpt lat="49.35626" lon="1.52507">
        <ele>151.90478515625</ele>
        <time>2017-09-03T06:45:04.000Z</time>
      </trkpt>
      <trkpt lat="49.35633" lon="1.52502">
        <ele>152.39814758301</ele>
        <time>2017-09-03T06:45:06.000Z</time>
      </trkpt>
      <trkpt lat="49.35643" lon="1.52493">
        <ele>152.88275146484</ele>
        <time>2017-09-03T06:45:09.000Z</time>
      </trkpt>
      <trkpt lat="49.3565" lon="1.52488">
        <ele>153.35876464844</ele>
        <time>2017-09-03T06:45:11.000Z</time>
      </trkpt>
      <trkpt lat="49.35657" lon="1.52482">
        <ele>153.79016113281</ele>
        <time>2017-09-03T06:45:13.000Z</time>
      </trkpt>
      <trkpt lat="49.35664" lon="1.52477">
        <ele>154.17700195312</ele>
        <time>2017-09-03T06:45:15.000Z</time>
      </trkpt>
      <trkpt lat="49.35674" lon="1.5247">
        <ele>154.54992675781</ele>
        <time>2017-09-03T06:45:18.000Z</time>
      </trkpt>
      <trkpt lat="49.35685" lon="1.52464">
        <ele>154.87922668457</ele>
        <time>2017-09-03T06:45:21.000Z</time>
      </trkpt>
      <trkpt lat="49.35693" lon="1.5246">
        <ele>155.18923950195</ele>
        <time>2017-09-03T06:45:23.000Z</time>
      </trkpt>
      <trkpt lat="49.35704" lon="1.52453">
        <ele>155.50621032715</ele>
        <time>2017-09-03T06:45:26.000Z</time>
      </trkpt>
      <trkpt lat="49.35711" lon="1.52449">
        <ele>155.80639648438</ele>
        <time>2017-09-03T06:45:28.000Z</time>
      </trkpt>
      <trkpt lat="49.35722" lon="1.52443">
        <ele>156.12216186523</ele>
        <time>2017-09-03T06:45:31.000Z</time>
      </trkpt>
      <trkpt lat="49.3573" lon="1.52438">
        <ele>156.42994689941</ele>
        <time>2017-09-03T06:45:33.000Z</time>
      </trkpt>
      <trkpt lat="49.35737" lon="1.52434">
        <ele>156.7463684082</ele>
        <time>2017-09-03T06:45:35.000Z</time>
      </trkpt>
      <trkpt lat="49.35747" lon="1.52428">
        <ele>157.07002258301</ele>
        <time>2017-09-03T06:45:38.000Z</time>
      </trkpt>
      <trkpt lat="49.35757" lon="1.52422">
        <ele>157.43264770508</ele>
        <time>2017-09-03T06:45:41.000Z</time>
      </trkpt>
      <trkpt lat="49.35764" lon="1.52417">
        <ele>157.77122497559</ele>
        <time>2017-09-03T06:45:43.000Z</time>
      </trkpt>
      <trkpt lat="49.35775" lon="1.52411">
        <ele>158.13171386719</ele>
        <time>2017-09-03T06:45:46.000Z</time>
      </trkpt>
      <trkpt lat="49.35785" lon="1.52405">
        <ele>158.50399780273</ele>
        <time>2017-09-03T06:45:49.000Z</time>
      </trkpt>
      <trkpt lat="49.35793" lon="1.52401">
        <ele>158.84187316895</ele>
        <time>2017-09-03T06:45:51.000Z</time>
      </trkpt>
      <trkpt lat="49.35803" lon="1.52395">
        <ele>159.15209960938</ele>
        <time>2017-09-03T06:45:54.000Z</time>
      </trkpt>
      <trkpt lat="49.3581" lon="1.52391">
        <ele>159.44575500488</ele>
        <time>2017-09-03T06:45:56.000Z</time>
      </trkpt>
      <trkpt lat="49.35821" lon="1.52385">
        <ele>159.71577453613</ele>
        <time>2017-09-03T06:45:59.000Z</time>
      </trkpt>
      <trkpt lat="49.35831" lon="1.52378">
        <ele>159.96607971191</ele>
        <time>2017-09-03T06:46:02.000Z</time>
      </trkpt>
      <trkpt lat="49.35841" lon="1.52372">
        <ele>160.19111633301</ele>
        <time>2017-09-03T06:46:05.000Z</time>
      </trkpt>
      <trkpt lat="49.35852" lon="1.52366">
        <ele>160.37275695801</ele>
        <time>2017-09-03T06:46:08.000Z</time>
      </trkpt>
      <trkpt lat="49.35862" lon="1.52359">
        <ele>160.53846740723</ele>
        <time>2017-09-03T06:46:11.000Z</time>
      </trkpt>
      <trkpt lat="49.35869" lon="1.52355">
        <ele>160.67211914062</ele>
        <time>2017-09-03T06:46:13.000Z</time>
      </trkpt>
      <trkpt lat="49.35876" lon="1.52351">
        <ele>160.78294372559</ele>
        <time>2017-09-03T06:46:15.000Z</time>
      </trkpt>
      <trkpt lat="49.35886" lon="1.52344">
        <ele>160.91648864746</ele>
        <time>2017-09-03T06:46:18.000Z</time>
      </trkpt>
      <trkpt lat="49.35894" lon="1.5234">
        <ele>161.06686401367</ele>
        <time>2017-09-03T06:46:20.000Z</time>
      </trkpt>
      <trkpt lat="49.35904" lon="1.52334">
        <ele>161.24894714355</ele>
        <time>2017-09-03T06:46:23.000Z</time>
      </trkpt>
      <trkpt lat="49.35911" lon="1.5233">
        <ele>161.44424438477</ele>
        <time>2017-09-03T06:46:25.000Z</time>
      </trkpt>
      <trkpt lat="49.35922" lon="1.52324">
        <ele>161.65603637695</ele>
        <time>2017-09-03T06:46:28.000Z</time>
      </trkpt>
      <trkpt lat="49.35929" lon="1.5232">
        <ele>161.84823608398</ele>
        <time>2017-09-03T06:46:30.000Z</time>
      </trkpt>
      <trkpt lat="49.3594" lon="1.52314">
        <ele>162.05023193359</ele>
        <time>2017-09-03T06:46:33.000Z</time>
      </trkpt>
      <trkpt lat="49.35952" lon="1.52307">
        <ele>162.24807739258</ele>
        <time>2017-09-03T06:46:36.000Z</time>
      </trkpt>
      <trkpt lat="49.35959" lon="1.52304">
        <ele>162.44917297363</ele>
        <time>2017-09-03T06:46:38.000Z</time>
      </trkpt>
      <trkpt lat="49.35967" lon="1.523">
        <ele>162.64961242676</ele>
        <time>2017-09-03T06:46:40.000Z</time>
      </trkpt>
      <trkpt lat="49.35974" lon="1.52297">
        <ele>162.86982727051</ele>
        <time>2017-09-03T06:46:42.000Z</time>
      </trkpt>
      <trkpt lat="49.35986" lon="1.52292">
        <ele>163.11727905273</ele>
        <time>2017-09-03T06:46:45.000Z</time>
      </trkpt>
      <trkpt lat="49.35994" lon="1.52289">
        <ele>163.3627166748</ele>
        <time>2017-09-03T06:46:47.000Z</time>
      </trkpt>
      <trkpt lat="49.36005" lon="1.52284">
        <ele>163.63516235352</ele>
        <time>2017-09-03T06:46:50.000Z</time>
      </trkpt>
      <trkpt lat="49.36012" lon="1.5228">
        <ele>163.89476013184</ele>
        <time>2017-09-03T06:46:52.000Z</time>
      </trkpt>
      <trkpt lat="49.36024" lon="1.52275">
        <ele>164.14909362793</ele>
        <time>2017-09-03T06:46:55.000Z</time>
      </trkpt>
      <trkpt lat="49.36034" lon="1.52269">
        <ele>164.36540222168</ele>
        <time>2017-09-03T06:46:58.000Z</time>
      </trkpt>
      <trkpt lat="49.36045" lon="1.52262">
        <ele>164.55615234375</ele>
        <time>2017-09-03T06:47:01.000Z</time>
      </trkpt>
      <trkpt lat="49.36053" lon="1.52258">
        <ele>164.69566345215</ele>
        <time>2017-09-03T06:47:03.000Z</time>
      </trkpt>
      <trkpt lat="49.3606" lon="1.52254">
        <ele>164.81481933594</ele>
        <time>2017-09-03T06:47:05.000Z</time>
      </trkpt>
      <trkpt lat="49.3607" lon="1.52248">
        <ele>164.91152954102</ele>
        <time>2017-09-03T06:47:08.000Z</time>
      </trkpt>
      <trkpt lat="49.36077" lon="1.52244">
        <ele>164.99317932129</ele>
        <time>2017-09-03T06:47:10.000Z</time>
      </trkpt>
      <trkpt lat="49.36088" lon="1.52237">
        <ele>165.11282348633</ele>
        <time>2017-09-03T06:47:13.000Z</time>
      </trkpt>
      <trkpt lat="49.36099" lon="1.5223">
        <ele>165.3158416748</ele>
        <time>2017-09-03T06:47:16.000Z</time>
      </trkpt>
      <trkpt lat="49.36106" lon="1.52226">
        <ele>165.56716918945</ele>
        <time>2017-09-03T06:47:18.000Z</time>
      </trkpt>
      <trkpt lat="49.36117" lon="1.52219">
        <ele>165.89022827148</ele>
        <time>2017-09-03T06:47:21.000Z</time>
      </trkpt>
      <trkpt lat="49.36129" lon="1.52212">
        <ele>166.27180480957</ele>
        <time>2017-09-03T06:47:24.000Z</time>
      </trkpt>
      <trkpt lat="49.36136" lon="1.52207">
        <ele>166.63456726074</ele>
        <time>2017-09-03T06:47:26.000Z</time>
      </trkpt>
      <trkpt lat="49.36147" lon="1.52201">
        <ele>166.95989990234</ele>
        <time>2017-09-03T06:47:29.000Z</time>
      </trkpt>
      <trkpt lat="49.36158" lon="1.52194">
        <ele>167.27926635742</ele>
        <time>2017-09-03T06:47:32.000Z</time>
      </trkpt>
      <trkpt lat="49.36165" lon="1.5219">
        <ele>167.54110717773</ele>
        <time>2017-09-03T06:47:34.000Z</time>
      </trkpt>
      <trkpt lat="49.36172" lon="1.52185">
        <ele>167.71278381348</ele>
        <time>2017-09-03T06:47:36.000Z</time>
      </trkpt>
      <trkpt lat="49.36183" lon="1.52178">
        <ele>167.8125</ele>
        <time>2017-09-03T06:47:39.000Z</time>
      </trkpt>
      <trkpt lat="49.36194" lon="1.52172">
        <ele>167.82901000977</ele>
        <time>2017-09-03T06:47:42.000Z</time>
      </trkpt>
      <trkpt lat="49.36205" lon="1.52165">
        <ele>167.77488708496</ele>
        <time>2017-09-03T06:47:45.000Z</time>
      </trkpt>
      <trkpt lat="49.36215" lon="1.52159">
        <ele>167.68452453613</ele>
        <time>2017-09-03T06:47:48.000Z</time>
      </trkpt>
      <trkpt lat="49.36226" lon="1.52153">
        <ele>167.60650634766</ele>
        <time>2017-09-03T06:47:51.000Z</time>
      </trkpt>
      <trkpt lat="49.36233" lon="1.52149">
        <ele>167.56076049805</ele>
        <time>2017-09-03T06:47:53.000Z</time>
      </trkpt>
      <trkpt lat="49.36245" lon="1.52142">
        <ele>167.55325317383</ele>
        <time>2017-09-03T06:47:56.000Z</time>
      </trkpt>
      <trkpt lat="49.36257" lon="1.52135">
        <ele>167.58866882324</ele>
        <time>2017-09-03T06:47:59.000Z</time>
      </trkpt>
      <trkpt lat="49.36269" lon="1.52127">
        <ele>167.65255737305</ele>
        <time>2017-09-03T06:48:02.000Z</time>
      </trkpt>
      <trkpt lat="49.36277" lon="1.52122">
        <ele>167.72721862793</ele>
        <time>2017-09-03T06:48:04.000Z</time>
      </trkpt>
      <trkpt lat="49.36285" lon="1.52117">
        <ele>167.80578613281</ele>
        <time>2017-09-03T06:48:06.000Z</time>
      </trkpt>
      <trkpt lat="49.36298" lon="1.52109">
        <ele>167.87838745117</ele>
        <time>2017-09-03T06:48:09.000Z</time>
      </trkpt>
      <trkpt lat="49.36307" lon="1.52103">
        <ele>167.93144226074</ele>
        <time>2017-09-03T06:48:11.000Z</time>
      </trkpt>
      <trkpt lat="49.3632" lon="1.52095">
        <ele>167.96284484863</ele>
        <time>2017-09-03T06:48:14.000Z</time>
      </trkpt>
      <trkpt lat="49.36332" lon="1.52086">
        <ele>167.98030090332</ele>
        <time>2017-09-03T06:48:17.000Z</time>
      </trkpt>
      <trkpt lat="49.3634" lon="1.52081">
        <ele>167.99514770508</ele>
        <time>2017-09-03T06:48:19.000Z</time>
      </trkpt>
      <trkpt lat="49.36351" lon="1.52072">
        <ele>168.02865600586</ele>
        <time>2017-09-03T06:48:22.000Z</time>
      </trkpt>
      <trkpt lat="49.36362" lon="1.52065">
        <ele>168.07919311523</ele>
        <time>2017-09-03T06:48:25.000Z</time>
      </trkpt>
      <trkpt lat="49.36372" lon="1.52057">
        <ele>168.14491271973</ele>
        <time>2017-09-03T06:48:28.000Z</time>
      </trkpt>
      <trkpt lat="49.36379" lon="1.52052">
        <ele>168.22184753418</ele>
        <time>2017-09-03T06:48:30.000Z</time>
      </trkpt>
      <trkpt lat="49.36386" lon="1.52047">
        <ele>168.30130004883</ele>
        <time>2017-09-03T06:48:33.000Z</time>
      </trkpt>
      <trkpt lat="49.36388" lon="1.52044">
        <ele>168.35829162598</ele>
        <time>2017-09-03T06:48:35.000Z</time>
      </trkpt>
      <trkpt lat="49.36392" lon="1.5204">
        <ele>168.40251159668</ele>
        <time>2017-09-03T06:48:38.000Z</time>
      </trkpt>
      <trkpt lat="49.36399" lon="1.52033">
        <ele>168.4450378418</ele>
        <time>2017-09-03T06:48:41.000Z</time>
      </trkpt>
      <trkpt lat="49.36407" lon="1.52023">
        <ele>168.5029296875</ele>
        <time>2017-09-03T06:48:44.000Z</time>
      </trkpt>
      <trkpt lat="49.36412" lon="1.52015">
        <ele>168.57189941406</ele>
        <time>2017-09-03T06:48:46.000Z</time>
      </trkpt>
      <trkpt lat="49.36417" lon="1.52007">
        <ele>168.64910888672</ele>
        <time>2017-09-03T06:48:48.000Z</time>
      </trkpt>
      <trkpt lat="49.36422" lon="1.51998">
        <ele>168.71705627441</ele>
        <time>2017-09-03T06:48:50.000Z</time>
      </trkpt>
      <trkpt lat="49.36428" lon="1.51989">
        <ele>168.75810241699</ele>
        <time>2017-09-03T06:48:52.000Z</time>
      </trkpt>
      <trkpt lat="49.36439" lon="1.51975">
        <ele>168.74270629883</ele>
        <time>2017-09-03T06:48:55.000Z</time>
      </trkpt>
      <trkpt lat="49.36446" lon="1.51965">
        <ele>168.68942260742</ele>
        <time>2017-09-03T06:48:57.000Z</time>
      </trkpt>
      <trkpt lat="49.36456" lon="1.51951">
        <ele>168.61323547363</ele>
        <time>2017-09-03T06:49:00.000Z</time>
      </trkpt>
      <trkpt lat="49.36463" lon="1.51942">
        <ele>168.53164672852</ele>
        <time>2017-09-03T06:49:02.000Z</time>
      </trkpt>
      <trkpt lat="49.36475" lon="1.51926">
        <ele>168.46597290039</ele>
        <time>2017-09-03T06:49:05.000Z</time>
      </trkpt>
      <trkpt lat="49.36481" lon="1.51913">
        <ele>168.44506835938</ele>
        <time>2017-09-03T06:49:07.000Z</time>
      </trkpt>
      <trkpt lat="49.36489" lon="1.51902">
        <ele>168.42530822754</ele>
        <time>2017-09-03T06:49:10.000Z</time>
      </trkpt>
      <trkpt lat="49.36502" lon="1.51887">
        <ele>168.41247558594</ele>
        <time>2017-09-03T06:49:13.000Z</time>
      </trkpt>
      <trkpt lat="49.36508" lon="1.51875">
        <ele>168.4411315918</ele>
        <time>2017-09-03T06:49:15.000Z</time>
      </trkpt>
      <trkpt lat="49.36519" lon="1.51862">
        <ele>168.50503540039</ele>
        <time>2017-09-03T06:49:18.000Z</time>
      </trkpt>
      <trkpt lat="49.36526" lon="1.51857">
        <ele>168.57106018066</ele>
        <time>2017-09-03T06:49:20.000Z</time>
      </trkpt>
      <trkpt lat="49.36536" lon="1.51848">
        <ele>168.67346191406</ele>
        <time>2017-09-03T06:49:23.000Z</time>
      </trkpt>
      <trkpt lat="49.36542" lon="1.5184">
        <ele>168.79072570801</ele>
        <time>2017-09-03T06:49:25.000Z</time>
      </trkpt>
      <trkpt lat="49.36553" lon="1.5183">
        <ele>168.88565063477</ele>
        <time>2017-09-03T06:49:28.000Z</time>
      </trkpt>
      <trkpt lat="49.3656" lon="1.51824">
        <ele>168.95346069336</ele>
        <time>2017-09-03T06:49:30.000Z</time>
      </trkpt>
      <trkpt lat="49.36568" lon="1.51817">
        <ele>169.02348327637</ele>
        <time>2017-09-03T06:49:32.000Z</time>
      </trkpt>
      <trkpt lat="49.3658" lon="1.5181">
        <ele>169.09664916992</ele>
        <time>2017-09-03T06:49:35.000Z</time>
      </trkpt>
      <trkpt lat="49.3659" lon="1.51801">
        <ele>169.17607116699</ele>
        <time>2017-09-03T06:49:38.000Z</time>
      </trkpt>
      <trkpt lat="49.366" lon="1.51794">
        <ele>169.24594116211</ele>
        <time>2017-09-03T06:49:40.000Z</time>
      </trkpt>
      <trkpt lat="49.36612" lon="1.51786">
        <ele>169.30439758301</ele>
        <time>2017-09-03T06:49:43.000Z</time>
      </trkpt>
      <trkpt lat="49.36624" lon="1.51778">
        <ele>169.34098815918</ele>
        <time>2017-09-03T06:49:46.000Z</time>
      </trkpt>
      <trkpt lat="49.36632" lon="1.51774">
        <ele>169.3466796875</ele>
        <time>2017-09-03T06:49:48.000Z</time>
      </trkpt>
      <trkpt lat="49.36638" lon="1.5177">
        <ele>169.32783508301</ele>
        <time>2017-09-03T06:49:50.000Z</time>
      </trkpt>
      <trkpt lat="49.36648" lon="1.51761">
        <ele>169.29110717773</ele>
        <time>2017-09-03T06:49:53.000Z</time>
      </trkpt>
      <trkpt lat="49.3666" lon="1.51757">
        <ele>169.2307434082</ele>
        <time>2017-09-03T06:49:56.000Z</time>
      </trkpt>
      <trkpt lat="49.36669" lon="1.5175">
        <ele>169.13961791992</ele>
        <time>2017-09-03T06:49:58.000Z</time>
      </trkpt>
      <trkpt lat="49.36678" lon="1.51743">
        <ele>168.97506713867</ele>
        <time>2017-09-03T06:50:01.000Z</time>
      </trkpt>
      <trkpt lat="49.36687" lon="1.51736">
        <ele>168.72329711914</ele>
        <time>2017-09-03T06:50:04.000Z</time>
      </trkpt>
      <trkpt lat="49.36694" lon="1.51735">
        <ele>168.42362976074</ele>
        <time>2017-09-03T06:50:06.000Z</time>
      </trkpt>
      <trkpt lat="49.36705" lon="1.5173">
        <ele>168.04690551758</ele>
        <time>2017-09-03T06:50:09.000Z</time>
      </trkpt>
      <trkpt lat="49.3672" lon="1.51717">
        <ele>167.5546875</ele>
        <time>2017-09-03T06:50:12.000Z</time>
      </trkpt>
      <trkpt lat="49.36726" lon="1.51712">
        <ele>167.0859375</ele>
        <time>2017-09-03T06:50:14.000Z</time>
      </trkpt>
      <trkpt lat="49.36738" lon="1.51707">
        <ele>166.59765625</ele>
        <time>2017-09-03T06:50:17.000Z</time>
      </trkpt>
      <trkpt lat="49.36749" lon="1.517">
        <ele>166.0703125</ele>
        <time>2017-09-03T06:50:19.000Z</time>
      </trkpt>
      <trkpt lat="49.3676" lon="1.51693">
        <ele>165.69198608398</ele>
        <time>2017-09-03T06:50:22.000Z</time>
      </trkpt>
      <trkpt lat="49.3677" lon="1.51686">
        <ele>165.53160095215</ele>
        <time>2017-09-03T06:50:25.000Z</time>
      </trkpt>
      <trkpt lat="49.36777" lon="1.51683">
        <ele>165.47463989258</ele>
        <time>2017-09-03T06:50:27.000Z</time>
      </trkpt>
      <trkpt lat="49.36787" lon="1.51678">
        <ele>165.60308837891</ele>
        <time>2017-09-03T06:50:30.000Z</time>
      </trkpt>
      <trkpt lat="49.36792" lon="1.51674">
        <ele>165.87796020508</ele>
        <time>2017-09-03T06:50:32.000Z</time>
      </trkpt>
      <trkpt lat="49.36801" lon="1.51667">
        <ele>166.1842956543</ele>
        <time>2017-09-03T06:50:35.000Z</time>
      </trkpt>
      <trkpt lat="49.36806" lon="1.51664">
        <ele>166.48184204102</ele>
        <time>2017-09-03T06:50:37.000Z</time>
      </trkpt>
      <trkpt lat="49.36816" lon="1.51658">
        <ele>166.85260009766</ele>
        <time>2017-09-03T06:50:40.000Z</time>
      </trkpt>
      <trkpt lat="49.36823" lon="1.51653">
        <ele>167.23512268066</ele>
        <time>2017-09-03T06:50:42.000Z</time>
      </trkpt>
      <trkpt lat="49.36829" lon="1.51648">
        <ele>167.64799499512</ele>
        <time>2017-09-03T06:50:44.000Z</time>
      </trkpt>
      <trkpt lat="49.36838" lon="1.51642">
        <ele>168.05935668945</ele>
        <time>2017-09-03T06:50:47.000Z</time>
      </trkpt>
      <trkpt lat="49.36843" lon="1.51638">
        <ele>168.43417358398</ele>
        <time>2017-09-03T06:50:49.000Z</time>
      </trkpt>
      <trkpt lat="49.36847" lon="1.51635">
        <ele>168.70318603516</ele>
        <time>2017-09-03T06:50:51.000Z</time>
      </trkpt>
      <trkpt lat="49.36853" lon="1.51632">
        <ele>168.89721679688</ele>
        <time>2017-09-03T06:50:54.000Z</time>
      </trkpt>
      <trkpt lat="49.36859" lon="1.51626">
        <ele>169.03358459473</ele>
        <time>2017-09-03T06:50:57.000Z</time>
      </trkpt>
      <trkpt lat="49.36861" lon="1.51622">
        <ele>169.10385131836</ele>
        <time>2017-09-03T06:50:59.000Z</time>
      </trkpt>
      <trkpt lat="49.36864" lon="1.51617">
        <ele>169.16186523438</ele>
        <time>2017-09-03T06:51:02.000Z</time>
      </trkpt>
      <trkpt lat="49.36868" lon="1.51614">
        <ele>169.20565795898</ele>
        <time>2017-09-03T06:51:05.000Z</time>
      </trkpt>
      <trkpt lat="49.36871" lon="1.51606">
        <ele>169.24984741211</ele>
        <time>2017-09-03T06:51:08.000Z</time>
      </trkpt>
      <trkpt lat="49.36874" lon="1.51601">
        <ele>169.27896118164</ele>
        <time>2017-09-03T06:51:10.000Z</time>
      </trkpt>
      <trkpt lat="49.36877" lon="1.51596">
        <ele>169.28717041016</ele>
        <time>2017-09-03T06:51:12.000Z</time>
      </trkpt>
      <trkpt lat="49.36885" lon="1.51593">
        <ele>169.25019836426</ele>
        <time>2017-09-03T06:51:15.000Z</time>
      </trkpt>
      <trkpt lat="49.3689" lon="1.51592">
        <ele>169.18099975586</ele>
        <time>2017-09-03T06:51:17.000Z</time>
      </trkpt>
      <trkpt lat="49.36894" lon="1.51591">
        <ele>169.08016967773</ele>
        <time>2017-09-03T06:51:19.000Z</time>
      </trkpt>
      <trkpt lat="49.369" lon="1.51586">
        <ele>168.94143676758</ele>
        <time>2017-09-03T06:51:22.000Z</time>
      </trkpt>
      <trkpt lat="49.36903" lon="1.51584">
        <ele>168.78506469727</ele>
        <time>2017-09-03T06:51:24.000Z</time>
      </trkpt>
      <trkpt lat="49.36905" lon="1.51582">
        <ele>168.66421508789</ele>
        <time>2017-09-03T06:51:27.000Z</time>
      </trkpt>
      <trkpt lat="49.36905" lon="1.51582">
        <ele>168.66421508789</ele>
        <time>2017-09-03T06:51:37.000Z</time>
      </trkpt>
      <trkpt lat="49.36905" lon="1.51581">
        <ele>168.5909576416</ele>
        <time>2017-09-03T06:51:38.000Z</time>
      </trkpt>
      <trkpt lat="49.36908" lon="1.51578">
        <ele>168.54080200195</ele>
        <time>2017-09-03T06:51:40.000Z</time>
      </trkpt>
      <trkpt lat="49.36914" lon="1.51571">
        <ele>168.54861450195</ele>
        <time>2017-09-03T06:51:43.000Z</time>
      </trkpt>
      <trkpt lat="49.3692" lon="1.51565">
        <ele>168.60855102539</ele>
        <time>2017-09-03T06:51:45.000Z</time>
      </trkpt>
      <trkpt lat="49.36925" lon="1.51558">
        <ele>168.7063293457</ele>
        <time>2017-09-03T06:51:47.000Z</time>
      </trkpt>
      <trkpt lat="49.36933" lon="1.51547">
        <ele>168.82325744629</ele>
        <time>2017-09-03T06:51:50.000Z</time>
      </trkpt>
      <trkpt lat="49.36938" lon="1.5154">
        <ele>168.94819641113</ele>
        <time>2017-09-03T06:51:52.000Z</time>
      </trkpt>
      <trkpt lat="49.36946" lon="1.51528">
        <ele>169.04177856445</ele>
        <time>2017-09-03T06:51:55.000Z</time>
      </trkpt>
      <trkpt lat="49.36955" lon="1.51514">
        <ele>169.0719909668</ele>
        <time>2017-09-03T06:51:58.000Z</time>
      </trkpt>
      <trkpt lat="49.36964" lon="1.515">
        <ele>169.00155639648</ele>
        <time>2017-09-03T06:52:00.000Z</time>
      </trkpt>
      <trkpt lat="49.36974" lon="1.51481">
        <ele>168.88168334961</ele>
        <time>2017-09-03T06:52:03.000Z</time>
      </trkpt>
      <trkpt lat="49.36981" lon="1.51472">
        <ele>168.70462036133</ele>
        <time>2017-09-03T06:52:05.000Z</time>
      </trkpt>
      <trkpt lat="49.3699" lon="1.51462">
        <ele>168.47973632812</ele>
        <time>2017-09-03T06:52:07.000Z</time>
      </trkpt>
      <trkpt lat="49.36995" lon="1.51452">
        <ele>168.30264282227</ele>
        <time>2017-09-03T06:52:09.000Z</time>
      </trkpt>
      <trkpt lat="49.37012" lon="1.51439">
        <ele>168.10981750488</ele>
        <time>2017-09-03T06:52:12.000Z</time>
      </trkpt>
      <trkpt lat="49.37036" lon="1.51433">
        <ele>167.73603820801</ele>
        <time>2017-09-03T06:52:15.000Z</time>
      </trkpt>
      <trkpt lat="49.37044" lon="1.51429">
        <ele>167.33993530273</ele>
        <time>2017-09-03T06:52:17.000Z</time>
      </trkpt>
      <trkpt lat="49.37058" lon="1.51424">
        <ele>166.85343933105</ele>
        <time>2017-09-03T06:52:20.000Z</time>
      </trkpt>
      <trkpt lat="49.37072" lon="1.51418">
        <ele>166.18811035156</ele>
        <time>2017-09-03T06:52:23.000Z</time>
      </trkpt>
      <trkpt lat="49.37083" lon="1.51412">
        <ele>165.53691101074</ele>
        <time>2017-09-03T06:52:25.000Z</time>
      </trkpt>
      <trkpt lat="49.37091" lon="1.5141">
        <ele>165.00866699219</ele>
        <time>2017-09-03T06:52:27.000Z</time>
      </trkpt>
      <trkpt lat="49.37102" lon="1.51405">
        <ele>164.50898742676</ele>
        <time>2017-09-03T06:52:29.000Z</time>
      </trkpt>
      <trkpt lat="49.37108" lon="1.51403">
        <ele>164.0901184082</ele>
        <time>2017-09-03T06:52:31.000Z</time>
      </trkpt>
      <trkpt lat="49.37112" lon="1.51404">
        <ele>163.78471374512</ele>
        <time>2017-09-03T06:52:34.000Z</time>
      </trkpt>
      <trkpt lat="49.37112" lon="1.51406">
        <ele>163.51571655273</ele>
        <time>2017-09-03T06:52:37.000Z</time>
      </trkpt>
      <trkpt lat="49.37109" lon="1.51406">
        <ele>163.35243225098</ele>
        <time>2017-09-03T06:52:39.000Z</time>
      </trkpt>
      <trkpt lat="49.37108" lon="1.51406">
        <ele>163.25077819824</ele>
        <time>2017-09-03T06:52:43.000Z</time>
      </trkpt>
      <trkpt lat="49.37108" lon="1.514">
        <ele>163.30209350586</ele>
        <time>2017-09-03T06:52:46.000Z</time>
      </trkpt>
      <trkpt lat="49.37109" lon="1.51393">
        <ele>163.50076293945</ele>
        <time>2017-09-03T06:52:49.000Z</time>
      </trkpt>
      <trkpt lat="49.37112" lon="1.51388">
        <ele>163.75563049316</ele>
        <time>2017-09-03T06:52:51.000Z</time>
      </trkpt>
      <trkpt lat="49.37116" lon="1.51383">
        <ele>163.99151611328</ele>
        <time>2017-09-03T06:52:53.000Z</time>
      </trkpt>
      <trkpt lat="49.3712" lon="1.5138">
        <ele>164.19839477539</ele>
        <time>2017-09-03T06:52:55.000Z</time>
      </trkpt>
      <trkpt lat="49.37128" lon="1.51374">
        <ele>164.26405334473</ele>
        <time>2017-09-03T06:52:58.000Z</time>
      </trkpt>
      <trkpt lat="49.37132" lon="1.51368">
        <ele>164.25679016113</ele>
        <time>2017-09-03T06:53:00.000Z</time>
      </trkpt>
      <trkpt lat="49.37135" lon="1.51362">
        <ele>164.25410461426</ele>
        <time>2017-09-03T06:53:02.000Z</time>
      </trkpt>
      <trkpt lat="49.37137" lon="1.51356">
        <ele>164.26524353027</ele>
        <time>2017-09-03T06:53:04.000Z</time>
      </trkpt>
      <trkpt lat="49.37142" lon="1.51348">
        <ele>164.2985534668</ele>
        <time>2017-09-03T06:53:07.000Z</time>
      </trkpt>
      <trkpt lat="49.37146" lon="1.51342">
        <ele>164.38877868652</ele>
        <time>2017-09-03T06:53:09.000Z</time>
      </trkpt>
      <trkpt lat="49.37149" lon="1.51337">
        <ele>164.45303344727</ele>
        <time>2017-09-03T06:53:11.000Z</time>
      </trkpt>
      <trkpt lat="49.37152" lon="1.51332">
        <ele>164.50956726074</ele>
        <time>2017-09-03T06:53:13.000Z</time>
      </trkpt>
      <trkpt lat="49.37156" lon="1.51326">
        <ele>164.5933380127</ele>
        <time>2017-09-03T06:53:16.000Z</time>
      </trkpt>
      <trkpt lat="49.37161" lon="1.51319">
        <ele>164.73672485352</ele>
        <time>2017-09-03T06:53:19.000Z</time>
      </trkpt>
      <trkpt lat="49.37163" lon="1.51315">
        <ele>164.92239379883</ele>
        <time>2017-09-03T06:53:21.000Z</time>
      </trkpt>
      <trkpt lat="49.37167" lon="1.5131">
        <ele>165.17718505859</ele>
        <time>2017-09-03T06:53:24.000Z</time>
      </trkpt>
      <trkpt lat="49.37167" lon="1.51302">
        <ele>165.61247253418</ele>
        <time>2017-09-03T06:53:27.000Z</time>
      </trkpt>
      <trkpt lat="49.37167" lon="1.51296">
        <ele>166.12997436523</ele>
        <time>2017-09-03T06:53:29.000Z</time>
      </trkpt>
      <trkpt lat="49.37168" lon="1.5129">
        <ele>166.71537780762</ele>
        <time>2017-09-03T06:53:31.000Z</time>
      </trkpt>
      <trkpt lat="49.37168" lon="1.51282">
        <ele>167.44903564453</ele>
        <time>2017-09-03T06:53:34.000Z</time>
      </trkpt>
      <trkpt lat="49.37167" lon="1.51275">
        <ele>168.28509521484</ele>
        <time>2017-09-03T06:53:37.000Z</time>
      </trkpt>
      <trkpt lat="49.37165" lon="1.51268">
        <ele>169.10171508789</ele>
        <time>2017-09-03T06:53:40.000Z</time>
      </trkpt>
      <trkpt lat="49.37164" lon="1.51261">
        <ele>169.97360229492</ele>
        <time>2017-09-03T06:53:43.000Z</time>
      </trkpt>
      <trkpt lat="49.37163" lon="1.51252">
        <ele>170.91435241699</ele>
        <time>2017-09-03T06:53:46.000Z</time>
      </trkpt>
      <trkpt lat="49.3716" lon="1.51245">
        <ele>171.76661682129</ele>
        <time>2017-09-03T06:53:48.000Z</time>
      </trkpt>
      <trkpt lat="49.37158" lon="1.51239">
        <ele>172.51016235352</ele>
        <time>2017-09-03T06:53:50.000Z</time>
      </trkpt>
      <trkpt lat="49.37155" lon="1.51232">
        <ele>173.1374206543</ele>
        <time>2017-09-03T06:53:53.000Z</time>
      </trkpt>
      <trkpt lat="49.37152" lon="1.51227">
        <ele>173.6185760498</ele>
        <time>2017-09-03T06:53:55.000Z</time>
      </trkpt>
      <trkpt lat="49.3715" lon="1.51222">
        <ele>173.92892456055</ele>
        <time>2017-09-03T06:53:57.000Z</time>
      </trkpt>
      <trkpt lat="49.37146" lon="1.51213">
        <ele>174.20585632324</ele>
        <time>2017-09-03T06:54:00.000Z</time>
      </trkpt>
      <trkpt lat="49.37143" lon="1.51206">
        <ele>174.47123718262</ele>
        <time>2017-09-03T06:54:02.000Z</time>
      </trkpt>
      <trkpt lat="49.37137" lon="1.51198">
        <ele>174.72616577148</ele>
        <time>2017-09-03T06:54:05.000Z</time>
      </trkpt>
      <trkpt lat="49.37133" lon="1.51191">
        <ele>174.9810333252</ele>
        <time>2017-09-03T06:54:09.000Z</time>
      </trkpt>
      <trkpt lat="49.37126" lon="1.51183">
        <ele>175.23919677734</ele>
        <time>2017-09-03T06:54:11.000Z</time>
      </trkpt>
      <trkpt lat="49.37122" lon="1.51174">
        <ele>175.46337890625</ele>
        <time>2017-09-03T06:54:14.000Z</time>
      </trkpt>
      <trkpt lat="49.37117" lon="1.51163">
        <ele>175.68218994141</ele>
        <time>2017-09-03T06:54:17.000Z</time>
      </trkpt>
      <trkpt lat="49.37113" lon="1.51157">
        <ele>175.86851501465</ele>
        <time>2017-09-03T06:54:19.000Z</time>
      </trkpt>
      <trkpt lat="49.37109" lon="1.5115">
        <ele>176.03814697266</ele>
        <time>2017-09-03T06:54:22.000Z</time>
      </trkpt>
      <trkpt lat="49.37107" lon="1.51146">
        <ele>176.18478393555</ele>
        <time>2017-09-03T06:54:24.000Z</time>
      </trkpt>
      <trkpt lat="49.37104" lon="1.5114">
        <ele>176.32217407227</ele>
        <time>2017-09-03T06:54:26.000Z</time>
      </trkpt>
      <trkpt lat="49.371" lon="1.51129">
        <ele>176.47088623047</ele>
        <time>2017-09-03T06:54:29.000Z</time>
      </trkpt>
      <trkpt lat="49.37097" lon="1.51121">
        <ele>176.63073730469</ele>
        <time>2017-09-03T06:54:31.000Z</time>
      </trkpt>
      <trkpt lat="49.37091" lon="1.51113">
        <ele>176.80960083008</ele>
        <time>2017-09-03T06:54:34.000Z</time>
      </trkpt>
      <trkpt lat="49.37087" lon="1.51104">
        <ele>177.01765441895</ele>
        <time>2017-09-03T06:54:37.000Z</time>
      </trkpt>
      <trkpt lat="49.37082" lon="1.51092">
        <ele>177.26156616211</ele>
        <time>2017-09-03T06:54:40.000Z</time>
      </trkpt>
      <trkpt lat="49.37077" lon="1.51081">
        <ele>177.49842834473</ele>
        <time>2017-09-03T06:54:43.000Z</time>
      </trkpt>
      <trkpt lat="49.37073" lon="1.51078">
        <ele>177.70028686523</ele>
        <time>2017-09-03T06:54:45.000Z</time>
      </trkpt>
      <trkpt lat="49.37067" lon="1.51071">
        <ele>177.86000061035</ele>
        <time>2017-09-03T06:54:48.000Z</time>
      </trkpt>
      <trkpt lat="49.37062" lon="1.51062">
        <ele>177.97924804688</ele>
        <time>2017-09-03T06:54:50.000Z</time>
      </trkpt>
      <trkpt lat="49.37053" lon="1.5105">
        <ele>178.05081176758</ele>
        <time>2017-09-03T06:54:53.000Z</time>
      </trkpt>
      <trkpt lat="49.37047" lon="1.51042">
        <ele>178.09365844727</ele>
        <time>2017-09-03T06:54:55.000Z</time>
      </trkpt>
      <trkpt lat="49.37038" lon="1.51031">
        <ele>178.16023254395</ele>
        <time>2017-09-03T06:54:58.000Z</time>
      </trkpt>
      <trkpt lat="49.37032" lon="1.51023">
        <ele>178.24276733398</ele>
        <time>2017-09-03T06:55:00.000Z</time>
      </trkpt>
      <trkpt lat="49.37024" lon="1.51012">
        <ele>178.34979248047</ele>
        <time>2017-09-03T06:55:03.000Z</time>
      </trkpt>
      <trkpt lat="49.37019" lon="1.51002">
        <ele>178.47160339355</ele>
        <time>2017-09-03T06:55:06.000Z</time>
      </trkpt>
      <trkpt lat="49.37015" lon="1.50992">
        <ele>178.60305786133</ele>
        <time>2017-09-03T06:55:09.000Z</time>
      </trkpt>
      <trkpt lat="49.37011" lon="1.50987">
        <ele>178.73849487305</ele>
        <time>2017-09-03T06:55:11.000Z</time>
      </trkpt>
      <trkpt lat="49.37003" lon="1.50977">
        <ele>178.93650817871</ele>
        <time>2017-09-03T06:55:14.000Z</time>
      </trkpt>
      <trkpt lat="49.36999" lon="1.5097">
        <ele>179.1633605957</ele>
        <time>2017-09-03T06:55:16.000Z</time>
      </trkpt>
      <trkpt lat="49.36992" lon="1.50958">
        <ele>179.44274902344</ele>
        <time>2017-09-03T06:55:19.000Z</time>
      </trkpt>
      <trkpt lat="49.36985" lon="1.50947">
        <ele>179.77993774414</ele>
        <time>2017-09-03T06:55:22.000Z</time>
      </trkpt>
      <trkpt lat="49.36979" lon="1.50936">
        <ele>180.17051696777</ele>
        <time>2017-09-03T06:55:25.000Z</time>
      </trkpt>
      <trkpt lat="49.36975" lon="1.50929">
        <ele>180.53515625</ele>
        <time>2017-09-03T06:55:27.000Z</time>
      </trkpt>
      <trkpt lat="49.36971" lon="1.50921">
        <ele>180.90196228027</ele>
        <time>2017-09-03T06:55:29.000Z</time>
      </trkpt>
      <trkpt lat="49.36963" lon="1.50907">
        <ele>181.24722290039</ele>
        <time>2017-09-03T06:55:32.000Z</time>
      </trkpt>
      <trkpt lat="49.36958" lon="1.50898">
        <ele>181.53959655762</ele>
        <time>2017-09-03T06:55:34.000Z</time>
      </trkpt>
      <trkpt lat="49.36948" lon="1.50888">
        <ele>181.81301879883</ele>
        <time>2017-09-03T06:55:37.000Z</time>
      </trkpt>
      <trkpt lat="49.36942" lon="1.50876">
        <ele>182.08059692383</ele>
        <time>2017-09-03T06:55:40.000Z</time>
      </trkpt>
      <trkpt lat="49.36938" lon="1.50868">
        <ele>182.32360839844</ele>
        <time>2017-09-03T06:55:42.000Z</time>
      </trkpt>
      <trkpt lat="49.36933" lon="1.50857">
        <ele>182.5549621582</ele>
        <time>2017-09-03T06:55:45.000Z</time>
      </trkpt>
      <trkpt lat="49.36927" lon="1.50846">
        <ele>182.82388305664</ele>
        <time>2017-09-03T06:55:48.000Z</time>
      </trkpt>
      <trkpt lat="49.36923" lon="1.5084">
        <ele>183.08222961426</ele>
        <time>2017-09-03T06:55:50.000Z</time>
      </trkpt>
      <trkpt lat="49.3692" lon="1.5083">
        <ele>183.33268737793</ele>
        <time>2017-09-03T06:55:53.000Z</time>
      </trkpt>
      <trkpt lat="49.36918" lon="1.50825">
        <ele>183.56468200684</ele>
        <time>2017-09-03T06:55:55.000Z</time>
      </trkpt>
      <trkpt lat="49.36915" lon="1.5082">
        <ele>183.76705932617</ele>
        <time>2017-09-03T06:55:57.000Z</time>
      </trkpt>
      <trkpt lat="49.36913" lon="1.50816">
        <ele>183.91677856445</ele>
        <time>2017-09-03T06:55:59.000Z</time>
      </trkpt>
      <trkpt lat="49.36913" lon="1.50812">
        <ele>184.01322937012</ele>
        <time>2017-09-03T06:56:01.000Z</time>
      </trkpt>
      <trkpt lat="49.36913" lon="1.50805">
        <ele>184.07095336914</ele>
        <time>2017-09-03T06:56:04.000Z</time>
      </trkpt>
      <trkpt lat="49.36911" lon="1.50799">
        <ele>184.11836242676</ele>
        <time>2017-09-03T06:56:07.000Z</time>
      </trkpt>
      <trkpt lat="49.36908" lon="1.50794">
        <ele>184.15922546387</ele>
        <time>2017-09-03T06:56:09.000Z</time>
      </trkpt>
      <trkpt lat="49.36902" lon="1.50782">
        <ele>184.2209777832</ele>
        <time>2017-09-03T06:56:12.000Z</time>
      </trkpt>
      <trkpt lat="49.36893" lon="1.5077">
        <ele>184.32600402832</ele>
        <time>2017-09-03T06:56:15.000Z</time>
      </trkpt>
      <trkpt lat="49.36885" lon="1.5076">
        <ele>184.45903015137</ele>
        <time>2017-09-03T06:56:18.000Z</time>
      </trkpt>
      <trkpt lat="49.36881" lon="1.50754">
        <ele>184.59687805176</ele>
        <time>2017-09-03T06:56:20.000Z</time>
      </trkpt>
      <trkpt lat="49.36878" lon="1.50745">
        <ele>184.74406433105</ele>
        <time>2017-09-03T06:56:22.000Z</time>
      </trkpt>
      <trkpt lat="49.36869" lon="1.50731">
        <ele>184.93460083008</ele>
        <time>2017-09-03T06:56:25.000Z</time>
      </trkpt>
      <trkpt lat="49.36862" lon="1.50723">
        <ele>185.13403320312</ele>
        <time>2017-09-03T06:56:27.000Z</time>
      </trkpt>
      <trkpt lat="49.36855" lon="1.50716">
        <ele>185.35006713867</ele>
        <time>2017-09-03T06:56:29.000Z</time>
      </trkpt>
      <trkpt lat="49.36849" lon="1.50706">
        <ele>185.60559082031</ele>
        <time>2017-09-03T06:56:31.000Z</time>
      </trkpt>
      <trkpt lat="49.36838" lon="1.50693">
        <ele>185.92504882812</ele>
        <time>2017-09-03T06:56:34.000Z</time>
      </trkpt>
      <trkpt lat="49.3683" lon="1.50681">
        <ele>186.24336242676</ele>
        <time>2017-09-03T06:56:37.000Z</time>
      </trkpt>
      <trkpt lat="49.36824" lon="1.50669">
        <ele>186.60292053223</ele>
        <time>2017-09-03T06:56:40.000Z</time>
      </trkpt>
      <trkpt lat="49.36818" lon="1.50657">
        <ele>186.99642944336</ele>
        <time>2017-09-03T06:56:43.000Z</time>
      </trkpt>
      <trkpt lat="49.36811" lon="1.50645">
        <ele>187.42849731445</ele>
        <time>2017-09-03T06:56:46.000Z</time>
      </trkpt>
      <trkpt lat="49.36806" lon="1.50636">
        <ele>187.84101867676</ele>
        <time>2017-09-03T06:56:48.000Z</time>
      </trkpt>
      <trkpt lat="49.36799" lon="1.50624">
        <ele>188.28153991699</ele>
        <time>2017-09-03T06:56:51.000Z</time>
      </trkpt>
      <trkpt lat="49.36794" lon="1.50614">
        <ele>188.69802856445</ele>
        <time>2017-09-03T06:56:53.000Z</time>
      </trkpt>
      <trkpt lat="49.36788" lon="1.50605">
        <ele>189.10726928711</ele>
        <time>2017-09-03T06:56:55.000Z</time>
      </trkpt>
      <trkpt lat="49.3678" lon="1.50594">
        <ele>189.52890014648</ele>
        <time>2017-09-03T06:56:58.000Z</time>
      </trkpt>
      <trkpt lat="49.36775" lon="1.50587">
        <ele>189.9515838623</ele>
        <time>2017-09-03T06:57:00.000Z</time>
      </trkpt>
      <trkpt lat="49.36769" lon="1.50574">
        <ele>190.28715515137</ele>
        <time>2017-09-03T06:57:03.000Z</time>
      </trkpt>
      <trkpt lat="49.36764" lon="1.50566">
        <ele>190.54779052734</ele>
        <time>2017-09-03T06:57:05.000Z</time>
      </trkpt>
      <trkpt lat="49.36756" lon="1.50555">
        <ele>190.72222900391</ele>
        <time>2017-09-03T06:57:08.000Z</time>
      </trkpt>
      <trkpt lat="49.36751" lon="1.50547">
        <ele>190.77163696289</ele>
        <time>2017-09-03T06:57:10.000Z</time>
      </trkpt>
      <trkpt lat="49.36746" lon="1.50539">
        <ele>190.68795776367</ele>
        <time>2017-09-03T06:57:12.000Z</time>
      </trkpt>
      <trkpt lat="49.36739" lon="1.50527">
        <ele>190.49697875977</ele>
        <time>2017-09-03T06:57:15.000Z</time>
      </trkpt>
      <trkpt lat="49.36735" lon="1.5052">
        <ele>190.25875854492</ele>
        <time>2017-09-03T06:57:17.000Z</time>
      </trkpt>
      <trkpt lat="49.36729" lon="1.50508">
        <ele>189.95286560059</ele>
        <time>2017-09-03T06:57:20.000Z</time>
      </trkpt>
      <trkpt lat="49.36724" lon="1.50499">
        <ele>189.61906433105</ele>
        <time>2017-09-03T06:57:22.000Z</time>
      </trkpt>
      <trkpt lat="49.36719" lon="1.5049">
        <ele>189.33283996582</ele>
        <time>2017-09-03T06:57:24.000Z</time>
      </trkpt>
      <trkpt lat="49.36712" lon="1.50476">
        <ele>189.10215759277</ele>
        <time>2017-09-03T06:57:27.000Z</time>
      </trkpt>
      <trkpt lat="49.36708" lon="1.50467">
        <ele>188.89549255371</ele>
        <time>2017-09-03T06:57:29.000Z</time>
      </trkpt>
      <trkpt lat="49.36702" lon="1.50457">
        <ele>188.73165893555</ele>
        <time>2017-09-03T06:57:31.000Z</time>
      </trkpt>
      <trkpt lat="49.36694" lon="1.50444">
        <ele>188.55114746094</ele>
        <time>2017-09-03T06:57:34.000Z</time>
      </trkpt>
      <trkpt lat="49.36689" lon="1.50436">
        <ele>188.34396362305</ele>
        <time>2017-09-03T06:57:36.000Z</time>
      </trkpt>
      <trkpt lat="49.36683" lon="1.50427">
        <ele>188.11282348633</ele>
        <time>2017-09-03T06:57:38.000Z</time>
      </trkpt>
      <trkpt lat="49.36676" lon="1.50415">
        <ele>187.84403991699</ele>
        <time>2017-09-03T06:57:41.000Z</time>
      </trkpt>
      <trkpt lat="49.36682" lon="1.50415">
        <ele>187.63772583008</ele>
        <time>2017-09-03T06:57:44.000Z</time>
      </trkpt>
      <trkpt lat="49.36688" lon="1.50418">
        <ele>187.52690124512</ele>
        <time>2017-09-03T06:57:46.000Z</time>
      </trkpt>
      <trkpt lat="49.36694" lon="1.50418">
        <ele>187.48458862305</ele>
        <time>2017-09-03T06:57:48.000Z</time>
      </trkpt>
      <trkpt lat="49.36697" lon="1.50417">
        <ele>187.5163269043</ele>
        <time>2017-09-03T06:57:50.000Z</time>
      </trkpt>
      <trkpt lat="49.36703" lon="1.50415">
        <ele>187.64413452148</ele>
        <time>2017-09-03T06:57:53.000Z</time>
      </trkpt>
      <trkpt lat="49.36708" lon="1.50416">
        <ele>187.76708984375</ele>
        <time>2017-09-03T06:57:56.000Z</time>
      </trkpt>
      <trkpt lat="49.36712" lon="1.50417">
        <ele>187.87535095215</ele>
        <time>2017-09-03T06:57:58.000Z</time>
      </trkpt>
      <trkpt lat="49.36718" lon="1.50412">
        <ele>187.99867248535</ele>
        <time>2017-09-03T06:58:01.000Z</time>
      </trkpt>
      <trkpt lat="49.36722" lon="1.50408">
        <ele>188.13607788086</ele>
        <time>2017-09-03T06:58:04.000Z</time>
      </trkpt>
      <trkpt lat="49.36728" lon="1.50406">
        <ele>188.27648925781</ele>
        <time>2017-09-03T06:58:07.000Z</time>
      </trkpt>
      <trkpt lat="49.36736" lon="1.50408">
        <ele>188.42807006836</ele>
        <time>2017-09-03T06:58:10.000Z</time>
      </trkpt>
      <trkpt lat="49.36742" lon="1.50406">
        <ele>188.59945678711</ele>
        <time>2017-09-03T06:58:12.000Z</time>
      </trkpt>
      <trkpt lat="49.36751" lon="1.50401">
        <ele>188.77822875977</ele>
        <time>2017-09-03T06:58:15.000Z</time>
      </trkpt>
      <trkpt lat="49.36759" lon="1.50396">
        <ele>188.92597961426</ele>
        <time>2017-09-03T06:58:18.000Z</time>
      </trkpt>
      <trkpt lat="49.36764" lon="1.50394">
        <ele>189.03713989258</ele>
        <time>2017-09-03T06:58:20.000Z</time>
      </trkpt>
      <trkpt lat="49.36772" lon="1.50393">
        <ele>189.10539245605</ele>
        <time>2017-09-03T06:58:23.000Z</time>
      </trkpt>
      <trkpt lat="49.36777" lon="1.50389">
        <ele>189.140625</ele>
        <time>2017-09-03T06:58:26.000Z</time>
      </trkpt>
      <trkpt lat="49.36781" lon="1.50386">
        <ele>189.1312713623</ele>
        <time>2017-09-03T06:58:29.000Z</time>
      </trkpt>
      <trkpt lat="49.36788" lon="1.50383">
        <ele>189.12321472168</ele>
        <time>2017-09-03T06:58:32.000Z</time>
      </trkpt>
      <trkpt lat="49.36796" lon="1.50378">
        <ele>189.1262512207</ele>
        <time>2017-09-03T06:58:35.000Z</time>
      </trkpt>
      <trkpt lat="49.36803" lon="1.50376">
        <ele>189.13858032227</ele>
        <time>2017-09-03T06:58:38.000Z</time>
      </trkpt>
      <trkpt lat="49.36813" lon="1.50374">
        <ele>189.14430236816</ele>
        <time>2017-09-03T06:58:41.000Z</time>
      </trkpt>
      <trkpt lat="49.36821" lon="1.50371">
        <ele>189.15188598633</ele>
        <time>2017-09-03T06:58:43.000Z</time>
      </trkpt>
      <trkpt lat="49.3683" lon="1.50367">
        <ele>189.16787719727</ele>
        <time>2017-09-03T06:58:46.000Z</time>
      </trkpt>
      <trkpt lat="49.36842" lon="1.50363">
        <ele>189.08953857422</ele>
        <time>2017-09-03T06:58:49.000Z</time>
      </trkpt>
      <trkpt lat="49.36858" lon="1.50355">
        <ele>188.84939575195</ele>
        <time>2017-09-03T06:58:52.000Z</time>
      </trkpt>
      <trkpt lat="49.36877" lon="1.50349">
        <ele>188.37077331543</ele>
        <time>2017-09-03T06:58:55.000Z</time>
      </trkpt>
      <trkpt lat="49.36898" lon="1.5035">
        <ele>187.61672973633</ele>
        <time>2017-09-03T06:58:58.000Z</time>
      </trkpt>
      <trkpt lat="49.36909" lon="1.5037">
        <ele>186.74273681641</ele>
        <time>2017-09-03T06:59:01.000Z</time>
      </trkpt>
      <trkpt lat="49.3692" lon="1.50397">
        <ele>185.91250610352</ele>
        <time>2017-09-03T06:59:04.000Z</time>
      </trkpt>
      <trkpt lat="49.36927" lon="1.50417">
        <ele>185.22457885742</ele>
        <time>2017-09-03T06:59:06.000Z</time>
      </trkpt>
      <trkpt lat="49.36938" lon="1.50444">
        <ele>184.71105957031</ele>
        <time>2017-09-03T06:59:09.000Z</time>
      </trkpt>
      <trkpt lat="49.36948" lon="1.50451">
        <ele>184.34353637695</ele>
        <time>2017-09-03T06:59:11.000Z</time>
      </trkpt>
      <trkpt lat="49.36961" lon="1.50455">
        <ele>183.89242553711</ele>
        <time>2017-09-03T06:59:14.000Z</time>
      </trkpt>
      <trkpt lat="49.36969" lon="1.50452">
        <ele>183.37606811523</ele>
        <time>2017-09-03T06:59:16.000Z</time>
      </trkpt>
      <trkpt lat="49.36977" lon="1.50446">
        <ele>182.7698059082</ele>
        <time>2017-09-03T06:59:18.000Z</time>
      </trkpt>
      <trkpt lat="49.36987" lon="1.50438">
        <ele>182.15197753906</ele>
        <time>2017-09-03T06:59:20.000Z</time>
      </trkpt>
      <trkpt lat="49.36998" lon="1.50415">
        <ele>181.66452026367</ele>
        <time>2017-09-03T06:59:23.000Z</time>
      </trkpt>
      <trkpt lat="49.37004" lon="1.50388">
        <ele>181.17239379883</ele>
        <time>2017-09-03T06:59:26.000Z</time>
      </trkpt>
      <trkpt lat="49.37011" lon="1.50362">
        <ele>180.53721618652</ele>
        <time>2017-09-03T06:59:29.000Z</time>
      </trkpt>
      <trkpt lat="49.37016" lon="1.50343">
        <ele>179.8286895752</ele>
        <time>2017-09-03T06:59:31.000Z</time>
      </trkpt>
      <trkpt lat="49.37018" lon="1.50323">
        <ele>179.04843139648</ele>
        <time>2017-09-03T06:59:33.000Z</time>
      </trkpt>
      <trkpt lat="49.37015" lon="1.50296">
        <ele>178.16213989258</ele>
        <time>2017-09-03T06:59:36.000Z</time>
      </trkpt>
      <trkpt lat="49.37014" lon="1.50275">
        <ele>177.33598327637</ele>
        <time>2017-09-03T06:59:38.000Z</time>
      </trkpt>
      <trkpt lat="49.37014" lon="1.50255">
        <ele>176.64407348633</ele>
        <time>2017-09-03T06:59:41.000Z</time>
      </trkpt>
      <trkpt lat="49.37013" lon="1.50241">
        <ele>176.06188964844</ele>
        <time>2017-09-03T06:59:44.000Z</time>
      </trkpt>
      <trkpt lat="49.37015" lon="1.50229">
        <ele>175.49404907227</ele>
        <time>2017-09-03T06:59:47.000Z</time>
      </trkpt>
      <trkpt lat="49.37015" lon="1.50225">
        <ele>175.00633239746</ele>
        <time>2017-09-03T06:59:49.000Z</time>
      </trkpt>
      <trkpt lat="49.37015" lon="1.50227">
        <ele>174.66702270508</ele>
        <time>2017-09-03T06:59:52.000Z</time>
      </trkpt>
      <trkpt lat="49.37014" lon="1.5023">
        <ele>174.49728393555</ele>
        <time>2017-09-03T06:59:54.000Z</time>
      </trkpt>
      <trkpt lat="49.37013" lon="1.50232">
        <ele>174.46444702148</ele>
        <time>2017-09-03T06:59:57.000Z</time>
      </trkpt>
      <trkpt lat="49.37013" lon="1.50232">
        <ele>174.46444702148</ele>
        <time>2017-09-03T07:00:07.000Z</time>
      </trkpt>
      <trkpt lat="49.37015" lon="1.50228">
        <ele>174.45910644531</ele>
        <time>2017-09-03T07:01:26.000Z</time>
      </trkpt>
      <trkpt lat="49.37017" lon="1.50226">
        <ele>174.39436340332</ele>
        <time>2017-09-03T07:01:29.000Z</time>
      </trkpt>
      <trkpt lat="49.37016" lon="1.50222">
        <ele>174.35069274902</ele>
        <time>2017-09-03T07:01:31.000Z</time>
      </trkpt>
      <trkpt lat="49.37012" lon="1.50215">
        <ele>174.37088012695</ele>
        <time>2017-09-03T07:01:34.000Z</time>
      </trkpt>
      <trkpt lat="49.37009" lon="1.50207">
        <ele>174.40446472168</ele>
        <time>2017-09-03T07:01:37.000Z</time>
      </trkpt>
      <trkpt lat="49.37007" lon="1.50199">
        <ele>174.57926940918</ele>
        <time>2017-09-03T07:01:39.000Z</time>
      </trkpt>
      <trkpt lat="49.37004" lon="1.50187">
        <ele>174.91523742676</ele>
        <time>2017-09-03T07:01:42.000Z</time>
      </trkpt>
      <trkpt lat="49.37" lon="1.50179">
        <ele>175.34648132324</ele>
        <time>2017-09-03T07:01:44.000Z</time>
      </trkpt>
      <trkpt lat="49.36998" lon="1.50172">
        <ele>175.6732635498</ele>
        <time>2017-09-03T07:01:46.000Z</time>
      </trkpt>
      <trkpt lat="49.36997" lon="1.5016">
        <ele>175.90536499023</ele>
        <time>2017-09-03T07:01:49.000Z</time>
      </trkpt>
      <trkpt lat="49.36996" lon="1.50152">
        <ele>176.10371398926</ele>
        <time>2017-09-03T07:01:51.000Z</time>
      </trkpt>
      <trkpt lat="49.36995" lon="1.50144">
        <ele>176.22653198242</ele>
        <time>2017-09-03T07:01:53.000Z</time>
      </trkpt>
      <trkpt lat="49.36992" lon="1.50133">
        <ele>176.25619506836</ele>
        <time>2017-09-03T07:01:56.000Z</time>
      </trkpt>
      <trkpt lat="49.3699" lon="1.50124">
        <ele>176.29800415039</ele>
        <time>2017-09-03T07:01:58.000Z</time>
      </trkpt>
      <trkpt lat="49.36989" lon="1.50114">
        <ele>176.36161804199</ele>
        <time>2017-09-03T07:02:01.000Z</time>
      </trkpt>
      <trkpt lat="49.36988" lon="1.50107">
        <ele>176.42835998535</ele>
        <time>2017-09-03T07:02:03.000Z</time>
      </trkpt>
      <trkpt lat="49.36985" lon="1.50093">
        <ele>176.53028869629</ele>
        <time>2017-09-03T07:02:06.000Z</time>
      </trkpt>
      <trkpt lat="49.36982" lon="1.5008">
        <ele>176.62588500977</ele>
        <time>2017-09-03T07:02:09.000Z</time>
      </trkpt>
      <trkpt lat="49.36981" lon="1.50072">
        <ele>176.67753601074</ele>
        <time>2017-09-03T07:02:11.000Z</time>
      </trkpt>
      <trkpt lat="49.36978" lon="1.50061">
        <ele>176.73846435547</ele>
        <time>2017-09-03T07:02:14.000Z</time>
      </trkpt>
      <trkpt lat="49.36974" lon="1.50048">
        <ele>176.83819580078</ele>
        <time>2017-09-03T07:02:17.000Z</time>
      </trkpt>
      <trkpt lat="49.36973" lon="1.5004">
        <ele>176.9091796875</ele>
        <time>2017-09-03T07:02:19.000Z</time>
      </trkpt>
      <trkpt lat="49.36972" lon="1.50031">
        <ele>176.93934631348</ele>
        <time>2017-09-03T07:02:22.000Z</time>
      </trkpt>
      <trkpt lat="49.36968" lon="1.5002">
        <ele>177.05297851562</ele>
        <time>2017-09-03T07:02:25.000Z</time>
      </trkpt>
      <trkpt lat="49.36966" lon="1.50012">
        <ele>177.18336486816</ele>
        <time>2017-09-03T07:02:27.000Z</time>
      </trkpt>
      <trkpt lat="49.36964" lon="1.5">
        <ele>177.29257202148</ele>
        <time>2017-09-03T07:02:30.000Z</time>
      </trkpt>
      <trkpt lat="49.36961" lon="1.4999">
        <ele>177.36483764648</ele>
        <time>2017-09-03T07:02:32.000Z</time>
      </trkpt>
      <trkpt lat="49.36956" lon="1.49978">
        <ele>177.4626159668</ele>
        <time>2017-09-03T07:02:35.000Z</time>
      </trkpt>
      <trkpt lat="49.36953" lon="1.49972">
        <ele>177.50918579102</ele>
        <time>2017-09-03T07:02:37.000Z</time>
      </trkpt>
      <trkpt lat="49.36948" lon="1.49962">
        <ele>177.54057312012</ele>
        <time>2017-09-03T07:02:40.000Z</time>
      </trkpt>
      <trkpt lat="49.36944" lon="1.49956">
        <ele>177.6240234375</ele>
        <time>2017-09-03T07:02:42.000Z</time>
      </trkpt>
      <trkpt lat="49.36941" lon="1.49951">
        <ele>177.75967407227</ele>
        <time>2017-09-03T07:02:44.000Z</time>
      </trkpt>
      <trkpt lat="49.36937" lon="1.49946">
        <ele>177.96624755859</ele>
        <time>2017-09-03T07:02:47.000Z</time>
      </trkpt>
      <trkpt lat="49.36934" lon="1.49944">
        <ele>178.20860290527</ele>
        <time>2017-09-03T07:02:49.000Z</time>
      </trkpt>
      <trkpt lat="49.36933" lon="1.49939">
        <ele>178.42211914062</ele>
        <time>2017-09-03T07:02:52.000Z</time>
      </trkpt>
      <trkpt lat="49.36932" lon="1.49937">
        <ele>178.56466674805</ele>
        <time>2017-09-03T07:02:54.000Z</time>
      </trkpt>
      <trkpt lat="49.36931" lon="1.49936">
        <ele>178.69862365723</ele>
        <time>2017-09-03T07:02:57.000Z</time>
      </trkpt>
      <trkpt lat="49.36929" lon="1.49936">
        <ele>178.81703186035</ele>
        <time>2017-09-03T07:03:00.000Z</time>
      </trkpt>
      <trkpt lat="49.36926" lon="1.49936">
        <ele>178.97401428223</ele>
        <time>2017-09-03T07:03:12.000Z</time>
      </trkpt>
      <trkpt lat="49.36929" lon="1.49929">
        <ele>178.95906066895</ele>
        <time>2017-09-03T07:03:15.000Z</time>
      </trkpt>
      <trkpt lat="49.3694" lon="1.49923">
        <ele>178.52621459961</ele>
        <time>2017-09-03T07:03:18.000Z</time>
      </trkpt>
      <trkpt lat="49.36952" lon="1.49921">
        <ele>177.64169311523</ele>
        <time>2017-09-03T07:03:21.000Z</time>
      </trkpt>
      <trkpt lat="49.36962" lon="1.49919">
        <ele>176.3374786377</ele>
        <time>2017-09-03T07:03:23.000Z</time>
      </trkpt>
      <trkpt lat="49.36976" lon="1.49914">
        <ele>174.42526245117</ele>
        <time>2017-09-03T07:03:26.000Z</time>
      </trkpt>
      <trkpt lat="49.36983" lon="1.49909">
        <ele>172.4873046875</ele>
        <time>2017-09-03T07:03:28.000Z</time>
      </trkpt>
      <trkpt lat="49.36991" lon="1.49907">
        <ele>170.71586608887</ele>
        <time>2017-09-03T07:03:30.000Z</time>
      </trkpt>
      <trkpt lat="49.37004" lon="1.49903">
        <ele>168.91659545898</ele>
        <time>2017-09-03T07:03:33.000Z</time>
      </trkpt>
      <trkpt lat="49.37013" lon="1.49903">
        <ele>167.06011962891</ele>
        <time>2017-09-03T07:03:35.000Z</time>
      </trkpt>
      <trkpt lat="49.37021" lon="1.49897">
        <ele>165.35415649414</ele>
        <time>2017-09-03T07:03:38.000Z</time>
      </trkpt>
      <trkpt lat="49.37036" lon="1.49893">
        <ele>163.15419006348</ele>
        <time>2017-09-03T07:03:41.000Z</time>
      </trkpt>
      <trkpt lat="49.37047" lon="1.4989">
        <ele>160.68734741211</ele>
        <time>2017-09-03T07:03:43.000Z</time>
      </trkpt>
      <trkpt lat="49.37061" lon="1.49886">
        <ele>157.96890258789</ele>
        <time>2017-09-03T07:03:46.000Z</time>
      </trkpt>
      <trkpt lat="49.37078" lon="1.49885">
        <ele>154.8451385498</ele>
        <time>2017-09-03T07:03:49.000Z</time>
      </trkpt>
      <trkpt lat="49.37101" lon="1.49879">
        <ele>150.90605163574</ele>
        <time>2017-09-03T07:03:52.000Z</time>
      </trkpt>
      <trkpt lat="49.37107" lon="1.49883">
        <ele>147.4681854248</ele>
        <time>2017-09-03T07:03:55.000Z</time>
      </trkpt>
      <trkpt lat="49.37118" lon="1.49882">
        <ele>143.98735046387</ele>
        <time>2017-09-03T07:03:58.000Z</time>
      </trkpt>
      <trkpt lat="49.37125" lon="1.4988">
        <ele>140.87399291992</ele>
        <time>2017-09-03T07:04:00.000Z</time>
      </trkpt>
      <trkpt lat="49.37136" lon="1.49877">
        <ele>138.01156616211</ele>
        <time>2017-09-03T07:04:03.000Z</time>
      </trkpt>
      <trkpt lat="49.37144" lon="1.49875">
        <ele>135.91777038574</ele>
        <time>2017-09-03T07:04:05.000Z</time>
      </trkpt>
      <trkpt lat="49.37151" lon="1.49873">
        <ele>133.66268920898</ele>
        <time>2017-09-03T07:04:07.000Z</time>
      </trkpt>
      <trkpt lat="49.37156" lon="1.4987">
        <ele>131.69906616211</ele>
        <time>2017-09-03T07:04:10.000Z</time>
      </trkpt>
      <trkpt lat="49.37159" lon="1.49867">
        <ele>129.84222412109</ele>
        <time>2017-09-03T07:04:12.000Z</time>
      </trkpt>
      <trkpt lat="49.37162" lon="1.49865">
        <ele>128.38589477539</ele>
        <time>2017-09-03T07:04:14.000Z</time>
      </trkpt>
      <trkpt lat="49.37178" lon="1.49865">
        <ele>126.6015625</ele>
        <time>2017-09-03T07:04:17.000Z</time>
      </trkpt>
      <trkpt lat="49.37189" lon="1.49864">
        <ele>124.63655853271</ele>
        <time>2017-09-03T07:04:19.000Z</time>
      </trkpt>
      <trkpt lat="49.37209" lon="1.49868">
        <ele>122.02390289307</ele>
        <time>2017-09-03T07:04:22.000Z</time>
      </trkpt>
      <trkpt lat="49.37223" lon="1.49867">
        <ele>118.97788238525</ele>
        <time>2017-09-03T07:04:25.000Z</time>
      </trkpt>
      <trkpt lat="49.3723" lon="1.49859">
        <ele>115.73921966553</ele>
        <time>2017-09-03T07:04:28.000Z</time>
      </trkpt>
      <trkpt lat="49.37234" lon="1.49854">
        <ele>113.06120300293</ele>
        <time>2017-09-03T07:04:30.000Z</time>
      </trkpt>
      <trkpt lat="49.37234" lon="1.49847">
        <ele>110.93148040771</ele>
        <time>2017-09-03T07:04:33.000Z</time>
      </trkpt>
      <trkpt lat="49.37233" lon="1.49845">
        <ele>109.7707901001</ele>
        <time>2017-09-03T07:04:35.000Z</time>
      </trkpt>
      <trkpt lat="49.37231" lon="1.49851">
        <ele>109.37036132812</ele>
        <time>2017-09-03T07:04:38.000Z</time>
      </trkpt>
      <trkpt lat="49.3723" lon="1.49858">
        <ele>109.36946868896</ele>
        <time>2017-09-03T07:04:41.000Z</time>
      </trkpt>
      <trkpt lat="49.37232" lon="1.49863">
        <ele>109.46258544922</ele>
        <time>2017-09-03T07:04:44.000Z</time>
      </trkpt>
      <trkpt lat="49.37232" lon="1.49861">
        <ele>109.55307769775</ele>
        <time>2017-09-03T07:04:46.000Z</time>
      </trkpt>
      <trkpt lat="49.37232" lon="1.49858">
        <ele>109.59112548828</ele>
        <time>2017-09-03T07:04:48.000Z</time>
      </trkpt>
      <trkpt lat="49.37231" lon="1.49856">
        <ele>109.57615661621</ele>
        <time>2017-09-03T07:04:51.000Z</time>
      </trkpt>
      <trkpt lat="49.37231" lon="1.49854">
        <ele>109.55450439453</ele>
        <time>2017-09-03T07:04:54.000Z</time>
      </trkpt>
      <trkpt lat="49.37231" lon="1.49854">
        <ele>109.58766174316</ele>
        <time>2017-09-03T07:04:57.000Z</time>
      </trkpt>
      <trkpt lat="49.37231" lon="1.49854">
        <ele>109.58766174316</ele>
        <time>2017-09-03T07:05:17.000Z</time>
      </trkpt>
      <trkpt lat="49.37234" lon="1.49854">
        <ele>109.47702789307</ele>
        <time>2017-09-03T07:06:22.000Z</time>
      </trkpt>
      <trkpt lat="49.37235" lon="1.49852">
        <ele>109.35060882568</ele>
        <time>2017-09-03T07:06:24.000Z</time>
      </trkpt>
      <trkpt lat="49.37236" lon="1.49849">
        <ele>109.17166900635</ele>
        <time>2017-09-03T07:06:26.000Z</time>
      </trkpt>
      <trkpt lat="49.37236" lon="1.49848">
        <ele>108.94090270996</ele>
        <time>2017-09-03T07:06:29.000Z</time>
      </trkpt>
      <trkpt lat="49.37235" lon="1.49847">
        <ele>108.782081604</ele>
        <time>2017-09-03T07:06:31.000Z</time>
      </trkpt>
      <trkpt lat="49.37234" lon="1.49847">
        <ele>108.80212402344</ele>
        <time>2017-09-03T07:06:33.000Z</time>
      </trkpt>
      <trkpt lat="49.37233" lon="1.4985">
        <ele>108.87329101562</ele>
        <time>2017-09-03T07:06:43.000Z</time>
      </trkpt>
      <trkpt lat="49.37235" lon="1.4985">
        <ele>108.90798187256</ele>
        <time>2017-09-03T07:06:53.000Z</time>
      </trkpt>
      <trkpt lat="49.37237" lon="1.4985">
        <ele>108.87131500244</ele>
        <time>2017-09-03T07:06:56.000Z</time>
      </trkpt>
      <trkpt lat="49.37238" lon="1.49845">
        <ele>108.77082824707</ele>
        <time>2017-09-03T07:07:11.000Z</time>
      </trkpt>
      <trkpt lat="49.37237" lon="1.49844">
        <ele>108.67030334473</ele>
        <time>2017-09-03T07:07:14.000Z</time>
      </trkpt>
      <trkpt lat="49.37237" lon="1.49846">
        <ele>108.51638031006</ele>
        <time>2017-09-03T07:07:22.000Z</time>
      </trkpt>
      <trkpt lat="49.37236" lon="1.49849">
        <ele>108.4467010498</ele>
        <time>2017-09-03T07:07:36.000Z</time>
      </trkpt>
      <trkpt lat="49.37234" lon="1.4985">
        <ele>108.53486633301</ele>
        <time>2017-09-03T07:07:44.000Z</time>
      </trkpt>
      <trkpt lat="49.37236" lon="1.49851">
        <ele>108.61586761475</ele>
        <time>2017-09-03T07:07:48.000Z</time>
      </trkpt>
      <trkpt lat="49.37234" lon="1.49848">
        <ele>108.69863128662</ele>
        <time>2017-09-03T07:08:02.000Z</time>
      </trkpt>
      <trkpt lat="49.37233" lon="1.49848">
        <ele>108.85263824463</ele>
        <time>2017-09-03T07:08:05.000Z</time>
      </trkpt>
      <trkpt lat="49.37233" lon="1.49848">
        <ele>108.85263824463</ele>
        <time>2017-09-03T07:08:25.000Z</time>
      </trkpt>
      <trkpt lat="49.37235" lon="1.49849">
        <ele>108.905128479</ele>
        <time>2017-09-03T07:08:31.000Z</time>
      </trkpt>
      <trkpt lat="49.37235" lon="1.49849">
        <ele>108.905128479</ele>
        <time>2017-09-03T07:08:51.000Z</time>
      </trkpt>
      <trkpt lat="49.37234" lon="1.49848">
        <ele>108.90596008301</ele>
        <time>2017-09-03T07:09:46.000Z</time>
      </trkpt>
      <trkpt lat="49.37234" lon="1.49845">
        <ele>108.96057128906</ele>
        <time>2017-09-03T07:09:56.000Z</time>
      </trkpt>
      <trkpt lat="49.37233" lon="1.49842">
        <ele>109.02970123291</ele>
        <time>2017-09-03T07:09:59.000Z</time>
      </trkpt>
      <trkpt lat="49.37234" lon="1.49844">
        <ele>109.01302337646</ele>
        <time>2017-09-03T07:10:02.000Z</time>
      </trkpt>
      <trkpt lat="49.37233" lon="1.49845">
        <ele>109.08327484131</ele>
        <time>2017-09-03T07:10:04.000Z</time>
      </trkpt>
      <trkpt lat="49.37233" lon="1.49847">
        <ele>109.16967773438</ele>
        <time>2017-09-03T07:10:06.000Z</time>
      </trkpt>
      <trkpt lat="49.37232" lon="1.49849">
        <ele>109.27333068848</ele>
        <time>2017-09-03T07:10:09.000Z</time>
      </trkpt>
      <trkpt lat="49.3723" lon="1.49849">
        <ele>109.39579772949</ele>
        <time>2017-09-03T07:10:11.000Z</time>
      </trkpt>
      <trkpt lat="49.37225" lon="1.49843">
        <ele>109.76564788818</ele>
        <time>2017-09-03T07:10:13.000Z</time>
      </trkpt>
      <trkpt lat="49.37222" lon="1.49841">
        <ele>110.21160888672</ele>
        <time>2017-09-03T07:10:16.000Z</time>
      </trkpt>
      <trkpt lat="49.37221" lon="1.49842">
        <ele>110.69179534912</ele>
        <time>2017-09-03T07:10:18.000Z</time>
      </trkpt>
      <trkpt lat="49.37215" lon="1.49837">
        <ele>111.33074951172</ele>
        <time>2017-09-03T07:10:20.000Z</time>
      </trkpt>
      <trkpt lat="49.37215" lon="1.49842">
        <ele>111.93849945068</ele>
        <time>2017-09-03T07:10:23.000Z</time>
      </trkpt>
      <trkpt lat="49.37217" lon="1.49846">
        <ele>112.27097320557</ele>
        <time>2017-09-03T07:10:25.000Z</time>
      </trkpt>
      <trkpt lat="49.37219" lon="1.49848">
        <ele>112.44972229004</ele>
        <time>2017-09-03T07:10:29.000Z</time>
      </trkpt>
      <trkpt lat="49.37223" lon="1.49847">
        <ele>112.36600494385</ele>
        <time>2017-09-03T07:10:32.000Z</time>
      </trkpt>
      <trkpt lat="49.37229" lon="1.49844">
        <ele>111.85971832275</ele>
        <time>2017-09-03T07:10:34.000Z</time>
      </trkpt>
      <trkpt lat="49.37236" lon="1.49839">
        <ele>111.03141784668</ele>
        <time>2017-09-03T07:10:36.000Z</time>
      </trkpt>
      <trkpt lat="49.37247" lon="1.49838">
        <ele>109.79640197754</ele>
        <time>2017-09-03T07:10:39.000Z</time>
      </trkpt>
      <trkpt lat="49.37258" lon="1.49833">
        <ele>108.6512298584</ele>
        <time>2017-09-03T07:10:42.000Z</time>
      </trkpt>
      <trkpt lat="49.37265" lon="1.49824">
        <ele>107.7790145874</ele>
        <time>2017-09-03T07:10:45.000Z</time>
      </trkpt>
      <trkpt lat="49.37272" lon="1.49816">
        <ele>107.20361328125</ele>
        <time>2017-09-03T07:10:48.000Z</time>
      </trkpt>
      <trkpt lat="49.37276" lon="1.49812">
        <ele>106.96706390381</ele>
        <time>2017-09-03T07:10:50.000Z</time>
      </trkpt>
      <trkpt lat="49.37283" lon="1.49804">
        <ele>107.25443267822</ele>
        <time>2017-09-03T07:10:53.000Z</time>
      </trkpt>
      <trkpt lat="49.3729" lon="1.49794">
        <ele>107.57334136963</ele>
        <time>2017-09-03T07:10:56.000Z</time>
      </trkpt>
      <trkpt lat="49.37296" lon="1.49789">
        <ele>107.87394714355</ele>
        <time>2017-09-03T07:10:59.000Z</time>
      </trkpt>
      <trkpt lat="49.37302" lon="1.49785">
        <ele>108.16609954834</ele>
        <time>2017-09-03T07:11:02.000Z</time>
      </trkpt>
      <trkpt lat="49.37306" lon="1.49782">
        <ele>108.45290374756</ele>
        <time>2017-09-03T07:11:05.000Z</time>
      </trkpt>
      <trkpt lat="49.37312" lon="1.49779">
        <ele>108.7513885498</ele>
        <time>2017-09-03T07:11:08.000Z</time>
      </trkpt>
      <trkpt lat="49.37318" lon="1.49777">
        <ele>109.05959320068</ele>
        <time>2017-09-03T07:11:11.000Z</time>
      </trkpt>
      <trkpt lat="49.37324" lon="1.49775">
        <ele>109.36888122559</ele>
        <time>2017-09-03T07:11:14.000Z</time>
      </trkpt>
      <trkpt lat="49.37328" lon="1.49773">
        <ele>109.65883636475</ele>
        <time>2017-09-03T07:11:16.000Z</time>
      </trkpt>
      <trkpt lat="49.37332" lon="1.49771">
        <ele>109.94111633301</ele>
        <time>2017-09-03T07:11:19.000Z</time>
      </trkpt>
      <trkpt lat="49.37335" lon="1.49769">
        <ele>110.22347259521</ele>
        <time>2017-09-03T07:11:21.000Z</time>
      </trkpt>
      <trkpt lat="49.37341" lon="1.49766">
        <ele>110.60139465332</ele>
        <time>2017-09-03T07:11:24.000Z</time>
      </trkpt>
      <trkpt lat="49.37346" lon="1.49764">
        <ele>111.04341125488</ele>
        <time>2017-09-03T07:11:27.000Z</time>
      </trkpt>
      <trkpt lat="49.37349" lon="1.49762">
        <ele>111.53379058838</ele>
        <time>2017-09-03T07:11:29.000Z</time>
      </trkpt>
      <trkpt lat="49.37354" lon="1.4976">
        <ele>112.12438964844</ele>
        <time>2017-09-03T07:11:32.000Z</time>
      </trkpt>
      <trkpt lat="49.37358" lon="1.49756">
        <ele>112.74961090088</ele>
        <time>2017-09-03T07:11:35.000Z</time>
      </trkpt>
      <trkpt lat="49.37362" lon="1.49754">
        <ele>113.28151702881</ele>
        <time>2017-09-03T07:11:37.000Z</time>
      </trkpt>
      <trkpt lat="49.37365" lon="1.49749">
        <ele>113.76247406006</ele>
        <time>2017-09-03T07:11:40.000Z</time>
      </trkpt>
      <trkpt lat="49.3737" lon="1.49744">
        <ele>114.30339050293</ele>
        <time>2017-09-03T07:11:43.000Z</time>
      </trkpt>
      <trkpt lat="49.37372" lon="1.4974">
        <ele>114.78569030762</ele>
        <time>2017-09-03T07:11:45.000Z</time>
      </trkpt>
      <trkpt lat="49.37375" lon="1.49735">
        <ele>115.26292419434</ele>
        <time>2017-09-03T07:11:48.000Z</time>
      </trkpt>
      <trkpt lat="49.37379" lon="1.49732">
        <ele>115.79398345947</ele>
        <time>2017-09-03T07:11:51.000Z</time>
      </trkpt>
      <trkpt lat="49.37383" lon="1.49728">
        <ele>116.35569763184</ele>
        <time>2017-09-03T07:11:54.000Z</time>
      </trkpt>
      <trkpt lat="49.37385" lon="1.49725">
        <ele>116.85835266113</ele>
        <time>2017-09-03T07:11:56.000Z</time>
      </trkpt>
      <trkpt lat="49.37389" lon="1.49722">
        <ele>117.37953948975</ele>
        <time>2017-09-03T07:11:59.000Z</time>
      </trkpt>
      <trkpt lat="49.37391" lon="1.4972">
        <ele>117.8671875</ele>
        <time>2017-09-03T07:12:01.000Z</time>
      </trkpt>
      <trkpt lat="49.37394" lon="1.49716">
        <ele>118.33247375488</ele>
        <time>2017-09-03T07:12:04.000Z</time>
      </trkpt>
      <trkpt lat="49.37396" lon="1.49711">
        <ele>118.76200866699</ele>
        <time>2017-09-03T07:12:06.000Z</time>
      </trkpt>
      <trkpt lat="49.37399" lon="1.49706">
        <ele>119.20629882812</ele>
        <time>2017-09-03T07:12:09.000Z</time>
      </trkpt>
      <trkpt lat="49.37402" lon="1.49702">
        <ele>119.65006256104</ele>
        <time>2017-09-03T07:12:12.000Z</time>
      </trkpt>
      <trkpt lat="49.37404" lon="1.49698">
        <ele>120.09710693359</ele>
        <time>2017-09-03T07:12:14.000Z</time>
      </trkpt>
      <trkpt lat="49.37408" lon="1.49692">
        <ele>120.565574646</ele>
        <time>2017-09-03T07:12:17.000Z</time>
      </trkpt>
      <trkpt lat="49.37411" lon="1.4969">
        <ele>121.04650878906</ele>
        <time>2017-09-03T07:12:19.000Z</time>
      </trkpt>
      <trkpt lat="49.37415" lon="1.49689">
        <ele>121.51485443115</ele>
        <time>2017-09-03T07:12:21.000Z</time>
      </trkpt>
      <trkpt lat="49.37417" lon="1.49687">
        <ele>121.97269439697</ele>
        <time>2017-09-03T07:12:23.000Z</time>
      </trkpt>
      <trkpt lat="49.37421" lon="1.49682">
        <ele>122.50386047363</ele>
        <time>2017-09-03T07:12:26.000Z</time>
      </trkpt>
      <trkpt lat="49.37423" lon="1.49678">
        <ele>123.00993347168</ele>
        <time>2017-09-03T07:12:29.000Z</time>
      </trkpt>
      <trkpt lat="49.37425" lon="1.49673">
        <ele>123.49922180176</ele>
        <time>2017-09-03T07:12:32.000Z</time>
      </trkpt>
      <trkpt lat="49.37426" lon="1.49669">
        <ele>123.94306945801</ele>
        <time>2017-09-03T07:12:34.000Z</time>
      </trkpt>
      <trkpt lat="49.37428" lon="1.49666">
        <ele>124.39964294434</ele>
        <time>2017-09-03T07:12:36.000Z</time>
      </trkpt>
      <trkpt lat="49.37432" lon="1.49661">
        <ele>124.91871643066</ele>
        <time>2017-09-03T07:12:39.000Z</time>
      </trkpt>
      <trkpt lat="49.37435" lon="1.49657">
        <ele>125.499168396</ele>
        <time>2017-09-03T07:12:42.000Z</time>
      </trkpt>
      <trkpt lat="49.37437" lon="1.49653">
        <ele>126.1220703125</ele>
        <time>2017-09-03T07:12:44.000Z</time>
      </trkpt>
      <trkpt lat="49.37439" lon="1.4965">
        <ele>126.80910491943</ele>
        <time>2017-09-03T07:12:46.000Z</time>
      </trkpt>
      <trkpt lat="49.3744" lon="1.49647">
        <ele>127.49772644043</ele>
        <time>2017-09-03T07:12:48.000Z</time>
      </trkpt>
      <trkpt lat="49.37443" lon="1.49643">
        <ele>128.10639953613</ele>
        <time>2017-09-03T07:12:51.000Z</time>
      </trkpt>
      <trkpt lat="49.37445" lon="1.49639">
        <ele>128.66256713867</ele>
        <time>2017-09-03T07:12:53.000Z</time>
      </trkpt>
      <trkpt lat="49.37448" lon="1.49635">
        <ele>129.21459960938</ele>
        <time>2017-09-03T07:12:55.000Z</time>
      </trkpt>
      <trkpt lat="49.37452" lon="1.49632">
        <ele>129.79965209961</ele>
        <time>2017-09-03T07:12:58.000Z</time>
      </trkpt>
      <trkpt lat="49.37454" lon="1.49631">
        <ele>130.33898925781</ele>
        <time>2017-09-03T07:13:00.000Z</time>
      </trkpt>
      <trkpt lat="49.37457" lon="1.49629">
        <ele>130.82067871094</ele>
        <time>2017-09-03T07:13:02.000Z</time>
      </trkpt>
      <trkpt lat="49.37459" lon="1.49625">
        <ele>131.2805480957</ele>
        <time>2017-09-03T07:13:05.000Z</time>
      </trkpt>
      <trkpt lat="49.37461" lon="1.49623">
        <ele>131.69540405273</ele>
        <time>2017-09-03T07:13:07.000Z</time>
      </trkpt>
      <trkpt lat="49.37464" lon="1.49621">
        <ele>132.03100585938</ele>
        <time>2017-09-03T07:13:09.000Z</time>
      </trkpt>
      <trkpt lat="49.37466" lon="1.49618">
        <ele>132.36698913574</ele>
        <time>2017-09-03T07:13:11.000Z</time>
      </trkpt>
      <trkpt lat="49.37468" lon="1.49615">
        <ele>132.68041992188</ele>
        <time>2017-09-03T07:13:13.000Z</time>
      </trkpt>
      <trkpt lat="49.3747" lon="1.49613">
        <ele>132.9574432373</ele>
        <time>2017-09-03T07:13:15.000Z</time>
      </trkpt>
      <trkpt lat="49.37474" lon="1.4961">
        <ele>133.24519348145</ele>
        <time>2017-09-03T07:13:18.000Z</time>
      </trkpt>
      <trkpt lat="49.37477" lon="1.49608">
        <ele>133.51672363281</ele>
        <time>2017-09-03T07:13:20.000Z</time>
      </trkpt>
      <trkpt lat="49.37481" lon="1.49606">
        <ele>133.79095458984</ele>
        <time>2017-09-03T07:13:23.000Z</time>
      </trkpt>
      <trkpt lat="49.37483" lon="1.49604">
        <ele>134.05615234375</ele>
        <time>2017-09-03T07:13:25.000Z</time>
      </trkpt>
      <trkpt lat="49.37487" lon="1.496">
        <ele>134.3073425293</ele>
        <time>2017-09-03T07:13:28.000Z</time>
      </trkpt>
      <trkpt lat="49.3749" lon="1.49596">
        <ele>134.52084350586</ele>
        <time>2017-09-03T07:13:31.000Z</time>
      </trkpt>
      <trkpt lat="49.37493" lon="1.49594">
        <ele>134.70506286621</ele>
        <time>2017-09-03T07:13:33.000Z</time>
      </trkpt>
      <trkpt lat="49.37497" lon="1.49591">
        <ele>134.85763549805</ele>
        <time>2017-09-03T07:13:36.000Z</time>
      </trkpt>
      <trkpt lat="49.37502" lon="1.49589">
        <ele>135.09323120117</ele>
        <time>2017-09-03T07:13:39.000Z</time>
      </trkpt>
      <trkpt lat="49.37505" lon="1.49588">
        <ele>135.41949462891</ele>
        <time>2017-09-03T07:13:41.000Z</time>
      </trkpt>
      <trkpt lat="49.37509" lon="1.49583">
        <ele>135.87287902832</ele>
        <time>2017-09-03T07:13:44.000Z</time>
      </trkpt>
      <trkpt lat="49.37513" lon="1.4958">
        <ele>136.53913879395</ele>
        <time>2017-09-03T07:13:47.000Z</time>
      </trkpt>
      <trkpt lat="49.37516" lon="1.49577">
        <ele>137.36433410645</ele>
        <time>2017-09-03T07:13:50.000Z</time>
      </trkpt>
      <trkpt lat="49.3752" lon="1.49573">
        <ele>138.33853149414</ele>
        <time>2017-09-03T07:13:53.000Z</time>
      </trkpt>
      <trkpt lat="49.37524" lon="1.4957">
        <ele>139.40214538574</ele>
        <time>2017-09-03T07:13:56.000Z</time>
      </trkpt>
      <trkpt lat="49.37527" lon="1.49567">
        <ele>140.52920532227</ele>
        <time>2017-09-03T07:13:59.000Z</time>
      </trkpt>
      <trkpt lat="49.3753" lon="1.49566">
        <ele>141.53573608398</ele>
        <time>2017-09-03T07:14:01.000Z</time>
      </trkpt>
      <trkpt lat="49.37532" lon="1.49565">
        <ele>142.47605895996</ele>
        <time>2017-09-03T07:14:03.000Z</time>
      </trkpt>
      <trkpt lat="49.37534" lon="1.49564">
        <ele>143.25796508789</ele>
        <time>2017-09-03T07:14:05.000Z</time>
      </trkpt>
      <trkpt lat="49.37536" lon="1.49562">
        <ele>143.93142700195</ele>
        <time>2017-09-03T07:14:07.000Z</time>
      </trkpt>
      <trkpt lat="49.3754" lon="1.49559">
        <ele>144.60420227051</ele>
        <time>2017-09-03T07:14:10.000Z</time>
      </trkpt>
      <trkpt lat="49.37544" lon="1.49556">
        <ele>145.37788391113</ele>
        <time>2017-09-03T07:14:13.000Z</time>
      </trkpt>
      <trkpt lat="49.37547" lon="1.49554">
        <ele>146.13827514648</ele>
        <time>2017-09-03T07:14:15.000Z</time>
      </trkpt>
      <trkpt lat="49.37551" lon="1.49551">
        <ele>147.0124206543</ele>
        <time>2017-09-03T07:14:18.000Z</time>
      </trkpt>
      <trkpt lat="49.37553" lon="1.49549">
        <ele>147.90475463867</ele>
        <time>2017-09-03T07:14:20.000Z</time>
      </trkpt>
      <trkpt lat="49.37556" lon="1.49546">
        <ele>148.70426940918</ele>
        <time>2017-09-03T07:14:22.000Z</time>
      </trkpt>
      <trkpt lat="49.37558" lon="1.49544">
        <ele>149.40019226074</ele>
        <time>2017-09-03T07:14:24.000Z</time>
      </trkpt>
      <trkpt lat="49.37562" lon="1.4954">
        <ele>150.19657897949</ele>
        <time>2017-09-03T07:14:27.000Z</time>
      </trkpt>
      <trkpt lat="49.37566" lon="1.49537">
        <ele>150.92756652832</ele>
        <time>2017-09-03T07:14:30.000Z</time>
      </trkpt>
      <trkpt lat="49.37568" lon="1.49535">
        <ele>151.66345214844</ele>
        <time>2017-09-03T07:14:32.000Z</time>
      </trkpt>
      <trkpt lat="49.37571" lon="1.49534">
        <ele>152.39239501953</ele>
        <time>2017-09-03T07:14:34.000Z</time>
      </trkpt>
      <trkpt lat="49.37574" lon="1.49533">
        <ele>153.13116455078</ele>
        <time>2017-09-03T07:14:36.000Z</time>
      </trkpt>
      <trkpt lat="49.37578" lon="1.49531">
        <ele>153.82618713379</ele>
        <time>2017-09-03T07:14:39.000Z</time>
      </trkpt>
      <trkpt lat="49.37581" lon="1.49531">
        <ele>154.47813415527</ele>
        <time>2017-09-03T07:14:41.000Z</time>
      </trkpt>
      <trkpt lat="49.37585" lon="1.4953">
        <ele>155.17269897461</ele>
        <time>2017-09-03T07:14:44.000Z</time>
      </trkpt>
      <trkpt lat="49.37589" lon="1.49529">
        <ele>155.87657165527</ele>
        <time>2017-09-03T07:14:47.000Z</time>
      </trkpt>
      <trkpt lat="49.37594" lon="1.49528">
        <ele>156.65469360352</ele>
        <time>2017-09-03T07:14:50.000Z</time>
      </trkpt>
      <trkpt lat="49.37599" lon="1.49525">
        <ele>157.44361877441</ele>
        <time>2017-09-03T07:14:53.000Z</time>
      </trkpt>
      <trkpt lat="49.37604" lon="1.49523">
        <ele>158.29418945312</ele>
        <time>2017-09-03T07:14:56.000Z</time>
      </trkpt>
      <trkpt lat="49.37607" lon="1.49522">
        <ele>159.05651855469</ele>
        <time>2017-09-03T07:14:58.000Z</time>
      </trkpt>
      <trkpt lat="49.37611" lon="1.4952">
        <ele>159.84329223633</ele>
        <time>2017-09-03T07:15:01.000Z</time>
      </trkpt>
      <trkpt lat="49.37615" lon="1.49518">
        <ele>160.57615661621</ele>
        <time>2017-09-03T07:15:04.000Z</time>
      </trkpt>
      <trkpt lat="49.37617" lon="1.49517">
        <ele>161.21292114258</ele>
        <time>2017-09-03T07:15:06.000Z</time>
      </trkpt>
      <trkpt lat="49.37622" lon="1.49516">
        <ele>161.82548522949</ele>
        <time>2017-09-03T07:15:09.000Z</time>
      </trkpt>
      <trkpt lat="49.37625" lon="1.49515">
        <ele>162.44621276855</ele>
        <time>2017-09-03T07:15:11.000Z</time>
      </trkpt>
      <trkpt lat="49.37629" lon="1.49514">
        <ele>163.05947875977</ele>
        <time>2017-09-03T07:15:14.000Z</time>
      </trkpt>
      <trkpt lat="49.37633" lon="1.49514">
        <ele>163.65557861328</ele>
        <time>2017-09-03T07:15:17.000Z</time>
      </trkpt>
      <trkpt lat="49.37636" lon="1.49514">
        <ele>164.27828979492</ele>
        <time>2017-09-03T07:15:19.000Z</time>
      </trkpt>
      <trkpt lat="49.37639" lon="1.49515">
        <ele>164.83317565918</ele>
        <time>2017-09-03T07:15:21.000Z</time>
      </trkpt>
      <trkpt lat="49.37642" lon="1.49515">
        <ele>165.3893737793</ele>
        <time>2017-09-03T07:15:23.000Z</time>
      </trkpt>
      <trkpt lat="49.37645" lon="1.49515">
        <ele>165.90570068359</ele>
        <time>2017-09-03T07:15:26.000Z</time>
      </trkpt>
      <trkpt lat="49.37648" lon="1.49515">
        <ele>166.39700317383</ele>
        <time>2017-09-03T07:15:28.000Z</time>
      </trkpt>
      <trkpt lat="49.37651" lon="1.49516">
        <ele>166.87936401367</ele>
        <time>2017-09-03T07:15:31.000Z</time>
      </trkpt>
      <trkpt lat="49.37653" lon="1.49517">
        <ele>167.36698913574</ele>
        <time>2017-09-03T07:15:33.000Z</time>
      </trkpt>
      <trkpt lat="49.37656" lon="1.49518">
        <ele>167.86198425293</ele>
        <time>2017-09-03T07:15:36.000Z</time>
      </trkpt>
      <trkpt lat="49.37658" lon="1.49518">
        <ele>168.32858276367</ele>
        <time>2017-09-03T07:15:38.000Z</time>
      </trkpt>
      <trkpt lat="49.3766" lon="1.49518">
        <ele>168.76689147949</ele>
        <time>2017-09-03T07:15:40.000Z</time>
      </trkpt>
      <trkpt lat="49.37662" lon="1.49518">
        <ele>169.16328430176</ele>
        <time>2017-09-03T07:15:42.000Z</time>
      </trkpt>
      <trkpt lat="49.37665" lon="1.4952">
        <ele>169.59176635742</ele>
        <time>2017-09-03T07:15:45.000Z</time>
      </trkpt>
      <trkpt lat="49.37669" lon="1.4952">
        <ele>170.0040435791</ele>
        <time>2017-09-03T07:15:48.000Z</time>
      </trkpt>
      <trkpt lat="49.37672" lon="1.49521">
        <ele>170.39022827148</ele>
        <time>2017-09-03T07:15:51.000Z</time>
      </trkpt>
      <trkpt lat="49.37675" lon="1.4952">
        <ele>170.74736022949</ele>
        <time>2017-09-03T07:15:53.000Z</time>
      </trkpt>
      <trkpt lat="49.37679" lon="1.49521">
        <ele>171.10145568848</ele>
        <time>2017-09-03T07:15:56.000Z</time>
      </trkpt>
      <trkpt lat="49.37682" lon="1.49521">
        <ele>171.3745880127</ele>
        <time>2017-09-03T07:15:58.000Z</time>
      </trkpt>
      <trkpt lat="49.37684" lon="1.4952">
        <ele>171.58988952637</ele>
        <time>2017-09-03T07:16:00.000Z</time>
      </trkpt>
      <trkpt lat="49.37688" lon="1.49518">
        <ele>171.79470825195</ele>
        <time>2017-09-03T07:16:03.000Z</time>
      </trkpt>
      <trkpt lat="49.37692" lon="1.49516">
        <ele>172.00712585449</ele>
        <time>2017-09-03T07:16:06.000Z</time>
      </trkpt>
      <trkpt lat="49.37696" lon="1.49516">
        <ele>172.21740722656</ele>
        <time>2017-09-03T07:16:09.000Z</time>
      </trkpt>
      <trkpt lat="49.377" lon="1.49515">
        <ele>172.44079589844</ele>
        <time>2017-09-03T07:16:12.000Z</time>
      </trkpt>
      <trkpt lat="49.37704" lon="1.49513">
        <ele>172.68121337891</ele>
        <time>2017-09-03T07:16:15.000Z</time>
      </trkpt>
      <trkpt lat="49.37706" lon="1.49512">
        <ele>172.90405273438</ele>
        <time>2017-09-03T07:16:17.000Z</time>
      </trkpt>
      <trkpt lat="49.3771" lon="1.49511">
        <ele>173.13053894043</ele>
        <time>2017-09-03T07:16:20.000Z</time>
      </trkpt>
      <trkpt lat="49.37712" lon="1.4951">
        <ele>173.3251953125</ele>
        <time>2017-09-03T07:16:22.000Z</time>
      </trkpt>
      <trkpt lat="49.37717" lon="1.49508">
        <ele>173.51132202148</ele>
        <time>2017-09-03T07:16:25.000Z</time>
      </trkpt>
      <trkpt lat="49.37721" lon="1.49507">
        <ele>173.71072387695</ele>
        <time>2017-09-03T07:16:28.000Z</time>
      </trkpt>
      <trkpt lat="49.37724" lon="1.49507">
        <ele>173.91854858398</ele>
        <time>2017-09-03T07:16:30.000Z</time>
      </trkpt>
      <trkpt lat="49.37729" lon="1.49506">
        <ele>174.15303039551</ele>
        <time>2017-09-03T07:16:33.000Z</time>
      </trkpt>
      <trkpt lat="49.37735" lon="1.49505">
        <ele>174.43563842773</ele>
        <time>2017-09-03T07:16:35.000Z</time>
      </trkpt>
      <trkpt lat="49.37741" lon="1.49502">
        <ele>174.74380493164</ele>
        <time>2017-09-03T07:16:37.000Z</time>
      </trkpt>
      <trkpt lat="49.37746" lon="1.49499">
        <ele>175.04681396484</ele>
        <time>2017-09-03T07:16:39.000Z</time>
      </trkpt>
      <trkpt lat="49.37751" lon="1.49496">
        <ele>175.37190246582</ele>
        <time>2017-09-03T07:16:41.000Z</time>
      </trkpt>
      <trkpt lat="49.37758" lon="1.49493">
        <ele>175.72698974609</ele>
        <time>2017-09-03T07:16:44.000Z</time>
      </trkpt>
      <trkpt lat="49.37766" lon="1.49489">
        <ele>176.11882019043</ele>
        <time>2017-09-03T07:16:47.000Z</time>
      </trkpt>
      <trkpt lat="49.3777" lon="1.49488">
        <ele>176.52230834961</ele>
        <time>2017-09-03T07:16:49.000Z</time>
      </trkpt>
      <trkpt lat="49.37775" lon="1.49486">
        <ele>176.94067382812</ele>
        <time>2017-09-03T07:16:51.000Z</time>
      </trkpt>
      <trkpt lat="49.37779" lon="1.49485">
        <ele>177.35717773438</ele>
        <time>2017-09-03T07:16:53.000Z</time>
      </trkpt>
      <trkpt lat="49.37785" lon="1.49482">
        <ele>177.74865722656</ele>
        <time>2017-09-03T07:16:56.000Z</time>
      </trkpt>
      <trkpt lat="49.37789" lon="1.4948">
        <ele>178.10717773438</ele>
        <time>2017-09-03T07:16:58.000Z</time>
      </trkpt>
      <trkpt lat="49.37793" lon="1.49479">
        <ele>178.44671630859</ele>
        <time>2017-09-03T07:17:00.000Z</time>
      </trkpt>
      <trkpt lat="49.37798" lon="1.49477">
        <ele>178.78662109375</ele>
        <time>2017-09-03T07:17:02.000Z</time>
      </trkpt>
      <trkpt lat="49.37805" lon="1.49476">
        <ele>179.1904296875</ele>
        <time>2017-09-03T07:17:05.000Z</time>
      </trkpt>
      <trkpt lat="49.37812" lon="1.49475">
        <ele>179.62353515625</ele>
        <time>2017-09-03T07:17:08.000Z</time>
      </trkpt>
      <trkpt lat="49.37819" lon="1.49473">
        <ele>180.07952880859</ele>
        <time>2017-09-03T07:17:11.000Z</time>
      </trkpt>
      <trkpt lat="49.37827" lon="1.4947">
        <ele>180.59246826172</ele>
        <time>2017-09-03T07:17:14.000Z</time>
      </trkpt>
      <trkpt lat="49.37835" lon="1.4947">
        <ele>181.17831420898</ele>
        <time>2017-09-03T07:17:17.000Z</time>
      </trkpt>
      <trkpt lat="49.37842" lon="1.49469">
        <ele>181.73690795898</ele>
        <time>2017-09-03T07:17:20.000Z</time>
      </trkpt>
      <trkpt lat="49.37846" lon="1.49468">
        <ele>182.23718261719</ele>
        <time>2017-09-03T07:17:22.000Z</time>
      </trkpt>
      <trkpt lat="49.37851" lon="1.49467">
        <ele>182.69989013672</ele>
        <time>2017-09-03T07:17:25.000Z</time>
      </trkpt>
      <trkpt lat="49.37855" lon="1.49467">
        <ele>183.10719299316</ele>
        <time>2017-09-03T07:17:28.000Z</time>
      </trkpt>
      <trkpt lat="49.3786" lon="1.49467">
        <ele>183.43566894531</ele>
        <time>2017-09-03T07:17:30.000Z</time>
      </trkpt>
      <trkpt lat="49.37867" lon="1.49468">
        <ele>183.78182983398</ele>
        <time>2017-09-03T07:17:33.000Z</time>
      </trkpt>
      <trkpt lat="49.37875" lon="1.49469">
        <ele>184.18017578125</ele>
        <time>2017-09-03T07:17:36.000Z</time>
      </trkpt>
      <trkpt lat="49.37879" lon="1.49471">
        <ele>184.58435058594</ele>
        <time>2017-09-03T07:17:38.000Z</time>
      </trkpt>
      <trkpt lat="49.37887" lon="1.49472">
        <ele>185.03469848633</ele>
        <time>2017-09-03T07:17:41.000Z</time>
      </trkpt>
      <trkpt lat="49.37894" lon="1.49474">
        <ele>185.51832580566</ele>
        <time>2017-09-03T07:17:44.000Z</time>
      </trkpt>
      <trkpt lat="49.37902" lon="1.49476">
        <ele>185.99864196777</ele>
        <time>2017-09-03T07:17:47.000Z</time>
      </trkpt>
      <trkpt lat="49.37908" lon="1.49477">
        <ele>186.46115112305</ele>
        <time>2017-09-03T07:17:50.000Z</time>
      </trkpt>
      <trkpt lat="49.37915" lon="1.49477">
        <ele>186.9465637207</ele>
        <time>2017-09-03T07:17:53.000Z</time>
      </trkpt>
      <trkpt lat="49.37921" lon="1.49479">
        <ele>187.37712097168</ele>
        <time>2017-09-03T07:17:56.000Z</time>
      </trkpt>
      <trkpt lat="49.37925" lon="1.49479">
        <ele>187.73788452148</ele>
        <time>2017-09-03T07:17:58.000Z</time>
      </trkpt>
      <trkpt lat="49.3793" lon="1.49479">
        <ele>188.0308380127</ele>
        <time>2017-09-03T07:18:01.000Z</time>
      </trkpt>
      <trkpt lat="49.37932" lon="1.49481">
        <ele>188.24504089355</ele>
        <time>2017-09-03T07:18:03.000Z</time>
      </trkpt>
      <trkpt lat="49.37933" lon="1.49484">
        <ele>188.37905883789</ele>
        <time>2017-09-03T07:18:06.000Z</time>
      </trkpt>
      <trkpt lat="49.37933" lon="1.49482">
        <ele>188.46382141113</ele>
        <time>2017-09-03T07:18:22.000Z</time>
      </trkpt>
      <trkpt lat="49.37932" lon="1.49486">
        <ele>188.51260375977</ele>
        <time>2017-09-03T07:18:25.000Z</time>
      </trkpt>
      <trkpt lat="49.3793" lon="1.49494">
        <ele>188.51545715332</ele>
        <time>2017-09-03T07:18:28.000Z</time>
      </trkpt>
      <trkpt lat="49.3793" lon="1.49498">
        <ele>188.50839233398</ele>
        <time>2017-09-03T07:18:30.000Z</time>
      </trkpt>
      <trkpt lat="49.37929" lon="1.49503">
        <ele>188.47944641113</ele>
        <time>2017-09-03T07:18:32.000Z</time>
      </trkpt>
      <trkpt lat="49.37927" lon="1.49511">
        <ele>188.40934753418</ele>
        <time>2017-09-03T07:18:35.000Z</time>
      </trkpt>
      <trkpt lat="49.37925" lon="1.49519">
        <ele>188.31126403809</ele>
        <time>2017-09-03T07:18:38.000Z</time>
      </trkpt>
      <trkpt lat="49.37925" lon="1.49522">
        <ele>188.20907592773</ele>
        <time>2017-09-03T07:18:40.000Z</time>
      </trkpt>
      <trkpt lat="49.37923" lon="1.49523">
        <ele>188.10067749023</ele>
        <time>2017-09-03T07:18:46.000Z</time>
      </trkpt>
      <trkpt lat="49.3792" lon="1.49526">
        <ele>187.97782897949</ele>
        <time>2017-09-03T07:18:48.000Z</time>
      </trkpt>
      <trkpt lat="49.37916" lon="1.49535">
        <ele>187.84776306152</ele>
        <time>2017-09-03T07:18:51.000Z</time>
      </trkpt>
      <trkpt lat="49.37916" lon="1.4954">
        <ele>187.74092102051</ele>
        <time>2017-09-03T07:18:53.000Z</time>
      </trkpt>
      <trkpt lat="49.37916" lon="1.49543">
        <ele>187.63807678223</ele>
        <time>2017-09-03T07:18:55.000Z</time>
      </trkpt>
      <trkpt lat="49.37916" lon="1.49543">
        <ele>187.63807678223</ele>
        <time>2017-09-03T07:19:15.000Z</time>
      </trkpt>
      <trkpt lat="49.37918" lon="1.49544">
        <ele>187.5546875</ele>
        <time>2017-09-03T07:19:23.000Z</time>
      </trkpt>
      <trkpt lat="49.37918" lon="1.4954">
        <ele>187.51126098633</ele>
        <time>2017-09-03T07:19:25.000Z</time>
      </trkpt>
      <trkpt lat="49.37921" lon="1.49534">
        <ele>187.53912353516</ele>
        <time>2017-09-03T07:19:27.000Z</time>
      </trkpt>
      <trkpt lat="49.37925" lon="1.49523">
        <ele>187.6337890625</ele>
        <time>2017-09-03T07:19:30.000Z</time>
      </trkpt>
      <trkpt lat="49.3793" lon="1.4951">
        <ele>187.80941772461</ele>
        <time>2017-09-03T07:19:33.000Z</time>
      </trkpt>
      <trkpt lat="49.37933" lon="1.49496">
        <ele>188.02629089355</ele>
        <time>2017-09-03T07:19:36.000Z</time>
      </trkpt>
      <trkpt lat="49.37936" lon="1.49481">
        <ele>188.24452209473</ele>
        <time>2017-09-03T07:19:39.000Z</time>
      </trkpt>
      <trkpt lat="49.37941" lon="1.49464">
        <ele>188.45310974121</ele>
        <time>2017-09-03T07:19:42.000Z</time>
      </trkpt>
      <trkpt lat="49.37944" lon="1.49455">
        <ele>188.62158203125</ele>
        <time>2017-09-03T07:19:44.000Z</time>
      </trkpt>
      <trkpt lat="49.37948" lon="1.49442">
        <ele>188.73184204102</ele>
        <time>2017-09-03T07:19:47.000Z</time>
      </trkpt>
      <trkpt lat="49.37951" lon="1.49429">
        <ele>188.79179382324</ele>
        <time>2017-09-03T07:19:50.000Z</time>
      </trkpt>
      <trkpt lat="49.37954" lon="1.4942">
        <ele>188.84516906738</ele>
        <time>2017-09-03T07:19:52.000Z</time>
      </trkpt>
      <trkpt lat="49.37957" lon="1.49411">
        <ele>188.9167175293</ele>
        <time>2017-09-03T07:19:54.000Z</time>
      </trkpt>
      <trkpt lat="49.37961" lon="1.49397">
        <ele>189.05801391602</ele>
        <time>2017-09-03T07:19:57.000Z</time>
      </trkpt>
      <trkpt lat="49.37964" lon="1.49388">
        <ele>189.23851013184</ele>
        <time>2017-09-03T07:19:59.000Z</time>
      </trkpt>
      <trkpt lat="49.37968" lon="1.49374">
        <ele>189.48788452148</ele>
        <time>2017-09-03T07:20:02.000Z</time>
      </trkpt>
      <trkpt lat="49.37971" lon="1.49359">
        <ele>189.79989624023</ele>
        <time>2017-09-03T07:20:05.000Z</time>
      </trkpt>
      <trkpt lat="49.37975" lon="1.49345">
        <ele>190.13461303711</ele>
        <time>2017-09-03T07:20:08.000Z</time>
      </trkpt>
      <trkpt lat="49.37978" lon="1.49331">
        <ele>190.43258666992</ele>
        <time>2017-09-03T07:20:11.000Z</time>
      </trkpt>
      <trkpt lat="49.37982" lon="1.49318">
        <ele>190.67697143555</ele>
        <time>2017-09-03T07:20:14.000Z</time>
      </trkpt>
      <trkpt lat="49.37984" lon="1.4931">
        <ele>190.8494720459</ele>
        <time>2017-09-03T07:20:16.000Z</time>
      </trkpt>
      <trkpt lat="49.37987" lon="1.49299">
        <ele>190.95413208008</ele>
        <time>2017-09-03T07:20:19.000Z</time>
      </trkpt>
      <trkpt lat="49.3799" lon="1.49287">
        <ele>191</ele>
        <time>2017-09-03T07:20:22.000Z</time>
      </trkpt>
      <trkpt lat="49.37993" lon="1.49277">
        <ele>191</ele>
        <time>2017-09-03T07:20:25.000Z</time>
      </trkpt>
      <trkpt lat="49.37996" lon="1.49265">
        <ele>191</ele>
        <time>2017-09-03T07:20:28.000Z</time>
      </trkpt>
      <trkpt lat="49.37998" lon="1.49253">
        <ele>191</ele>
        <time>2017-09-03T07:20:31.000Z</time>
      </trkpt>
      <trkpt lat="49.38" lon="1.49241">
        <ele>191.0442199707</ele>
        <time>2017-09-03T07:20:34.000Z</time>
      </trkpt>
      <trkpt lat="49.38002" lon="1.4923">
        <ele>191.15054321289</ele>
        <time>2017-09-03T07:20:37.000Z</time>
      </trkpt>
      <trkpt lat="49.38004" lon="1.49222">
        <ele>191.30235290527</ele>
        <time>2017-09-03T07:20:39.000Z</time>
      </trkpt>
      <trkpt lat="49.38005" lon="1.49213">
        <ele>191.5036315918</ele>
        <time>2017-09-03T07:20:41.000Z</time>
      </trkpt>
      <trkpt lat="49.38007" lon="1.49205">
        <ele>191.75617980957</ele>
        <time>2017-09-03T07:20:43.000Z</time>
      </trkpt>
      <trkpt lat="49.3801" lon="1.49198">
        <ele>192.0132598877</ele>
        <time>2017-09-03T07:20:45.000Z</time>
      </trkpt>
      <trkpt lat="49.38013" lon="1.49187">
        <ele>192.28768920898</ele>
        <time>2017-09-03T07:20:48.000Z</time>
      </trkpt>
      <trkpt lat="49.38015" lon="1.49179">
        <ele>192.57949829102</ele>
        <time>2017-09-03T07:20:50.000Z</time>
      </trkpt>
      <trkpt lat="49.38017" lon="1.4917">
        <ele>192.8844909668</ele>
        <time>2017-09-03T07:20:52.000Z</time>
      </trkpt>
      <trkpt lat="49.38021" lon="1.49158">
        <ele>193.09684753418</ele>
        <time>2017-09-03T07:20:55.000Z</time>
      </trkpt>
      <trkpt lat="49.38025" lon="1.49144">
        <ele>193.15119934082</ele>
        <time>2017-09-03T07:20:58.000Z</time>
      </trkpt>
      <trkpt lat="49.38029" lon="1.49129">
        <ele>193.02777099609</ele>
        <time>2017-09-03T07:21:01.000Z</time>
      </trkpt>
      <trkpt lat="49.38033" lon="1.49115">
        <ele>192.75857543945</ele>
        <time>2017-09-03T07:21:04.000Z</time>
      </trkpt>
      <trkpt lat="49.38036" lon="1.49107">
        <ele>192.38101196289</ele>
        <time>2017-09-03T07:21:06.000Z</time>
      </trkpt>
      <trkpt lat="49.38041" lon="1.49094">
        <ele>191.9866027832</ele>
        <time>2017-09-03T07:21:09.000Z</time>
      </trkpt>
      <trkpt lat="49.38044" lon="1.49084">
        <ele>191.66793823242</ele>
        <time>2017-09-03T07:21:11.000Z</time>
      </trkpt>
      <trkpt lat="49.38047" lon="1.49069">
        <ele>191.23327636719</ele>
        <time>2017-09-03T07:21:14.000Z</time>
      </trkpt>
      <trkpt lat="49.3805" lon="1.4906">
        <ele>190.75143432617</ele>
        <time>2017-09-03T07:21:16.000Z</time>
      </trkpt>
      <trkpt lat="49.38054" lon="1.49049">
        <ele>190.16323852539</ele>
        <time>2017-09-03T07:21:19.000Z</time>
      </trkpt>
      <trkpt lat="49.38056" lon="1.49041">
        <ele>189.51522827148</ele>
        <time>2017-09-03T07:21:21.000Z</time>
      </trkpt>
      <trkpt lat="49.38059" lon="1.49029">
        <ele>188.71797180176</ele>
        <time>2017-09-03T07:21:24.000Z</time>
      </trkpt>
      <trkpt lat="49.38063" lon="1.49017">
        <ele>187.97927856445</ele>
        <time>2017-09-03T07:21:27.000Z</time>
      </trkpt>
      <trkpt lat="49.38071" lon="1.49007">
        <ele>187.27226257324</ele>
        <time>2017-09-03T07:21:30.000Z</time>
      </trkpt>
      <trkpt lat="49.38077" lon="1.48997">
        <ele>186.60025024414</ele>
        <time>2017-09-03T07:21:33.000Z</time>
      </trkpt>
      <trkpt lat="49.38081" lon="1.48991">
        <ele>185.96780395508</ele>
        <time>2017-09-03T07:21:35.000Z</time>
      </trkpt>
      <trkpt lat="49.38084" lon="1.48985">
        <ele>185.44064331055</ele>
        <time>2017-09-03T07:21:37.000Z</time>
      </trkpt>
      <trkpt lat="49.38091" lon="1.48978">
        <ele>184.93840026855</ele>
        <time>2017-09-03T07:21:40.000Z</time>
      </trkpt>
      <trkpt lat="49.38094" lon="1.48973">
        <ele>184.44648742676</ele>
        <time>2017-09-03T07:21:42.000Z</time>
      </trkpt>
      <trkpt lat="49.38099" lon="1.48963">
        <ele>183.92114257812</ele>
        <time>2017-09-03T07:21:45.000Z</time>
      </trkpt>
      <trkpt lat="49.38105" lon="1.48953">
        <ele>183.32518005371</ele>
        <time>2017-09-03T07:21:48.000Z</time>
      </trkpt>
      <trkpt lat="49.38108" lon="1.48946">
        <ele>182.71765136719</ele>
        <time>2017-09-03T07:21:50.000Z</time>
      </trkpt>
      <trkpt lat="49.38117" lon="1.48934">
        <ele>182.1086730957</ele>
        <time>2017-09-03T07:21:53.000Z</time>
      </trkpt>
      <trkpt lat="49.38126" lon="1.48922">
        <ele>181.49049377441</ele>
        <time>2017-09-03T07:21:56.000Z</time>
      </trkpt>
      <trkpt lat="49.38134" lon="1.48908">
        <ele>180.95043945312</ele>
        <time>2017-09-03T07:21:59.000Z</time>
      </trkpt>
      <trkpt lat="49.38144" lon="1.48894">
        <ele>180.49295043945</ele>
        <time>2017-09-03T07:22:02.000Z</time>
      </trkpt>
      <trkpt lat="49.38149" lon="1.48886">
        <ele>180.0813293457</ele>
        <time>2017-09-03T07:22:04.000Z</time>
      </trkpt>
      <trkpt lat="49.38159" lon="1.48869">
        <ele>179.68635559082</ele>
        <time>2017-09-03T07:22:07.000Z</time>
      </trkpt>
      <trkpt lat="49.38166" lon="1.48859">
        <ele>179.32057189941</ele>
        <time>2017-09-03T07:22:09.000Z</time>
      </trkpt>
      <trkpt lat="49.38178" lon="1.48842">
        <ele>178.89059448242</ele>
        <time>2017-09-03T07:22:12.000Z</time>
      </trkpt>
      <trkpt lat="49.38192" lon="1.48825">
        <ele>178.4672088623</ele>
        <time>2017-09-03T07:22:15.000Z</time>
      </trkpt>
      <trkpt lat="49.38206" lon="1.48806">
        <ele>177.99873352051</ele>
        <time>2017-09-03T07:22:18.000Z</time>
      </trkpt>
      <trkpt lat="49.38216" lon="1.48795">
        <ele>177.58992004395</ele>
        <time>2017-09-03T07:22:20.000Z</time>
      </trkpt>
      <trkpt lat="49.38229" lon="1.48771">
        <ele>177.05709838867</ele>
        <time>2017-09-03T07:22:23.000Z</time>
      </trkpt>
      <trkpt lat="49.38241" lon="1.48753">
        <ele>176.49766540527</ele>
        <time>2017-09-03T07:22:26.000Z</time>
      </trkpt>
      <trkpt lat="49.38254" lon="1.48731">
        <ele>175.73973083496</ele>
        <time>2017-09-03T07:22:29.000Z</time>
      </trkpt>
      <trkpt lat="49.38263" lon="1.48718">
        <ele>174.83799743652</ele>
        <time>2017-09-03T07:22:31.000Z</time>
      </trkpt>
      <trkpt lat="49.38276" lon="1.48701">
        <ele>173.70352172852</ele>
        <time>2017-09-03T07:22:34.000Z</time>
      </trkpt>
      <trkpt lat="49.38286" lon="1.48686">
        <ele>172.5775604248</ele>
        <time>2017-09-03T07:22:36.000Z</time>
      </trkpt>
      <trkpt lat="49.38303" lon="1.48662">
        <ele>171.38926696777</ele>
        <time>2017-09-03T07:22:39.000Z</time>
      </trkpt>
      <trkpt lat="49.3832" lon="1.48639">
        <ele>170.3763885498</ele>
        <time>2017-09-03T07:22:42.000Z</time>
      </trkpt>
      <trkpt lat="49.38331" lon="1.48624">
        <ele>169.56611633301</ele>
        <time>2017-09-03T07:22:44.000Z</time>
      </trkpt>
      <trkpt lat="49.3835" lon="1.486">
        <ele>169.12155151367</ele>
        <time>2017-09-03T07:22:47.000Z</time>
      </trkpt>
      <trkpt lat="49.38368" lon="1.4858">
        <ele>168.96492004395</ele>
        <time>2017-09-03T07:22:50.000Z</time>
      </trkpt>
      <trkpt lat="49.3838" lon="1.48568">
        <ele>169.10580444336</ele>
        <time>2017-09-03T07:22:52.000Z</time>
      </trkpt>
      <trkpt lat="49.38397" lon="1.48549">
        <ele>169.41841125488</ele>
        <time>2017-09-03T07:22:55.000Z</time>
      </trkpt>
      <trkpt lat="49.38408" lon="1.48539">
        <ele>169.80284118652</ele>
        <time>2017-09-03T07:22:57.000Z</time>
      </trkpt>
      <trkpt lat="49.38422" lon="1.48527">
        <ele>170.14465332031</ele>
        <time>2017-09-03T07:23:00.000Z</time>
      </trkpt>
      <trkpt lat="49.3843" lon="1.48519">
        <ele>170.39645385742</ele>
        <time>2017-09-03T07:23:02.000Z</time>
      </trkpt>
      <trkpt lat="49.38445" lon="1.48509">
        <ele>170.6018371582</ele>
        <time>2017-09-03T07:23:05.000Z</time>
      </trkpt>
      <trkpt lat="49.38454" lon="1.48502">
        <ele>170.73902893066</ele>
        <time>2017-09-03T07:23:07.000Z</time>
      </trkpt>
      <trkpt lat="49.38463" lon="1.48499">
        <ele>170.84083557129</ele>
        <time>2017-09-03T07:23:09.000Z</time>
      </trkpt>
      <trkpt lat="49.38475" lon="1.48488">
        <ele>170.88870239258</ele>
        <time>2017-09-03T07:23:12.000Z</time>
      </trkpt>
      <trkpt lat="49.38488" lon="1.48481">
        <ele>170.90344238281</ele>
        <time>2017-09-03T07:23:15.000Z</time>
      </trkpt>
      <trkpt lat="49.38498" lon="1.48476">
        <ele>170.87481689453</ele>
        <time>2017-09-03T07:23:17.000Z</time>
      </trkpt>
      <trkpt lat="49.38507" lon="1.4847">
        <ele>170.74862670898</ele>
        <time>2017-09-03T07:23:19.000Z</time>
      </trkpt>
      <trkpt lat="49.38522" lon="1.48461">
        <ele>170.47207641602</ele>
        <time>2017-09-03T07:23:22.000Z</time>
      </trkpt>
      <trkpt lat="49.38532" lon="1.48456">
        <ele>170.1173248291</ele>
        <time>2017-09-03T07:23:24.000Z</time>
      </trkpt>
      <trkpt lat="49.38543" lon="1.48451">
        <ele>169.68756103516</ele>
        <time>2017-09-03T07:23:26.000Z</time>
      </trkpt>
      <trkpt lat="49.3856" lon="1.48445">
        <ele>169.13491821289</ele>
        <time>2017-09-03T07:23:29.000Z</time>
      </trkpt>
      <trkpt lat="49.38577" lon="1.48442">
        <ele>168.5217590332</ele>
        <time>2017-09-03T07:23:32.000Z</time>
      </trkpt>
      <trkpt lat="49.38594" lon="1.48439">
        <ele>167.94915771484</ele>
        <time>2017-09-03T07:23:35.000Z</time>
      </trkpt>
      <trkpt lat="49.38611" lon="1.48435">
        <ele>167.39227294922</ele>
        <time>2017-09-03T07:23:38.000Z</time>
      </trkpt>
      <trkpt lat="49.38624" lon="1.48431">
        <ele>166.86474609375</ele>
        <time>2017-09-03T07:23:40.000Z</time>
      </trkpt>
      <trkpt lat="49.38638" lon="1.48429">
        <ele>166.41142272949</ele>
        <time>2017-09-03T07:23:42.000Z</time>
      </trkpt>
      <trkpt lat="49.3866" lon="1.48422">
        <ele>165.990234375</ele>
        <time>2017-09-03T07:23:45.000Z</time>
      </trkpt>
      <trkpt lat="49.38676" lon="1.48418">
        <ele>165.59375</ele>
        <time>2017-09-03T07:23:47.000Z</time>
      </trkpt>
      <trkpt lat="49.387" lon="1.48412">
        <ele>165.1688079834</ele>
        <time>2017-09-03T07:23:50.000Z</time>
      </trkpt>
      <trkpt lat="49.38724" lon="1.48406">
        <ele>164.70826721191</ele>
        <time>2017-09-03T07:23:53.000Z</time>
      </trkpt>
      <trkpt lat="49.38739" lon="1.48402">
        <ele>164.2536315918</ele>
        <time>2017-09-03T07:23:55.000Z</time>
      </trkpt>
      <trkpt lat="49.38761" lon="1.48397">
        <ele>163.83728027344</ele>
        <time>2017-09-03T07:23:58.000Z</time>
      </trkpt>
      <trkpt lat="49.38775" lon="1.48395">
        <ele>163.46142578125</ele>
        <time>2017-09-03T07:24:00.000Z</time>
      </trkpt>
      <trkpt lat="49.38789" lon="1.48391">
        <ele>163.15914916992</ele>
        <time>2017-09-03T07:24:02.000Z</time>
      </trkpt>
      <trkpt lat="49.38803" lon="1.48387">
        <ele>162.91506958008</ele>
        <time>2017-09-03T07:24:04.000Z</time>
      </trkpt>
      <trkpt lat="49.38816" lon="1.48384">
        <ele>162.68930053711</ele>
        <time>2017-09-03T07:24:06.000Z</time>
      </trkpt>
      <trkpt lat="49.38838" lon="1.48378">
        <ele>162.46308898926</ele>
        <time>2017-09-03T07:24:09.000Z</time>
      </trkpt>
      <trkpt lat="49.38859" lon="1.48373">
        <ele>162.22370910645</ele>
        <time>2017-09-03T07:24:12.000Z</time>
      </trkpt>
      <trkpt lat="49.38881" lon="1.48368">
        <ele>161.9694519043</ele>
        <time>2017-09-03T07:24:15.000Z</time>
      </trkpt>
      <trkpt lat="49.38895" lon="1.48364">
        <ele>161.7219543457</ele>
        <time>2017-09-03T07:24:17.000Z</time>
      </trkpt>
      <trkpt lat="49.3891" lon="1.4836">
        <ele>161.482421875</ele>
        <time>2017-09-03T07:24:19.000Z</time>
      </trkpt>
      <trkpt lat="49.3893" lon="1.48355">
        <ele>161.28477478027</ele>
        <time>2017-09-03T07:24:22.000Z</time>
      </trkpt>
      <trkpt lat="49.3895" lon="1.48351">
        <ele>161.13021850586</ele>
        <time>2017-09-03T07:24:25.000Z</time>
      </trkpt>
      <trkpt lat="49.38963" lon="1.48347">
        <ele>161.02542114258</ele>
        <time>2017-09-03T07:24:27.000Z</time>
      </trkpt>
      <trkpt lat="49.38982" lon="1.48342">
        <ele>160.95788574219</ele>
        <time>2017-09-03T07:24:30.000Z</time>
      </trkpt>
      <trkpt lat="49.38995" lon="1.48338">
        <ele>160.93081665039</ele>
        <time>2017-09-03T07:24:32.000Z</time>
      </trkpt>
      <trkpt lat="49.39016" lon="1.48331">
        <ele>160.85775756836</ele>
        <time>2017-09-03T07:24:35.000Z</time>
      </trkpt>
      <trkpt lat="49.39029" lon="1.48327">
        <ele>160.71339416504</ele>
        <time>2017-09-03T07:24:37.000Z</time>
      </trkpt>
      <trkpt lat="49.39042" lon="1.48322">
        <ele>160.49137878418</ele>
        <time>2017-09-03T07:24:39.000Z</time>
      </trkpt>
      <trkpt lat="49.39061" lon="1.48316">
        <ele>160.14186096191</ele>
        <time>2017-09-03T07:24:42.000Z</time>
      </trkpt>
      <trkpt lat="49.39074" lon="1.48311">
        <ele>159.69172668457</ele>
        <time>2017-09-03T07:24:44.000Z</time>
      </trkpt>
      <trkpt lat="49.39094" lon="1.48303">
        <ele>159.16976928711</ele>
        <time>2017-09-03T07:24:47.000Z</time>
      </trkpt>
      <trkpt lat="49.39106" lon="1.48298">
        <ele>158.62425231934</ele>
        <time>2017-09-03T07:24:49.000Z</time>
      </trkpt>
      <trkpt lat="49.39126" lon="1.48289">
        <ele>157.98857116699</ele>
        <time>2017-09-03T07:24:52.000Z</time>
      </trkpt>
      <trkpt lat="49.3914" lon="1.48282">
        <ele>157.35745239258</ele>
        <time>2017-09-03T07:24:54.000Z</time>
      </trkpt>
      <trkpt lat="49.3916" lon="1.48271">
        <ele>156.60824584961</ele>
        <time>2017-09-03T07:24:57.000Z</time>
      </trkpt>
      <trkpt lat="49.39175" lon="1.48263">
        <ele>155.84359741211</ele>
        <time>2017-09-03T07:24:59.000Z</time>
      </trkpt>
      <trkpt lat="49.39196" lon="1.48251">
        <ele>154.9479675293</ele>
        <time>2017-09-03T07:25:02.000Z</time>
      </trkpt>
      <trkpt lat="49.39217" lon="1.4824">
        <ele>154.08784484863</ele>
        <time>2017-09-03T07:25:05.000Z</time>
      </trkpt>
      <trkpt lat="49.39236" lon="1.48232">
        <ele>153.22709655762</ele>
        <time>2017-09-03T07:25:08.000Z</time>
      </trkpt>
      <trkpt lat="49.39254" lon="1.48227">
        <ele>152.47250366211</ele>
        <time>2017-09-03T07:25:11.000Z</time>
      </trkpt>
      <trkpt lat="49.39266" lon="1.48224">
        <ele>151.82678222656</ele>
        <time>2017-09-03T07:25:13.000Z</time>
      </trkpt>
      <trkpt lat="49.39283" lon="1.48228">
        <ele>151.33937072754</ele>
        <time>2017-09-03T07:25:16.000Z</time>
      </trkpt>
      <trkpt lat="49.39291" lon="1.48243">
        <ele>150.96969604492</ele>
        <time>2017-09-03T07:25:18.000Z</time>
      </trkpt>
      <trkpt lat="49.393" lon="1.4826">
        <ele>150.87600708008</ele>
        <time>2017-09-03T07:25:21.000Z</time>
      </trkpt>
      <trkpt lat="49.39299" lon="1.4827">
        <ele>151.0544128418</ele>
        <time>2017-09-03T07:25:23.000Z</time>
      </trkpt>
      <trkpt lat="49.39304" lon="1.48284">
        <ele>151.52485656738</ele>
        <time>2017-09-03T07:25:25.000Z</time>
      </trkpt>
      <trkpt lat="49.39311" lon="1.48294">
        <ele>152.28155517578</ele>
        <time>2017-09-03T07:25:28.000Z</time>
      </trkpt>
      <trkpt lat="49.39316" lon="1.48308">
        <ele>153.33918762207</ele>
        <time>2017-09-03T07:25:30.000Z</time>
      </trkpt>
      <trkpt lat="49.39325" lon="1.48319">
        <ele>154.51843261719</ele>
        <time>2017-09-03T07:25:33.000Z</time>
      </trkpt>
      <trkpt lat="49.3933" lon="1.48325">
        <ele>155.69209289551</ele>
        <time>2017-09-03T07:25:35.000Z</time>
      </trkpt>
      <trkpt lat="49.39334" lon="1.48331">
        <ele>156.78601074219</ele>
        <time>2017-09-03T07:25:37.000Z</time>
      </trkpt>
      <trkpt lat="49.39337" lon="1.48337">
        <ele>157.76263427734</ele>
        <time>2017-09-03T07:25:39.000Z</time>
      </trkpt>
      <trkpt lat="49.3934" lon="1.48346">
        <ele>158.52209472656</ele>
        <time>2017-09-03T07:25:42.000Z</time>
      </trkpt>
      <trkpt lat="49.39343" lon="1.48355">
        <ele>159.07705688477</ele>
        <time>2017-09-03T07:25:45.000Z</time>
      </trkpt>
      <trkpt lat="49.39347" lon="1.48362">
        <ele>159.53323364258</ele>
        <time>2017-09-03T07:25:47.000Z</time>
      </trkpt>
      <trkpt lat="49.39352" lon="1.48371">
        <ele>159.92021179199</ele>
        <time>2017-09-03T07:25:50.000Z</time>
      </trkpt>
      <trkpt lat="49.39355" lon="1.4838">
        <ele>160.28938293457</ele>
        <time>2017-09-03T07:25:53.000Z</time>
      </trkpt>
      <trkpt lat="49.3936" lon="1.48391">
        <ele>160.68605041504</ele>
        <time>2017-09-03T07:25:56.000Z</time>
      </trkpt>
      <trkpt lat="49.39363" lon="1.48403">
        <ele>161.11410522461</ele>
        <time>2017-09-03T07:25:59.000Z</time>
      </trkpt>
      <trkpt lat="49.39366" lon="1.48413">
        <ele>161.55708312988</ele>
        <time>2017-09-03T07:26:01.000Z</time>
      </trkpt>
      <trkpt lat="49.3937" lon="1.48427">
        <ele>161.9513092041</ele>
        <time>2017-09-03T07:26:04.000Z</time>
      </trkpt>
      <trkpt lat="49.39374" lon="1.4844">
        <ele>162.27537536621</ele>
        <time>2017-09-03T07:26:07.000Z</time>
      </trkpt>
      <trkpt lat="49.39376" lon="1.48449">
        <ele>162.50024414062</ele>
        <time>2017-09-03T07:26:09.000Z</time>
      </trkpt>
      <trkpt lat="49.39379" lon="1.48461">
        <ele>162.60749816895</ele>
        <time>2017-09-03T07:26:12.000Z</time>
      </trkpt>
      <trkpt lat="49.39381" lon="1.48476">
        <ele>162.61672973633</ele>
        <time>2017-09-03T07:26:15.000Z</time>
      </trkpt>
      <trkpt lat="49.39383" lon="1.48485">
        <ele>162.56796264648</ele>
        <time>2017-09-03T07:26:17.000Z</time>
      </trkpt>
      <trkpt lat="49.39385" lon="1.48494">
        <ele>162.49462890625</ele>
        <time>2017-09-03T07:26:19.000Z</time>
      </trkpt>
      <trkpt lat="49.39386" lon="1.48504">
        <ele>162.38897705078</ele>
        <time>2017-09-03T07:26:21.000Z</time>
      </trkpt>
      <trkpt lat="49.39387" lon="1.48514">
        <ele>162.2388458252</ele>
        <time>2017-09-03T07:26:23.000Z</time>
      </trkpt>
      <trkpt lat="49.39389" lon="1.4853">
        <ele>162.01477050781</ele>
        <time>2017-09-03T07:26:26.000Z</time>
      </trkpt>
      <trkpt lat="49.3939" lon="1.48541">
        <ele>161.73812866211</ele>
        <time>2017-09-03T07:26:28.000Z</time>
      </trkpt>
      <trkpt lat="49.39392" lon="1.48557">
        <ele>161.38809204102</ele>
        <time>2017-09-03T07:26:31.000Z</time>
      </trkpt>
      <trkpt lat="49.39394" lon="1.48571">
        <ele>160.98835754395</ele>
        <time>2017-09-03T07:26:34.000Z</time>
      </trkpt>
      <trkpt lat="49.39397" lon="1.48586">
        <ele>160.5498046875</ele>
        <time>2017-09-03T07:26:37.000Z</time>
      </trkpt>
      <trkpt lat="49.39398" lon="1.48597">
        <ele>160.11331176758</ele>
        <time>2017-09-03T07:26:39.000Z</time>
      </trkpt>
      <trkpt lat="49.394" lon="1.48612">
        <ele>159.60208129883</ele>
        <time>2017-09-03T07:26:42.000Z</time>
      </trkpt>
      <trkpt lat="49.39402" lon="1.48628">
        <ele>159.04559326172</ele>
        <time>2017-09-03T07:26:45.000Z</time>
      </trkpt>
      <trkpt lat="49.39402" lon="1.48637">
        <ele>158.48678588867</ele>
        <time>2017-09-03T07:26:47.000Z</time>
      </trkpt>
      <trkpt lat="49.39402" lon="1.4865">
        <ele>157.90791320801</ele>
        <time>2017-09-03T07:26:50.000Z</time>
      </trkpt>
      <trkpt lat="49.39402" lon="1.48667">
        <ele>157.27035522461</ele>
        <time>2017-09-03T07:26:53.000Z</time>
      </trkpt>
      <trkpt lat="49.39404" lon="1.48687">
        <ele>156.68016052246</ele>
        <time>2017-09-03T07:26:56.000Z</time>
      </trkpt>
      <trkpt lat="49.39405" lon="1.48699">
        <ele>156.16818237305</ele>
        <time>2017-09-03T07:26:58.000Z</time>
      </trkpt>
      <trkpt lat="49.39404" lon="1.48707">
        <ele>155.70439147949</ele>
        <time>2017-09-03T07:27:00.000Z</time>
      </trkpt>
      <trkpt lat="49.39403" lon="1.4872">
        <ele>155.29840087891</ele>
        <time>2017-09-03T07:27:02.000Z</time>
      </trkpt>
      <trkpt lat="49.39404" lon="1.4874">
        <ele>154.94799804688</ele>
        <time>2017-09-03T07:27:05.000Z</time>
      </trkpt>
      <trkpt lat="49.39405" lon="1.48752">
        <ele>154.63374328613</ele>
        <time>2017-09-03T07:27:07.000Z</time>
      </trkpt>
      <trkpt lat="49.39407" lon="1.48764">
        <ele>154.3244934082</ele>
        <time>2017-09-03T07:27:09.000Z</time>
      </trkpt>
      <trkpt lat="49.39408" lon="1.48781">
        <ele>153.97616577148</ele>
        <time>2017-09-03T07:27:12.000Z</time>
      </trkpt>
      <trkpt lat="49.39409" lon="1.48799">
        <ele>153.60684204102</ele>
        <time>2017-09-03T07:27:15.000Z</time>
      </trkpt>
      <trkpt lat="49.39409" lon="1.48816">
        <ele>153.25660705566</ele>
        <time>2017-09-03T07:27:18.000Z</time>
      </trkpt>
      <trkpt lat="49.3941" lon="1.48827">
        <ele>152.9144744873</ele>
        <time>2017-09-03T07:27:20.000Z</time>
      </trkpt>
      <trkpt lat="49.3941" lon="1.4884">
        <ele>152.59294128418</ele>
        <time>2017-09-03T07:27:23.000Z</time>
      </trkpt>
      <trkpt lat="49.39407" lon="1.48853">
        <ele>152.3546295166</ele>
        <time>2017-09-03T07:27:26.000Z</time>
      </trkpt>
      <trkpt lat="49.39407" lon="1.48873">
        <ele>152.19166564941</ele>
        <time>2017-09-03T07:27:29.000Z</time>
      </trkpt>
      <trkpt lat="49.3941" lon="1.48885">
        <ele>152.09950256348</ele>
        <time>2017-09-03T07:27:31.000Z</time>
      </trkpt>
      <trkpt lat="49.39413" lon="1.48897">
        <ele>152.05305480957</ele>
        <time>2017-09-03T07:27:34.000Z</time>
      </trkpt>
      <trkpt lat="49.39413" lon="1.48901">
        <ele>152.03988647461</ele>
        <time>2017-09-03T07:27:36.000Z</time>
      </trkpt>
      <trkpt lat="49.39413" lon="1.48904">
        <ele>152.0228729248</ele>
        <time>2017-09-03T07:27:39.000Z</time>
      </trkpt>
      <trkpt lat="49.39415" lon="1.48904">
        <ele>152.01124572754</ele>
        <time>2017-09-03T07:27:43.000Z</time>
      </trkpt>
      <trkpt lat="49.39415" lon="1.48904">
        <ele>152.00605773926</ele>
        <time>2017-09-03T07:27:51.000Z</time>
      </trkpt>
      <trkpt lat="49.39415" lon="1.48902">
        <ele>152.00466918945</ele>
        <time>2017-09-03T07:27:53.000Z</time>
      </trkpt>
      <trkpt lat="49.39414" lon="1.48901">
        <ele>152.0043182373</ele>
        <time>2017-09-03T07:27:57.000Z</time>
      </trkpt>
      <trkpt lat="49.39414" lon="1.48901">
        <ele>152.0043182373</ele>
        <time>2017-09-03T07:28:17.000Z</time>
      </trkpt>
      <trkpt lat="49.39413" lon="1.48898">
        <ele>152.00514221191</ele>
        <time>2017-09-03T07:28:27.000Z</time>
      </trkpt>
      <trkpt lat="49.39411" lon="1.48896">
        <ele>152.00752258301</ele>
        <time>2017-09-03T07:28:30.000Z</time>
      </trkpt>
      <trkpt lat="49.3941" lon="1.48894">
        <ele>152.01156616211</ele>
        <time>2017-09-03T07:28:33.000Z</time>
      </trkpt>
      <trkpt lat="49.39411" lon="1.48893">
        <ele>152.01477050781</ele>
        <time>2017-09-03T07:28:35.000Z</time>
      </trkpt>
      <trkpt lat="49.39413" lon="1.48892">
        <ele>152.01596069336</ele>
        <time>2017-09-03T07:28:37.000Z</time>
      </trkpt>
      <trkpt lat="49.39415" lon="1.48887">
        <ele>152.01580810547</ele>
        <time>2017-09-03T07:28:40.000Z</time>
      </trkpt>
      <trkpt lat="49.39418" lon="1.48881">
        <ele>152.00704956055</ele>
        <time>2017-09-03T07:28:48.000Z</time>
      </trkpt>
      <trkpt lat="49.39418" lon="1.48882">
        <ele>151.99572753906</ele>
        <time>2017-09-03T07:28:58.000Z</time>
      </trkpt>
      <trkpt lat="49.39418" lon="1.48888">
        <ele>151.98709106445</ele>
        <time>2017-09-03T07:29:00.000Z</time>
      </trkpt>
      <trkpt lat="49.39421" lon="1.48892">
        <ele>151.97770690918</ele>
        <time>2017-09-03T07:29:02.000Z</time>
      </trkpt>
      <trkpt lat="49.39423" lon="1.48895">
        <ele>151.96784973145</ele>
        <time>2017-09-03T07:29:05.000Z</time>
      </trkpt>
      <trkpt lat="49.3942" lon="1.48904">
        <ele>151.97415161133</ele>
        <time>2017-09-03T07:29:08.000Z</time>
      </trkpt>
      <trkpt lat="49.39414" lon="1.48913">
        <ele>151.98121643066</ele>
        <time>2017-09-03T07:29:11.000Z</time>
      </trkpt>
      <trkpt lat="49.39413" lon="1.48914">
        <ele>151.986328125</ele>
        <time>2017-09-03T07:29:13.000Z</time>
      </trkpt>
      <trkpt lat="49.39414" lon="1.48914">
        <ele>151.99356079102</ele>
        <time>2017-09-03T07:29:16.000Z</time>
      </trkpt>
      <trkpt lat="49.39413" lon="1.48915">
        <ele>152.0016784668</ele>
        <time>2017-09-03T07:29:22.000Z</time>
      </trkpt>
      <trkpt lat="49.39414" lon="1.48914">
        <ele>152.00119018555</ele>
        <time>2017-09-03T07:29:25.000Z</time>
      </trkpt>
      <trkpt lat="49.39416" lon="1.48912">
        <ele>152.00100708008</ele>
        <time>2017-09-03T07:29:27.000Z</time>
      </trkpt>
      <trkpt lat="49.39417" lon="1.48909">
        <ele>152.00105285645</ele>
        <time>2017-09-03T07:29:30.000Z</time>
      </trkpt>
      <trkpt lat="49.39417" lon="1.48908">
        <ele>152.00135803223</ele>
        <time>2017-09-03T07:29:33.000Z</time>
      </trkpt>
      <trkpt lat="49.39417" lon="1.48907">
        <ele>152.0012512207</ele>
        <time>2017-09-03T07:29:37.000Z</time>
      </trkpt>
      <trkpt lat="49.39417" lon="1.48908">
        <ele>152.0012512207</ele>
        <time>2017-09-03T07:29:41.000Z</time>
      </trkpt>
      <trkpt lat="49.39418" lon="1.4891">
        <ele>152.00358581543</ele>
        <time>2017-09-03T07:29:44.000Z</time>
      </trkpt>
      <trkpt lat="49.3942" lon="1.48912">
        <ele>152.00825500488</ele>
        <time>2017-09-03T07:29:46.000Z</time>
      </trkpt>
      <trkpt lat="49.3942" lon="1.48915">
        <ele>152.01432800293</ele>
        <time>2017-09-03T07:29:50.000Z</time>
      </trkpt>
      <trkpt lat="49.39421" lon="1.48916">
        <ele>152.0238494873</ele>
        <time>2017-09-03T07:29:55.000Z</time>
      </trkpt>
      <trkpt lat="49.39422" lon="1.48916">
        <ele>152.03558349609</ele>
        <time>2017-09-03T07:30:07.000Z</time>
      </trkpt>
      <trkpt lat="49.3942" lon="1.48916">
        <ele>152.04013061523</ele>
        <time>2017-09-03T07:30:10.000Z</time>
      </trkpt>
      <trkpt lat="49.39419" lon="1.48917">
        <ele>152.04379272461</ele>
        <time>2017-09-03T07:30:13.000Z</time>
      </trkpt>
      <trkpt lat="49.39419" lon="1.48917">
        <ele>152.04379272461</ele>
        <time>2017-09-03T07:30:33.000Z</time>
      </trkpt>
      <trkpt lat="49.39418" lon="1.48912">
        <ele>152.03886413574</ele>
        <time>2017-09-03T07:30:46.000Z</time>
      </trkpt>
      <trkpt lat="49.39417" lon="1.48912">
        <ele>152.02972412109</ele>
        <time>2017-09-03T07:30:50.000Z</time>
      </trkpt>
      <trkpt lat="49.39416" lon="1.48913">
        <ele>152.0178527832</ele>
        <time>2017-09-03T07:30:53.000Z</time>
      </trkpt>
      <trkpt lat="49.39415" lon="1.48914">
        <ele>152.0110168457</ele>
        <time>2017-09-03T07:30:56.000Z</time>
      </trkpt>
      <trkpt lat="49.39414" lon="1.48915">
        <ele>152.00250244141</ele>
        <time>2017-09-03T07:30:59.000Z</time>
      </trkpt>
      <trkpt lat="49.39413" lon="1.48917">
        <ele>152.00405883789</ele>
        <time>2017-09-03T07:31:02.000Z</time>
      </trkpt>
      <trkpt lat="49.39412" lon="1.48918">
        <ele>152.01652526855</ele>
        <time>2017-09-03T07:31:04.000Z</time>
      </trkpt>
      <trkpt lat="49.3941" lon="1.48919">
        <ele>152.03930664062</ele>
        <time>2017-09-03T07:31:06.000Z</time>
      </trkpt>
      <trkpt lat="49.39408" lon="1.48921">
        <ele>152.0771484375</ele>
        <time>2017-09-03T07:31:09.000Z</time>
      </trkpt>
      <trkpt lat="49.39408" lon="1.48919">
        <ele>152.09330749512</ele>
        <time>2017-09-03T07:31:12.000Z</time>
      </trkpt>
      <trkpt lat="49.39406" lon="1.48918">
        <ele>152.10275268555</ele>
        <time>2017-09-03T07:31:14.000Z</time>
      </trkpt>
      <trkpt lat="49.39405" lon="1.48919">
        <ele>152.10813903809</ele>
        <time>2017-09-03T07:31:16.000Z</time>
      </trkpt>
      <trkpt lat="49.39405" lon="1.4892">
        <ele>152.11430358887</ele>
        <time>2017-09-03T07:31:19.000Z</time>
      </trkpt>
      <trkpt lat="49.39408" lon="1.48923">
        <ele>152.12716674805</ele>
        <time>2017-09-03T07:31:22.000Z</time>
      </trkpt>
      <trkpt lat="49.39411" lon="1.48923">
        <ele>152.16818237305</ele>
        <time>2017-09-03T07:31:25.000Z</time>
      </trkpt>
      <trkpt lat="49.39413" lon="1.48923">
        <ele>152.21798706055</ele>
        <time>2017-09-03T07:31:27.000Z</time>
      </trkpt>
      <trkpt lat="49.39415" lon="1.48924">
        <ele>152.26614379883</ele>
        <time>2017-09-03T07:31:30.000Z</time>
      </trkpt>
      <trkpt lat="49.39414" lon="1.48926">
        <ele>152.32070922852</ele>
        <time>2017-09-03T07:31:35.000Z</time>
      </trkpt>
      <trkpt lat="49.39415" lon="1.48928">
        <ele>152.37524414062</ele>
        <time>2017-09-03T07:31:38.000Z</time>
      </trkpt>
      <trkpt lat="49.39413" lon="1.48924">
        <ele>152.38432312012</ele>
        <time>2017-09-03T07:31:41.000Z</time>
      </trkpt>
      <trkpt lat="49.39412" lon="1.48921">
        <ele>152.36372375488</ele>
        <time>2017-09-03T07:31:44.000Z</time>
      </trkpt>
      <trkpt lat="49.39412" lon="1.48918">
        <ele>152.30853271484</ele>
        <time>2017-09-03T07:31:47.000Z</time>
      </trkpt>
      <trkpt lat="49.39411" lon="1.48919">
        <ele>152.24404907227</ele>
        <time>2017-09-03T07:31:54.000Z</time>
      </trkpt>
      <trkpt lat="49.39408" lon="1.48921">
        <ele>152.17256164551</ele>
        <time>2017-09-03T07:31:57.000Z</time>
      </trkpt>
      <trkpt lat="49.39405" lon="1.48923">
        <ele>152.1555480957</ele>
        <time>2017-09-03T07:31:59.000Z</time>
      </trkpt>
      <trkpt lat="49.39405" lon="1.48926">
        <ele>152.1922454834</ele>
        <time>2017-09-03T07:32:01.000Z</time>
      </trkpt>
      <trkpt lat="49.39405" lon="1.48928">
        <ele>152.2738494873</ele>
        <time>2017-09-03T07:32:03.000Z</time>
      </trkpt>
      <trkpt lat="49.39406" lon="1.4893">
        <ele>152.36389160156</ele>
        <time>2017-09-03T07:32:06.000Z</time>
      </trkpt>
      <trkpt lat="49.39407" lon="1.48931">
        <ele>152.44877624512</ele>
        <time>2017-09-03T07:32:15.000Z</time>
      </trkpt>
      <trkpt lat="49.39409" lon="1.48931">
        <ele>152.52252197266</ele>
        <time>2017-09-03T07:32:17.000Z</time>
      </trkpt>
      <trkpt lat="49.3941" lon="1.48931">
        <ele>152.56672668457</ele>
        <time>2017-09-03T07:32:19.000Z</time>
      </trkpt>
      <trkpt lat="49.39412" lon="1.4893">
        <ele>152.59739685059</ele>
        <time>2017-09-03T07:32:21.000Z</time>
      </trkpt>
      <trkpt lat="49.39414" lon="1.48931">
        <ele>152.61767578125</ele>
        <time>2017-09-03T07:32:24.000Z</time>
      </trkpt>
      <trkpt lat="49.39414" lon="1.48928">
        <ele>152.60847473145</ele>
        <time>2017-09-03T07:32:29.000Z</time>
      </trkpt>
      <trkpt lat="49.39413" lon="1.48928">
        <ele>152.58711242676</ele>
        <time>2017-09-03T07:32:32.000Z</time>
      </trkpt>
      <trkpt lat="49.39412" lon="1.48928">
        <ele>152.56991577148</ele>
        <time>2017-09-03T07:32:35.000Z</time>
      </trkpt>
      <trkpt lat="49.39411" lon="1.4893">
        <ele>152.56283569336</ele>
        <time>2017-09-03T07:32:38.000Z</time>
      </trkpt>
      <trkpt lat="49.39412" lon="1.48931">
        <ele>152.55857849121</ele>
        <time>2017-09-03T07:32:41.000Z</time>
      </trkpt>
      <trkpt lat="49.39411" lon="1.48934">
        <ele>152.60012817383</ele>
        <time>2017-09-03T07:32:45.000Z</time>
      </trkpt>
      <trkpt lat="49.39413" lon="1.48938">
        <ele>152.69149780273</ele>
        <time>2017-09-03T07:32:48.000Z</time>
      </trkpt>
      <trkpt lat="49.39414" lon="1.4894">
        <ele>152.80043029785</ele>
        <time>2017-09-03T07:32:50.000Z</time>
      </trkpt>
      <trkpt lat="49.39415" lon="1.48943">
        <ele>152.92953491211</ele>
        <time>2017-09-03T07:32:52.000Z</time>
      </trkpt>
      <trkpt lat="49.39416" lon="1.48948">
        <ele>153.10263061523</ele>
        <time>2017-09-03T07:32:55.000Z</time>
      </trkpt>
      <trkpt lat="49.39416" lon="1.48953">
        <ele>153.2942199707</ele>
        <time>2017-09-03T07:32:57.000Z</time>
      </trkpt>
      <trkpt lat="49.39415" lon="1.48959">
        <ele>153.50061035156</ele>
        <time>2017-09-03T07:33:00.000Z</time>
      </trkpt>
      <trkpt lat="49.39416" lon="1.48963">
        <ele>153.72731018066</ele>
        <time>2017-09-03T07:33:02.000Z</time>
      </trkpt>
      <trkpt lat="49.39416" lon="1.48969">
        <ele>153.97940063477</ele>
        <time>2017-09-03T07:33:05.000Z</time>
      </trkpt>
      <trkpt lat="49.39415" lon="1.48972">
        <ele>154.20684814453</ele>
        <time>2017-09-03T07:33:07.000Z</time>
      </trkpt>
      <trkpt lat="49.39415" lon="1.48976">
        <ele>154.42098999023</ele>
        <time>2017-09-03T07:33:09.000Z</time>
      </trkpt>
      <trkpt lat="49.39415" lon="1.48978">
        <ele>154.60237121582</ele>
        <time>2017-09-03T07:33:11.000Z</time>
      </trkpt>
      <trkpt lat="49.39415" lon="1.4898">
        <ele>154.75828552246</ele>
        <time>2017-09-03T07:33:14.000Z</time>
      </trkpt>
      <trkpt lat="49.39415" lon="1.4898">
        <ele>154.75828552246</ele>
        <time>2017-09-03T07:33:34.000Z</time>
      </trkpt>
      <trkpt lat="49.39416" lon="1.48973">
        <ele>154.79699707031</ele>
        <time>2017-09-03T07:33:39.000Z</time>
      </trkpt>
      <trkpt lat="49.39415" lon="1.48971">
        <ele>154.77789306641</ele>
        <time>2017-09-03T07:33:42.000Z</time>
      </trkpt>
      <trkpt lat="49.39414" lon="1.48971">
        <ele>154.72761535645</ele>
        <time>2017-09-03T07:33:45.000Z</time>
      </trkpt>
      <trkpt lat="49.39413" lon="1.4897">
        <ele>154.63911437988</ele>
        <time>2017-09-03T07:33:47.000Z</time>
      </trkpt>
      <trkpt lat="49.39407" lon="1.48964">
        <ele>154.4393157959</ele>
        <time>2017-09-03T07:33:50.000Z</time>
      </trkpt>
      <trkpt lat="49.39403" lon="1.48961">
        <ele>154.26239013672</ele>
        <time>2017-09-03T07:33:53.000Z</time>
      </trkpt>
      <trkpt lat="49.39404" lon="1.48962">
        <ele>154.12693786621</ele>
        <time>2017-09-03T07:33:56.000Z</time>
      </trkpt>
      <trkpt lat="49.39406" lon="1.48963">
        <ele>154.00729370117</ele>
        <time>2017-09-03T07:33:58.000Z</time>
      </trkpt>
      <trkpt lat="49.39408" lon="1.48964">
        <ele>153.9193572998</ele>
        <time>2017-09-03T07:34:01.000Z</time>
      </trkpt>
      <trkpt lat="49.39408" lon="1.48964">
        <ele>153.9193572998</ele>
        <time>2017-09-03T07:34:21.000Z</time>
      </trkpt>
      <trkpt lat="49.39412" lon="1.48966">
        <ele>153.97357177734</ele>
        <time>2017-09-03T07:34:43.000Z</time>
      </trkpt>
      <trkpt lat="49.39412" lon="1.48966">
        <ele>153.97357177734</ele>
        <time>2017-09-03T07:35:03.000Z</time>
      </trkpt>
      <trkpt lat="49.39412" lon="1.4897">
        <ele>154.09982299805</ele>
        <time>2017-09-03T07:35:56.000Z</time>
      </trkpt>
      <trkpt lat="49.39412" lon="1.4897">
        <ele>154.09982299805</ele>
        <time>2017-09-03T07:36:16.000Z</time>
      </trkpt>
      <trkpt lat="49.39414" lon="1.48976">
        <ele>154.27717590332</ele>
        <time>2017-09-03T07:37:39.000Z</time>
      </trkpt>
      <trkpt lat="49.39416" lon="1.48979">
        <ele>154.48233032227</ele>
        <time>2017-09-03T07:37:48.000Z</time>
      </trkpt>
      <trkpt lat="49.39416" lon="1.48981">
        <ele>154.68989562988</ele>
        <time>2017-09-03T07:37:54.000Z</time>
      </trkpt>
      <trkpt lat="49.39417" lon="1.48985">
        <ele>154.89179992676</ele>
        <time>2017-09-03T07:37:56.000Z</time>
      </trkpt>
      <trkpt lat="49.39419" lon="1.48992">
        <ele>155.13827514648</ele>
        <time>2017-09-03T07:37:59.000Z</time>
      </trkpt>
      <trkpt lat="49.39421" lon="1.48999">
        <ele>155.39033508301</ele>
        <time>2017-09-03T07:38:01.000Z</time>
      </trkpt>
      <trkpt lat="49.39424" lon="1.49005">
        <ele>155.62683105469</ele>
        <time>2017-09-03T07:38:03.000Z</time>
      </trkpt>
      <trkpt lat="49.39429" lon="1.49013">
        <ele>155.86730957031</ele>
        <time>2017-09-03T07:38:06.000Z</time>
      </trkpt>
      <trkpt lat="49.39434" lon="1.49022">
        <ele>156.08561706543</ele>
        <time>2017-09-03T07:38:09.000Z</time>
      </trkpt>
      <trkpt lat="49.39436" lon="1.49028">
        <ele>156.23661804199</ele>
        <time>2017-09-03T07:38:11.000Z</time>
      </trkpt>
      <trkpt lat="49.39439" lon="1.49036">
        <ele>156.32928466797</ele>
        <time>2017-09-03T07:38:13.000Z</time>
      </trkpt>
      <trkpt lat="49.39442" lon="1.49043">
        <ele>156.40147399902</ele>
        <time>2017-09-03T07:38:15.000Z</time>
      </trkpt>
      <trkpt lat="49.39447" lon="1.4905">
        <ele>156.45462036133</ele>
        <time>2017-09-03T07:38:17.000Z</time>
      </trkpt>
      <trkpt lat="49.39454" lon="1.49058">
        <ele>156.48654174805</ele>
        <time>2017-09-03T07:38:20.000Z</time>
      </trkpt>
      <trkpt lat="49.39459" lon="1.49061">
        <ele>156.50286865234</ele>
        <time>2017-09-03T07:38:22.000Z</time>
      </trkpt>
      <trkpt lat="49.39463" lon="1.49065">
        <ele>156.5033416748</ele>
        <time>2017-09-03T07:38:24.000Z</time>
      </trkpt>
      <trkpt lat="49.39469" lon="1.49071">
        <ele>156.4850769043</ele>
        <time>2017-09-03T07:38:26.000Z</time>
      </trkpt>
      <trkpt lat="49.39479" lon="1.49077">
        <ele>156.43731689453</ele>
        <time>2017-09-03T07:38:29.000Z</time>
      </trkpt>
      <trkpt lat="49.39485" lon="1.49077">
        <ele>156.37963867188</ele>
        <time>2017-09-03T07:38:31.000Z</time>
      </trkpt>
      <trkpt lat="49.39489" lon="1.49075">
        <ele>156.32180786133</ele>
        <time>2017-09-03T07:38:34.000Z</time>
      </trkpt>
      <trkpt lat="49.39492" lon="1.49076">
        <ele>156.2610168457</ele>
        <time>2017-09-03T07:38:36.000Z</time>
      </trkpt>
      <trkpt lat="49.39496" lon="1.49079">
        <ele>156.19750976562</ele>
        <time>2017-09-03T07:38:38.000Z</time>
      </trkpt>
      <trkpt lat="49.39503" lon="1.49078">
        <ele>156.14273071289</ele>
        <time>2017-09-03T07:38:41.000Z</time>
      </trkpt>
      <trkpt lat="49.39509" lon="1.49076">
        <ele>156.09284973145</ele>
        <time>2017-09-03T07:38:43.000Z</time>
      </trkpt>
      <trkpt lat="49.39516" lon="1.49075">
        <ele>156.03225708008</ele>
        <time>2017-09-03T07:38:46.000Z</time>
      </trkpt>
      <trkpt lat="49.39521" lon="1.49074">
        <ele>155.9697265625</ele>
        <time>2017-09-03T07:38:48.000Z</time>
      </trkpt>
      <trkpt lat="49.39528" lon="1.49073">
        <ele>155.90887451172</ele>
        <time>2017-09-03T07:38:50.000Z</time>
      </trkpt>
      <trkpt lat="49.3954" lon="1.49073">
        <ele>155.83248901367</ele>
        <time>2017-09-03T07:38:53.000Z</time>
      </trkpt>
      <trkpt lat="49.39557" lon="1.4907">
        <ele>155.73211669922</ele>
        <time>2017-09-03T07:38:56.000Z</time>
      </trkpt>
      <trkpt lat="49.39568" lon="1.49069">
        <ele>155.62243652344</ele>
        <time>2017-09-03T07:38:58.000Z</time>
      </trkpt>
      <trkpt lat="49.39585" lon="1.49068">
        <ele>155.48236083984</ele>
        <time>2017-09-03T07:39:01.000Z</time>
      </trkpt>
      <trkpt lat="49.39596" lon="1.49065">
        <ele>155.3010559082</ele>
        <time>2017-09-03T07:39:03.000Z</time>
      </trkpt>
      <trkpt lat="49.3961" lon="1.49056">
        <ele>155.09037780762</ele>
        <time>2017-09-03T07:39:06.000Z</time>
      </trkpt>
      <trkpt lat="49.39619" lon="1.49049">
        <ele>154.87240600586</ele>
        <time>2017-09-03T07:39:08.000Z</time>
      </trkpt>
      <trkpt lat="49.39631" lon="1.49042">
        <ele>154.61477661133</ele>
        <time>2017-09-03T07:39:11.000Z</time>
      </trkpt>
      <trkpt lat="49.3964" lon="1.49039">
        <ele>154.34683227539</ele>
        <time>2017-09-03T07:39:13.000Z</time>
      </trkpt>
      <trkpt lat="49.3965" lon="1.49038">
        <ele>154.0715637207</ele>
        <time>2017-09-03T07:39:15.000Z</time>
      </trkpt>
      <trkpt lat="49.39665" lon="1.49035">
        <ele>153.76516723633</ele>
        <time>2017-09-03T07:39:18.000Z</time>
      </trkpt>
      <trkpt lat="49.39676" lon="1.49032">
        <ele>153.52398681641</ele>
        <time>2017-09-03T07:39:20.000Z</time>
      </trkpt>
      <trkpt lat="49.39688" lon="1.4903">
        <ele>153.39533996582</ele>
        <time>2017-09-03T07:39:22.000Z</time>
      </trkpt>
      <trkpt lat="49.39706" lon="1.49028">
        <ele>153.39054870605</ele>
        <time>2017-09-03T07:39:25.000Z</time>
      </trkpt>
      <trkpt lat="49.39717" lon="1.49025">
        <ele>153.49641418457</ele>
        <time>2017-09-03T07:39:27.000Z</time>
      </trkpt>
      <trkpt lat="49.39733" lon="1.49027">
        <ele>153.75459289551</ele>
        <time>2017-09-03T07:39:30.000Z</time>
      </trkpt>
      <trkpt lat="49.3975" lon="1.49021">
        <ele>154.06526184082</ele>
        <time>2017-09-03T07:39:33.000Z</time>
      </trkpt>
      <trkpt lat="49.39761" lon="1.49018">
        <ele>154.337890625</ele>
        <time>2017-09-03T07:39:35.000Z</time>
      </trkpt>
      <trkpt lat="49.39773" lon="1.49017">
        <ele>154.54010009766</ele>
        <time>2017-09-03T07:39:37.000Z</time>
      </trkpt>
      <trkpt lat="49.3979" lon="1.4901">
        <ele>154.70872497559</ele>
        <time>2017-09-03T07:39:40.000Z</time>
      </trkpt>
      <trkpt lat="49.39801" lon="1.49006">
        <ele>154.82609558105</ele>
        <time>2017-09-03T07:39:42.000Z</time>
      </trkpt>
      <trkpt lat="49.39812" lon="1.49002">
        <ele>154.87466430664</ele>
        <time>2017-09-03T07:39:44.000Z</time>
      </trkpt>
      <trkpt lat="49.39828" lon="1.48995">
        <ele>154.90737915039</ele>
        <time>2017-09-03T07:39:47.000Z</time>
      </trkpt>
      <trkpt lat="49.39844" lon="1.48994">
        <ele>154.93074035645</ele>
        <time>2017-09-03T07:39:50.000Z</time>
      </trkpt>
      <trkpt lat="49.39855" lon="1.48996">
        <ele>154.93862915039</ele>
        <time>2017-09-03T07:39:52.000Z</time>
      </trkpt>
      <trkpt lat="49.39868" lon="1.48992">
        <ele>154.91804504395</ele>
        <time>2017-09-03T07:39:55.000Z</time>
      </trkpt>
      <trkpt lat="49.39875" lon="1.48987">
        <ele>154.85841369629</ele>
        <time>2017-09-03T07:39:57.000Z</time>
      </trkpt>
      <trkpt lat="49.39881" lon="1.48988">
        <ele>154.8078918457</ele>
        <time>2017-09-03T07:39:59.000Z</time>
      </trkpt>
      <trkpt lat="49.39881" lon="1.48995">
        <ele>154.79917907715</ele>
        <time>2017-09-03T07:40:02.000Z</time>
      </trkpt>
      <trkpt lat="49.3988" lon="1.48996">
        <ele>154.79423522949</ele>
        <time>2017-09-03T07:40:05.000Z</time>
      </trkpt>
      <trkpt lat="49.39877" lon="1.48995">
        <ele>154.802734375</ele>
        <time>2017-09-03T07:40:12.000Z</time>
      </trkpt>
      <trkpt lat="49.39875" lon="1.48994">
        <ele>154.83576965332</ele>
        <time>2017-09-03T07:40:15.000Z</time>
      </trkpt>
      <trkpt lat="49.39874" lon="1.48997">
        <ele>154.88148498535</ele>
        <time>2017-09-03T07:40:17.000Z</time>
      </trkpt>
      <trkpt lat="49.39877" lon="1.49001">
        <ele>154.90713500977</ele>
        <time>2017-09-03T07:40:20.000Z</time>
      </trkpt>
      <trkpt lat="49.39879" lon="1.49002">
        <ele>154.92861938477</ele>
        <time>2017-09-03T07:40:22.000Z</time>
      </trkpt>
      <trkpt lat="49.3988" lon="1.49003">
        <ele>154.95637512207</ele>
        <time>2017-09-03T07:40:26.000Z</time>
      </trkpt>
      <trkpt lat="49.39884" lon="1.49012">
        <ele>154.99349975586</ele>
        <time>2017-09-03T07:40:29.000Z</time>
      </trkpt>
      <trkpt lat="49.39887" lon="1.49029">
        <ele>155.02871704102</ele>
        <time>2017-09-03T07:40:32.000Z</time>
      </trkpt>
      <trkpt lat="49.39888" lon="1.49042">
        <ele>155.06033325195</ele>
        <time>2017-09-03T07:40:34.000Z</time>
      </trkpt>
      <trkpt lat="49.39888" lon="1.49061">
        <ele>155.10760498047</ele>
        <time>2017-09-03T07:40:37.000Z</time>
      </trkpt>
      <trkpt lat="49.39888" lon="1.49074">
        <ele>155.16445922852</ele>
        <time>2017-09-03T07:40:39.000Z</time>
      </trkpt>
      <trkpt lat="49.39888" lon="1.49094">
        <ele>155.18899536133</ele>
        <time>2017-09-03T07:40:42.000Z</time>
      </trkpt>
      <trkpt lat="49.39888" lon="1.49107">
        <ele>155.15725708008</ele>
        <time>2017-09-03T07:40:44.000Z</time>
      </trkpt>
      <trkpt lat="49.39889" lon="1.49127">
        <ele>155.05224609375</ele>
        <time>2017-09-03T07:40:47.000Z</time>
      </trkpt>
      <trkpt lat="49.39889" lon="1.49148">
        <ele>154.86616516113</ele>
        <time>2017-09-03T07:40:50.000Z</time>
      </trkpt>
      <trkpt lat="49.3989" lon="1.49161">
        <ele>154.6266784668</ele>
        <time>2017-09-03T07:40:52.000Z</time>
      </trkpt>
      <trkpt lat="49.3989" lon="1.49181">
        <ele>154.48947143555</ele>
        <time>2017-09-03T07:40:55.000Z</time>
      </trkpt>
      <trkpt lat="49.39891" lon="1.49194">
        <ele>154.48233032227</ele>
        <time>2017-09-03T07:40:57.000Z</time>
      </trkpt>
      <trkpt lat="49.39891" lon="1.49214">
        <ele>154.67471313477</ele>
        <time>2017-09-03T07:41:00.000Z</time>
      </trkpt>
      <trkpt lat="49.39892" lon="1.49235">
        <ele>155.07482910156</ele>
        <time>2017-09-03T07:41:03.000Z</time>
      </trkpt>
      <trkpt lat="49.39892" lon="1.49255">
        <ele>155.61026000977</ele>
        <time>2017-09-03T07:41:06.000Z</time>
      </trkpt>
      <trkpt lat="49.39893" lon="1.49268">
        <ele>156.04098510742</ele>
        <time>2017-09-03T07:41:08.000Z</time>
      </trkpt>
      <trkpt lat="49.39893" lon="1.4929">
        <ele>156.33598327637</ele>
        <time>2017-09-03T07:41:11.000Z</time>
      </trkpt>
      <trkpt lat="49.39893" lon="1.49311">
        <ele>156.44734191895</ele>
        <time>2017-09-03T07:41:14.000Z</time>
      </trkpt>
      <trkpt lat="49.39894" lon="1.49325">
        <ele>156.38595581055</ele>
        <time>2017-09-03T07:41:16.000Z</time>
      </trkpt>
      <trkpt lat="49.39894" lon="1.49348">
        <ele>156.22062683105</ele>
        <time>2017-09-03T07:41:19.000Z</time>
      </trkpt>
      <trkpt lat="49.39895" lon="1.49371">
        <ele>156.08833312988</ele>
        <time>2017-09-03T07:41:22.000Z</time>
      </trkpt>
      <trkpt lat="49.39894" lon="1.49393">
        <ele>155.99577331543</ele>
        <time>2017-09-03T07:41:25.000Z</time>
      </trkpt>
      <trkpt lat="49.39893" lon="1.49408">
        <ele>155.94180297852</ele>
        <time>2017-09-03T07:41:27.000Z</time>
      </trkpt>
      <trkpt lat="49.39891" lon="1.49431">
        <ele>155.95741271973</ele>
        <time>2017-09-03T07:41:30.000Z</time>
      </trkpt>
      <trkpt lat="49.39891" lon="1.49453">
        <ele>156.07412719727</ele>
        <time>2017-09-03T07:41:33.000Z</time>
      </trkpt>
      <trkpt lat="49.39892" lon="1.49469">
        <ele>156.25988769531</ele>
        <time>2017-09-03T07:41:35.000Z</time>
      </trkpt>
      <trkpt lat="49.39893" lon="1.49483">
        <ele>156.52188110352</ele>
        <time>2017-09-03T07:41:37.000Z</time>
      </trkpt>
      <trkpt lat="49.39894" lon="1.49503">
        <ele>156.88507080078</ele>
        <time>2017-09-03T07:41:40.000Z</time>
      </trkpt>
      <trkpt lat="49.39894" lon="1.49517">
        <ele>157.22550964355</ele>
        <time>2017-09-03T07:41:42.000Z</time>
      </trkpt>
      <trkpt lat="49.39895" lon="1.49537">
        <ele>157.50704956055</ele>
        <time>2017-09-03T07:41:45.000Z</time>
      </trkpt>
      <trkpt lat="49.39896" lon="1.4955">
        <ele>157.73957824707</ele>
        <time>2017-09-03T07:41:47.000Z</time>
      </trkpt>
      <trkpt lat="49.39899" lon="1.4957">
        <ele>157.95301818848</ele>
        <time>2017-09-03T07:41:50.000Z</time>
      </trkpt>
      <trkpt lat="49.39905" lon="1.49577">
        <ele>158.1262512207</ele>
        <time>2017-09-03T07:41:52.000Z</time>
      </trkpt>
      <trkpt lat="49.39921" lon="1.4957">
        <ele>158.28381347656</ele>
        <time>2017-09-03T07:41:55.000Z</time>
      </trkpt>
      <trkpt lat="49.3994" lon="1.49561">
        <ele>158.03042602539</ele>
        <time>2017-09-03T07:41:58.000Z</time>
      </trkpt>
      <trkpt lat="49.39962" lon="1.49558">
        <ele>157.32168579102</ele>
        <time>2017-09-03T07:42:01.000Z</time>
      </trkpt>
      <trkpt lat="49.39981" lon="1.49568">
        <ele>156.19281005859</ele>
        <time>2017-09-03T07:42:04.000Z</time>
      </trkpt>
      <trkpt lat="49.39992" lon="1.49577">
        <ele>154.82138061523</ele>
        <time>2017-09-03T07:42:06.000Z</time>
      </trkpt>
      <trkpt lat="49.40006" lon="1.49588">
        <ele>153.23338317871</ele>
        <time>2017-09-03T07:42:09.000Z</time>
      </trkpt>
      <trkpt lat="49.40015" lon="1.49592">
        <ele>151.91583251953</ele>
        <time>2017-09-03T07:42:12.000Z</time>
      </trkpt>
      <trkpt lat="49.40029" lon="1.49594">
        <ele>150.85873413086</ele>
        <time>2017-09-03T07:42:15.000Z</time>
      </trkpt>
      <trkpt lat="49.40034" lon="1.49593">
        <ele>150.10275268555</ele>
        <time>2017-09-03T07:42:17.000Z</time>
      </trkpt>
      <trkpt lat="49.40041" lon="1.49595">
        <ele>149.4489440918</ele>
        <time>2017-09-03T07:42:20.000Z</time>
      </trkpt>
      <trkpt lat="49.40044" lon="1.49596">
        <ele>148.98442077637</ele>
        <time>2017-09-03T07:42:22.000Z</time>
      </trkpt>
      <trkpt lat="49.40047" lon="1.49599">
        <ele>148.58169555664</ele>
        <time>2017-09-03T07:42:25.000Z</time>
      </trkpt>
      <trkpt lat="49.40052" lon="1.49601">
        <ele>148.28593444824</ele>
        <time>2017-09-03T07:42:28.000Z</time>
      </trkpt>
      <trkpt lat="49.4006" lon="1.49602">
        <ele>147.95651245117</ele>
        <time>2017-09-03T07:42:31.000Z</time>
      </trkpt>
      <trkpt lat="49.40071" lon="1.49607">
        <ele>147.5657043457</ele>
        <time>2017-09-03T07:42:34.000Z</time>
      </trkpt>
      <trkpt lat="49.40077" lon="1.49612">
        <ele>147.11218261719</ele>
        <time>2017-09-03T07:42:36.000Z</time>
      </trkpt>
      <trkpt lat="49.40083" lon="1.49618">
        <ele>146.62492370605</ele>
        <time>2017-09-03T07:42:38.000Z</time>
      </trkpt>
      <trkpt lat="49.40086" lon="1.49623">
        <ele>146.08627319336</ele>
        <time>2017-09-03T07:42:40.000Z</time>
      </trkpt>
      <trkpt lat="49.40092" lon="1.49629">
        <ele>145.45211791992</ele>
        <time>2017-09-03T07:42:43.000Z</time>
      </trkpt>
      <trkpt lat="49.40094" lon="1.49631">
        <ele>144.9098815918</ele>
        <time>2017-09-03T07:42:46.000Z</time>
      </trkpt>
      <trkpt lat="49.40096" lon="1.49632">
        <ele>144.36386108398</ele>
        <time>2017-09-03T07:42:52.000Z</time>
      </trkpt>
      <trkpt lat="49.40096" lon="1.49632">
        <ele>144.36386108398</ele>
        <time>2017-09-03T07:43:12.000Z</time>
      </trkpt>
      <trkpt lat="49.40097" lon="1.49632">
        <ele>143.88652038574</ele>
        <time>2017-09-03T07:43:18.000Z</time>
      </trkpt>
      <trkpt lat="49.40098" lon="1.49635">
        <ele>143.49235534668</ele>
        <time>2017-09-03T07:43:20.000Z</time>
      </trkpt>
      <trkpt lat="49.40099" lon="1.49639">
        <ele>143.24935913086</ele>
        <time>2017-09-03T07:43:23.000Z</time>
      </trkpt>
      <trkpt lat="49.40099" lon="1.49643">
        <ele>143.04336547852</ele>
        <time>2017-09-03T07:43:26.000Z</time>
      </trkpt>
      <trkpt lat="49.401" lon="1.49645">
        <ele>142.91305541992</ele>
        <time>2017-09-03T07:43:28.000Z</time>
      </trkpt>
      <trkpt lat="49.401" lon="1.49647">
        <ele>142.79313659668</ele>
        <time>2017-09-03T07:43:30.000Z</time>
      </trkpt>
      <trkpt lat="49.40099" lon="1.49649">
        <ele>142.71440124512</ele>
        <time>2017-09-03T07:43:33.000Z</time>
      </trkpt>
      <trkpt lat="49.401" lon="1.49647">
        <ele>142.67440795898</ele>
        <time>2017-09-03T07:43:38.000Z</time>
      </trkpt>
      <trkpt lat="49.401" lon="1.49645">
        <ele>142.65768432617</ele>
        <time>2017-09-03T07:43:41.000Z</time>
      </trkpt>
      <trkpt lat="49.401" lon="1.49645">
        <ele>142.65768432617</ele>
        <time>2017-09-03T07:44:01.000Z</time>
      </trkpt>
      <trkpt lat="49.40101" lon="1.49641">
        <ele>142.62640380859</ele>
        <time>2017-09-03T07:44:06.000Z</time>
      </trkpt>
      <trkpt lat="49.40102" lon="1.49645">
        <ele>142.56512451172</ele>
        <time>2017-09-03T07:44:09.000Z</time>
      </trkpt>
      <trkpt lat="49.40102" lon="1.49646">
        <ele>142.4793548584</ele>
        <time>2017-09-03T07:44:12.000Z</time>
      </trkpt>
      <trkpt lat="49.40105" lon="1.49649">
        <ele>142.32038879395</ele>
        <time>2017-09-03T07:44:28.000Z</time>
      </trkpt>
      <trkpt lat="49.40102" lon="1.49652">
        <ele>142.21647644043</ele>
        <time>2017-09-03T07:44:31.000Z</time>
      </trkpt>
      <trkpt lat="49.40102" lon="1.49654">
        <ele>142.15330505371</ele>
        <time>2017-09-03T07:44:35.000Z</time>
      </trkpt>
      <trkpt lat="49.40101" lon="1.49656">
        <ele>142.15818786621</ele>
        <time>2017-09-03T07:44:37.000Z</time>
      </trkpt>
      <trkpt lat="49.401" lon="1.4966">
        <ele>142.19645690918</ele>
        <time>2017-09-03T07:44:40.000Z</time>
      </trkpt>
      <trkpt lat="49.40097" lon="1.49667">
        <ele>142.3889465332</ele>
        <time>2017-09-03T07:44:43.000Z</time>
      </trkpt>
      <trkpt lat="49.40093" lon="1.49674">
        <ele>142.55303955078</ele>
        <time>2017-09-03T07:44:46.000Z</time>
      </trkpt>
      <trkpt lat="49.40091" lon="1.49679">
        <ele>142.68838500977</ele>
        <time>2017-09-03T07:44:48.000Z</time>
      </trkpt>
      <trkpt lat="49.40089" lon="1.49684">
        <ele>142.79243469238</ele>
        <time>2017-09-03T07:44:50.000Z</time>
      </trkpt>
      <trkpt lat="49.40085" lon="1.49691">
        <ele>142.91418457031</ele>
        <time>2017-09-03T07:44:53.000Z</time>
      </trkpt>
      <trkpt lat="49.40081" lon="1.49696">
        <ele>142.98666381836</ele>
        <time>2017-09-03T07:44:55.000Z</time>
      </trkpt>
      <trkpt lat="49.40074" lon="1.49701">
        <ele>143.0796661377</ele>
        <time>2017-09-03T07:44:57.000Z</time>
      </trkpt>
      <trkpt lat="49.40065" lon="1.49709">
        <ele>143.26902770996</ele>
        <time>2017-09-03T07:45:00.000Z</time>
      </trkpt>
      <trkpt lat="49.40059" lon="1.49717">
        <ele>143.4845123291</ele>
        <time>2017-09-03T07:45:02.000Z</time>
      </trkpt>
      <trkpt lat="49.40051" lon="1.49736">
        <ele>143.67697143555</ele>
        <time>2017-09-03T07:45:05.000Z</time>
      </trkpt>
      <trkpt lat="49.40044" lon="1.49751">
        <ele>143.87109375</ele>
        <time>2017-09-03T07:45:07.000Z</time>
      </trkpt>
      <trkpt lat="49.40034" lon="1.49772">
        <ele>144.13455200195</ele>
        <time>2017-09-03T07:45:10.000Z</time>
      </trkpt>
      <trkpt lat="49.40028" lon="1.49791">
        <ele>144.41181945801</ele>
        <time>2017-09-03T07:45:13.000Z</time>
      </trkpt>
      <trkpt lat="49.40025" lon="1.49809">
        <ele>144.68766784668</ele>
        <time>2017-09-03T07:45:15.000Z</time>
      </trkpt>
      <trkpt lat="49.40019" lon="1.49832">
        <ele>145.0791015625</ele>
        <time>2017-09-03T07:45:18.000Z</time>
      </trkpt>
      <trkpt lat="49.40012" lon="1.49852">
        <ele>145.69583129883</ele>
        <time>2017-09-03T07:45:21.000Z</time>
      </trkpt>
      <trkpt lat="49.40005" lon="1.49863">
        <ele>146.43264770508</ele>
        <time>2017-09-03T07:45:24.000Z</time>
      </trkpt>
      <trkpt lat="49.40001" lon="1.4987">
        <ele>147.28576660156</ele>
        <time>2017-09-03T07:45:26.000Z</time>
      </trkpt>
      <trkpt lat="49.39995" lon="1.49878">
        <ele>148.21571350098</ele>
        <time>2017-09-03T07:45:28.000Z</time>
      </trkpt>
      <trkpt lat="49.39988" lon="1.49894">
        <ele>149.13874816895</ele>
        <time>2017-09-03T07:45:31.000Z</time>
      </trkpt>
      <trkpt lat="49.39986" lon="1.49902">
        <ele>149.82638549805</ele>
        <time>2017-09-03T07:45:33.000Z</time>
      </trkpt>
      <trkpt lat="49.39985" lon="1.49911">
        <ele>150.28756713867</ele>
        <time>2017-09-03T07:45:35.000Z</time>
      </trkpt>
      <trkpt lat="49.39983" lon="1.49923">
        <ele>150.57322692871</ele>
        <time>2017-09-03T07:45:38.000Z</time>
      </trkpt>
      <trkpt lat="49.39983" lon="1.4994">
        <ele>150.73629760742</ele>
        <time>2017-09-03T07:45:41.000Z</time>
      </trkpt>
      <trkpt lat="49.39991" lon="1.49953">
        <ele>150.61112976074</ele>
        <time>2017-09-03T07:45:43.000Z</time>
      </trkpt>
      <trkpt lat="49.40006" lon="1.4997">
        <ele>150.01777648926</ele>
        <time>2017-09-03T07:45:46.000Z</time>
      </trkpt>
      <trkpt lat="49.40022" lon="1.49989">
        <ele>148.80981445312</ele>
        <time>2017-09-03T07:45:49.000Z</time>
      </trkpt>
      <trkpt lat="49.40032" lon="1.5">
        <ele>147.21536254883</ele>
        <time>2017-09-03T07:45:51.000Z</time>
      </trkpt>
      <trkpt lat="49.40049" lon="1.50012">
        <ele>145.0594329834</ele>
        <time>2017-09-03T07:45:54.000Z</time>
      </trkpt>
      <trkpt lat="49.40064" lon="1.50023">
        <ele>142.6410369873</ele>
        <time>2017-09-03T07:45:57.000Z</time>
      </trkpt>
      <trkpt lat="49.40075" lon="1.50036">
        <ele>140.40469360352</ele>
        <time>2017-09-03T07:46:00.000Z</time>
      </trkpt>
      <trkpt lat="49.40083" lon="1.50041">
        <ele>138.56466674805</ele>
        <time>2017-09-03T07:46:02.000Z</time>
      </trkpt>
      <trkpt lat="49.40095" lon="1.50053">
        <ele>137.36637878418</ele>
        <time>2017-09-03T07:46:05.000Z</time>
      </trkpt>
      <trkpt lat="49.40104" lon="1.50066">
        <ele>137.02578735352</ele>
        <time>2017-09-03T07:46:07.000Z</time>
      </trkpt>
      <trkpt lat="49.4011" lon="1.50074">
        <ele>137.31489562988</ele>
        <time>2017-09-03T07:46:10.000Z</time>
      </trkpt>
      <trkpt lat="49.40115" lon="1.50075">
        <ele>137.9489440918</ele>
        <time>2017-09-03T07:46:12.000Z</time>
      </trkpt>
      <trkpt lat="49.40117" lon="1.50067">
        <ele>138.69967651367</ele>
        <time>2017-09-03T07:46:15.000Z</time>
      </trkpt>
      <trkpt lat="49.40117" lon="1.50065">
        <ele>139.13948059082</ele>
        <time>2017-09-03T07:46:19.000Z</time>
      </trkpt>
      <trkpt lat="49.40117" lon="1.5006">
        <ele>139.22940063477</ele>
        <time>2017-09-03T07:46:22.000Z</time>
      </trkpt>
      <trkpt lat="49.40116" lon="1.50057">
        <ele>139.06452941895</ele>
        <time>2017-09-03T07:46:25.000Z</time>
      </trkpt>
      <trkpt lat="49.40117" lon="1.50052">
        <ele>138.77285766602</ele>
        <time>2017-09-03T07:46:27.000Z</time>
      </trkpt>
      <trkpt lat="49.40118" lon="1.50052">
        <ele>138.58992004395</ele>
        <time>2017-09-03T07:46:31.000Z</time>
      </trkpt>
      <trkpt lat="49.40118" lon="1.50051">
        <ele>138.41143798828</ele>
        <time>2017-09-03T07:46:34.000Z</time>
      </trkpt>
      <trkpt lat="49.40121" lon="1.50044">
        <ele>138.24699401855</ele>
        <time>2017-09-03T07:46:37.000Z</time>
      </trkpt>
      <trkpt lat="49.40123" lon="1.5004">
        <ele>138.09001159668</ele>
        <time>2017-09-03T07:46:39.000Z</time>
      </trkpt>
      <trkpt lat="49.40124" lon="1.50033">
        <ele>137.90319824219</ele>
        <time>2017-09-03T07:46:42.000Z</time>
      </trkpt>
      <trkpt lat="49.40125" lon="1.50028">
        <ele>137.63557434082</ele>
        <time>2017-09-03T07:46:44.000Z</time>
      </trkpt>
      <trkpt lat="49.40126" lon="1.50023">
        <ele>137.32904052734</ele>
        <time>2017-09-03T07:46:46.000Z</time>
      </trkpt>
      <trkpt lat="49.40127" lon="1.50019">
        <ele>137.0290222168</ele>
        <time>2017-09-03T07:46:49.000Z</time>
      </trkpt>
      <trkpt lat="49.40127" lon="1.50016">
        <ele>136.74937438965</ele>
        <time>2017-09-03T07:46:52.000Z</time>
      </trkpt>
      <trkpt lat="49.40127" lon="1.50016">
        <ele>136.74937438965</ele>
        <time>2017-09-03T07:47:12.000Z</time>
      </trkpt>
      <trkpt lat="49.40129" lon="1.50011">
        <ele>136.49523925781</ele>
        <time>2017-09-03T07:47:19.000Z</time>
      </trkpt>
      <trkpt lat="49.40134" lon="1.50002">
        <ele>136.20454406738</ele>
        <time>2017-09-03T07:47:22.000Z</time>
      </trkpt>
      <trkpt lat="49.40138" lon="1.49992">
        <ele>135.82881164551</ele>
        <time>2017-09-03T07:47:24.000Z</time>
      </trkpt>
      <trkpt lat="49.40149" lon="1.49971">
        <ele>135.14476013184</ele>
        <time>2017-09-03T07:47:27.000Z</time>
      </trkpt>
      <trkpt lat="49.40168" lon="1.49944">
        <ele>133.95855712891</ele>
        <time>2017-09-03T07:47:30.000Z</time>
      </trkpt>
      <trkpt lat="49.40182" lon="1.49922">
        <ele>132.55526733398</ele>
        <time>2017-09-03T07:47:32.000Z</time>
      </trkpt>
      <trkpt lat="49.40208" lon="1.49886">
        <ele>130.9875793457</ele>
        <time>2017-09-03T07:47:35.000Z</time>
      </trkpt>
      <trkpt lat="49.40231" lon="1.49865">
        <ele>129.47618103027</ele>
        <time>2017-09-03T07:47:38.000Z</time>
      </trkpt>
      <trkpt lat="49.40253" lon="1.49845">
        <ele>128.20783996582</ele>
        <time>2017-09-03T07:47:41.000Z</time>
      </trkpt>
      <trkpt lat="49.40273" lon="1.49819">
        <ele>127.45436859131</ele>
        <time>2017-09-03T07:47:44.000Z</time>
      </trkpt>
      <trkpt lat="49.40292" lon="1.49792">
        <ele>126.86910247803</ele>
        <time>2017-09-03T07:47:47.000Z</time>
      </trkpt>
      <trkpt lat="49.40306" lon="1.49781">
        <ele>126.58792877197</ele>
        <time>2017-09-03T07:47:49.000Z</time>
      </trkpt>
      <trkpt lat="49.40319" lon="1.49751">
        <ele>125.91738128662</ele>
        <time>2017-09-03T07:47:52.000Z</time>
      </trkpt>
      <trkpt lat="49.40329" lon="1.49719">
        <ele>125.14570617676</ele>
        <time>2017-09-03T07:47:55.000Z</time>
      </trkpt>
      <trkpt lat="49.40334" lon="1.49695">
        <ele>124.18733215332</ele>
        <time>2017-09-03T07:47:57.000Z</time>
      </trkpt>
      <trkpt lat="49.40339" lon="1.49671">
        <ele>123.24217224121</ele>
        <time>2017-09-03T07:47:59.000Z</time>
      </trkpt>
      <trkpt lat="49.40342" lon="1.49646">
        <ele>122.16562652588</ele>
        <time>2017-09-03T07:48:01.000Z</time>
      </trkpt>
      <trkpt lat="49.40345" lon="1.49613">
        <ele>121.47824859619</ele>
        <time>2017-09-03T07:48:04.000Z</time>
      </trkpt>
      <trkpt lat="49.40347" lon="1.49592">
        <ele>120.91728210449</ele>
        <time>2017-09-03T07:48:06.000Z</time>
      </trkpt>
      <trkpt lat="49.40347" lon="1.4957">
        <ele>120.4925994873</ele>
        <time>2017-09-03T07:48:08.000Z</time>
      </trkpt>
      <trkpt lat="49.40342" lon="1.49536">
        <ele>119.85829162598</ele>
        <time>2017-09-03T07:48:11.000Z</time>
      </trkpt>
      <trkpt lat="49.40334" lon="1.49513">
        <ele>118.9393081665</ele>
        <time>2017-09-03T07:48:13.000Z</time>
      </trkpt>
      <trkpt lat="49.40321" lon="1.49491">
        <ele>117.90081787109</ele>
        <time>2017-09-03T07:48:15.000Z</time>
      </trkpt>
      <trkpt lat="49.40304" lon="1.49464">
        <ele>116.81048583984</ele>
        <time>2017-09-03T07:48:18.000Z</time>
      </trkpt>
      <trkpt lat="49.40297" lon="1.49446">
        <ele>115.74263000488</ele>
        <time>2017-09-03T07:48:20.000Z</time>
      </trkpt>
      <trkpt lat="49.40289" lon="1.49432">
        <ele>114.87593841553</ele>
        <time>2017-09-03T07:48:22.000Z</time>
      </trkpt>
      <trkpt lat="49.40281" lon="1.49413">
        <ele>114.26342773438</ele>
        <time>2017-09-03T07:48:24.000Z</time>
      </trkpt>
      <trkpt lat="49.40275" lon="1.49393">
        <ele>113.64839172363</ele>
        <time>2017-09-03T07:48:26.000Z</time>
      </trkpt>
      <trkpt lat="49.40274" lon="1.49361">
        <ele>113.04560852051</ele>
        <time>2017-09-03T07:48:29.000Z</time>
      </trkpt>
      <trkpt lat="49.40286" lon="1.49339">
        <ele>112.60482025146</ele>
        <time>2017-09-03T07:48:32.000Z</time>
      </trkpt>
      <trkpt lat="49.403" lon="1.4933">
        <ele>112.42293548584</ele>
        <time>2017-09-03T07:48:35.000Z</time>
      </trkpt>
      <trkpt lat="49.40319" lon="1.49312">
        <ele>112.28031921387</ele>
        <time>2017-09-03T07:48:38.000Z</time>
      </trkpt>
      <trkpt lat="49.40332" lon="1.49306">
        <ele>112.37707519531</ele>
        <time>2017-09-03T07:48:40.000Z</time>
      </trkpt>
      <trkpt lat="49.40354" lon="1.49291">
        <ele>112.8203125</ele>
        <time>2017-09-03T07:48:43.000Z</time>
      </trkpt>
      <trkpt lat="49.40369" lon="1.49283">
        <ele>113.31742858887</ele>
        <time>2017-09-03T07:48:45.000Z</time>
      </trkpt>
      <trkpt lat="49.4039" lon="1.49262">
        <ele>113.54135894775</ele>
        <time>2017-09-03T07:48:48.000Z</time>
      </trkpt>
      <trkpt lat="49.40402" lon="1.49254">
        <ele>113.8660736084</ele>
        <time>2017-09-03T07:48:50.000Z</time>
      </trkpt>
      <trkpt lat="49.40425" lon="1.49229">
        <ele>114.11679840088</ele>
        <time>2017-09-03T07:48:53.000Z</time>
      </trkpt>
      <trkpt lat="49.40443" lon="1.492">
        <ele>114.09062194824</ele>
        <time>2017-09-03T07:48:56.000Z</time>
      </trkpt>
      <trkpt lat="49.40453" lon="1.49179">
        <ele>113.68837738037</ele>
        <time>2017-09-03T07:48:58.000Z</time>
      </trkpt>
      <trkpt lat="49.40465" lon="1.49145">
        <ele>113.19879150391</ele>
        <time>2017-09-03T07:49:01.000Z</time>
      </trkpt>
      <trkpt lat="49.40472" lon="1.49103">
        <ele>112.17855072021</ele>
        <time>2017-09-03T07:49:04.000Z</time>
      </trkpt>
      <trkpt lat="49.40474" lon="1.49079">
        <ele>110.83054351807</ele>
        <time>2017-09-03T07:49:06.000Z</time>
      </trkpt>
      <trkpt lat="49.40477" lon="1.49061">
        <ele>109.30195617676</ele>
        <time>2017-09-03T07:49:08.000Z</time>
      </trkpt>
      <trkpt lat="49.4048" lon="1.49021">
        <ele>107.34104919434</ele>
        <time>2017-09-03T07:49:11.000Z</time>
      </trkpt>
      <trkpt lat="49.40484" lon="1.48976">
        <ele>104.88429260254</ele>
        <time>2017-09-03T07:49:14.000Z</time>
      </trkpt>
      <trkpt lat="49.40495" lon="1.48941">
        <ele>102.35504150391</ele>
        <time>2017-09-03T07:49:17.000Z</time>
      </trkpt>
      <trkpt lat="49.40495" lon="1.48909">
        <ele>99.671325683594</ele>
        <time>2017-09-03T07:49:19.000Z</time>
      </trkpt>
      <trkpt lat="49.40499" lon="1.48888">
        <ele>96.942794799805</ele>
        <time>2017-09-03T07:49:21.000Z</time>
      </trkpt>
      <trkpt lat="49.40513" lon="1.48852">
        <ele>94.390426635742</ele>
        <time>2017-09-03T07:49:24.000Z</time>
      </trkpt>
      <trkpt lat="49.40521" lon="1.4883">
        <ele>92.312995910645</ele>
        <time>2017-09-03T07:49:26.000Z</time>
      </trkpt>
      <trkpt lat="49.40532" lon="1.48795">
        <ele>90.715438842773</ele>
        <time>2017-09-03T07:49:29.000Z</time>
      </trkpt>
      <trkpt lat="49.40543" lon="1.48766">
        <ele>89.603675842285</ele>
        <time>2017-09-03T07:49:32.000Z</time>
      </trkpt>
      <trkpt lat="49.40551" lon="1.48748">
        <ele>88.779106140137</ele>
        <time>2017-09-03T07:49:34.000Z</time>
      </trkpt>
      <trkpt lat="49.40556" lon="1.48736">
        <ele>88.43424987793</ele>
        <time>2017-09-03T07:49:36.000Z</time>
      </trkpt>
      <trkpt lat="49.40561" lon="1.48714">
        <ele>88.339462280273</ele>
        <time>2017-09-03T07:49:39.000Z</time>
      </trkpt>
      <trkpt lat="49.40566" lon="1.48693">
        <ele>88.369995117188</ele>
        <time>2017-09-03T07:49:42.000Z</time>
      </trkpt>
      <trkpt lat="49.40569" lon="1.4868">
        <ele>88.453125</ele>
        <time>2017-09-03T07:49:44.000Z</time>
      </trkpt>
      <trkpt lat="49.40575" lon="1.48655">
        <ele>88.614486694336</ele>
        <time>2017-09-03T07:49:47.000Z</time>
      </trkpt>
      <trkpt lat="49.40577" lon="1.48644">
        <ele>88.820846557617</ele>
        <time>2017-09-03T07:49:49.000Z</time>
      </trkpt>
      <trkpt lat="49.4058" lon="1.4863">
        <ele>89.077835083008</ele>
        <time>2017-09-03T07:49:52.000Z</time>
      </trkpt>
      <trkpt lat="49.40583" lon="1.4862">
        <ele>89.384506225586</ele>
        <time>2017-09-03T07:49:54.000Z</time>
      </trkpt>
      <trkpt lat="49.40585" lon="1.48614">
        <ele>89.736114501953</ele>
        <time>2017-09-03T07:49:57.000Z</time>
      </trkpt>
      <trkpt lat="49.40586" lon="1.48605">
        <ele>90.067199707031</ele>
        <time>2017-09-03T07:50:00.000Z</time>
      </trkpt>
      <trkpt lat="49.40588" lon="1.48599">
        <ele>90.381912231445</ele>
        <time>2017-09-03T07:50:02.000Z</time>
      </trkpt>
      <trkpt lat="49.40588" lon="1.48592">
        <ele>90.663650512695</ele>
        <time>2017-09-03T07:50:05.000Z</time>
      </trkpt>
      <trkpt lat="49.40589" lon="1.48587">
        <ele>90.912261962891</ele>
        <time>2017-09-03T07:50:07.000Z</time>
      </trkpt>
      <trkpt lat="49.40591" lon="1.48577">
        <ele>91.234031677246</ele>
        <time>2017-09-03T07:50:10.000Z</time>
      </trkpt>
      <trkpt lat="49.40593" lon="1.48568">
        <ele>91.605506896973</ele>
        <time>2017-09-03T07:50:13.000Z</time>
      </trkpt>
      <trkpt lat="49.40593" lon="1.48564">
        <ele>91.982971191406</ele>
        <time>2017-09-03T07:50:15.000Z</time>
      </trkpt>
      <trkpt lat="49.40596" lon="1.48558">
        <ele>92.427406311035</ele>
        <time>2017-09-03T07:50:18.000Z</time>
      </trkpt>
      <trkpt lat="49.40597" lon="1.48554">
        <ele>92.904609680176</ele>
        <time>2017-09-03T07:50:20.000Z</time>
      </trkpt>
      <trkpt lat="49.40598" lon="1.48549">
        <ele>93.305801391602</ele>
        <time>2017-09-03T07:50:23.000Z</time>
      </trkpt>
      <trkpt lat="49.40599" lon="1.48547">
        <ele>93.642562866211</ele>
        <time>2017-09-03T07:50:25.000Z</time>
      </trkpt>
      <trkpt lat="49.406" lon="1.48546">
        <ele>93.968544006348</ele>
        <time>2017-09-03T07:50:28.000Z</time>
      </trkpt>
      <trkpt lat="49.40602" lon="1.48548">
        <ele>94.199104309082</ele>
        <time>2017-09-03T07:50:31.000Z</time>
      </trkpt>
      <trkpt lat="49.40601" lon="1.48551">
        <ele>94.31160736084</ele>
        <time>2017-09-03T07:50:36.000Z</time>
      </trkpt>
      <trkpt lat="49.40601" lon="1.48551">
        <ele>94.31160736084</ele>
        <time>2017-09-03T07:50:56.000Z</time>
      </trkpt>
      <trkpt lat="49.406" lon="1.48554">
        <ele>94.310340881348</ele>
        <time>2017-09-03T07:51:01.000Z</time>
      </trkpt>
      <trkpt lat="49.406" lon="1.48554">
        <ele>94.310340881348</ele>
        <time>2017-09-03T07:51:21.000Z</time>
      </trkpt>
      <trkpt lat="49.40601" lon="1.48556">
        <ele>94.255905151367</ele>
        <time>2017-09-03T07:51:23.000Z</time>
      </trkpt>
      <trkpt lat="49.40602" lon="1.48557">
        <ele>94.169448852539</ele>
        <time>2017-09-03T07:51:26.000Z</time>
      </trkpt>
      <trkpt lat="49.40602" lon="1.48557">
        <ele>94.087333679199</ele>
        <time>2017-09-03T07:51:28.000Z</time>
      </trkpt>
      <trkpt lat="49.40601" lon="1.48557">
        <ele>94.018829345703</ele>
        <time>2017-09-03T07:51:33.000Z</time>
      </trkpt>
      <trkpt lat="49.40599" lon="1.48559">
        <ele>93.941398620605</ele>
        <time>2017-09-03T07:51:37.000Z</time>
      </trkpt>
      <trkpt lat="49.40598" lon="1.48561">
        <ele>93.841087341309</ele>
        <time>2017-09-03T07:51:48.000Z</time>
      </trkpt>
      <trkpt lat="49.40597" lon="1.48561">
        <ele>93.710182189941</ele>
        <time>2017-09-03T07:51:50.000Z</time>
      </trkpt>
      <trkpt lat="49.40599" lon="1.4856">
        <ele>93.594955444336</ele>
        <time>2017-09-03T07:51:55.000Z</time>
      </trkpt>
      <trkpt lat="49.40599" lon="1.4856">
        <ele>93.594955444336</ele>
        <time>2017-09-03T07:52:15.000Z</time>
      </trkpt>
      <trkpt lat="49.406" lon="1.48554">
        <ele>93.601234436035</ele>
        <time>2017-09-03T07:52:20.000Z</time>
      </trkpt>
      <trkpt lat="49.40599" lon="1.4855">
        <ele>93.691543579102</ele>
        <time>2017-09-03T07:52:32.000Z</time>
      </trkpt>
      <trkpt lat="49.40594" lon="1.48542">
        <ele>93.821060180664</ele>
        <time>2017-09-03T07:52:35.000Z</time>
      </trkpt>
      <trkpt lat="49.40589" lon="1.48531">
        <ele>93.960906982422</ele>
        <time>2017-09-03T07:52:38.000Z</time>
      </trkpt>
      <trkpt lat="49.40582" lon="1.48519">
        <ele>94.06315612793</ele>
        <time>2017-09-03T07:52:41.000Z</time>
      </trkpt>
      <trkpt lat="49.40575" lon="1.48505">
        <ele>94.141639709473</ele>
        <time>2017-09-03T07:52:44.000Z</time>
      </trkpt>
      <trkpt lat="49.40571" lon="1.48496">
        <ele>94.272537231445</ele>
        <time>2017-09-03T07:52:46.000Z</time>
      </trkpt>
      <trkpt lat="49.40563" lon="1.4848">
        <ele>94.528602600098</ele>
        <time>2017-09-03T07:52:49.000Z</time>
      </trkpt>
      <trkpt lat="49.40558" lon="1.48471">
        <ele>94.849098205566</ele>
        <time>2017-09-03T07:52:51.000Z</time>
      </trkpt>
      <trkpt lat="49.40551" lon="1.48457">
        <ele>95.254096984863</ele>
        <time>2017-09-03T07:52:54.000Z</time>
      </trkpt>
      <trkpt lat="49.40543" lon="1.48441">
        <ele>95.637191772461</ele>
        <time>2017-09-03T07:52:57.000Z</time>
      </trkpt>
      <trkpt lat="49.40534" lon="1.48425">
        <ele>95.948806762695</ele>
        <time>2017-09-03T07:53:00.000Z</time>
      </trkpt>
      <trkpt lat="49.40525" lon="1.48409">
        <ele>96.008689880371</ele>
        <time>2017-09-03T07:53:03.000Z</time>
      </trkpt>
      <trkpt lat="49.40516" lon="1.48392">
        <ele>95.817771911621</ele>
        <time>2017-09-03T07:53:06.000Z</time>
      </trkpt>
      <trkpt lat="49.40508" lon="1.48376">
        <ele>95.378303527832</ele>
        <time>2017-09-03T07:53:09.000Z</time>
      </trkpt>
      <trkpt lat="49.40502" lon="1.48362">
        <ele>94.754066467285</ele>
        <time>2017-09-03T07:53:12.000Z</time>
      </trkpt>
      <trkpt lat="49.40497" lon="1.4835">
        <ele>94.096878051758</ele>
        <time>2017-09-03T07:53:15.000Z</time>
      </trkpt>
      <trkpt lat="49.40493" lon="1.48339">
        <ele>93.558982849121</ele>
        <time>2017-09-03T07:53:18.000Z</time>
      </trkpt>
      <trkpt lat="49.40492" lon="1.48331">
        <ele>93.235336303711</ele>
        <time>2017-09-03T07:53:20.000Z</time>
      </trkpt>
      <trkpt lat="49.40495" lon="1.48321">
        <ele>93.148971557617</ele>
        <time>2017-09-03T07:53:23.000Z</time>
      </trkpt>
      <trkpt lat="49.40501" lon="1.48318">
        <ele>93.23030090332</ele>
        <time>2017-09-03T07:53:25.000Z</time>
      </trkpt>
      <trkpt lat="49.4051" lon="1.48318">
        <ele>93.52375793457</ele>
        <time>2017-09-03T07:53:28.000Z</time>
      </trkpt>
      <trkpt lat="49.40516" lon="1.48319">
        <ele>93.925025939941</ele>
        <time>2017-09-03T07:53:30.000Z</time>
      </trkpt>
      <trkpt lat="49.40522" lon="1.4832">
        <ele>94.409790039062</ele>
        <time>2017-09-03T07:53:32.000Z</time>
      </trkpt>
      <trkpt lat="49.40531" lon="1.48318">
        <ele>94.981895446777</ele>
        <time>2017-09-03T07:53:35.000Z</time>
      </trkpt>
      <trkpt lat="49.40536" lon="1.48316">
        <ele>95.627700805664</ele>
        <time>2017-09-03T07:53:37.000Z</time>
      </trkpt>
      <trkpt lat="49.40541" lon="1.48315">
        <ele>96.181114196777</ele>
        <time>2017-09-03T07:53:39.000Z</time>
      </trkpt>
      <trkpt lat="49.40549" lon="1.48313">
        <ele>96.759010314941</ele>
        <time>2017-09-03T07:53:42.000Z</time>
      </trkpt>
      <trkpt lat="49.40555" lon="1.48311">
        <ele>97.320640563965</ele>
        <time>2017-09-03T07:53:44.000Z</time>
      </trkpt>
      <trkpt lat="49.40563" lon="1.4831">
        <ele>97.846572875977</ele>
        <time>2017-09-03T07:53:47.000Z</time>
      </trkpt>
      <trkpt lat="49.40571" lon="1.48308">
        <ele>98.380889892578</ele>
        <time>2017-09-03T07:53:50.000Z</time>
      </trkpt>
      <trkpt lat="49.40576" lon="1.48307">
        <ele>98.90690612793</ele>
        <time>2017-09-03T07:53:52.000Z</time>
      </trkpt>
      <trkpt lat="49.40584" lon="1.48305">
        <ele>99.414199829102</ele>
        <time>2017-09-03T07:53:55.000Z</time>
      </trkpt>
      <trkpt lat="49.40593" lon="1.48303">
        <ele>99.982620239258</ele>
        <time>2017-09-03T07:53:58.000Z</time>
      </trkpt>
      <trkpt lat="49.40599" lon="1.48301">
        <ele>100.53810119629</ele>
        <time>2017-09-03T07:54:00.000Z</time>
      </trkpt>
      <trkpt lat="49.40608" lon="1.48299">
        <ele>101.16003417969</ele>
        <time>2017-09-03T07:54:03.000Z</time>
      </trkpt>
      <trkpt lat="49.40619" lon="1.48296">
        <ele>101.87610626221</ele>
        <time>2017-09-03T07:54:06.000Z</time>
      </trkpt>
      <trkpt lat="49.40625" lon="1.48294">
        <ele>102.59450531006</ele>
        <time>2017-09-03T07:54:08.000Z</time>
      </trkpt>
      <trkpt lat="49.40631" lon="1.48293">
        <ele>103.25938415527</ele>
        <time>2017-09-03T07:54:10.000Z</time>
      </trkpt>
      <trkpt lat="49.40641" lon="1.4829">
        <ele>103.95924377441</ele>
        <time>2017-09-03T07:54:13.000Z</time>
      </trkpt>
      <trkpt lat="49.4065" lon="1.48288">
        <ele>104.61128997803</ele>
        <time>2017-09-03T07:54:16.000Z</time>
      </trkpt>
      <trkpt lat="49.40658" lon="1.48285">
        <ele>105.20765686035</ele>
        <time>2017-09-03T07:54:19.000Z</time>
      </trkpt>
      <trkpt lat="49.40667" lon="1.48282">
        <ele>105.77952575684</ele>
        <time>2017-09-03T07:54:22.000Z</time>
      </trkpt>
      <trkpt lat="49.40673" lon="1.48279">
        <ele>106.41439056396</ele>
        <time>2017-09-03T07:54:24.000Z</time>
      </trkpt>
      <trkpt lat="49.40678" lon="1.48276">
        <ele>107.05853271484</ele>
        <time>2017-09-03T07:54:26.000Z</time>
      </trkpt>
      <trkpt lat="49.40684" lon="1.48273">
        <ele>107.73291015625</ele>
        <time>2017-09-03T07:54:28.000Z</time>
      </trkpt>
      <trkpt lat="49.40692" lon="1.48267">
        <ele>108.49002838135</ele>
        <time>2017-09-03T07:54:31.000Z</time>
      </trkpt>
      <trkpt lat="49.40697" lon="1.48261">
        <ele>109.26293945312</ele>
        <time>2017-09-03T07:54:34.000Z</time>
      </trkpt>
      <trkpt lat="49.40704" lon="1.48255">
        <ele>110.01063537598</ele>
        <time>2017-09-03T07:54:37.000Z</time>
      </trkpt>
      <trkpt lat="49.40709" lon="1.48251">
        <ele>110.74172210693</ele>
        <time>2017-09-03T07:54:39.000Z</time>
      </trkpt>
      <trkpt lat="49.40716" lon="1.48246">
        <ele>111.55961608887</ele>
        <time>2017-09-03T07:54:42.000Z</time>
      </trkpt>
      <trkpt lat="49.40722" lon="1.48239">
        <ele>112.34883880615</ele>
        <time>2017-09-03T07:54:45.000Z</time>
      </trkpt>
      <trkpt lat="49.40727" lon="1.48233">
        <ele>113.16805267334</ele>
        <time>2017-09-03T07:54:48.000Z</time>
      </trkpt>
      <trkpt lat="49.40731" lon="1.48227">
        <ele>113.94316101074</ele>
        <time>2017-09-03T07:54:51.000Z</time>
      </trkpt>
      <trkpt lat="49.40734" lon="1.48223">
        <ele>114.65010070801</ele>
        <time>2017-09-03T07:54:53.000Z</time>
      </trkpt>
      <trkpt lat="49.40738" lon="1.4822">
        <ele>115.21551513672</ele>
        <time>2017-09-03T07:54:56.000Z</time>
      </trkpt>
      <trkpt lat="49.4074" lon="1.48219">
        <ele>115.6759262085</ele>
        <time>2017-09-03T07:54:58.000Z</time>
      </trkpt>
      <trkpt lat="49.40743" lon="1.48218">
        <ele>116.08542633057</ele>
        <time>2017-09-03T07:55:00.000Z</time>
      </trkpt>
      <trkpt lat="49.40746" lon="1.48215">
        <ele>116.48140716553</ele>
        <time>2017-09-03T07:55:02.000Z</time>
      </trkpt>
      <trkpt lat="49.40749" lon="1.48212">
        <ele>116.87127685547</ele>
        <time>2017-09-03T07:55:05.000Z</time>
      </trkpt>
      <trkpt lat="49.40751" lon="1.48211">
        <ele>117.21873474121</ele>
        <time>2017-09-03T07:55:08.000Z</time>
      </trkpt>
      <trkpt lat="49.40755" lon="1.48208">
        <ele>117.68709564209</ele>
        <time>2017-09-03T07:55:11.000Z</time>
      </trkpt>
      <trkpt lat="49.40757" lon="1.48206">
        <ele>118.16359710693</ele>
        <time>2017-09-03T07:55:13.000Z</time>
      </trkpt>
      <trkpt lat="49.40762" lon="1.48202">
        <ele>118.76348876953</ele>
        <time>2017-09-03T07:55:16.000Z</time>
      </trkpt>
      <trkpt lat="49.40765" lon="1.48199">
        <ele>119.42211914062</ele>
        <time>2017-09-03T07:55:18.000Z</time>
      </trkpt>
      <trkpt lat="49.40769" lon="1.48197">
        <ele>120.14825439453</ele>
        <time>2017-09-03T07:55:20.000Z</time>
      </trkpt>
      <trkpt lat="49.40773" lon="1.48192">
        <ele>120.86946105957</ele>
        <time>2017-09-03T07:55:23.000Z</time>
      </trkpt>
      <trkpt lat="49.40779" lon="1.48187">
        <ele>121.6901473999</ele>
        <time>2017-09-03T07:55:26.000Z</time>
      </trkpt>
      <trkpt lat="49.40781" lon="1.48184">
        <ele>122.39080810547</ele>
        <time>2017-09-03T07:55:28.000Z</time>
      </trkpt>
      <trkpt lat="49.40786" lon="1.48179">
        <ele>123.11326599121</ele>
        <time>2017-09-03T07:55:31.000Z</time>
      </trkpt>
      <trkpt lat="49.40789" lon="1.48174">
        <ele>123.82529449463</ele>
        <time>2017-09-03T07:55:35.000Z</time>
      </trkpt>
      <trkpt lat="49.40792" lon="1.48169">
        <ele>124.44386291504</ele>
        <time>2017-09-03T07:55:36.000Z</time>
      </trkpt>
      <trkpt lat="49.40795" lon="1.48165">
        <ele>124.92445373535</ele>
        <time>2017-09-03T07:55:38.000Z</time>
      </trkpt>
      <trkpt lat="49.40799" lon="1.48159">
        <ele>125.44854736328</ele>
        <time>2017-09-03T07:55:41.000Z</time>
      </trkpt>
      <trkpt lat="49.40802" lon="1.48153">
        <ele>125.92702484131</ele>
        <time>2017-09-03T07:55:44.000Z</time>
      </trkpt>
      <trkpt lat="49.40804" lon="1.4815">
        <ele>126.37660980225</ele>
        <time>2017-09-03T07:55:46.000Z</time>
      </trkpt>
      <trkpt lat="49.40808" lon="1.48146">
        <ele>126.87359619141</ele>
        <time>2017-09-03T07:55:49.000Z</time>
      </trkpt>
      <trkpt lat="49.40813" lon="1.4814">
        <ele>127.49355316162</ele>
        <time>2017-09-03T07:55:52.000Z</time>
      </trkpt>
      <trkpt lat="49.40817" lon="1.48134">
        <ele>128.11917114258</ele>
        <time>2017-09-03T07:55:55.000Z</time>
      </trkpt>
      <trkpt lat="49.4082" lon="1.48131">
        <ele>128.7258605957</ele>
        <time>2017-09-03T07:55:57.000Z</time>
      </trkpt>
      <trkpt lat="49.40823" lon="1.48127">
        <ele>129.3697052002</ele>
        <time>2017-09-03T07:56:00.000Z</time>
      </trkpt>
      <trkpt lat="49.40827" lon="1.48121">
        <ele>129.99337768555</ele>
        <time>2017-09-03T07:56:03.000Z</time>
      </trkpt>
      <trkpt lat="49.40828" lon="1.48117">
        <ele>130.4621887207</ele>
        <time>2017-09-03T07:56:05.000Z</time>
      </trkpt>
      <trkpt lat="49.40831" lon="1.48111">
        <ele>130.83285522461</ele>
        <time>2017-09-03T07:56:08.000Z</time>
      </trkpt>
      <trkpt lat="49.40834" lon="1.48107">
        <ele>131.21351623535</ele>
        <time>2017-09-03T07:56:10.000Z</time>
      </trkpt>
      <trkpt lat="49.40837" lon="1.48102">
        <ele>131.53010559082</ele>
        <time>2017-09-03T07:56:13.000Z</time>
      </trkpt>
      <trkpt lat="49.40841" lon="1.48096">
        <ele>131.8402557373</ele>
        <time>2017-09-03T07:56:16.000Z</time>
      </trkpt>
      <trkpt lat="49.40845" lon="1.48092">
        <ele>132.23031616211</ele>
        <time>2017-09-03T07:56:19.000Z</time>
      </trkpt>
      <trkpt lat="49.40847" lon="1.48089">
        <ele>132.6501159668</ele>
        <time>2017-09-03T07:56:21.000Z</time>
      </trkpt>
      <trkpt lat="49.40848" lon="1.48086">
        <ele>132.99438476562</ele>
        <time>2017-09-03T07:56:23.000Z</time>
      </trkpt>
      <trkpt lat="49.4085" lon="1.4808">
        <ele>133.33766174316</ele>
        <time>2017-09-03T07:56:26.000Z</time>
      </trkpt>
      <trkpt lat="49.40852" lon="1.48073">
        <ele>133.62857055664</ele>
        <time>2017-09-03T07:56:29.000Z</time>
      </trkpt>
      <trkpt lat="49.40852" lon="1.48069">
        <ele>133.80363464355</ele>
        <time>2017-09-03T07:56:31.000Z</time>
      </trkpt>
      <trkpt lat="49.40853" lon="1.48065">
        <ele>133.96240234375</ele>
        <time>2017-09-03T07:56:33.000Z</time>
      </trkpt>
      <trkpt lat="49.40856" lon="1.48061">
        <ele>134.20803833008</ele>
        <time>2017-09-03T07:56:35.000Z</time>
      </trkpt>
      <trkpt lat="49.40858" lon="1.48057">
        <ele>134.50827026367</ele>
        <time>2017-09-03T07:56:38.000Z</time>
      </trkpt>
      <trkpt lat="49.4086" lon="1.48054">
        <ele>134.81770324707</ele>
        <time>2017-09-03T07:56:40.000Z</time>
      </trkpt>
      <trkpt lat="49.40862" lon="1.48051">
        <ele>135.22207641602</ele>
        <time>2017-09-03T07:56:42.000Z</time>
      </trkpt>
      <trkpt lat="49.40865" lon="1.48047">
        <ele>135.67858886719</ele>
        <time>2017-09-03T07:56:45.000Z</time>
      </trkpt>
      <trkpt lat="49.40866" lon="1.48044">
        <ele>136.07975769043</ele>
        <time>2017-09-03T07:56:47.000Z</time>
      </trkpt>
      <trkpt lat="49.40869" lon="1.4804">
        <ele>136.47563171387</ele>
        <time>2017-09-03T07:56:50.000Z</time>
      </trkpt>
      <trkpt lat="49.40871" lon="1.48035">
        <ele>136.89950561523</ele>
        <time>2017-09-03T07:56:53.000Z</time>
      </trkpt>
      <trkpt lat="49.40873" lon="1.48031">
        <ele>137.30062866211</ele>
        <time>2017-09-03T07:56:55.000Z</time>
      </trkpt>
      <trkpt lat="49.40878" lon="1.48026">
        <ele>137.80166625977</ele>
        <time>2017-09-03T07:56:58.000Z</time>
      </trkpt>
      <trkpt lat="49.4088" lon="1.48022">
        <ele>138.35096740723</ele>
        <time>2017-09-03T07:57:00.000Z</time>
      </trkpt>
      <trkpt lat="49.40882" lon="1.48017">
        <ele>138.87899780273</ele>
        <time>2017-09-03T07:57:02.000Z</time>
      </trkpt>
      <trkpt lat="49.40885" lon="1.48013">
        <ele>139.38816833496</ele>
        <time>2017-09-03T07:57:04.000Z</time>
      </trkpt>
      <trkpt lat="49.40887" lon="1.48008">
        <ele>139.90856933594</ele>
        <time>2017-09-03T07:57:06.000Z</time>
      </trkpt>
      <trkpt lat="49.4089" lon="1.48002">
        <ele>140.36671447754</ele>
        <time>2017-09-03T07:57:09.000Z</time>
      </trkpt>
      <trkpt lat="49.40893" lon="1.47998">
        <ele>140.79234313965</ele>
        <time>2017-09-03T07:57:11.000Z</time>
      </trkpt>
      <trkpt lat="49.40896" lon="1.47993">
        <ele>141.18650817871</ele>
        <time>2017-09-03T07:57:14.000Z</time>
      </trkpt>
      <trkpt lat="49.409" lon="1.47988">
        <ele>141.55017089844</ele>
        <time>2017-09-03T07:57:17.000Z</time>
      </trkpt>
      <trkpt lat="49.40904" lon="1.47985">
        <ele>141.93363952637</ele>
        <time>2017-09-03T07:57:20.000Z</time>
      </trkpt>
      <trkpt lat="49.40907" lon="1.47982">
        <ele>142.26792907715</ele>
        <time>2017-09-03T07:57:22.000Z</time>
      </trkpt>
      <trkpt lat="49.40911" lon="1.47978">
        <ele>142.60412597656</ele>
        <time>2017-09-03T07:57:25.000Z</time>
      </trkpt>
      <trkpt lat="49.40915" lon="1.47973">
        <ele>142.96809387207</ele>
        <time>2017-09-03T07:57:28.000Z</time>
      </trkpt>
      <trkpt lat="49.40917" lon="1.47971">
        <ele>143.31527709961</ele>
        <time>2017-09-03T07:57:31.000Z</time>
      </trkpt>
      <trkpt lat="49.40919" lon="1.47969">
        <ele>143.59797668457</ele>
        <time>2017-09-03T07:57:33.000Z</time>
      </trkpt>
      <trkpt lat="49.40922" lon="1.47968">
        <ele>143.81788635254</ele>
        <time>2017-09-03T07:57:35.000Z</time>
      </trkpt>
      <trkpt lat="49.40926" lon="1.47967">
        <ele>144.04595947266</ele>
        <time>2017-09-03T07:57:38.000Z</time>
      </trkpt>
      <trkpt lat="49.40928" lon="1.47964">
        <ele>144.1848449707</ele>
        <time>2017-09-03T07:57:40.000Z</time>
      </trkpt>
      <trkpt lat="49.40932" lon="1.4796">
        <ele>144.30709838867</ele>
        <time>2017-09-03T07:57:43.000Z</time>
      </trkpt>
      <trkpt lat="49.40935" lon="1.47958">
        <ele>144.40621948242</ele>
        <time>2017-09-03T07:57:45.000Z</time>
      </trkpt>
      <trkpt lat="49.40938" lon="1.47956">
        <ele>144.5295715332</ele>
        <time>2017-09-03T07:57:47.000Z</time>
      </trkpt>
      <trkpt lat="49.40942" lon="1.47955">
        <ele>144.62478637695</ele>
        <time>2017-09-03T07:57:49.000Z</time>
      </trkpt>
      <trkpt lat="49.40945" lon="1.47952">
        <ele>144.74963378906</ele>
        <time>2017-09-03T07:57:51.000Z</time>
      </trkpt>
      <trkpt lat="49.4095" lon="1.47949">
        <ele>144.93734741211</ele>
        <time>2017-09-03T07:57:54.000Z</time>
      </trkpt>
      <trkpt lat="49.40953" lon="1.47947">
        <ele>145.14855957031</ele>
        <time>2017-09-03T07:57:56.000Z</time>
      </trkpt>
      <trkpt lat="49.40958" lon="1.47946">
        <ele>145.3984375</ele>
        <time>2017-09-03T07:57:59.000Z</time>
      </trkpt>
      <trkpt lat="49.40961" lon="1.47946">
        <ele>145.67907714844</ele>
        <time>2017-09-03T07:58:01.000Z</time>
      </trkpt>
      <trkpt lat="49.40967" lon="1.47946">
        <ele>146.05670166016</ele>
        <time>2017-09-03T07:58:04.000Z</time>
      </trkpt>
      <trkpt lat="49.40971" lon="1.47946">
        <ele>146.46141052246</ele>
        <time>2017-09-03T07:58:06.000Z</time>
      </trkpt>
      <trkpt lat="49.40977" lon="1.47945">
        <ele>146.97088623047</ele>
        <time>2017-09-03T07:58:09.000Z</time>
      </trkpt>
      <trkpt lat="49.40981" lon="1.47945">
        <ele>147.48307800293</ele>
        <time>2017-09-03T07:58:11.000Z</time>
      </trkpt>
      <trkpt lat="49.40988" lon="1.47945">
        <ele>148.08117675781</ele>
        <time>2017-09-03T07:58:14.000Z</time>
      </trkpt>
      <trkpt lat="49.40991" lon="1.47947">
        <ele>148.65817260742</ele>
        <time>2017-09-03T07:58:16.000Z</time>
      </trkpt>
      <trkpt lat="49.40994" lon="1.47947">
        <ele>149.22331237793</ele>
        <time>2017-09-03T07:58:18.000Z</time>
      </trkpt>
      <trkpt lat="49.40998" lon="1.47947">
        <ele>149.75561523438</ele>
        <time>2017-09-03T07:58:20.000Z</time>
      </trkpt>
      <trkpt lat="49.41003" lon="1.47947">
        <ele>150.23672485352</ele>
        <time>2017-09-03T07:58:22.000Z</time>
      </trkpt>
      <trkpt lat="49.41009" lon="1.47946">
        <ele>150.57633972168</ele>
        <time>2017-09-03T07:58:25.000Z</time>
      </trkpt>
      <trkpt lat="49.41013" lon="1.47944">
        <ele>150.81047058105</ele>
        <time>2017-09-03T07:58:27.000Z</time>
      </trkpt>
      <trkpt lat="49.41017" lon="1.47942">
        <ele>150.9524230957</ele>
        <time>2017-09-03T07:58:29.000Z</time>
      </trkpt>
      <trkpt lat="49.41019" lon="1.47942">
        <ele>151.0016784668</ele>
        <time>2017-09-03T07:58:31.000Z</time>
      </trkpt>
      <trkpt lat="49.41024" lon="1.47943">
        <ele>151.05764770508</ele>
        <time>2017-09-03T07:58:34.000Z</time>
      </trkpt>
      <trkpt lat="49.41031" lon="1.47939">
        <ele>151.09323120117</ele>
        <time>2017-09-03T07:58:37.000Z</time>
      </trkpt>
      <trkpt lat="49.41034" lon="1.47936">
        <ele>151.1185760498</ele>
        <time>2017-09-03T07:58:39.000Z</time>
      </trkpt>
      <trkpt lat="49.4104" lon="1.4793">
        <ele>151.13471984863</ele>
        <time>2017-09-03T07:58:42.000Z</time>
      </trkpt>
      <trkpt lat="49.41048" lon="1.47923">
        <ele>151.16825866699</ele>
        <time>2017-09-03T07:58:45.000Z</time>
      </trkpt>
      <trkpt lat="49.41054" lon="1.47918">
        <ele>151.18054199219</ele>
        <time>2017-09-03T07:58:47.000Z</time>
      </trkpt>
      <trkpt lat="49.41063" lon="1.47909">
        <ele>151.08532714844</ele>
        <time>2017-09-03T07:58:50.000Z</time>
      </trkpt>
      <trkpt lat="49.41071" lon="1.47901">
        <ele>150.87680053711</ele>
        <time>2017-09-03T07:58:53.000Z</time>
      </trkpt>
      <trkpt lat="49.4108" lon="1.4789">
        <ele>150.52883911133</ele>
        <time>2017-09-03T07:58:56.000Z</time>
      </trkpt>
      <trkpt lat="49.41093" lon="1.47882">
        <ele>150.0237121582</ele>
        <time>2017-09-03T07:58:59.000Z</time>
      </trkpt>
      <trkpt lat="49.41106" lon="1.47877">
        <ele>149.43081665039</ele>
        <time>2017-09-03T07:59:02.000Z</time>
      </trkpt>
      <trkpt lat="49.41116" lon="1.47874">
        <ele>148.92324829102</ele>
        <time>2017-09-03T07:59:05.000Z</time>
      </trkpt>
      <trkpt lat="49.41121" lon="1.47874">
        <ele>148.56074523926</ele>
        <time>2017-09-03T07:59:07.000Z</time>
      </trkpt>
      <trkpt lat="49.41129" lon="1.47874">
        <ele>148.39248657227</ele>
        <time>2017-09-03T07:59:10.000Z</time>
      </trkpt>
      <trkpt lat="49.41138" lon="1.47873">
        <ele>148.38150024414</ele>
        <time>2017-09-03T07:59:13.000Z</time>
      </trkpt>
      <trkpt lat="49.41144" lon="1.47872">
        <ele>148.4538269043</ele>
        <time>2017-09-03T07:59:15.000Z</time>
      </trkpt>
      <trkpt lat="49.41151" lon="1.47872">
        <ele>148.57571411133</ele>
        <time>2017-09-03T07:59:17.000Z</time>
      </trkpt>
      <trkpt lat="49.41159" lon="1.47871">
        <ele>148.71327209473</ele>
        <time>2017-09-03T07:59:20.000Z</time>
      </trkpt>
      <trkpt lat="49.41165" lon="1.47871">
        <ele>148.84608459473</ele>
        <time>2017-09-03T07:59:22.000Z</time>
      </trkpt>
      <trkpt lat="49.41173" lon="1.4787">
        <ele>148.94328308105</ele>
        <time>2017-09-03T07:59:25.000Z</time>
      </trkpt>
      <trkpt lat="49.4118" lon="1.47868">
        <ele>149.00123596191</ele>
        <time>2017-09-03T07:59:27.000Z</time>
      </trkpt>
      <trkpt lat="49.41189" lon="1.47866">
        <ele>149.0191192627</ele>
        <time>2017-09-03T07:59:30.000Z</time>
      </trkpt>
      <trkpt lat="49.41196" lon="1.47865">
        <ele>148.99407958984</ele>
        <time>2017-09-03T07:59:32.000Z</time>
      </trkpt>
      <trkpt lat="49.41206" lon="1.47863">
        <ele>148.93658447266</ele>
        <time>2017-09-03T07:59:35.000Z</time>
      </trkpt>
      <trkpt lat="49.41211" lon="1.47863">
        <ele>148.90287780762</ele>
        <time>2017-09-03T07:59:37.000Z</time>
      </trkpt>
      <trkpt lat="49.41215" lon="1.47863">
        <ele>148.8981628418</ele>
        <time>2017-09-03T07:59:39.000Z</time>
      </trkpt>
      <trkpt lat="49.41223" lon="1.4786">
        <ele>148.9182434082</ele>
        <time>2017-09-03T07:59:42.000Z</time>
      </trkpt>
      <trkpt lat="49.4123" lon="1.47857">
        <ele>148.96627807617</ele>
        <time>2017-09-03T07:59:45.000Z</time>
      </trkpt>
      <trkpt lat="49.41237" lon="1.4785">
        <ele>149.04563903809</ele>
        <time>2017-09-03T07:59:48.000Z</time>
      </trkpt>
      <trkpt lat="49.41243" lon="1.47843">
        <ele>149.16958618164</ele>
        <time>2017-09-03T07:59:51.000Z</time>
      </trkpt>
      <trkpt lat="49.41247" lon="1.47839">
        <ele>149.32487487793</ele>
        <time>2017-09-03T07:59:53.000Z</time>
      </trkpt>
      <trkpt lat="49.41253" lon="1.47834">
        <ele>149.57174682617</ele>
        <time>2017-09-03T07:59:56.000Z</time>
      </trkpt>
      <trkpt lat="49.41259" lon="1.47828">
        <ele>149.76916503906</ele>
        <time>2017-09-03T07:59:59.000Z</time>
      </trkpt>
      <trkpt lat="49.41265" lon="1.4782">
        <ele>149.89663696289</ele>
        <time>2017-09-03T08:00:02.000Z</time>
      </trkpt>
      <trkpt lat="49.41269" lon="1.47815">
        <ele>149.95007324219</ele>
        <time>2017-09-03T08:00:04.000Z</time>
      </trkpt>
      <trkpt lat="49.41276" lon="1.47807">
        <ele>149.98042297363</ele>
        <time>2017-09-03T08:00:07.000Z</time>
      </trkpt>
      <trkpt lat="49.41281" lon="1.47802">
        <ele>149.95756530762</ele>
        <time>2017-09-03T08:00:09.000Z</time>
      </trkpt>
      <trkpt lat="49.41286" lon="1.47795">
        <ele>150.02998352051</ele>
        <time>2017-09-03T08:00:11.000Z</time>
      </trkpt>
      <trkpt lat="49.41292" lon="1.47788">
        <ele>150.22039794922</ele>
        <time>2017-09-03T08:00:13.000Z</time>
      </trkpt>
      <trkpt lat="49.41299" lon="1.4778">
        <ele>150.58651733398</ele>
        <time>2017-09-03T08:00:16.000Z</time>
      </trkpt>
      <trkpt lat="49.41303" lon="1.47775">
        <ele>151.04159545898</ele>
        <time>2017-09-03T08:00:18.000Z</time>
      </trkpt>
      <trkpt lat="49.41309" lon="1.47769">
        <ele>151.60641479492</ele>
        <time>2017-09-03T08:00:21.000Z</time>
      </trkpt>
      <trkpt lat="49.41314" lon="1.47764">
        <ele>152.29235839844</ele>
        <time>2017-09-03T08:00:24.000Z</time>
      </trkpt>
      <trkpt lat="49.41317" lon="1.47762">
        <ele>153.03938293457</ele>
        <time>2017-09-03T08:00:26.000Z</time>
      </trkpt>
      <trkpt lat="49.41324" lon="1.47757">
        <ele>153.89407348633</ele>
        <time>2017-09-03T08:00:29.000Z</time>
      </trkpt>
      <trkpt lat="49.4133" lon="1.47755">
        <ele>154.89360046387</ele>
        <time>2017-09-03T08:00:31.000Z</time>
      </trkpt>
      <trkpt lat="49.41336" lon="1.47754">
        <ele>155.91528320312</ele>
        <time>2017-09-03T08:00:34.000Z</time>
      </trkpt>
      <trkpt lat="49.41343" lon="1.47753">
        <ele>156.7945098877</ele>
        <time>2017-09-03T08:00:36.000Z</time>
      </trkpt>
      <trkpt lat="49.41348" lon="1.47752">
        <ele>157.57434082031</ele>
        <time>2017-09-03T08:00:38.000Z</time>
      </trkpt>
      <trkpt lat="49.41354" lon="1.4775">
        <ele>158.13874816895</ele>
        <time>2017-09-03T08:00:40.000Z</time>
      </trkpt>
      <trkpt lat="49.41363" lon="1.47746">
        <ele>158.43789672852</ele>
        <time>2017-09-03T08:00:43.000Z</time>
      </trkpt>
      <trkpt lat="49.41369" lon="1.47742">
        <ele>158.5387878418</ele>
        <time>2017-09-03T08:00:45.000Z</time>
      </trkpt>
      <trkpt lat="49.41378" lon="1.47735">
        <ele>158.5630645752</ele>
        <time>2017-09-03T08:00:48.000Z</time>
      </trkpt>
      <trkpt lat="49.41381" lon="1.47732">
        <ele>158.53039550781</ele>
        <time>2017-09-03T08:00:50.000Z</time>
      </trkpt>
      <trkpt lat="49.41388" lon="1.47726">
        <ele>158.44371032715</ele>
        <time>2017-09-03T08:00:52.000Z</time>
      </trkpt>
      <trkpt lat="49.41392" lon="1.47722">
        <ele>158.37442016602</ele>
        <time>2017-09-03T08:00:54.000Z</time>
      </trkpt>
      <trkpt lat="49.414" lon="1.47714">
        <ele>158.34700012207</ele>
        <time>2017-09-03T08:00:57.000Z</time>
      </trkpt>
      <trkpt lat="49.41406" lon="1.47708">
        <ele>158.38581848145</ele>
        <time>2017-09-03T08:01:00.000Z</time>
      </trkpt>
      <trkpt lat="49.41409" lon="1.47706">
        <ele>158.47998046875</ele>
        <time>2017-09-03T08:01:02.000Z</time>
      </trkpt>
      <trkpt lat="49.41414" lon="1.47704">
        <ele>158.65023803711</ele>
        <time>2017-09-03T08:01:05.000Z</time>
      </trkpt>
      <trkpt lat="49.41417" lon="1.47702">
        <ele>158.83854675293</ele>
        <time>2017-09-03T08:01:07.000Z</time>
      </trkpt>
      <trkpt lat="49.41421" lon="1.47698">
        <ele>159.0040435791</ele>
        <time>2017-09-03T08:01:10.000Z</time>
      </trkpt>
      <trkpt lat="49.41424" lon="1.47694">
        <ele>159.13793945312</ele>
        <time>2017-09-03T08:01:12.000Z</time>
      </trkpt>
      <trkpt lat="49.41428" lon="1.47689">
        <ele>159.24105834961</ele>
        <time>2017-09-03T08:01:14.000Z</time>
      </trkpt>
      <trkpt lat="49.41436" lon="1.4768">
        <ele>159.3141784668</ele>
        <time>2017-09-03T08:01:17.000Z</time>
      </trkpt>
      <trkpt lat="49.41442" lon="1.47672">
        <ele>159.43891906738</ele>
        <time>2017-09-03T08:01:20.000Z</time>
      </trkpt>
      <trkpt lat="49.41447" lon="1.47668">
        <ele>159.63055419922</ele>
        <time>2017-09-03T08:01:22.000Z</time>
      </trkpt>
      <trkpt lat="49.41452" lon="1.47663">
        <ele>159.8186340332</ele>
        <time>2017-09-03T08:01:24.000Z</time>
      </trkpt>
      <trkpt lat="49.41461" lon="1.47655">
        <ele>159.95338439941</ele>
        <time>2017-09-03T08:01:27.000Z</time>
      </trkpt>
      <trkpt lat="49.4147" lon="1.47648">
        <ele>160.05171203613</ele>
        <time>2017-09-03T08:01:30.000Z</time>
      </trkpt>
      <trkpt lat="49.41481" lon="1.47642">
        <ele>160.13095092773</ele>
        <time>2017-09-03T08:01:33.000Z</time>
      </trkpt>
      <trkpt lat="49.41494" lon="1.47638">
        <ele>160.24488830566</ele>
        <time>2017-09-03T08:01:36.000Z</time>
      </trkpt>
      <trkpt lat="49.41506" lon="1.47636">
        <ele>160.34544372559</ele>
        <time>2017-09-03T08:01:39.000Z</time>
      </trkpt>
      <trkpt lat="49.41514" lon="1.47634">
        <ele>160.37701416016</ele>
        <time>2017-09-03T08:01:41.000Z</time>
      </trkpt>
      <trkpt lat="49.41522" lon="1.47633">
        <ele>160.2873840332</ele>
        <time>2017-09-03T08:01:43.000Z</time>
      </trkpt>
      <trkpt lat="49.41533" lon="1.47629">
        <ele>159.95390319824</ele>
        <time>2017-09-03T08:01:46.000Z</time>
      </trkpt>
      <trkpt lat="49.41544" lon="1.47623">
        <ele>159.28126525879</ele>
        <time>2017-09-03T08:01:49.000Z</time>
      </trkpt>
      <trkpt lat="49.41557" lon="1.47612">
        <ele>158.31094360352</ele>
        <time>2017-09-03T08:01:52.000Z</time>
      </trkpt>
      <trkpt lat="49.41569" lon="1.476">
        <ele>157.1068572998</ele>
        <time>2017-09-03T08:01:55.000Z</time>
      </trkpt>
      <trkpt lat="49.41582" lon="1.47586">
        <ele>155.65090942383</ele>
        <time>2017-09-03T08:01:58.000Z</time>
      </trkpt>
      <trkpt lat="49.41591" lon="1.47578">
        <ele>154.10020446777</ele>
        <time>2017-09-03T08:02:00.000Z</time>
      </trkpt>
      <trkpt lat="49.41607" lon="1.47567">
        <ele>152.41053771973</ele>
        <time>2017-09-03T08:02:03.000Z</time>
      </trkpt>
      <trkpt lat="49.41618" lon="1.47561">
        <ele>150.8716583252</ele>
        <time>2017-09-03T08:02:05.000Z</time>
      </trkpt>
      <trkpt lat="49.41629" lon="1.47561">
        <ele>149.62403869629</ele>
        <time>2017-09-03T08:02:07.000Z</time>
      </trkpt>
      <trkpt lat="49.41648" lon="1.47556">
        <ele>148.61813354492</ele>
        <time>2017-09-03T08:02:10.000Z</time>
      </trkpt>
      <trkpt lat="49.41667" lon="1.47543">
        <ele>147.76522827148</ele>
        <time>2017-09-03T08:02:13.000Z</time>
      </trkpt>
      <trkpt lat="49.41684" lon="1.47525">
        <ele>147.59785461426</ele>
        <time>2017-09-03T08:02:16.000Z</time>
      </trkpt>
      <trkpt lat="49.41695" lon="1.47517">
        <ele>147.8815612793</ele>
        <time>2017-09-03T08:02:18.000Z</time>
      </trkpt>
      <trkpt lat="49.41716" lon="1.47513">
        <ele>148.80639648438</ele>
        <time>2017-09-03T08:02:21.000Z</time>
      </trkpt>
      <trkpt lat="49.41729" lon="1.47506">
        <ele>150.27780151367</ele>
        <time>2017-09-03T08:02:23.000Z</time>
      </trkpt>
      <trkpt lat="49.41744" lon="1.47492">
        <ele>152.29243469238</ele>
        <time>2017-09-03T08:02:26.000Z</time>
      </trkpt>
      <trkpt lat="49.41751" lon="1.47486">
        <ele>154.11625671387</ele>
        <time>2017-09-03T08:02:28.000Z</time>
      </trkpt>
      <trkpt lat="49.41761" lon="1.47479">
        <ele>155.7137298584</ele>
        <time>2017-09-03T08:02:31.000Z</time>
      </trkpt>
      <trkpt lat="49.41772" lon="1.47478">
        <ele>156.85946655273</ele>
        <time>2017-09-03T08:02:34.000Z</time>
      </trkpt>
      <trkpt lat="49.41779" lon="1.47478">
        <ele>157.68821716309</ele>
        <time>2017-09-03T08:02:36.000Z</time>
      </trkpt>
      <trkpt lat="49.41786" lon="1.47479">
        <ele>158.22207641602</ele>
        <time>2017-09-03T08:02:39.000Z</time>
      </trkpt>
      <trkpt lat="49.41794" lon="1.47479">
        <ele>158.75662231445</ele>
        <time>2017-09-03T08:02:42.000Z</time>
      </trkpt>
      <trkpt lat="49.41798" lon="1.47479">
        <ele>159.2942199707</ele>
        <time>2017-09-03T08:02:44.000Z</time>
      </trkpt>
      <trkpt lat="49.41805" lon="1.4748">
        <ele>159.79927062988</ele>
        <time>2017-09-03T08:02:47.000Z</time>
      </trkpt>
      <trkpt lat="49.41809" lon="1.47479">
        <ele>160.25105285645</ele>
        <time>2017-09-03T08:02:49.000Z</time>
      </trkpt>
      <trkpt lat="49.41813" lon="1.4748">
        <ele>160.64794921875</ele>
        <time>2017-09-03T08:02:51.000Z</time>
      </trkpt>
      <trkpt lat="49.41819" lon="1.4748">
        <ele>161.01554870605</ele>
        <time>2017-09-03T08:02:54.000Z</time>
      </trkpt>
      <trkpt lat="49.41822" lon="1.47481">
        <ele>161.36036682129</ele>
        <time>2017-09-03T08:02:56.000Z</time>
      </trkpt>
      <trkpt lat="49.41827" lon="1.4748">
        <ele>161.67495727539</ele>
        <time>2017-09-03T08:02:59.000Z</time>
      </trkpt>
      <trkpt lat="49.4183" lon="1.4748">
        <ele>161.97970581055</ele>
        <time>2017-09-03T08:03:01.000Z</time>
      </trkpt>
      <trkpt lat="49.41833" lon="1.47481">
        <ele>162.27011108398</ele>
        <time>2017-09-03T08:03:04.000Z</time>
      </trkpt>
      <trkpt lat="49.41838" lon="1.4748">
        <ele>162.43347167969</ele>
        <time>2017-09-03T08:03:07.000Z</time>
      </trkpt>
      <trkpt lat="49.41844" lon="1.47481">
        <ele>162.50979614258</ele>
        <time>2017-09-03T08:03:10.000Z</time>
      </trkpt>
      <trkpt lat="49.41849" lon="1.47482">
        <ele>162.46984863281</ele>
        <time>2017-09-03T08:03:13.000Z</time>
      </trkpt>
      <trkpt lat="49.41854" lon="1.47481">
        <ele>162.3452911377</ele>
        <time>2017-09-03T08:03:16.000Z</time>
      </trkpt>
      <trkpt lat="49.41862" lon="1.47481">
        <ele>162.11468505859</ele>
        <time>2017-09-03T08:03:19.000Z</time>
      </trkpt>
      <trkpt lat="49.4187" lon="1.47483">
        <ele>161.8493347168</ele>
        <time>2017-09-03T08:03:22.000Z</time>
      </trkpt>
      <trkpt lat="49.41877" lon="1.47482">
        <ele>161.56721496582</ele>
        <time>2017-09-03T08:03:25.000Z</time>
      </trkpt>
      <trkpt lat="49.41883" lon="1.4748">
        <ele>161.30180358887</ele>
        <time>2017-09-03T08:03:27.000Z</time>
      </trkpt>
      <trkpt lat="49.41891" lon="1.47474">
        <ele>161.06889343262</ele>
        <time>2017-09-03T08:03:30.000Z</time>
      </trkpt>
      <trkpt lat="49.41899" lon="1.47468">
        <ele>160.90942382812</ele>
        <time>2017-09-03T08:03:33.000Z</time>
      </trkpt>
      <trkpt lat="49.41907" lon="1.47463">
        <ele>160.83920288086</ele>
        <time>2017-09-03T08:03:36.000Z</time>
      </trkpt>
      <trkpt lat="49.41914" lon="1.47459">
        <ele>160.85372924805</ele>
        <time>2017-09-03T08:03:39.000Z</time>
      </trkpt>
      <trkpt lat="49.41919" lon="1.47455">
        <ele>160.90809631348</ele>
        <time>2017-09-03T08:03:41.000Z</time>
      </trkpt>
      <trkpt lat="49.41923" lon="1.47452">
        <ele>160.96940612793</ele>
        <time>2017-09-03T08:03:43.000Z</time>
      </trkpt>
      <trkpt lat="49.41924" lon="1.47451">
        <ele>161.01652526855</ele>
        <time>2017-09-03T08:03:46.000Z</time>
      </trkpt>
      <trkpt lat="49.41928" lon="1.47447">
        <ele>161.04675292969</ele>
        <time>2017-09-03T08:03:57.000Z</time>
      </trkpt>
      <trkpt lat="49.4193" lon="1.47447">
        <ele>161.03367614746</ele>
        <time>2017-09-03T08:04:11.000Z</time>
      </trkpt>
      <trkpt lat="49.41936" lon="1.47444">
        <ele>160.98413085938</ele>
        <time>2017-09-03T08:04:14.000Z</time>
      </trkpt>
      <trkpt lat="49.4194" lon="1.47441">
        <ele>160.91845703125</ele>
        <time>2017-09-03T08:04:16.000Z</time>
      </trkpt>
      <trkpt lat="49.41948" lon="1.47439">
        <ele>160.78520202637</ele>
        <time>2017-09-03T08:04:19.000Z</time>
      </trkpt>
      <trkpt lat="49.41953" lon="1.47438">
        <ele>160.59403991699</ele>
        <time>2017-09-03T08:04:21.000Z</time>
      </trkpt>
      <trkpt lat="49.41962" lon="1.47433">
        <ele>160.35124206543</ele>
        <time>2017-09-03T08:04:24.000Z</time>
      </trkpt>
      <trkpt lat="49.41979" lon="1.47417">
        <ele>160.08283996582</ele>
        <time>2017-09-03T08:04:27.000Z</time>
      </trkpt>
      <trkpt lat="49.41991" lon="1.47405">
        <ele>159.80888366699</ele>
        <time>2017-09-03T08:04:29.000Z</time>
      </trkpt>
      <trkpt lat="49.42002" lon="1.474">
        <ele>159.55543518066</ele>
        <time>2017-09-03T08:04:31.000Z</time>
      </trkpt>
      <trkpt lat="49.42016" lon="1.47393">
        <ele>159.28056335449</ele>
        <time>2017-09-03T08:04:34.000Z</time>
      </trkpt>
      <trkpt lat="49.42022" lon="1.47389">
        <ele>159.05772399902</ele>
        <time>2017-09-03T08:04:36.000Z</time>
      </trkpt>
      <trkpt lat="49.42029" lon="1.4738">
        <ele>158.91566467285</ele>
        <time>2017-09-03T08:04:39.000Z</time>
      </trkpt>
      <trkpt lat="49.42034" lon="1.47372">
        <ele>158.84614562988</ele>
        <time>2017-09-03T08:04:41.000Z</time>
      </trkpt>
      <trkpt lat="49.42043" lon="1.47368">
        <ele>158.74311828613</ele>
        <time>2017-09-03T08:04:44.000Z</time>
      </trkpt>
      <trkpt lat="49.42049" lon="1.47362">
        <ele>158.7133026123</ele>
        <time>2017-09-03T08:04:46.000Z</time>
      </trkpt>
      <trkpt lat="49.42059" lon="1.47352">
        <ele>158.70846557617</ele>
        <time>2017-09-03T08:04:49.000Z</time>
      </trkpt>
      <trkpt lat="49.42064" lon="1.47346">
        <ele>158.68774414062</ele>
        <time>2017-09-03T08:04:51.000Z</time>
      </trkpt>
      <trkpt lat="49.42068" lon="1.4734">
        <ele>158.61026000977</ele>
        <time>2017-09-03T08:04:53.000Z</time>
      </trkpt>
      <trkpt lat="49.42076" lon="1.47332">
        <ele>158.60014343262</ele>
        <time>2017-09-03T08:04:56.000Z</time>
      </trkpt>
      <trkpt lat="49.42085" lon="1.47325">
        <ele>158.58450317383</ele>
        <time>2017-09-03T08:04:59.000Z</time>
      </trkpt>
      <trkpt lat="49.4209" lon="1.4732">
        <ele>158.5810546875</ele>
        <time>2017-09-03T08:05:01.000Z</time>
      </trkpt>
      <trkpt lat="49.42097" lon="1.47314">
        <ele>158.60008239746</ele>
        <time>2017-09-03T08:05:04.000Z</time>
      </trkpt>
      <trkpt lat="49.42102" lon="1.47308">
        <ele>158.67637634277</ele>
        <time>2017-09-03T08:05:07.000Z</time>
      </trkpt>
      <trkpt lat="49.42105" lon="1.47302">
        <ele>158.82124328613</ele>
        <time>2017-09-03T08:05:09.000Z</time>
      </trkpt>
      <trkpt lat="49.42109" lon="1.47297">
        <ele>159.03523254395</ele>
        <time>2017-09-03T08:05:11.000Z</time>
      </trkpt>
      <trkpt lat="49.42115" lon="1.47289">
        <ele>159.29956054688</ele>
        <time>2017-09-03T08:05:14.000Z</time>
      </trkpt>
      <trkpt lat="49.4212" lon="1.47285">
        <ele>159.56381225586</ele>
        <time>2017-09-03T08:05:16.000Z</time>
      </trkpt>
      <trkpt lat="49.42123" lon="1.47281">
        <ele>159.82177734375</ele>
        <time>2017-09-03T08:05:18.000Z</time>
      </trkpt>
      <trkpt lat="49.4213" lon="1.47277">
        <ele>160.06384277344</ele>
        <time>2017-09-03T08:05:21.000Z</time>
      </trkpt>
      <trkpt lat="49.42137" lon="1.47275">
        <ele>160.24774169922</ele>
        <time>2017-09-03T08:05:24.000Z</time>
      </trkpt>
      <trkpt lat="49.42142" lon="1.47273">
        <ele>160.36526489258</ele>
        <time>2017-09-03T08:05:26.000Z</time>
      </trkpt>
      <trkpt lat="49.42148" lon="1.47271">
        <ele>160.45822143555</ele>
        <time>2017-09-03T08:05:28.000Z</time>
      </trkpt>
      <trkpt lat="49.42153" lon="1.47268">
        <ele>160.54122924805</ele>
        <time>2017-09-03T08:05:30.000Z</time>
      </trkpt>
      <trkpt lat="49.4216" lon="1.47263">
        <ele>160.64068603516</ele>
        <time>2017-09-03T08:05:33.000Z</time>
      </trkpt>
      <trkpt lat="49.42169" lon="1.47259">
        <ele>160.79095458984</ele>
        <time>2017-09-03T08:05:36.000Z</time>
      </trkpt>
      <trkpt lat="49.42176" lon="1.47255">
        <ele>160.97007751465</ele>
        <time>2017-09-03T08:05:39.000Z</time>
      </trkpt>
      <trkpt lat="49.42181" lon="1.47253">
        <ele>161.14036560059</ele>
        <time>2017-09-03T08:05:41.000Z</time>
      </trkpt>
      <trkpt lat="49.42191" lon="1.47251">
        <ele>161.26145935059</ele>
        <time>2017-09-03T08:05:44.000Z</time>
      </trkpt>
      <trkpt lat="49.422" lon="1.47249">
        <ele>161.31465148926</ele>
        <time>2017-09-03T08:05:47.000Z</time>
      </trkpt>
      <trkpt lat="49.4221" lon="1.47246">
        <ele>161.29808044434</ele>
        <time>2017-09-03T08:05:50.000Z</time>
      </trkpt>
      <trkpt lat="49.42218" lon="1.47243">
        <ele>161.24957275391</ele>
        <time>2017-09-03T08:05:53.000Z</time>
      </trkpt>
      <trkpt lat="49.42225" lon="1.47238">
        <ele>161.2116394043</ele>
        <time>2017-09-03T08:05:56.000Z</time>
      </trkpt>
      <trkpt lat="49.42232" lon="1.47235">
        <ele>161.20332336426</ele>
        <time>2017-09-03T08:05:59.000Z</time>
      </trkpt>
      <trkpt lat="49.42241" lon="1.47231">
        <ele>161.2220916748</ele>
        <time>2017-09-03T08:06:02.000Z</time>
      </trkpt>
      <trkpt lat="49.42245" lon="1.47229">
        <ele>161.26350402832</ele>
        <time>2017-09-03T08:06:04.000Z</time>
      </trkpt>
      <trkpt lat="49.42255" lon="1.47225">
        <ele>161.31886291504</ele>
        <time>2017-09-03T08:06:07.000Z</time>
      </trkpt>
      <trkpt lat="49.4226" lon="1.47223">
        <ele>161.36709594727</ele>
        <time>2017-09-03T08:06:09.000Z</time>
      </trkpt>
      <trkpt lat="49.42265" lon="1.4722">
        <ele>161.41165161133</ele>
        <time>2017-09-03T08:06:11.000Z</time>
      </trkpt>
      <trkpt lat="49.42274" lon="1.47217">
        <ele>161.46041870117</ele>
        <time>2017-09-03T08:06:14.000Z</time>
      </trkpt>
      <trkpt lat="49.42279" lon="1.47215">
        <ele>161.5199432373</ele>
        <time>2017-09-03T08:06:16.000Z</time>
      </trkpt>
      <trkpt lat="49.42281" lon="1.47213">
        <ele>161.58815002441</ele>
        <time>2017-09-03T08:06:18.000Z</time>
      </trkpt>
      <trkpt lat="49.42285" lon="1.4721">
        <ele>161.69342041016</ele>
        <time>2017-09-03T08:06:21.000Z</time>
      </trkpt>
      <trkpt lat="49.42288" lon="1.47208">
        <ele>161.8088684082</ele>
        <time>2017-09-03T08:06:23.000Z</time>
      </trkpt>
      <trkpt lat="49.42294" lon="1.47204">
        <ele>161.95854187012</ele>
        <time>2017-09-03T08:06:26.000Z</time>
      </trkpt>
      <trkpt lat="49.42299" lon="1.472">
        <ele>162.15473937988</ele>
        <time>2017-09-03T08:06:28.000Z</time>
      </trkpt>
      <trkpt lat="49.42303" lon="1.47197">
        <ele>162.38360595703</ele>
        <time>2017-09-03T08:06:30.000Z</time>
      </trkpt>
      <trkpt lat="49.42308" lon="1.47193">
        <ele>162.62593078613</ele>
        <time>2017-09-03T08:06:32.000Z</time>
      </trkpt>
      <trkpt lat="49.42316" lon="1.47191">
        <ele>162.89663696289</ele>
        <time>2017-09-03T08:06:35.000Z</time>
      </trkpt>
      <trkpt lat="49.42326" lon="1.47183">
        <ele>163.27310180664</ele>
        <time>2017-09-03T08:06:38.000Z</time>
      </trkpt>
      <trkpt lat="49.42333" lon="1.47176">
        <ele>163.73831176758</ele>
        <time>2017-09-03T08:06:40.000Z</time>
      </trkpt>
      <trkpt lat="49.42344" lon="1.47168">
        <ele>164.14071655273</ele>
        <time>2017-09-03T08:06:43.000Z</time>
      </trkpt>
      <trkpt lat="49.4235" lon="1.47164">
        <ele>164.44186401367</ele>
        <time>2017-09-03T08:06:45.000Z</time>
      </trkpt>
      <trkpt lat="49.42362" lon="1.47155">
        <ele>164.62915039062</ele>
        <time>2017-09-03T08:06:48.000Z</time>
      </trkpt>
      <trkpt lat="49.4237" lon="1.47146">
        <ele>164.67300415039</ele>
        <time>2017-09-03T08:06:50.000Z</time>
      </trkpt>
      <trkpt lat="49.42382" lon="1.47136">
        <ele>164.5866394043</ele>
        <time>2017-09-03T08:06:53.000Z</time>
      </trkpt>
      <trkpt lat="49.42395" lon="1.47128">
        <ele>164.52095031738</ele>
        <time>2017-09-03T08:06:56.000Z</time>
      </trkpt>
      <trkpt lat="49.42408" lon="1.47122">
        <ele>164.53105163574</ele>
        <time>2017-09-03T08:06:58.000Z</time>
      </trkpt>
      <trkpt lat="49.42425" lon="1.47112">
        <ele>164.62385559082</ele>
        <time>2017-09-03T08:07:01.000Z</time>
      </trkpt>
      <trkpt lat="49.4244" lon="1.47104">
        <ele>164.61239624023</ele>
        <time>2017-09-03T08:07:04.000Z</time>
      </trkpt>
      <trkpt lat="49.42448" lon="1.471">
        <ele>164.49617004395</ele>
        <time>2017-09-03T08:07:07.000Z</time>
      </trkpt>
      <trkpt lat="49.42454" lon="1.47099">
        <ele>164.28755187988</ele>
        <time>2017-09-03T08:07:09.000Z</time>
      </trkpt>
      <trkpt lat="49.42463" lon="1.47095">
        <ele>163.9313659668</ele>
        <time>2017-09-03T08:07:12.000Z</time>
      </trkpt>
      <trkpt lat="49.42473" lon="1.47087">
        <ele>163.50437927246</ele>
        <time>2017-09-03T08:07:15.000Z</time>
      </trkpt>
      <trkpt lat="49.42479" lon="1.47079">
        <ele>163.16665649414</ele>
        <time>2017-09-03T08:07:17.000Z</time>
      </trkpt>
      <trkpt lat="49.42488" lon="1.4707">
        <ele>162.95677185059</ele>
        <time>2017-09-03T08:07:20.000Z</time>
      </trkpt>
      <trkpt lat="49.42493" lon="1.47064">
        <ele>162.89755249023</ele>
        <time>2017-09-03T08:07:22.000Z</time>
      </trkpt>
      <trkpt lat="49.42498" lon="1.47052">
        <ele>163.15795898438</ele>
        <time>2017-09-03T08:07:25.000Z</time>
      </trkpt>
      <trkpt lat="49.42505" lon="1.47039">
        <ele>163.70352172852</ele>
        <time>2017-09-03T08:07:28.000Z</time>
      </trkpt>
      <trkpt lat="49.42511" lon="1.47023">
        <ele>164.5266418457</ele>
        <time>2017-09-03T08:07:31.000Z</time>
      </trkpt>
      <trkpt lat="49.42516" lon="1.47013">
        <ele>165.46292114258</ele>
        <time>2017-09-03T08:07:34.000Z</time>
      </trkpt>
      <trkpt lat="49.42518" lon="1.47005">
        <ele>166.46154785156</ele>
        <time>2017-09-03T08:07:36.000Z</time>
      </trkpt>
      <trkpt lat="49.42525" lon="1.46997">
        <ele>167.24116516113</ele>
        <time>2017-09-03T08:07:39.000Z</time>
      </trkpt>
      <trkpt lat="49.42533" lon="1.46987">
        <ele>167.7603302002</ele>
        <time>2017-09-03T08:07:42.000Z</time>
      </trkpt>
      <trkpt lat="49.42542" lon="1.46976">
        <ele>167.99670410156</ele>
        <time>2017-09-03T08:07:45.000Z</time>
      </trkpt>
      <trkpt lat="49.42547" lon="1.46968">
        <ele>168.10453796387</ele>
        <time>2017-09-03T08:07:47.000Z</time>
      </trkpt>
      <trkpt lat="49.42554" lon="1.46959">
        <ele>168.10140991211</ele>
        <time>2017-09-03T08:07:50.000Z</time>
      </trkpt>
      <trkpt lat="49.42561" lon="1.4695">
        <ele>168.16386413574</ele>
        <time>2017-09-03T08:07:53.000Z</time>
      </trkpt>
      <trkpt lat="49.42564" lon="1.46945">
        <ele>168.29049682617</ele>
        <time>2017-09-03T08:07:55.000Z</time>
      </trkpt>
      <trkpt lat="49.42571" lon="1.46931">
        <ele>168.58728027344</ele>
        <time>2017-09-03T08:07:58.000Z</time>
      </trkpt>
      <trkpt lat="49.42577" lon="1.4692">
        <ele>168.9892578125</ele>
        <time>2017-09-03T08:08:00.000Z</time>
      </trkpt>
      <trkpt lat="49.4258" lon="1.46911">
        <ele>169.4430847168</ele>
        <time>2017-09-03T08:08:02.000Z</time>
      </trkpt>
      <trkpt lat="49.42583" lon="1.46902">
        <ele>169.88330078125</ele>
        <time>2017-09-03T08:08:04.000Z</time>
      </trkpt>
      <trkpt lat="49.42589" lon="1.46889">
        <ele>170.25825500488</ele>
        <time>2017-09-03T08:08:07.000Z</time>
      </trkpt>
      <trkpt lat="49.42593" lon="1.46882">
        <ele>170.42280578613</ele>
        <time>2017-09-03T08:08:09.000Z</time>
      </trkpt>
      <trkpt lat="49.42598" lon="1.4687">
        <ele>170.39828491211</ele>
        <time>2017-09-03T08:08:12.000Z</time>
      </trkpt>
      <trkpt lat="49.42604" lon="1.46858">
        <ele>170.22261047363</ele>
        <time>2017-09-03T08:08:15.000Z</time>
      </trkpt>
      <trkpt lat="49.42607" lon="1.46852">
        <ele>169.96473693848</ele>
        <time>2017-09-03T08:08:17.000Z</time>
      </trkpt>
      <trkpt lat="49.42609" lon="1.46845">
        <ele>169.72123718262</ele>
        <time>2017-09-03T08:08:19.000Z</time>
      </trkpt>
      <trkpt lat="49.4261" lon="1.46837">
        <ele>169.53108215332</ele>
        <time>2017-09-03T08:08:21.000Z</time>
      </trkpt>
      <trkpt lat="49.42617" lon="1.4683">
        <ele>169.21607971191</ele>
        <time>2017-09-03T08:08:24.000Z</time>
      </trkpt>
      <trkpt lat="49.42625" lon="1.46824">
        <ele>168.74241638184</ele>
        <time>2017-09-03T08:08:27.000Z</time>
      </trkpt>
      <trkpt lat="49.4263" lon="1.46817">
        <ele>168.16505432129</ele>
        <time>2017-09-03T08:08:30.000Z</time>
      </trkpt>
      <trkpt lat="49.42635" lon="1.46807">
        <ele>167.48085021973</ele>
        <time>2017-09-03T08:08:33.000Z</time>
      </trkpt>
      <trkpt lat="49.42636" lon="1.46802">
        <ele>166.75770568848</ele>
        <time>2017-09-03T08:08:35.000Z</time>
      </trkpt>
      <trkpt lat="49.42641" lon="1.46794">
        <ele>166.10066223145</ele>
        <time>2017-09-03T08:08:38.000Z</time>
      </trkpt>
      <trkpt lat="49.42642" lon="1.46787">
        <ele>165.65472412109</ele>
        <time>2017-09-03T08:08:40.000Z</time>
      </trkpt>
      <trkpt lat="49.42644" lon="1.46775">
        <ele>165.35559082031</ele>
        <time>2017-09-03T08:08:43.000Z</time>
      </trkpt>
      <trkpt lat="49.42646" lon="1.46765">
        <ele>165.14688110352</ele>
        <time>2017-09-03T08:08:46.000Z</time>
      </trkpt>
      <trkpt lat="49.42648" lon="1.46757">
        <ele>164.9645690918</ele>
        <time>2017-09-03T08:08:48.000Z</time>
      </trkpt>
      <trkpt lat="49.42646" lon="1.46738">
        <ele>164.93490600586</ele>
        <time>2017-09-03T08:08:51.000Z</time>
      </trkpt>
      <trkpt lat="49.42643" lon="1.46724">
        <ele>164.95141601562</ele>
        <time>2017-09-03T08:08:53.000Z</time>
      </trkpt>
      <trkpt lat="49.42638" lon="1.46705">
        <ele>165.02876281738</ele>
        <time>2017-09-03T08:08:56.000Z</time>
      </trkpt>
      <trkpt lat="49.42635" lon="1.46693">
        <ele>165.17233276367</ele>
        <time>2017-09-03T08:08:58.000Z</time>
      </trkpt>
      <trkpt lat="49.42633" lon="1.46682">
        <ele>165.3427734375</ele>
        <time>2017-09-03T08:09:00.000Z</time>
      </trkpt>
      <trkpt lat="49.4263" lon="1.46667">
        <ele>165.48065185547</ele>
        <time>2017-09-03T08:09:03.000Z</time>
      </trkpt>
      <trkpt lat="49.4263" lon="1.46657">
        <ele>165.52713012695</ele>
        <time>2017-09-03T08:09:05.000Z</time>
      </trkpt>
      <trkpt lat="49.42628" lon="1.46647">
        <ele>165.49600219727</ele>
        <time>2017-09-03T08:09:07.000Z</time>
      </trkpt>
      <trkpt lat="49.42622" lon="1.46631">
        <ele>165.50524902344</ele>
        <time>2017-09-03T08:09:10.000Z</time>
      </trkpt>
      <trkpt lat="49.42619" lon="1.46619">
        <ele>165.53833007812</ele>
        <time>2017-09-03T08:09:12.000Z</time>
      </trkpt>
      <trkpt lat="49.42615" lon="1.46611">
        <ele>165.60925292969</ele>
        <time>2017-09-03T08:09:14.000Z</time>
      </trkpt>
      <trkpt lat="49.42612" lon="1.46598">
        <ele>165.74687194824</ele>
        <time>2017-09-03T08:09:17.000Z</time>
      </trkpt>
      <trkpt lat="49.4261" lon="1.46584">
        <ele>165.87237548828</ele>
        <time>2017-09-03T08:09:20.000Z</time>
      </trkpt>
      <trkpt lat="49.42606" lon="1.46569">
        <ele>165.9013671875</ele>
        <time>2017-09-03T08:09:23.000Z</time>
      </trkpt>
      <trkpt lat="49.42596" lon="1.46558">
        <ele>166.0191192627</ele>
        <time>2017-09-03T08:09:26.000Z</time>
      </trkpt>
      <trkpt lat="49.4259" lon="1.46546">
        <ele>166.10556030273</ele>
        <time>2017-09-03T08:09:29.000Z</time>
      </trkpt>
      <trkpt lat="49.42586" lon="1.46537">
        <ele>166.16455078125</ele>
        <time>2017-09-03T08:09:31.000Z</time>
      </trkpt>
      <trkpt lat="49.42585" lon="1.46527">
        <ele>166.15132141113</ele>
        <time>2017-09-03T08:09:33.000Z</time>
      </trkpt>
      <trkpt lat="49.42583" lon="1.46511">
        <ele>165.95220947266</ele>
        <time>2017-09-03T08:09:36.000Z</time>
      </trkpt>
      <trkpt lat="49.42579" lon="1.4649">
        <ele>165.42907714844</ele>
        <time>2017-09-03T08:09:39.000Z</time>
      </trkpt>
      <trkpt lat="49.42573" lon="1.46468">
        <ele>164.77462768555</ele>
        <time>2017-09-03T08:09:42.000Z</time>
      </trkpt>
      <trkpt lat="49.42569" lon="1.46455">
        <ele>164.07713317871</ele>
        <time>2017-09-03T08:09:44.000Z</time>
      </trkpt>
      <trkpt lat="49.42566" lon="1.46437">
        <ele>163.33139038086</ele>
        <time>2017-09-03T08:09:47.000Z</time>
      </trkpt>
      <trkpt lat="49.42562" lon="1.46423">
        <ele>162.73196411133</ele>
        <time>2017-09-03T08:09:49.000Z</time>
      </trkpt>
      <trkpt lat="49.42558" lon="1.46411">
        <ele>162.29650878906</ele>
        <time>2017-09-03T08:09:51.000Z</time>
      </trkpt>
      <trkpt lat="49.42556" lon="1.4639">
        <ele>161.77505493164</ele>
        <time>2017-09-03T08:09:54.000Z</time>
      </trkpt>
      <trkpt lat="49.42553" lon="1.4637">
        <ele>161.19262695312</ele>
        <time>2017-09-03T08:09:56.000Z</time>
      </trkpt>
      <trkpt lat="49.42538" lon="1.46336">
        <ele>160.69657897949</ele>
        <time>2017-09-03T08:09:59.000Z</time>
      </trkpt>
      <trkpt lat="49.42501" lon="1.4629">
        <ele>160.29434204102</ele>
        <time>2017-09-03T08:10:03.000Z</time>
      </trkpt>
      <trkpt lat="49.42487" lon="1.46267">
        <ele>159.5892791748</ele>
        <time>2017-09-03T08:10:06.000Z</time>
      </trkpt>
      <trkpt lat="49.42474" lon="1.46247">
        <ele>158.82620239258</ele>
        <time>2017-09-03T08:10:09.000Z</time>
      </trkpt>
      <trkpt lat="49.42459" lon="1.46229">
        <ele>158.10696411133</ele>
        <time>2017-09-03T08:10:12.000Z</time>
      </trkpt>
      <trkpt lat="49.42454" lon="1.46215">
        <ele>157.33154296875</ele>
        <time>2017-09-03T08:10:15.000Z</time>
      </trkpt>
      <trkpt lat="49.4244" lon="1.46211">
        <ele>156.52719116211</ele>
        <time>2017-09-03T08:10:18.000Z</time>
      </trkpt>
      <trkpt lat="49.42429" lon="1.46206">
        <ele>156.03398132324</ele>
        <time>2017-09-03T08:10:21.000Z</time>
      </trkpt>
      <trkpt lat="49.4242" lon="1.462">
        <ele>155.75596618652</ele>
        <time>2017-09-03T08:10:23.000Z</time>
      </trkpt>
      <trkpt lat="49.42413" lon="1.46193">
        <ele>155.4328918457</ele>
        <time>2017-09-03T08:10:25.000Z</time>
      </trkpt>
      <trkpt lat="49.42408" lon="1.46182">
        <ele>155.01905822754</ele>
        <time>2017-09-03T08:10:28.000Z</time>
      </trkpt>
      <trkpt lat="49.42408" lon="1.46175">
        <ele>154.51510620117</ele>
        <time>2017-09-03T08:10:30.000Z</time>
      </trkpt>
      <trkpt lat="49.42408" lon="1.46168">
        <ele>153.94970703125</ele>
        <time>2017-09-03T08:10:32.000Z</time>
      </trkpt>
      <trkpt lat="49.42408" lon="1.46163">
        <ele>153.39302062988</ele>
        <time>2017-09-03T08:10:34.000Z</time>
      </trkpt>
      <trkpt lat="49.4241" lon="1.46156">
        <ele>152.93963623047</ele>
        <time>2017-09-03T08:10:37.000Z</time>
      </trkpt>
      <trkpt lat="49.4241" lon="1.46151">
        <ele>152.66665649414</ele>
        <time>2017-09-03T08:10:39.000Z</time>
      </trkpt>
      <trkpt lat="49.42411" lon="1.46143">
        <ele>152.43453979492</ele>
        <time>2017-09-03T08:10:42.000Z</time>
      </trkpt>
      <trkpt lat="49.42412" lon="1.46143">
        <ele>152.28695678711</ele>
        <time>2017-09-03T08:10:44.000Z</time>
      </trkpt>
      <trkpt lat="49.42411" lon="1.46141">
        <ele>152.16149902344</ele>
        <time>2017-09-03T08:10:47.000Z</time>
      </trkpt>
      <trkpt lat="49.42405" lon="1.46131">
        <ele>151.9912109375</ele>
        <time>2017-09-03T08:10:50.000Z</time>
      </trkpt>
      <trkpt lat="49.42401" lon="1.4612">
        <ele>151.78952026367</ele>
        <time>2017-09-03T08:10:53.000Z</time>
      </trkpt>
      <trkpt lat="49.42397" lon="1.46113">
        <ele>151.60661315918</ele>
        <time>2017-09-03T08:10:55.000Z</time>
      </trkpt>
      <trkpt lat="49.42393" lon="1.46108">
        <ele>151.39938354492</ele>
        <time>2017-09-03T08:10:57.000Z</time>
      </trkpt>
      <trkpt lat="49.42387" lon="1.461">
        <ele>151.19786071777</ele>
        <time>2017-09-03T08:11:00.000Z</time>
      </trkpt>
      <trkpt lat="49.42382" lon="1.46095">
        <ele>151.07266235352</ele>
        <time>2017-09-03T08:11:02.000Z</time>
      </trkpt>
      <trkpt lat="49.42376" lon="1.46089">
        <ele>151.02005004883</ele>
        <time>2017-09-03T08:11:05.000Z</time>
      </trkpt>
      <trkpt lat="49.42373" lon="1.46085">
        <ele>151.00512695312</ele>
        <time>2017-09-03T08:11:07.000Z</time>
      </trkpt>
      <trkpt lat="49.42367" lon="1.4608">
        <ele>151.03518676758</ele>
        <time>2017-09-03T08:11:10.000Z</time>
      </trkpt>
      <trkpt lat="49.42365" lon="1.46077">
        <ele>151.09185791016</ele>
        <time>2017-09-03T08:11:12.000Z</time>
      </trkpt>
      <trkpt lat="49.4236" lon="1.46072">
        <ele>151.17207336426</ele>
        <time>2017-09-03T08:11:15.000Z</time>
      </trkpt>
      <trkpt lat="49.42357" lon="1.46067">
        <ele>151.25759887695</ele>
        <time>2017-09-03T08:11:18.000Z</time>
      </trkpt>
      <trkpt lat="49.42355" lon="1.46064">
        <ele>151.341796875</ele>
        <time>2017-09-03T08:11:20.000Z</time>
      </trkpt>
      <trkpt lat="49.42353" lon="1.46061">
        <ele>151.412109375</ele>
        <time>2017-09-03T08:11:22.000Z</time>
      </trkpt>
      <trkpt lat="49.4235" lon="1.46055">
        <ele>151.48046875</ele>
        <time>2017-09-03T08:11:25.000Z</time>
      </trkpt>
      <trkpt lat="49.42348" lon="1.4605">
        <ele>151.53515625</ele>
        <time>2017-09-03T08:11:27.000Z</time>
      </trkpt>
      <trkpt lat="49.42344" lon="1.46043">
        <ele>151.595703125</ele>
        <time>2017-09-03T08:11:30.000Z</time>
      </trkpt>
      <trkpt lat="49.42339" lon="1.46035">
        <ele>151.67578125</ele>
        <time>2017-09-03T08:11:33.000Z</time>
      </trkpt>
      <trkpt lat="49.42332" lon="1.46026">
        <ele>151.79180908203</ele>
        <time>2017-09-03T08:11:36.000Z</time>
      </trkpt>
      <trkpt lat="49.42324" lon="1.46019">
        <ele>151.99435424805</ele>
        <time>2017-09-03T08:11:39.000Z</time>
      </trkpt>
      <trkpt lat="49.42321" lon="1.46015">
        <ele>152.2296295166</ele>
        <time>2017-09-03T08:11:41.000Z</time>
      </trkpt>
      <trkpt lat="49.42319" lon="1.46009">
        <ele>152.48739624023</ele>
        <time>2017-09-03T08:11:44.000Z</time>
      </trkpt>
      <trkpt lat="49.42316" lon="1.46006">
        <ele>152.74909973145</ele>
        <time>2017-09-03T08:11:46.000Z</time>
      </trkpt>
      <trkpt lat="49.42311" lon="1.46">
        <ele>153.03901672363</ele>
        <time>2017-09-03T08:11:49.000Z</time>
      </trkpt>
      <trkpt lat="49.42306" lon="1.45995">
        <ele>153.31546020508</ele>
        <time>2017-09-03T08:11:52.000Z</time>
      </trkpt>
      <trkpt lat="49.42302" lon="1.45991">
        <ele>153.61991882324</ele>
        <time>2017-09-03T08:11:54.000Z</time>
      </trkpt>
      <trkpt lat="49.42297" lon="1.45986">
        <ele>153.95623779297</ele>
        <time>2017-09-03T08:11:57.000Z</time>
      </trkpt>
      <trkpt lat="49.4229" lon="1.45979">
        <ele>154.37222290039</ele>
        <time>2017-09-03T08:12:00.000Z</time>
      </trkpt>
      <trkpt lat="49.42286" lon="1.45975">
        <ele>154.76751708984</ele>
        <time>2017-09-03T08:12:02.000Z</time>
      </trkpt>
      <trkpt lat="49.4228" lon="1.45968">
        <ele>155.16732788086</ele>
        <time>2017-09-03T08:12:05.000Z</time>
      </trkpt>
      <trkpt lat="49.42273" lon="1.45963">
        <ele>155.59521484375</ele>
        <time>2017-09-03T08:12:08.000Z</time>
      </trkpt>
      <trkpt lat="49.42268" lon="1.45959">
        <ele>156.01974487305</ele>
        <time>2017-09-03T08:12:11.000Z</time>
      </trkpt>
      <trkpt lat="49.42262" lon="1.45952">
        <ele>156.41622924805</ele>
        <time>2017-09-03T08:12:14.000Z</time>
      </trkpt>
      <trkpt lat="49.42258" lon="1.45947">
        <ele>156.8010559082</ele>
        <time>2017-09-03T08:12:16.000Z</time>
      </trkpt>
      <trkpt lat="49.42254" lon="1.45942">
        <ele>157.14962768555</ele>
        <time>2017-09-03T08:12:18.000Z</time>
      </trkpt>
      <trkpt lat="49.42249" lon="1.45939">
        <ele>157.46151733398</ele>
        <time>2017-09-03T08:12:20.000Z</time>
      </trkpt>
      <trkpt lat="49.42242" lon="1.45937">
        <ele>157.72685241699</ele>
        <time>2017-09-03T08:12:22.000Z</time>
      </trkpt>
      <trkpt lat="49.42236" lon="1.45931">
        <ele>157.9388885498</ele>
        <time>2017-09-03T08:12:25.000Z</time>
      </trkpt>
      <trkpt lat="49.42232" lon="1.45926">
        <ele>158.12777709961</ele>
        <time>2017-09-03T08:12:27.000Z</time>
      </trkpt>
      <trkpt lat="49.42226" lon="1.45921">
        <ele>158.29345703125</ele>
        <time>2017-09-03T08:12:29.000Z</time>
      </trkpt>
      <trkpt lat="49.4222" lon="1.45915">
        <ele>158.42872619629</ele>
        <time>2017-09-03T08:12:31.000Z</time>
      </trkpt>
      <trkpt lat="49.42212" lon="1.45905">
        <ele>158.56163024902</ele>
        <time>2017-09-03T08:12:34.000Z</time>
      </trkpt>
      <trkpt lat="49.42203" lon="1.45893">
        <ele>158.70153808594</ele>
        <time>2017-09-03T08:12:37.000Z</time>
      </trkpt>
      <trkpt lat="49.42199" lon="1.45888">
        <ele>158.8404083252</ele>
        <time>2017-09-03T08:12:39.000Z</time>
      </trkpt>
      <trkpt lat="49.42191" lon="1.45876">
        <ele>158.98498535156</ele>
        <time>2017-09-03T08:12:42.000Z</time>
      </trkpt>
      <trkpt lat="49.42184" lon="1.4587">
        <ele>159.13833618164</ele>
        <time>2017-09-03T08:12:44.000Z</time>
      </trkpt>
      <trkpt lat="49.42173" lon="1.45865">
        <ele>159.33460998535</ele>
        <time>2017-09-03T08:12:47.000Z</time>
      </trkpt>
      <trkpt lat="49.42168" lon="1.45861">
        <ele>159.52478027344</ele>
        <time>2017-09-03T08:12:49.000Z</time>
      </trkpt>
      <trkpt lat="49.4216" lon="1.45852">
        <ele>159.72953796387</ele>
        <time>2017-09-03T08:12:52.000Z</time>
      </trkpt>
      <trkpt lat="49.42152" lon="1.45845">
        <ele>159.93319702148</ele>
        <time>2017-09-03T08:12:55.000Z</time>
      </trkpt>
      <trkpt lat="49.42147" lon="1.45835">
        <ele>160.12861633301</ele>
        <time>2017-09-03T08:12:58.000Z</time>
      </trkpt>
      <trkpt lat="49.42142" lon="1.45822">
        <ele>160.30026245117</ele>
        <time>2017-09-03T08:13:01.000Z</time>
      </trkpt>
      <trkpt lat="49.42137" lon="1.45814">
        <ele>160.48310852051</ele>
        <time>2017-09-03T08:13:03.000Z</time>
      </trkpt>
      <trkpt lat="49.42132" lon="1.45809">
        <ele>160.67332458496</ele>
        <time>2017-09-03T08:13:05.000Z</time>
      </trkpt>
      <trkpt lat="49.42127" lon="1.45806">
        <ele>160.86679077148</ele>
        <time>2017-09-03T08:13:07.000Z</time>
      </trkpt>
      <trkpt lat="49.42121" lon="1.45804">
        <ele>161.07412719727</ele>
        <time>2017-09-03T08:13:10.000Z</time>
      </trkpt>
      <trkpt lat="49.42118" lon="1.45804">
        <ele>161.26042175293</ele>
        <time>2017-09-03T08:13:12.000Z</time>
      </trkpt>
      <trkpt lat="49.42116" lon="1.45804">
        <ele>161.41589355469</ele>
        <time>2017-09-03T08:13:15.000Z</time>
      </trkpt>
      <trkpt lat="49.42114" lon="1.45804">
        <ele>161.54360961914</ele>
        <time>2017-09-03T08:13:20.000Z</time>
      </trkpt>
      <trkpt lat="49.42112" lon="1.45803">
        <ele>161.64608764648</ele>
        <time>2017-09-03T08:13:22.000Z</time>
      </trkpt>
      <trkpt lat="49.42112" lon="1.45803">
        <ele>161.64608764648</ele>
        <time>2017-09-03T08:13:42.000Z</time>
      </trkpt>
      <trkpt lat="49.42112" lon="1.45801">
        <ele>161.71197509766</ele>
        <time>2017-09-03T08:14:12.000Z</time>
      </trkpt>
      <trkpt lat="49.42112" lon="1.45801">
        <ele>161.71197509766</ele>
        <time>2017-09-03T08:14:32.000Z</time>
      </trkpt>
      <trkpt lat="49.42112" lon="1.458">
        <ele>161.76501464844</ele>
        <time>2017-09-03T08:14:34.000Z</time>
      </trkpt>
      <trkpt lat="49.42112" lon="1.458">
        <ele>161.76501464844</ele>
        <time>2017-09-03T08:14:54.000Z</time>
      </trkpt>
      <trkpt lat="49.4211" lon="1.458">
        <ele>161.81610107422</ele>
        <time>2017-09-03T08:15:04.000Z</time>
      </trkpt>
      <trkpt lat="49.42111" lon="1.458">
        <ele>161.84762573242</ele>
        <time>2017-09-03T08:15:10.000Z</time>
      </trkpt>
      <trkpt lat="49.42111" lon="1.458">
        <ele>161.84762573242</ele>
        <time>2017-09-03T08:15:30.000Z</time>
      </trkpt>
      <trkpt lat="49.42111" lon="1.45804">
        <ele>161.85380554199</ele>
        <time>2017-09-03T08:15:36.000Z</time>
      </trkpt>
      <trkpt lat="49.42111" lon="1.45806">
        <ele>161.8461151123</ele>
        <time>2017-09-03T08:15:39.000Z</time>
      </trkpt>
      <trkpt lat="49.42112" lon="1.45804">
        <ele>161.82833862305</ele>
        <time>2017-09-03T08:15:48.000Z</time>
      </trkpt>
      <trkpt lat="49.42113" lon="1.45804">
        <ele>161.79615783691</ele>
        <time>2017-09-03T08:15:53.000Z</time>
      </trkpt>
      <trkpt lat="49.42113" lon="1.45804">
        <ele>161.79615783691</ele>
        <time>2017-09-03T08:16:13.000Z</time>
      </trkpt>
      <trkpt lat="49.42112" lon="1.45805">
        <ele>161.77275085449</ele>
        <time>2017-09-03T08:16:24.000Z</time>
      </trkpt>
      <trkpt lat="49.42106" lon="1.45804">
        <ele>161.80480957031</ele>
        <time>2017-09-03T08:16:27.000Z</time>
      </trkpt>
      <trkpt lat="49.421" lon="1.45802">
        <ele>161.8908996582</ele>
        <time>2017-09-03T08:16:29.000Z</time>
      </trkpt>
      <trkpt lat="49.42097" lon="1.45801">
        <ele>162.00314331055</ele>
        <time>2017-09-03T08:16:32.000Z</time>
      </trkpt>
      <trkpt lat="49.42095" lon="1.458">
        <ele>162.13842773438</ele>
        <time>2017-09-03T08:16:35.000Z</time>
      </trkpt>
      <trkpt lat="49.42094" lon="1.458">
        <ele>162.27914428711</ele>
        <time>2017-09-03T08:16:37.000Z</time>
      </trkpt>
      <trkpt lat="49.42093" lon="1.45798">
        <ele>162.3900604248</ele>
        <time>2017-09-03T08:16:48.000Z</time>
      </trkpt>
      <trkpt lat="49.4209" lon="1.45793">
        <ele>162.49240112305</ele>
        <time>2017-09-03T08:16:51.000Z</time>
      </trkpt>
      <trkpt lat="49.42087" lon="1.45789">
        <ele>162.61080932617</ele>
        <time>2017-09-03T08:16:53.000Z</time>
      </trkpt>
      <trkpt lat="49.42083" lon="1.45783">
        <ele>162.76354980469</ele>
        <time>2017-09-03T08:16:56.000Z</time>
      </trkpt>
      <trkpt lat="49.42079" lon="1.45779">
        <ele>162.9168548584</ele>
        <time>2017-09-03T08:16:58.000Z</time>
      </trkpt>
      <trkpt lat="49.4207" lon="1.45774">
        <ele>163.04473876953</ele>
        <time>2017-09-03T08:17:00.000Z</time>
      </trkpt>
      <trkpt lat="49.42065" lon="1.45767">
        <ele>163.15805053711</ele>
        <time>2017-09-03T08:17:03.000Z</time>
      </trkpt>
      <trkpt lat="49.42056" lon="1.45761">
        <ele>163.23942565918</ele>
        <time>2017-09-03T08:17:06.000Z</time>
      </trkpt>
      <trkpt lat="49.42049" lon="1.4576">
        <ele>163.25173950195</ele>
        <time>2017-09-03T08:17:08.000Z</time>
      </trkpt>
      <trkpt lat="49.4204" lon="1.4576">
        <ele>163.22566223145</ele>
        <time>2017-09-03T08:17:10.000Z</time>
      </trkpt>
      <trkpt lat="49.41998" lon="1.45765">
        <ele>163.0308380127</ele>
        <time>2017-09-03T08:17:15.000Z</time>
      </trkpt>
      <trkpt lat="49.41992" lon="1.45768">
        <ele>162.74794006348</ele>
        <time>2017-09-03T08:17:17.000Z</time>
      </trkpt>
      <trkpt lat="49.41982" lon="1.45774">
        <ele>162.3330078125</ele>
        <time>2017-09-03T08:17:20.000Z</time>
      </trkpt>
      <trkpt lat="49.41973" lon="1.4578">
        <ele>161.82788085938</ele>
        <time>2017-09-03T08:17:22.000Z</time>
      </trkpt>
      <trkpt lat="49.41961" lon="1.45786">
        <ele>161.21748352051</ele>
        <time>2017-09-03T08:17:25.000Z</time>
      </trkpt>
      <trkpt lat="49.41945" lon="1.45787">
        <ele>160.69262695312</ele>
        <time>2017-09-03T08:17:28.000Z</time>
      </trkpt>
      <trkpt lat="49.41934" lon="1.45783">
        <ele>160.1891784668</ele>
        <time>2017-09-03T08:17:30.000Z</time>
      </trkpt>
      <trkpt lat="49.41923" lon="1.45779">
        <ele>159.76885986328</ele>
        <time>2017-09-03T08:17:32.000Z</time>
      </trkpt>
      <trkpt lat="49.41908" lon="1.45771">
        <ele>159.45553588867</ele>
        <time>2017-09-03T08:17:35.000Z</time>
      </trkpt>
      <trkpt lat="49.41901" lon="1.4576">
        <ele>159.34310913086</ele>
        <time>2017-09-03T08:17:38.000Z</time>
      </trkpt>
      <trkpt lat="49.41898" lon="1.45751">
        <ele>159.37976074219</ele>
        <time>2017-09-03T08:17:40.000Z</time>
      </trkpt>
      <trkpt lat="49.41889" lon="1.45739">
        <ele>159.54296875</ele>
        <time>2017-09-03T08:17:43.000Z</time>
      </trkpt>
      <trkpt lat="49.41883" lon="1.45723">
        <ele>159.86460876465</ele>
        <time>2017-09-03T08:17:46.000Z</time>
      </trkpt>
      <trkpt lat="49.41881" lon="1.45708">
        <ele>160.30598449707</ele>
        <time>2017-09-03T08:17:49.000Z</time>
      </trkpt>
      <trkpt lat="49.41881" lon="1.45681">
        <ele>160.916015625</ele>
        <time>2017-09-03T08:17:52.000Z</time>
      </trkpt>
      <trkpt lat="49.41879" lon="1.45665">
        <ele>161.59490966797</ele>
        <time>2017-09-03T08:17:54.000Z</time>
      </trkpt>
      <trkpt lat="49.41871" lon="1.45642">
        <ele>162.29635620117</ele>
        <time>2017-09-03T08:17:57.000Z</time>
      </trkpt>
      <trkpt lat="49.41867" lon="1.45627">
        <ele>162.94874572754</ele>
        <time>2017-09-03T08:17:59.000Z</time>
      </trkpt>
      <trkpt lat="49.41859" lon="1.45611">
        <ele>163.5594329834</ele>
        <time>2017-09-03T08:18:02.000Z</time>
      </trkpt>
      <trkpt lat="49.41852" lon="1.45594">
        <ele>164.02633666992</ele>
        <time>2017-09-03T08:18:05.000Z</time>
      </trkpt>
      <trkpt lat="49.41851" lon="1.45584">
        <ele>164.43217468262</ele>
        <time>2017-09-03T08:18:07.000Z</time>
      </trkpt>
      <trkpt lat="49.4185" lon="1.45573">
        <ele>164.76426696777</ele>
        <time>2017-09-03T08:18:09.000Z</time>
      </trkpt>
      <trkpt lat="49.41849" lon="1.45558">
        <ele>165.06912231445</ele>
        <time>2017-09-03T08:18:12.000Z</time>
      </trkpt>
      <trkpt lat="49.4185" lon="1.45549">
        <ele>165.32174682617</ele>
        <time>2017-09-03T08:18:14.000Z</time>
      </trkpt>
      <trkpt lat="49.4185" lon="1.45536">
        <ele>165.52523803711</ele>
        <time>2017-09-03T08:18:17.000Z</time>
      </trkpt>
      <trkpt lat="49.41846" lon="1.45524">
        <ele>165.6826171875</ele>
        <time>2017-09-03T08:18:20.000Z</time>
      </trkpt>
      <trkpt lat="49.4184" lon="1.45509">
        <ele>165.82453918457</ele>
        <time>2017-09-03T08:18:23.000Z</time>
      </trkpt>
      <trkpt lat="49.41836" lon="1.45494">
        <ele>165.97441101074</ele>
        <time>2017-09-03T08:18:26.000Z</time>
      </trkpt>
      <trkpt lat="49.41831" lon="1.4548">
        <ele>166.17709350586</ele>
        <time>2017-09-03T08:18:28.000Z</time>
      </trkpt>
      <trkpt lat="49.41825" lon="1.4546">
        <ele>166.47868347168</ele>
        <time>2017-09-03T08:18:31.000Z</time>
      </trkpt>
      <trkpt lat="49.41822" lon="1.45442">
        <ele>166.89346313477</ele>
        <time>2017-09-03T08:18:34.000Z</time>
      </trkpt>
      <trkpt lat="49.41819" lon="1.45428">
        <ele>167.39549255371</ele>
        <time>2017-09-03T08:18:37.000Z</time>
      </trkpt>
      <trkpt lat="49.41814" lon="1.45412">
        <ele>168.00614929199</ele>
        <time>2017-09-03T08:18:40.000Z</time>
      </trkpt>
      <trkpt lat="49.41811" lon="1.454">
        <ele>168.71662902832</ele>
        <time>2017-09-03T08:18:42.000Z</time>
      </trkpt>
      <trkpt lat="49.41808" lon="1.45383">
        <ele>169.54873657227</ele>
        <time>2017-09-03T08:18:45.000Z</time>
      </trkpt>
      <trkpt lat="49.418" lon="1.45371">
        <ele>170.44989013672</ele>
        <time>2017-09-03T08:18:48.000Z</time>
      </trkpt>
      <trkpt lat="49.4179" lon="1.45371">
        <ele>171.25198364258</ele>
        <time>2017-09-03T08:18:50.000Z</time>
      </trkpt>
      <trkpt lat="49.41777" lon="1.45375">
        <ele>171.84844970703</ele>
        <time>2017-09-03T08:18:53.000Z</time>
      </trkpt>
      <trkpt lat="49.41769" lon="1.45377">
        <ele>172.2529296875</ele>
        <time>2017-09-03T08:18:56.000Z</time>
      </trkpt>
      <trkpt lat="49.4176" lon="1.45379">
        <ele>172.36239624023</ele>
        <time>2017-09-03T08:18:58.000Z</time>
      </trkpt>
      <trkpt lat="49.41748" lon="1.45386">
        <ele>172.16967773438</ele>
        <time>2017-09-03T08:19:01.000Z</time>
      </trkpt>
      <trkpt lat="49.41737" lon="1.45393">
        <ele>171.8558807373</ele>
        <time>2017-09-03T08:19:03.000Z</time>
      </trkpt>
      <trkpt lat="49.41716" lon="1.45399">
        <ele>171.49261474609</ele>
        <time>2017-09-03T08:19:06.000Z</time>
      </trkpt>
      <trkpt lat="49.417" lon="1.45405">
        <ele>171.03051757812</ele>
        <time>2017-09-03T08:19:08.000Z</time>
      </trkpt>
      <trkpt lat="49.41685" lon="1.45414">
        <ele>170.4633026123</ele>
        <time>2017-09-03T08:19:10.000Z</time>
      </trkpt>
      <trkpt lat="49.4167" lon="1.45425">
        <ele>169.81558227539</ele>
        <time>2017-09-03T08:19:13.000Z</time>
      </trkpt>
      <trkpt lat="49.41663" lon="1.45428">
        <ele>169.21530151367</ele>
        <time>2017-09-03T08:19:15.000Z</time>
      </trkpt>
      <trkpt lat="49.41656" lon="1.45425">
        <ele>168.75227355957</ele>
        <time>2017-09-03T08:19:18.000Z</time>
      </trkpt>
      <trkpt lat="49.41656" lon="1.45425">
        <ele>168.75227355957</ele>
        <time>2017-09-03T08:19:38.000Z</time>
      </trkpt>
      <trkpt lat="49.41659" lon="1.4543">
        <ele>168.32795715332</ele>
        <time>2017-09-03T08:19:41.000Z</time>
      </trkpt>
      <trkpt lat="49.4166" lon="1.45431">
        <ele>168.02143859863</ele>
        <time>2017-09-03T08:19:47.000Z</time>
      </trkpt>
      <trkpt lat="49.41661" lon="1.45432">
        <ele>167.88723754883</ele>
        <time>2017-09-03T08:19:53.000Z</time>
      </trkpt>
      <trkpt lat="49.41661" lon="1.4543">
        <ele>167.85633850098</ele>
        <time>2017-09-03T08:19:58.000Z</time>
      </trkpt>
      <trkpt lat="49.4166" lon="1.45428">
        <ele>167.81964111328</ele>
        <time>2017-09-03T08:20:01.000Z</time>
      </trkpt>
      <trkpt lat="49.41661" lon="1.45423">
        <ele>167.9400177002</ele>
        <time>2017-09-03T08:20:03.000Z</time>
      </trkpt>
      <trkpt lat="49.41656" lon="1.45412">
        <ele>168.24520874023</ele>
        <time>2017-09-03T08:20:06.000Z</time>
      </trkpt>
      <trkpt lat="49.41647" lon="1.45402">
        <ele>168.69401550293</ele>
        <time>2017-09-03T08:20:09.000Z</time>
      </trkpt>
      <trkpt lat="49.41643" lon="1.45398">
        <ele>169.15173339844</ele>
        <time>2017-09-03T08:20:11.000Z</time>
      </trkpt>
      <trkpt lat="49.41635" lon="1.45393">
        <ele>169.62734985352</ele>
        <time>2017-09-03T08:20:14.000Z</time>
      </trkpt>
      <trkpt lat="49.41628" lon="1.45388">
        <ele>170.0705871582</ele>
        <time>2017-09-03T08:20:16.000Z</time>
      </trkpt>
      <trkpt lat="49.41617" lon="1.4538">
        <ele>170.40744018555</ele>
        <time>2017-09-03T08:20:19.000Z</time>
      </trkpt>
      <trkpt lat="49.4161" lon="1.45375">
        <ele>170.65121459961</ele>
        <time>2017-09-03T08:20:22.000Z</time>
      </trkpt>
      <trkpt lat="49.41605" lon="1.45368">
        <ele>170.92335510254</ele>
        <time>2017-09-03T08:20:25.000Z</time>
      </trkpt>
      <trkpt lat="49.41601" lon="1.45357">
        <ele>171.26028442383</ele>
        <time>2017-09-03T08:20:27.000Z</time>
      </trkpt>
      <trkpt lat="49.41593" lon="1.45339">
        <ele>171.7243347168</ele>
        <time>2017-09-03T08:20:30.000Z</time>
      </trkpt>
      <trkpt lat="49.41581" lon="1.45326">
        <ele>172.20903015137</ele>
        <time>2017-09-03T08:20:33.000Z</time>
      </trkpt>
      <trkpt lat="49.41574" lon="1.45318">
        <ele>172.71633911133</ele>
        <time>2017-09-03T08:20:35.000Z</time>
      </trkpt>
      <trkpt lat="49.41567" lon="1.4531">
        <ele>173.19609069824</ele>
        <time>2017-09-03T08:20:37.000Z</time>
      </trkpt>
      <trkpt lat="49.41558" lon="1.45298">
        <ele>173.62899780273</ele>
        <time>2017-09-03T08:20:40.000Z</time>
      </trkpt>
      <trkpt lat="49.41548" lon="1.45287">
        <ele>173.92903137207</ele>
        <time>2017-09-03T08:20:43.000Z</time>
      </trkpt>
      <trkpt lat="49.41541" lon="1.45281">
        <ele>174.15368652344</ele>
        <time>2017-09-03T08:20:45.000Z</time>
      </trkpt>
      <trkpt lat="49.41533" lon="1.45273">
        <ele>174.32655334473</ele>
        <time>2017-09-03T08:20:47.000Z</time>
      </trkpt>
      <trkpt lat="49.41522" lon="1.45258">
        <ele>174.48789978027</ele>
        <time>2017-09-03T08:20:50.000Z</time>
      </trkpt>
      <trkpt lat="49.41516" lon="1.4525">
        <ele>174.59280395508</ele>
        <time>2017-09-03T08:20:52.000Z</time>
      </trkpt>
      <trkpt lat="49.4151" lon="1.45241">
        <ele>174.69644165039</ele>
        <time>2017-09-03T08:20:54.000Z</time>
      </trkpt>
      <trkpt lat="49.41501" lon="1.45231">
        <ele>174.83488464355</ele>
        <time>2017-09-03T08:20:57.000Z</time>
      </trkpt>
      <trkpt lat="49.41494" lon="1.45225">
        <ele>175.02467346191</ele>
        <time>2017-09-03T08:20:59.000Z</time>
      </trkpt>
      <trkpt lat="49.4149" lon="1.45219">
        <ele>175.24458312988</ele>
        <time>2017-09-03T08:21:01.000Z</time>
      </trkpt>
      <trkpt lat="49.4149" lon="1.45213">
        <ele>175.5202331543</ele>
        <time>2017-09-03T08:21:03.000Z</time>
      </trkpt>
      <trkpt lat="49.41489" lon="1.45203">
        <ele>175.85418701172</ele>
        <time>2017-09-03T08:21:06.000Z</time>
      </trkpt>
      <trkpt lat="49.41485" lon="1.45197">
        <ele>176.2001953125</ele>
        <time>2017-09-03T08:21:08.000Z</time>
      </trkpt>
      <trkpt lat="49.41478" lon="1.45187">
        <ele>176.55142211914</ele>
        <time>2017-09-03T08:21:11.000Z</time>
      </trkpt>
      <trkpt lat="49.41473" lon="1.45181">
        <ele>176.86949157715</ele>
        <time>2017-09-03T08:21:13.000Z</time>
      </trkpt>
      <trkpt lat="49.41467" lon="1.45175">
        <ele>177.13082885742</ele>
        <time>2017-09-03T08:21:15.000Z</time>
      </trkpt>
      <trkpt lat="49.41454" lon="1.45166">
        <ele>177.26843261719</ele>
        <time>2017-09-03T08:21:18.000Z</time>
      </trkpt>
      <trkpt lat="49.41448" lon="1.45158">
        <ele>177.35229492188</ele>
        <time>2017-09-03T08:21:21.000Z</time>
      </trkpt>
      <trkpt lat="49.41445" lon="1.45151">
        <ele>177.3821105957</ele>
        <time>2017-09-03T08:21:23.000Z</time>
      </trkpt>
      <trkpt lat="49.41444" lon="1.45141">
        <ele>177.42309570312</ele>
        <time>2017-09-03T08:21:26.000Z</time>
      </trkpt>
      <trkpt lat="49.41443" lon="1.45135">
        <ele>177.47351074219</ele>
        <time>2017-09-03T08:21:28.000Z</time>
      </trkpt>
      <trkpt lat="49.41436" lon="1.45125">
        <ele>177.54083251953</ele>
        <time>2017-09-03T08:21:31.000Z</time>
      </trkpt>
      <trkpt lat="49.4143" lon="1.45115">
        <ele>177.62066650391</ele>
        <time>2017-09-03T08:21:34.000Z</time>
      </trkpt>
      <trkpt lat="49.41421" lon="1.45105">
        <ele>177.67114257812</ele>
        <time>2017-09-03T08:21:37.000Z</time>
      </trkpt>
      <trkpt lat="49.41409" lon="1.45094">
        <ele>177.70317077637</ele>
        <time>2017-09-03T08:21:40.000Z</time>
      </trkpt>
      <trkpt lat="49.41402" lon="1.45087">
        <ele>177.74459838867</ele>
        <time>2017-09-03T08:21:42.000Z</time>
      </trkpt>
      <trkpt lat="49.41396" lon="1.45074">
        <ele>177.85134887695</ele>
        <time>2017-09-03T08:21:45.000Z</time>
      </trkpt>
      <trkpt lat="49.41393" lon="1.45065">
        <ele>177.99258422852</ele>
        <time>2017-09-03T08:21:47.000Z</time>
      </trkpt>
      <trkpt lat="49.41384" lon="1.45052">
        <ele>178.21546936035</ele>
        <time>2017-09-03T08:21:50.000Z</time>
      </trkpt>
      <trkpt lat="49.41376" lon="1.45044">
        <ele>178.45556640625</ele>
        <time>2017-09-03T08:21:52.000Z</time>
      </trkpt>
      <trkpt lat="49.41369" lon="1.45035">
        <ele>178.705078125</ele>
        <time>2017-09-03T08:21:54.000Z</time>
      </trkpt>
      <trkpt lat="49.41356" lon="1.45021">
        <ele>178.96044921875</ele>
        <time>2017-09-03T08:21:57.000Z</time>
      </trkpt>
      <trkpt lat="49.41346" lon="1.45009">
        <ele>179.23101806641</ele>
        <time>2017-09-03T08:22:00.000Z</time>
      </trkpt>
      <trkpt lat="49.41341" lon="1.45001">
        <ele>179.47723388672</ele>
        <time>2017-09-03T08:22:02.000Z</time>
      </trkpt>
      <trkpt lat="49.41337" lon="1.44992">
        <ele>179.68621826172</ele>
        <time>2017-09-03T08:22:04.000Z</time>
      </trkpt>
      <trkpt lat="49.41327" lon="1.44978">
        <ele>179.83280944824</ele>
        <time>2017-09-03T08:22:07.000Z</time>
      </trkpt>
      <trkpt lat="49.41312" lon="1.44967">
        <ele>179.86196899414</ele>
        <time>2017-09-03T08:22:10.000Z</time>
      </trkpt>
      <trkpt lat="49.41306" lon="1.44958">
        <ele>179.80285644531</ele>
        <time>2017-09-03T08:22:12.000Z</time>
      </trkpt>
      <trkpt lat="49.41298" lon="1.44941">
        <ele>179.66018676758</ele>
        <time>2017-09-03T08:22:15.000Z</time>
      </trkpt>
      <trkpt lat="49.41291" lon="1.44931">
        <ele>179.4736328125</ele>
        <time>2017-09-03T08:22:17.000Z</time>
      </trkpt>
      <trkpt lat="49.41285" lon="1.44921">
        <ele>179.27061462402</ele>
        <time>2017-09-03T08:22:19.000Z</time>
      </trkpt>
      <trkpt lat="49.4128" lon="1.44911">
        <ele>179.10409545898</ele>
        <time>2017-09-03T08:22:21.000Z</time>
      </trkpt>
      <trkpt lat="49.41273" lon="1.449">
        <ele>178.97590637207</ele>
        <time>2017-09-03T08:22:23.000Z</time>
      </trkpt>
      <trkpt lat="49.41262" lon="1.44882">
        <ele>178.92581176758</ele>
        <time>2017-09-03T08:22:26.000Z</time>
      </trkpt>
      <trkpt lat="49.41256" lon="1.44871">
        <ele>178.9461517334</ele>
        <time>2017-09-03T08:22:28.000Z</time>
      </trkpt>
      <trkpt lat="49.41249" lon="1.4486">
        <ele>179.03852844238</ele>
        <time>2017-09-03T08:22:30.000Z</time>
      </trkpt>
      <trkpt lat="49.4124" lon="1.44852">
        <ele>179.12837219238</ele>
        <time>2017-09-03T08:22:32.000Z</time>
      </trkpt>
      <trkpt lat="49.41232" lon="1.4484">
        <ele>179.19998168945</ele>
        <time>2017-09-03T08:22:35.000Z</time>
      </trkpt>
      <trkpt lat="49.41226" lon="1.44831">
        <ele>179.23445129395</ele>
        <time>2017-09-03T08:22:37.000Z</time>
      </trkpt>
      <trkpt lat="49.41221" lon="1.44823">
        <ele>179.23251342773</ele>
        <time>2017-09-03T08:22:39.000Z</time>
      </trkpt>
      <trkpt lat="49.41212" lon="1.44809">
        <ele>179.20320129395</ele>
        <time>2017-09-03T08:22:42.000Z</time>
      </trkpt>
      <trkpt lat="49.41205" lon="1.44798">
        <ele>179.20552062988</ele>
        <time>2017-09-03T08:22:44.000Z</time>
      </trkpt>
      <trkpt lat="49.41199" lon="1.44787">
        <ele>179.24385070801</ele>
        <time>2017-09-03T08:22:46.000Z</time>
      </trkpt>
      <trkpt lat="49.41193" lon="1.44773">
        <ele>179.33947753906</ele>
        <time>2017-09-03T08:22:49.000Z</time>
      </trkpt>
      <trkpt lat="49.41182" lon="1.44754">
        <ele>179.5205078125</ele>
        <time>2017-09-03T08:22:52.000Z</time>
      </trkpt>
      <trkpt lat="49.41173" lon="1.44742">
        <ele>179.71768188477</ele>
        <time>2017-09-03T08:22:54.000Z</time>
      </trkpt>
      <trkpt lat="49.41159" lon="1.44727">
        <ele>179.84910583496</ele>
        <time>2017-09-03T08:22:57.000Z</time>
      </trkpt>
      <trkpt lat="49.41147" lon="1.44716">
        <ele>179.87991333008</ele>
        <time>2017-09-03T08:22:59.000Z</time>
      </trkpt>
      <trkpt lat="49.41135" lon="1.44706">
        <ele>179.78686523438</ele>
        <time>2017-09-03T08:23:01.000Z</time>
      </trkpt>
      <trkpt lat="49.41119" lon="1.4469">
        <ele>179.5450592041</ele>
        <time>2017-09-03T08:23:04.000Z</time>
      </trkpt>
      <trkpt lat="49.41107" lon="1.44676">
        <ele>179.24111938477</ele>
        <time>2017-09-03T08:23:07.000Z</time>
      </trkpt>
      <trkpt lat="49.41101" lon="1.44668">
        <ele>178.97467041016</ele>
        <time>2017-09-03T08:23:09.000Z</time>
      </trkpt>
      <trkpt lat="49.41092" lon="1.44657">
        <ele>178.76663208008</ele>
        <time>2017-09-03T08:23:11.000Z</time>
      </trkpt>
      <trkpt lat="49.41084" lon="1.44646">
        <ele>178.63000488281</ele>
        <time>2017-09-03T08:23:13.000Z</time>
      </trkpt>
      <trkpt lat="49.41072" lon="1.44629">
        <ele>178.58554077148</ele>
        <time>2017-09-03T08:23:16.000Z</time>
      </trkpt>
      <trkpt lat="49.41056" lon="1.44617">
        <ele>178.56004333496</ele>
        <time>2017-09-03T08:23:19.000Z</time>
      </trkpt>
      <trkpt lat="49.4105" lon="1.44605">
        <ele>178.57847595215</ele>
        <time>2017-09-03T08:23:21.000Z</time>
      </trkpt>
      <trkpt lat="49.41049" lon="1.446">
        <ele>178.63249206543</ele>
        <time>2017-09-03T08:23:23.000Z</time>
      </trkpt>
      <trkpt lat="49.41045" lon="1.44592">
        <ele>178.70141601562</ele>
        <time>2017-09-03T08:23:25.000Z</time>
      </trkpt>
      <trkpt lat="49.41039" lon="1.44584">
        <ele>178.76086425781</ele>
        <time>2017-09-03T08:23:28.000Z</time>
      </trkpt>
      <trkpt lat="49.41035" lon="1.44574">
        <ele>178.84652709961</ele>
        <time>2017-09-03T08:23:31.000Z</time>
      </trkpt>
      <trkpt lat="49.41029" lon="1.44562">
        <ele>178.91340637207</ele>
        <time>2017-09-03T08:23:34.000Z</time>
      </trkpt>
      <trkpt lat="49.41022" lon="1.44553">
        <ele>178.9704284668</ele>
        <time>2017-09-03T08:23:37.000Z</time>
      </trkpt>
      <trkpt lat="49.41018" lon="1.44548">
        <ele>179.01976013184</ele>
        <time>2017-09-03T08:23:39.000Z</time>
      </trkpt>
      <trkpt lat="49.41011" lon="1.4454">
        <ele>179.0694732666</ele>
        <time>2017-09-03T08:23:42.000Z</time>
      </trkpt>
      <trkpt lat="49.41003" lon="1.4453">
        <ele>179.13771057129</ele>
        <time>2017-09-03T08:23:44.000Z</time>
      </trkpt>
      <trkpt lat="49.40996" lon="1.4452">
        <ele>179.20895385742</ele>
        <time>2017-09-03T08:23:46.000Z</time>
      </trkpt>
      <trkpt lat="49.40981" lon="1.44506">
        <ele>179.22975158691</ele>
        <time>2017-09-03T08:23:49.000Z</time>
      </trkpt>
      <trkpt lat="49.40958" lon="1.44484">
        <ele>179.12380981445</ele>
        <time>2017-09-03T08:23:52.000Z</time>
      </trkpt>
      <trkpt lat="49.40944" lon="1.44466">
        <ele>178.94023132324</ele>
        <time>2017-09-03T08:23:55.000Z</time>
      </trkpt>
      <trkpt lat="49.40936" lon="1.44456">
        <ele>178.69947814941</ele>
        <time>2017-09-03T08:23:57.000Z</time>
      </trkpt>
      <trkpt lat="49.40928" lon="1.44441">
        <ele>178.42335510254</ele>
        <time>2017-09-03T08:24:00.000Z</time>
      </trkpt>
      <trkpt lat="49.40922" lon="1.44438">
        <ele>178.16271972656</ele>
        <time>2017-09-03T08:24:02.000Z</time>
      </trkpt>
      <trkpt lat="49.40918" lon="1.44429">
        <ele>178.02194213867</ele>
        <time>2017-09-03T08:24:04.000Z</time>
      </trkpt>
      <trkpt lat="49.40907" lon="1.44414">
        <ele>177.94059753418</ele>
        <time>2017-09-03T08:24:07.000Z</time>
      </trkpt>
      <trkpt lat="49.40897" lon="1.44399">
        <ele>177.84057617188</ele>
        <time>2017-09-03T08:24:10.000Z</time>
      </trkpt>
      <trkpt lat="49.40887" lon="1.44381">
        <ele>177.7145690918</ele>
        <time>2017-09-03T08:24:13.000Z</time>
      </trkpt>
      <trkpt lat="49.40879" lon="1.44372">
        <ele>177.5915222168</ele>
        <time>2017-09-03T08:24:15.000Z</time>
      </trkpt>
      <trkpt lat="49.40873" lon="1.44363">
        <ele>177.44973754883</ele>
        <time>2017-09-03T08:24:17.000Z</time>
      </trkpt>
      <trkpt lat="49.40865" lon="1.44357">
        <ele>177.30038452148</ele>
        <time>2017-09-03T08:24:19.000Z</time>
      </trkpt>
      <trkpt lat="49.40859" lon="1.44348">
        <ele>177.19096374512</ele>
        <time>2017-09-03T08:24:21.000Z</time>
      </trkpt>
      <trkpt lat="49.4085" lon="1.44331">
        <ele>177.12739562988</ele>
        <time>2017-09-03T08:24:24.000Z</time>
      </trkpt>
      <trkpt lat="49.40845" lon="1.44305">
        <ele>177.19285583496</ele>
        <time>2017-09-03T08:24:27.000Z</time>
      </trkpt>
      <trkpt lat="49.40838" lon="1.44278">
        <ele>177.41093444824</ele>
        <time>2017-09-03T08:24:30.000Z</time>
      </trkpt>
      <trkpt lat="49.40828" lon="1.44261">
        <ele>177.69815063477</ele>
        <time>2017-09-03T08:24:32.000Z</time>
      </trkpt>
      <trkpt lat="49.40813" lon="1.44234">
        <ele>177.9408416748</ele>
        <time>2017-09-03T08:24:35.000Z</time>
      </trkpt>
      <trkpt lat="49.40804" lon="1.44213">
        <ele>178.11735534668</ele>
        <time>2017-09-03T08:24:37.000Z</time>
      </trkpt>
      <trkpt lat="49.40794" lon="1.44195">
        <ele>178.11611938477</ele>
        <time>2017-09-03T08:24:39.000Z</time>
      </trkpt>
      <trkpt lat="49.4078" lon="1.44165">
        <ele>177.87930297852</ele>
        <time>2017-09-03T08:24:42.000Z</time>
      </trkpt>
      <trkpt lat="49.4077" lon="1.44145">
        <ele>177.50379943848</ele>
        <time>2017-09-03T08:24:44.000Z</time>
      </trkpt>
      <trkpt lat="49.4076" lon="1.44113">
        <ele>177.10516357422</ele>
        <time>2017-09-03T08:24:47.000Z</time>
      </trkpt>
      <trkpt lat="49.40755" lon="1.44092">
        <ele>176.74533081055</ele>
        <time>2017-09-03T08:24:49.000Z</time>
      </trkpt>
      <trkpt lat="49.40743" lon="1.44061">
        <ele>176.53033447266</ele>
        <time>2017-09-03T08:24:52.000Z</time>
      </trkpt>
      <trkpt lat="49.40731" lon="1.44032">
        <ele>176.53413391113</ele>
        <time>2017-09-03T08:24:55.000Z</time>
      </trkpt>
      <trkpt lat="49.40719" lon="1.44009">
        <ele>176.68966674805</ele>
        <time>2017-09-03T08:24:58.000Z</time>
      </trkpt>
      <trkpt lat="49.40712" lon="1.4398">
        <ele>176.84225463867</ele>
        <time>2017-09-03T08:25:01.000Z</time>
      </trkpt>
      <trkpt lat="49.40698" lon="1.43954">
        <ele>176.8974609375</ele>
        <time>2017-09-03T08:25:04.000Z</time>
      </trkpt>
      <trkpt lat="49.40682" lon="1.43932">
        <ele>176.80972290039</ele>
        <time>2017-09-03T08:25:07.000Z</time>
      </trkpt>
      <trkpt lat="49.40669" lon="1.43913">
        <ele>176.54460144043</ele>
        <time>2017-09-03T08:25:10.000Z</time>
      </trkpt>
      <trkpt lat="49.40664" lon="1.43896">
        <ele>175.97164916992</ele>
        <time>2017-09-03T08:25:13.000Z</time>
      </trkpt>
      <trkpt lat="49.4066" lon="1.43884">
        <ele>175.30111694336</ele>
        <time>2017-09-03T08:25:16.000Z</time>
      </trkpt>
      <trkpt lat="49.40654" lon="1.43873">
        <ele>174.57621765137</ele>
        <time>2017-09-03T08:25:19.000Z</time>
      </trkpt>
      <trkpt lat="49.40649" lon="1.43862">
        <ele>173.77090454102</ele>
        <time>2017-09-03T08:25:22.000Z</time>
      </trkpt>
      <trkpt lat="49.40646" lon="1.43853">
        <ele>172.90751647949</ele>
        <time>2017-09-03T08:25:24.000Z</time>
      </trkpt>
      <trkpt lat="49.4064" lon="1.43845">
        <ele>172.17239379883</ele>
        <time>2017-09-03T08:25:26.000Z</time>
      </trkpt>
      <trkpt lat="49.40634" lon="1.43834">
        <ele>171.48788452148</ele>
        <time>2017-09-03T08:25:29.000Z</time>
      </trkpt>
      <trkpt lat="49.40631" lon="1.43825">
        <ele>170.94506835938</ele>
        <time>2017-09-03T08:25:32.000Z</time>
      </trkpt>
      <trkpt lat="49.40629" lon="1.43819">
        <ele>170.53242492676</ele>
        <time>2017-09-03T08:25:34.000Z</time>
      </trkpt>
      <trkpt lat="49.40622" lon="1.43806">
        <ele>170.20245361328</ele>
        <time>2017-09-03T08:25:37.000Z</time>
      </trkpt>
      <trkpt lat="49.40616" lon="1.43799">
        <ele>169.96420288086</ele>
        <time>2017-09-03T08:25:39.000Z</time>
      </trkpt>
      <trkpt lat="49.40609" lon="1.43792">
        <ele>169.84317016602</ele>
        <time>2017-09-03T08:25:41.000Z</time>
      </trkpt>
      <trkpt lat="49.40599" lon="1.43782">
        <ele>169.75839233398</ele>
        <time>2017-09-03T08:25:44.000Z</time>
      </trkpt>
      <trkpt lat="49.4059" lon="1.43771">
        <ele>169.70825195312</ele>
        <time>2017-09-03T08:25:47.000Z</time>
      </trkpt>
      <trkpt lat="49.40583" lon="1.43762">
        <ele>169.72082519531</ele>
        <time>2017-09-03T08:25:50.000Z</time>
      </trkpt>
      <trkpt lat="49.40579" lon="1.43758">
        <ele>169.77583312988</ele>
        <time>2017-09-03T08:25:52.000Z</time>
      </trkpt>
      <trkpt lat="49.40575" lon="1.43749">
        <ele>169.89456176758</ele>
        <time>2017-09-03T08:25:55.000Z</time>
      </trkpt>
      <trkpt lat="49.40572" lon="1.43742">
        <ele>170.13407897949</ele>
        <time>2017-09-03T08:25:57.000Z</time>
      </trkpt>
      <trkpt lat="49.40567" lon="1.43737">
        <ele>170.44789123535</ele>
        <time>2017-09-03T08:25:59.000Z</time>
      </trkpt>
      <trkpt lat="49.40562" lon="1.43733">
        <ele>170.80722045898</ele>
        <time>2017-09-03T08:26:02.000Z</time>
      </trkpt>
      <trkpt lat="49.4056" lon="1.43735">
        <ele>171.12924194336</ele>
        <time>2017-09-03T08:26:04.000Z</time>
      </trkpt>
      <trkpt lat="49.40554" lon="1.43737">
        <ele>171.39962768555</ele>
        <time>2017-09-03T08:26:07.000Z</time>
      </trkpt>
      <trkpt lat="49.40551" lon="1.43737">
        <ele>171.55668640137</ele>
        <time>2017-09-03T08:26:09.000Z</time>
      </trkpt>
      <trkpt lat="49.4055" lon="1.43738">
        <ele>171.61967468262</ele>
        <time>2017-09-03T08:26:11.000Z</time>
      </trkpt>
      <trkpt lat="49.4055" lon="1.43736">
        <ele>171.64147949219</ele>
        <time>2017-09-03T08:26:15.000Z</time>
      </trkpt>
      <trkpt lat="49.40547" lon="1.43728">
        <ele>171.79306030273</ele>
        <time>2017-09-03T08:26:18.000Z</time>
      </trkpt>
      <trkpt lat="49.4054" lon="1.43719">
        <ele>172.08369445801</ele>
        <time>2017-09-03T08:26:21.000Z</time>
      </trkpt>
      <trkpt lat="49.40532" lon="1.43716">
        <ele>172.4482421875</ele>
        <time>2017-09-03T08:26:24.000Z</time>
      </trkpt>
      <trkpt lat="49.40524" lon="1.43708">
        <ele>172.94430541992</ele>
        <time>2017-09-03T08:26:27.000Z</time>
      </trkpt>
      <trkpt lat="49.40518" lon="1.43696">
        <ele>173.57983398438</ele>
        <time>2017-09-03T08:26:30.000Z</time>
      </trkpt>
      <trkpt lat="49.40512" lon="1.43689">
        <ele>174.20428466797</ele>
        <time>2017-09-03T08:26:32.000Z</time>
      </trkpt>
      <trkpt lat="49.40505" lon="1.43678">
        <ele>174.8412322998</ele>
        <time>2017-09-03T08:26:34.000Z</time>
      </trkpt>
      <trkpt lat="49.40495" lon="1.43664">
        <ele>175.56674194336</ele>
        <time>2017-09-03T08:26:37.000Z</time>
      </trkpt>
      <trkpt lat="49.40482" lon="1.43651">
        <ele>176.25581359863</ele>
        <time>2017-09-03T08:26:40.000Z</time>
      </trkpt>
      <trkpt lat="49.40472" lon="1.43636">
        <ele>176.86074829102</ele>
        <time>2017-09-03T08:26:43.000Z</time>
      </trkpt>
      <trkpt lat="49.40459" lon="1.43627">
        <ele>177.40519714355</ele>
        <time>2017-09-03T08:26:46.000Z</time>
      </trkpt>
      <trkpt lat="49.40453" lon="1.43622">
        <ele>177.81935119629</ele>
        <time>2017-09-03T08:26:48.000Z</time>
      </trkpt>
      <trkpt lat="49.40444" lon="1.43616">
        <ele>178.08836364746</ele>
        <time>2017-09-03T08:26:50.000Z</time>
      </trkpt>
      <trkpt lat="49.40435" lon="1.43608">
        <ele>178.2926940918</ele>
        <time>2017-09-03T08:26:52.000Z</time>
      </trkpt>
      <trkpt lat="49.40427" lon="1.43602">
        <ele>178.42922973633</ele>
        <time>2017-09-03T08:26:54.000Z</time>
      </trkpt>
      <trkpt lat="49.40422" lon="1.43596">
        <ele>178.54092407227</ele>
        <time>2017-09-03T08:26:56.000Z</time>
      </trkpt>
      <trkpt lat="49.40411" lon="1.43585">
        <ele>178.59544372559</ele>
        <time>2017-09-03T08:26:59.000Z</time>
      </trkpt>
      <trkpt lat="49.40399" lon="1.43573">
        <ele>178.44676208496</ele>
        <time>2017-09-03T08:27:02.000Z</time>
      </trkpt>
      <trkpt lat="49.40389" lon="1.43567">
        <ele>178.13613891602</ele>
        <time>2017-09-03T08:27:04.000Z</time>
      </trkpt>
      <trkpt lat="49.40377" lon="1.43554">
        <ele>177.65837097168</ele>
        <time>2017-09-03T08:27:07.000Z</time>
      </trkpt>
      <trkpt lat="49.40366" lon="1.43537">
        <ele>177.03134155273</ele>
        <time>2017-09-03T08:27:10.000Z</time>
      </trkpt>
      <trkpt lat="49.40361" lon="1.43527">
        <ele>176.3994140625</ele>
        <time>2017-09-03T08:27:12.000Z</time>
      </trkpt>
      <trkpt lat="49.40348" lon="1.43511">
        <ele>175.89221191406</ele>
        <time>2017-09-03T08:27:15.000Z</time>
      </trkpt>
      <trkpt lat="49.40337" lon="1.43498">
        <ele>175.48486328125</ele>
        <time>2017-09-03T08:27:17.000Z</time>
      </trkpt>
      <trkpt lat="49.40325" lon="1.43489">
        <ele>174.96517944336</ele>
        <time>2017-09-03T08:27:19.000Z</time>
      </trkpt>
      <trkpt lat="49.40307" lon="1.43476">
        <ele>174.15246582031</ele>
        <time>2017-09-03T08:27:22.000Z</time>
      </trkpt>
      <trkpt lat="49.40297" lon="1.43466">
        <ele>173.16934204102</ele>
        <time>2017-09-03T08:27:24.000Z</time>
      </trkpt>
      <trkpt lat="49.40272" lon="1.43456">
        <ele>171.86303710938</ele>
        <time>2017-09-03T08:27:27.000Z</time>
      </trkpt>
      <trkpt lat="49.40261" lon="1.4344">
        <ele>170.48896789551</ele>
        <time>2017-09-03T08:27:30.000Z</time>
      </trkpt>
      <trkpt lat="49.40252" lon="1.43429">
        <ele>169.31526184082</ele>
        <time>2017-09-03T08:27:32.000Z</time>
      </trkpt>
      <trkpt lat="49.40242" lon="1.43415">
        <ele>168.49559020996</ele>
        <time>2017-09-03T08:27:35.000Z</time>
      </trkpt>
      <trkpt lat="49.40239" lon="1.43407">
        <ele>167.80187988281</ele>
        <time>2017-09-03T08:27:38.000Z</time>
      </trkpt>
      <trkpt lat="49.40233" lon="1.43407">
        <ele>167.41870117188</ele>
        <time>2017-09-03T08:27:40.000Z</time>
      </trkpt>
      <trkpt lat="49.40227" lon="1.43407">
        <ele>167.07135009766</ele>
        <time>2017-09-03T08:27:43.000Z</time>
      </trkpt>
      <trkpt lat="49.40224" lon="1.43411">
        <ele>166.76779174805</ele>
        <time>2017-09-03T08:27:45.000Z</time>
      </trkpt>
      <trkpt lat="49.40218" lon="1.43417">
        <ele>166.49603271484</ele>
        <time>2017-09-03T08:27:48.000Z</time>
      </trkpt>
      <trkpt lat="49.40214" lon="1.43425">
        <ele>166.19111633301</ele>
        <time>2017-09-03T08:27:50.000Z</time>
      </trkpt>
      <trkpt lat="49.40206" lon="1.43435">
        <ele>165.78472900391</ele>
        <time>2017-09-03T08:27:53.000Z</time>
      </trkpt>
      <trkpt lat="49.40189" lon="1.4345">
        <ele>165.09753417969</ele>
        <time>2017-09-03T08:27:56.000Z</time>
      </trkpt>
      <trkpt lat="49.40176" lon="1.43462">
        <ele>164.14199829102</ele>
        <time>2017-09-03T08:27:58.000Z</time>
      </trkpt>
      <trkpt lat="49.40156" lon="1.43481">
        <ele>162.76223754883</ele>
        <time>2017-09-03T08:28:01.000Z</time>
      </trkpt>
      <trkpt lat="49.40142" lon="1.43512">
        <ele>161.10334777832</ele>
        <time>2017-09-03T08:28:04.000Z</time>
      </trkpt>
      <trkpt lat="49.40134" lon="1.43533">
        <ele>159.47792053223</ele>
        <time>2017-09-03T08:28:06.000Z</time>
      </trkpt>
      <trkpt lat="49.40128" lon="1.43553">
        <ele>158.13377380371</ele>
        <time>2017-09-03T08:28:08.000Z</time>
      </trkpt>
      <trkpt lat="49.40115" lon="1.43575">
        <ele>157.07501220703</ele>
        <time>2017-09-03T08:28:11.000Z</time>
      </trkpt>
      <trkpt lat="49.40108" lon="1.43583">
        <ele>156.51431274414</ele>
        <time>2017-09-03T08:28:13.000Z</time>
      </trkpt>
      <trkpt lat="49.401" lon="1.43588">
        <ele>156.47848510742</ele>
        <time>2017-09-03T08:28:16.000Z</time>
      </trkpt>
      <trkpt lat="49.40095" lon="1.4359">
        <ele>156.65942382812</ele>
        <time>2017-09-03T08:28:19.000Z</time>
      </trkpt>
      <trkpt lat="49.40093" lon="1.43591">
        <ele>156.94149780273</ele>
        <time>2017-09-03T08:28:21.000Z</time>
      </trkpt>
      <trkpt lat="49.40091" lon="1.4359">
        <ele>157.21612548828</ele>
        <time>2017-09-03T08:28:23.000Z</time>
      </trkpt>
      <trkpt lat="49.40088" lon="1.43588">
        <ele>157.43489074707</ele>
        <time>2017-09-03T08:28:26.000Z</time>
      </trkpt>
      <trkpt lat="49.40086" lon="1.43589">
        <ele>157.53747558594</ele>
        <time>2017-09-03T08:28:28.000Z</time>
      </trkpt>
      <trkpt lat="49.40082" lon="1.43591">
        <ele>157.6257019043</ele>
        <time>2017-09-03T08:28:31.000Z</time>
      </trkpt>
      <trkpt lat="49.40076" lon="1.43593">
        <ele>157.64791870117</ele>
        <time>2017-09-03T08:28:34.000Z</time>
      </trkpt>
      <trkpt lat="49.4007" lon="1.43599">
        <ele>157.7230682373</ele>
        <time>2017-09-03T08:28:37.000Z</time>
      </trkpt>
      <trkpt lat="49.40067" lon="1.43603">
        <ele>157.87954711914</ele>
        <time>2017-09-03T08:28:39.000Z</time>
      </trkpt>
      <trkpt lat="49.40059" lon="1.43609">
        <ele>158.03382873535</ele>
        <time>2017-09-03T08:28:42.000Z</time>
      </trkpt>
      <trkpt lat="49.40054" lon="1.43611">
        <ele>158.09965515137</ele>
        <time>2017-09-03T08:28:44.000Z</time>
      </trkpt>
      <trkpt lat="49.40042" lon="1.43615">
        <ele>158.11404418945</ele>
        <time>2017-09-03T08:28:47.000Z</time>
      </trkpt>
      <trkpt lat="49.40035" lon="1.43618">
        <ele>158.0426940918</ele>
        <time>2017-09-03T08:28:49.000Z</time>
      </trkpt>
      <trkpt lat="49.40025" lon="1.43623">
        <ele>157.84866333008</ele>
        <time>2017-09-03T08:28:52.000Z</time>
      </trkpt>
      <trkpt lat="49.40019" lon="1.43626">
        <ele>157.59530639648</ele>
        <time>2017-09-03T08:28:54.000Z</time>
      </trkpt>
      <trkpt lat="49.40012" lon="1.43629">
        <ele>157.3117980957</ele>
        <time>2017-09-03T08:28:56.000Z</time>
      </trkpt>
      <trkpt lat="49.40002" lon="1.43635">
        <ele>157.06228637695</ele>
        <time>2017-09-03T08:28:59.000Z</time>
      </trkpt>
      <trkpt lat="49.39996" lon="1.43641">
        <ele>156.84391784668</ele>
        <time>2017-09-03T08:29:01.000Z</time>
      </trkpt>
      <trkpt lat="49.39989" lon="1.43645">
        <ele>156.65245056152</ele>
        <time>2017-09-03T08:29:03.000Z</time>
      </trkpt>
      <trkpt lat="49.39977" lon="1.4365">
        <ele>156.39482116699</ele>
        <time>2017-09-03T08:29:06.000Z</time>
      </trkpt>
      <trkpt lat="49.39969" lon="1.43655">
        <ele>156.15640258789</ele>
        <time>2017-09-03T08:29:08.000Z</time>
      </trkpt>
      <trkpt lat="49.39959" lon="1.43664">
        <ele>155.92082214355</ele>
        <time>2017-09-03T08:29:11.000Z</time>
      </trkpt>
      <trkpt lat="49.39949" lon="1.43672">
        <ele>155.60641479492</ele>
        <time>2017-09-03T08:29:14.000Z</time>
      </trkpt>
      <trkpt lat="49.39938" lon="1.43679">
        <ele>155.19364929199</ele>
        <time>2017-09-03T08:29:17.000Z</time>
      </trkpt>
      <trkpt lat="49.39926" lon="1.43686">
        <ele>154.74230957031</ele>
        <time>2017-09-03T08:29:20.000Z</time>
      </trkpt>
      <trkpt lat="49.39915" lon="1.43691">
        <ele>154.18807983398</ele>
        <time>2017-09-03T08:29:22.000Z</time>
      </trkpt>
      <trkpt lat="49.39901" lon="1.43696">
        <ele>153.6766204834</ele>
        <time>2017-09-03T08:29:24.000Z</time>
      </trkpt>
      <trkpt lat="49.39885" lon="1.43701">
        <ele>153.22750854492</ele>
        <time>2017-09-03T08:29:27.000Z</time>
      </trkpt>
      <trkpt lat="49.39875" lon="1.43705">
        <ele>152.89936828613</ele>
        <time>2017-09-03T08:29:29.000Z</time>
      </trkpt>
      <trkpt lat="49.39857" lon="1.43714">
        <ele>152.7116394043</ele>
        <time>2017-09-03T08:29:32.000Z</time>
      </trkpt>
      <trkpt lat="49.39844" lon="1.43719">
        <ele>152.6353302002</ele>
        <time>2017-09-03T08:29:34.000Z</time>
      </trkpt>
      <trkpt lat="49.39825" lon="1.43725">
        <ele>152.63766479492</ele>
        <time>2017-09-03T08:29:37.000Z</time>
      </trkpt>
      <trkpt lat="49.39805" lon="1.43736">
        <ele>152.90060424805</ele>
        <time>2017-09-03T08:29:40.000Z</time>
      </trkpt>
      <trkpt lat="49.39789" lon="1.43749">
        <ele>153.39027404785</ele>
        <time>2017-09-03T08:29:43.000Z</time>
      </trkpt>
      <trkpt lat="49.39777" lon="1.4376">
        <ele>154.17268371582</ele>
        <time>2017-09-03T08:29:46.000Z</time>
      </trkpt>
      <trkpt lat="49.39768" lon="1.43765">
        <ele>155.16404724121</ele>
        <time>2017-09-03T08:29:48.000Z</time>
      </trkpt>
      <trkpt lat="49.39756" lon="1.43774">
        <ele>156.38208007812</ele>
        <time>2017-09-03T08:29:51.000Z</time>
      </trkpt>
      <trkpt lat="49.39748" lon="1.43779">
        <ele>157.55429077148</ele>
        <time>2017-09-03T08:29:53.000Z</time>
      </trkpt>
      <trkpt lat="49.39737" lon="1.43786">
        <ele>158.70742797852</ele>
        <time>2017-09-03T08:29:56.000Z</time>
      </trkpt>
      <trkpt lat="49.39729" lon="1.4379">
        <ele>159.7142791748</ele>
        <time>2017-09-03T08:29:58.000Z</time>
      </trkpt>
      <trkpt lat="49.39716" lon="1.43797">
        <ele>160.72645568848</ele>
        <time>2017-09-03T08:30:01.000Z</time>
      </trkpt>
      <trkpt lat="49.39703" lon="1.43804">
        <ele>161.6047668457</ele>
        <time>2017-09-03T08:30:04.000Z</time>
      </trkpt>
      <trkpt lat="49.39691" lon="1.43811">
        <ele>162.45668029785</ele>
        <time>2017-09-03T08:30:07.000Z</time>
      </trkpt>
      <trkpt lat="49.39679" lon="1.43818">
        <ele>163.25158691406</ele>
        <time>2017-09-03T08:30:10.000Z</time>
      </trkpt>
      <trkpt lat="49.3967" lon="1.43822">
        <ele>163.99687194824</ele>
        <time>2017-09-03T08:30:12.000Z</time>
      </trkpt>
      <trkpt lat="49.39658" lon="1.43829">
        <ele>164.56811523438</ele>
        <time>2017-09-03T08:30:15.000Z</time>
      </trkpt>
      <trkpt lat="49.3965" lon="1.43836">
        <ele>164.96580505371</ele>
        <time>2017-09-03T08:30:17.000Z</time>
      </trkpt>
      <trkpt lat="49.39638" lon="1.43843">
        <ele>165.12683105469</ele>
        <time>2017-09-03T08:30:20.000Z</time>
      </trkpt>
      <trkpt lat="49.39629" lon="1.43848">
        <ele>165.07685852051</ele>
        <time>2017-09-03T08:30:22.000Z</time>
      </trkpt>
      <trkpt lat="49.39621" lon="1.43851">
        <ele>164.86390686035</ele>
        <time>2017-09-03T08:30:24.000Z</time>
      </trkpt>
      <trkpt lat="49.39608" lon="1.43857">
        <ele>164.5114440918</ele>
        <time>2017-09-03T08:30:27.000Z</time>
      </trkpt>
      <trkpt lat="49.396" lon="1.43862">
        <ele>164.06788635254</ele>
        <time>2017-09-03T08:30:29.000Z</time>
      </trkpt>
      <trkpt lat="49.39591" lon="1.43867">
        <ele>163.58511352539</ele>
        <time>2017-09-03T08:30:31.000Z</time>
      </trkpt>
      <trkpt lat="49.39578" lon="1.43874">
        <ele>162.89688110352</ele>
        <time>2017-09-03T08:30:34.000Z</time>
      </trkpt>
      <trkpt lat="49.39564" lon="1.43881">
        <ele>161.84396362305</ele>
        <time>2017-09-03T08:30:37.000Z</time>
      </trkpt>
      <trkpt lat="49.39556" lon="1.43886">
        <ele>160.64387512207</ele>
        <time>2017-09-03T08:30:39.000Z</time>
      </trkpt>
      <trkpt lat="49.39543" lon="1.43893">
        <ele>159.13145446777</ele>
        <time>2017-09-03T08:30:42.000Z</time>
      </trkpt>
      <trkpt lat="49.39531" lon="1.43901">
        <ele>157.36660766602</ele>
        <time>2017-09-03T08:30:45.000Z</time>
      </trkpt>
      <trkpt lat="49.39523" lon="1.43905">
        <ele>155.63967895508</ele>
        <time>2017-09-03T08:30:47.000Z</time>
      </trkpt>
      <trkpt lat="49.39512" lon="1.43911">
        <ele>154.01072692871</ele>
        <time>2017-09-03T08:30:50.000Z</time>
      </trkpt>
      <trkpt lat="49.39501" lon="1.43917">
        <ele>152.32470703125</ele>
        <time>2017-09-03T08:30:53.000Z</time>
      </trkpt>
      <trkpt lat="49.39493" lon="1.43921">
        <ele>150.9497833252</ele>
        <time>2017-09-03T08:30:55.000Z</time>
      </trkpt>
      <trkpt lat="49.39484" lon="1.43924">
        <ele>149.83381652832</ele>
        <time>2017-09-03T08:30:58.000Z</time>
      </trkpt>
      <trkpt lat="49.39474" lon="1.43922">
        <ele>148.79638671875</ele>
        <time>2017-09-03T08:31:01.000Z</time>
      </trkpt>
      <trkpt lat="49.39462" lon="1.43931">
        <ele>147.99736022949</ele>
        <time>2017-09-03T08:31:04.000Z</time>
      </trkpt>
      <trkpt lat="49.39457" lon="1.43936">
        <ele>147.48442077637</ele>
        <time>2017-09-03T08:31:06.000Z</time>
      </trkpt>
      <trkpt lat="49.39438" lon="1.43944">
        <ele>146.8616027832</ele>
        <time>2017-09-03T08:31:09.000Z</time>
      </trkpt>
      <trkpt lat="49.39427" lon="1.43947">
        <ele>146.2015838623</ele>
        <time>2017-09-03T08:31:11.000Z</time>
      </trkpt>
      <trkpt lat="49.39415" lon="1.43952">
        <ele>145.58609008789</ele>
        <time>2017-09-03T08:31:13.000Z</time>
      </trkpt>
      <trkpt lat="49.39398" lon="1.43962">
        <ele>145.06880187988</ele>
        <time>2017-09-03T08:31:16.000Z</time>
      </trkpt>
      <trkpt lat="49.39388" lon="1.43963">
        <ele>144.55526733398</ele>
        <time>2017-09-03T08:31:18.000Z</time>
      </trkpt>
      <trkpt lat="49.39371" lon="1.43962">
        <ele>144.15495300293</ele>
        <time>2017-09-03T08:31:21.000Z</time>
      </trkpt>
      <trkpt lat="49.39366" lon="1.43964">
        <ele>143.89114379883</ele>
        <time>2017-09-03T08:31:23.000Z</time>
      </trkpt>
      <trkpt lat="49.39359" lon="1.43966">
        <ele>143.71734619141</ele>
        <time>2017-09-03T08:31:26.000Z</time>
      </trkpt>
      <trkpt lat="49.39352" lon="1.43966">
        <ele>143.52555847168</ele>
        <time>2017-09-03T08:31:28.000Z</time>
      </trkpt>
      <trkpt lat="49.39339" lon="1.4397">
        <ele>143.33657836914</ele>
        <time>2017-09-03T08:31:31.000Z</time>
      </trkpt>
      <trkpt lat="49.3933" lon="1.43973">
        <ele>143.23959350586</ele>
        <time>2017-09-03T08:31:33.000Z</time>
      </trkpt>
      <trkpt lat="49.39317" lon="1.43976">
        <ele>143.16581726074</ele>
        <time>2017-09-03T08:31:36.000Z</time>
      </trkpt>
      <trkpt lat="49.39304" lon="1.43973">
        <ele>143.09823608398</ele>
        <time>2017-09-03T08:31:39.000Z</time>
      </trkpt>
      <trkpt lat="49.39294" lon="1.43977">
        <ele>143.08317565918</ele>
        <time>2017-09-03T08:31:42.000Z</time>
      </trkpt>
      <trkpt lat="49.39283" lon="1.43978">
        <ele>143.11697387695</ele>
        <time>2017-09-03T08:31:44.000Z</time>
      </trkpt>
      <trkpt lat="49.39272" lon="1.43987">
        <ele>143.21318054199</ele>
        <time>2017-09-03T08:31:47.000Z</time>
      </trkpt>
      <trkpt lat="49.39267" lon="1.43996">
        <ele>143.36242675781</ele>
        <time>2017-09-03T08:31:50.000Z</time>
      </trkpt>
      <trkpt lat="49.39264" lon="1.44">
        <ele>143.5556640625</ele>
        <time>2017-09-03T08:31:53.000Z</time>
      </trkpt>
      <trkpt lat="49.39265" lon="1.44002">
        <ele>143.73620605469</ele>
        <time>2017-09-03T08:31:56.000Z</time>
      </trkpt>
      <trkpt lat="49.39265" lon="1.44004">
        <ele>143.9128112793</ele>
        <time>2017-09-03T08:31:58.000Z</time>
      </trkpt>
      <trkpt lat="49.39267" lon="1.44002">
        <ele>144.02192687988</ele>
        <time>2017-09-03T08:32:01.000Z</time>
      </trkpt>
      <trkpt lat="49.39268" lon="1.44001">
        <ele>144.05136108398</ele>
        <time>2017-09-03T08:32:09.000Z</time>
      </trkpt>
      <trkpt lat="49.39267" lon="1.43999">
        <ele>144.04397583008</ele>
        <time>2017-09-03T08:32:11.000Z</time>
      </trkpt>
      <trkpt lat="49.39262" lon="1.43998">
        <ele>144.02041625977</ele>
        <time>2017-09-03T08:32:14.000Z</time>
      </trkpt>
      <trkpt lat="49.39254" lon="1.44">
        <ele>143.99789428711</ele>
        <time>2017-09-03T08:32:17.000Z</time>
      </trkpt>
      <trkpt lat="49.39249" lon="1.44002">
        <ele>143.9917755127</ele>
        <time>2017-09-03T08:32:19.000Z</time>
      </trkpt>
      <trkpt lat="49.39244" lon="1.44004">
        <ele>143.99195861816</ele>
        <time>2017-09-03T08:32:21.000Z</time>
      </trkpt>
      <trkpt lat="49.39237" lon="1.44003">
        <ele>143.98049926758</ele>
        <time>2017-09-03T08:32:24.000Z</time>
      </trkpt>
      <trkpt lat="49.39231" lon="1.44">
        <ele>143.94673156738</ele>
        <time>2017-09-03T08:32:26.000Z</time>
      </trkpt>
      <trkpt lat="49.39226" lon="1.43999">
        <ele>143.88363647461</ele>
        <time>2017-09-03T08:32:28.000Z</time>
      </trkpt>
      <trkpt lat="49.3922" lon="1.44">
        <ele>143.80601501465</ele>
        <time>2017-09-03T08:32:30.000Z</time>
      </trkpt>
      <trkpt lat="49.3921" lon="1.44001">
        <ele>143.71293640137</ele>
        <time>2017-09-03T08:32:33.000Z</time>
      </trkpt>
      <trkpt lat="49.39201" lon="1.44002">
        <ele>143.62223815918</ele>
        <time>2017-09-03T08:32:36.000Z</time>
      </trkpt>
      <trkpt lat="49.39191" lon="1.44002">
        <ele>143.53469848633</ele>
        <time>2017-09-03T08:32:39.000Z</time>
      </trkpt>
      <trkpt lat="49.39183" lon="1.43999">
        <ele>143.43290710449</ele>
        <time>2017-09-03T08:32:42.000Z</time>
      </trkpt>
      <trkpt lat="49.39177" lon="1.44">
        <ele>143.3251953125</ele>
        <time>2017-09-03T08:32:44.000Z</time>
      </trkpt>
      <trkpt lat="49.39171" lon="1.44">
        <ele>143.22454833984</ele>
        <time>2017-09-03T08:32:46.000Z</time>
      </trkpt>
      <trkpt lat="49.39164" lon="1.44002">
        <ele>143.12152099609</ele>
        <time>2017-09-03T08:32:48.000Z</time>
      </trkpt>
      <trkpt lat="49.39157" lon="1.44004">
        <ele>143.00396728516</ele>
        <time>2017-09-03T08:32:50.000Z</time>
      </trkpt>
      <trkpt lat="49.39151" lon="1.44004">
        <ele>142.87655639648</ele>
        <time>2017-09-03T08:32:52.000Z</time>
      </trkpt>
      <trkpt lat="49.39145" lon="1.44004">
        <ele>142.71626281738</ele>
        <time>2017-09-03T08:32:54.000Z</time>
      </trkpt>
      <trkpt lat="49.39137" lon="1.44002">
        <ele>142.50500488281</ele>
        <time>2017-09-03T08:32:57.000Z</time>
      </trkpt>
      <trkpt lat="49.39132" lon="1.44">
        <ele>142.26586914062</ele>
        <time>2017-09-03T08:32:59.000Z</time>
      </trkpt>
      <trkpt lat="49.39125" lon="1.44">
        <ele>142.01432800293</ele>
        <time>2017-09-03T08:33:01.000Z</time>
      </trkpt>
      <trkpt lat="49.39116" lon="1.43998">
        <ele>141.73106384277</ele>
        <time>2017-09-03T08:33:04.000Z</time>
      </trkpt>
      <trkpt lat="49.39109" lon="1.43996">
        <ele>141.43569946289</ele>
        <time>2017-09-03T08:33:06.000Z</time>
      </trkpt>
      <trkpt lat="49.39105" lon="1.43996">
        <ele>141.17211914062</ele>
        <time>2017-09-03T08:33:08.000Z</time>
      </trkpt>
      <trkpt lat="49.39094" lon="1.44001">
        <ele>140.90673828125</ele>
        <time>2017-09-03T08:33:11.000Z</time>
      </trkpt>
      <trkpt lat="49.3908" lon="1.44005">
        <ele>140.59808349609</ele>
        <time>2017-09-03T08:33:14.000Z</time>
      </trkpt>
      <trkpt lat="49.3907" lon="1.44008">
        <ele>140.28994750977</ele>
        <time>2017-09-03T08:33:16.000Z</time>
      </trkpt>
      <trkpt lat="49.39058" lon="1.44013">
        <ele>139.94232177734</ele>
        <time>2017-09-03T08:33:18.000Z</time>
      </trkpt>
      <trkpt lat="49.39048" lon="1.44012">
        <ele>139.5240020752</ele>
        <time>2017-09-03T08:33:21.000Z</time>
      </trkpt>
      <trkpt lat="49.39035" lon="1.44014">
        <ele>139.04193115234</ele>
        <time>2017-09-03T08:33:24.000Z</time>
      </trkpt>
      <trkpt lat="49.39019" lon="1.44025">
        <ele>138.54852294922</ele>
        <time>2017-09-03T08:33:27.000Z</time>
      </trkpt>
      <trkpt lat="49.39012" lon="1.44037">
        <ele>138.12512207031</ele>
        <time>2017-09-03T08:33:29.000Z</time>
      </trkpt>
      <trkpt lat="49.39006" lon="1.44048">
        <ele>137.7958984375</ele>
        <time>2017-09-03T08:33:32.000Z</time>
      </trkpt>
      <trkpt lat="49.39009" lon="1.44065">
        <ele>137.67852783203</ele>
        <time>2017-09-03T08:33:35.000Z</time>
      </trkpt>
      <trkpt lat="49.39011" lon="1.44082">
        <ele>137.77734375</ele>
        <time>2017-09-03T08:33:38.000Z</time>
      </trkpt>
      <trkpt lat="49.39015" lon="1.44099">
        <ele>138.04867553711</ele>
        <time>2017-09-03T08:33:40.000Z</time>
      </trkpt>
      <trkpt lat="49.39017" lon="1.44109">
        <ele>138.35691833496</ele>
        <time>2017-09-03T08:33:42.000Z</time>
      </trkpt>
      <trkpt lat="49.39019" lon="1.44153">
        <ele>138.74311828613</ele>
        <time>2017-09-03T08:33:46.000Z</time>
      </trkpt>
      <trkpt lat="49.39022" lon="1.44163">
        <ele>139.04501342773</ele>
        <time>2017-09-03T08:33:48.000Z</time>
      </trkpt>
      <trkpt lat="49.39025" lon="1.44162">
        <ele>139.26113891602</ele>
        <time>2017-09-03T08:33:50.000Z</time>
      </trkpt>
      <trkpt lat="49.39031" lon="1.44168">
        <ele>139.44540405273</ele>
        <time>2017-09-03T08:33:53.000Z</time>
      </trkpt>
      <trkpt lat="49.39032" lon="1.44171">
        <ele>139.61079406738</ele>
        <time>2017-09-03T08:33:55.000Z</time>
      </trkpt>
      <trkpt lat="49.39033" lon="1.44201">
        <ele>139.77598571777</ele>
        <time>2017-09-03T08:33:59.000Z</time>
      </trkpt>
      <trkpt lat="49.3903" lon="1.44215">
        <ele>139.93661499023</ele>
        <time>2017-09-03T08:34:02.000Z</time>
      </trkpt>
      <trkpt lat="49.39031" lon="1.44227">
        <ele>140.11552429199</ele>
        <time>2017-09-03T08:34:04.000Z</time>
      </trkpt>
      <trkpt lat="49.39033" lon="1.44239">
        <ele>140.29536437988</ele>
        <time>2017-09-03T08:34:06.000Z</time>
      </trkpt>
      <trkpt lat="49.39036" lon="1.44257">
        <ele>140.4287109375</ele>
        <time>2017-09-03T08:34:09.000Z</time>
      </trkpt>
      <trkpt lat="49.3904" lon="1.4427">
        <ele>140.38459777832</ele>
        <time>2017-09-03T08:34:11.000Z</time>
      </trkpt>
      <trkpt lat="49.39045" lon="1.44285">
        <ele>140.22193908691</ele>
        <time>2017-09-03T08:34:14.000Z</time>
      </trkpt>
      <trkpt lat="49.39047" lon="1.44294">
        <ele>139.96058654785</ele>
        <time>2017-09-03T08:34:16.000Z</time>
      </trkpt>
      <trkpt lat="49.39051" lon="1.4431">
        <ele>139.5623626709</ele>
        <time>2017-09-03T08:34:19.000Z</time>
      </trkpt>
      <trkpt lat="49.39055" lon="1.44324">
        <ele>139.13229370117</ele>
        <time>2017-09-03T08:34:22.000Z</time>
      </trkpt>
      <trkpt lat="49.39056" lon="1.44328">
        <ele>138.78309631348</ele>
        <time>2017-09-03T08:34:24.000Z</time>
      </trkpt>
      <trkpt lat="49.39056" lon="1.44328">
        <ele>138.78309631348</ele>
        <time>2017-09-03T08:34:44.000Z</time>
      </trkpt>
      <trkpt lat="49.3906" lon="1.44333">
        <ele>138.54727172852</ele>
        <time>2017-09-03T08:34:45.000Z</time>
      </trkpt>
      <trkpt lat="49.39061" lon="1.44345">
        <ele>138.24307250977</ele>
        <time>2017-09-03T08:34:48.000Z</time>
      </trkpt>
      <trkpt lat="49.39064" lon="1.4436">
        <ele>137.91589355469</ele>
        <time>2017-09-03T08:34:50.000Z</time>
      </trkpt>
      <trkpt lat="49.39068" lon="1.44379">
        <ele>137.48344421387</ele>
        <time>2017-09-03T08:34:52.000Z</time>
      </trkpt>
      <trkpt lat="49.39066" lon="1.44421">
        <ele>136.43431091309</ele>
        <time>2017-09-03T08:34:55.000Z</time>
      </trkpt>
      <trkpt lat="49.39066" lon="1.44442">
        <ele>134.73612976074</ele>
        <time>2017-09-03T08:34:57.000Z</time>
      </trkpt>
      <trkpt lat="49.3907" lon="1.44458">
        <ele>132.7827911377</ele>
        <time>2017-09-03T08:35:00.000Z</time>
      </trkpt>
      <trkpt lat="49.39081" lon="1.44502">
        <ele>130.03768920898</ele>
        <time>2017-09-03T08:35:04.000Z</time>
      </trkpt>
      <trkpt lat="49.39096" lon="1.44531">
        <ele>126.9966583252</ele>
        <time>2017-09-03T08:35:07.000Z</time>
      </trkpt>
      <trkpt lat="49.391" lon="1.44547">
        <ele>124.23488616943</ele>
        <time>2017-09-03T08:35:09.000Z</time>
      </trkpt>
      <trkpt lat="49.39113" lon="1.44552">
        <ele>122.40079498291</ele>
        <time>2017-09-03T08:35:11.000Z</time>
      </trkpt>
      <trkpt lat="49.39113" lon="1.4456">
        <ele>120.71403503418</ele>
        <time>2017-09-03T08:35:14.000Z</time>
      </trkpt>
      <trkpt lat="49.39118" lon="1.44562">
        <ele>120.03984069824</ele>
        <time>2017-09-03T08:35:16.000Z</time>
      </trkpt>
      <trkpt lat="49.39129" lon="1.44565">
        <ele>120.15632629395</ele>
        <time>2017-09-03T08:35:19.000Z</time>
      </trkpt>
      <trkpt lat="49.39132" lon="1.44577">
        <ele>120.39782714844</ele>
        <time>2017-09-03T08:35:21.000Z</time>
      </trkpt>
      <trkpt lat="49.39162" lon="1.4463">
        <ele>119.46396636963</ele>
        <time>2017-09-03T08:35:26.000Z</time>
      </trkpt>
      <trkpt lat="49.39159" lon="1.44654">
        <ele>117.72290039062</ele>
        <time>2017-09-03T08:35:28.000Z</time>
      </trkpt>
      <trkpt lat="49.39161" lon="1.44675">
        <ele>115.16599273682</ele>
        <time>2017-09-03T08:35:30.000Z</time>
      </trkpt>
      <trkpt lat="49.39168" lon="1.44711">
        <ele>111.32649993896</ele>
        <time>2017-09-03T08:35:33.000Z</time>
      </trkpt>
      <trkpt lat="49.39172" lon="1.44735">
        <ele>107.10579681396</ele>
        <time>2017-09-03T08:35:35.000Z</time>
      </trkpt>
      <trkpt lat="49.3918" lon="1.44759">
        <ele>103.37241363525</ele>
        <time>2017-09-03T08:35:38.000Z</time>
      </trkpt>
      <trkpt lat="49.39182" lon="1.44775">
        <ele>100.27429199219</ele>
        <time>2017-09-03T08:35:40.000Z</time>
      </trkpt>
      <trkpt lat="49.39187" lon="1.44785">
        <ele>97.904441833496</ele>
        <time>2017-09-03T08:35:42.000Z</time>
      </trkpt>
      <trkpt lat="49.3919" lon="1.44797">
        <ele>96.247222900391</ele>
        <time>2017-09-03T08:35:45.000Z</time>
      </trkpt>
      <trkpt lat="49.3919" lon="1.44805">
        <ele>94.999877929688</ele>
        <time>2017-09-03T08:35:48.000Z</time>
      </trkpt>
      <trkpt lat="49.39191" lon="1.44811">
        <ele>94.035430908203</ele>
        <time>2017-09-03T08:35:50.000Z</time>
      </trkpt>
      <trkpt lat="49.39192" lon="1.44818">
        <ele>93.316390991211</ele>
        <time>2017-09-03T08:35:53.000Z</time>
      </trkpt>
      <trkpt lat="49.39194" lon="1.44826">
        <ele>92.472061157227</ele>
        <time>2017-09-03T08:35:56.000Z</time>
      </trkpt>
      <trkpt lat="49.39196" lon="1.44831">
        <ele>91.801948547363</ele>
        <time>2017-09-03T08:35:58.000Z</time>
      </trkpt>
      <trkpt lat="49.39198" lon="1.44841">
        <ele>91.301391601562</ele>
        <time>2017-09-03T08:36:01.000Z</time>
      </trkpt>
      <trkpt lat="49.39202" lon="1.44849">
        <ele>90.953330993652</ele>
        <time>2017-09-03T08:36:04.000Z</time>
      </trkpt>
      <trkpt lat="49.39204" lon="1.44854">
        <ele>90.837692260742</ele>
        <time>2017-09-03T08:36:06.000Z</time>
      </trkpt>
      <trkpt lat="49.39205" lon="1.44861">
        <ele>90.770896911621</ele>
        <time>2017-09-03T08:36:09.000Z</time>
      </trkpt>
      <trkpt lat="49.39204" lon="1.44863">
        <ele>90.688247680664</ele>
        <time>2017-09-03T08:36:11.000Z</time>
      </trkpt>
      <trkpt lat="49.39204" lon="1.44866">
        <ele>90.597351074219</ele>
        <time>2017-09-03T08:36:15.000Z</time>
      </trkpt>
      <trkpt lat="49.39208" lon="1.44874">
        <ele>90.523254394531</ele>
        <time>2017-09-03T08:36:18.000Z</time>
      </trkpt>
      <trkpt lat="49.39212" lon="1.44881">
        <ele>90.501731872559</ele>
        <time>2017-09-03T08:36:20.000Z</time>
      </trkpt>
      <trkpt lat="49.39211" lon="1.44894">
        <ele>90.282081604004</ele>
        <time>2017-09-03T08:36:23.000Z</time>
      </trkpt>
      <trkpt lat="49.39209" lon="1.44904">
        <ele>89.895240783691</ele>
        <time>2017-09-03T08:36:26.000Z</time>
      </trkpt>
      <trkpt lat="49.39211" lon="1.44907">
        <ele>89.578338623047</ele>
        <time>2017-09-03T08:36:29.000Z</time>
      </trkpt>
      <trkpt lat="49.39213" lon="1.44913">
        <ele>89.214920043945</ele>
        <time>2017-09-03T08:36:32.000Z</time>
      </trkpt>
      <trkpt lat="49.39214" lon="1.44919">
        <ele>88.66682434082</ele>
        <time>2017-09-03T08:36:35.000Z</time>
      </trkpt>
      <trkpt lat="49.39214" lon="1.44915">
        <ele>88.47395324707</ele>
        <time>2017-09-03T08:36:38.000Z</time>
      </trkpt>
      <trkpt lat="49.39211" lon="1.44908">
        <ele>88.507553100586</ele>
        <time>2017-09-03T08:36:40.000Z</time>
      </trkpt>
      <trkpt lat="49.39176" lon="1.44879">
        <ele>87.055763244629</ele>
        <time>2017-09-03T08:36:45.000Z</time>
      </trkpt>
      <trkpt lat="49.39157" lon="1.44876">
        <ele>84.945999145508</ele>
        <time>2017-09-03T08:36:47.000Z</time>
      </trkpt>
      <trkpt lat="49.39136" lon="1.44891">
        <ele>82.395523071289</ele>
        <time>2017-09-03T08:36:50.000Z</time>
      </trkpt>
      <trkpt lat="49.3912" lon="1.44911">
        <ele>79.429000854492</ele>
        <time>2017-09-03T08:36:53.000Z</time>
      </trkpt>
      <trkpt lat="49.39106" lon="1.44925">
        <ele>76.336334228516</ele>
        <time>2017-09-03T08:36:55.000Z</time>
      </trkpt>
      <trkpt lat="49.39095" lon="1.4494">
        <ele>74.58740234375</ele>
        <time>2017-09-03T08:36:57.000Z</time>
      </trkpt>
      <trkpt lat="49.39081" lon="1.44964">
        <ele>73.401550292969</ele>
        <time>2017-09-03T08:37:00.000Z</time>
      </trkpt>
      <trkpt lat="49.39071" lon="1.44985">
        <ele>72.813743591309</ele>
        <time>2017-09-03T08:37:03.000Z</time>
      </trkpt>
      <trkpt lat="49.3906" lon="1.45006">
        <ele>72.690414428711</ele>
        <time>2017-09-03T08:37:06.000Z</time>
      </trkpt>
      <trkpt lat="49.39047" lon="1.45027">
        <ele>72.945907592773</ele>
        <time>2017-09-03T08:37:09.000Z</time>
      </trkpt>
      <trkpt lat="49.39042" lon="1.45035">
        <ele>73.408866882324</ele>
        <time>2017-09-03T08:37:11.000Z</time>
      </trkpt>
      <trkpt lat="49.39034" lon="1.45051">
        <ele>74.138221740723</ele>
        <time>2017-09-03T08:37:14.000Z</time>
      </trkpt>
      <trkpt lat="49.39027" lon="1.45058">
        <ele>74.890434265137</ele>
        <time>2017-09-03T08:37:16.000Z</time>
      </trkpt>
      <trkpt lat="49.39013" lon="1.45077">
        <ele>75.811080932617</ele>
        <time>2017-09-03T08:37:19.000Z</time>
      </trkpt>
      <trkpt lat="49.39005" lon="1.45078">
        <ele>76.636421203613</ele>
        <time>2017-09-03T08:37:21.000Z</time>
      </trkpt>
      <trkpt lat="49.38997" lon="1.45067">
        <ele>77.378524780273</ele>
        <time>2017-09-03T08:37:24.000Z</time>
      </trkpt>
      <trkpt lat="49.38988" lon="1.45059">
        <ele>77.955696105957</ele>
        <time>2017-09-03T08:37:27.000Z</time>
      </trkpt>
      <trkpt lat="49.38985" lon="1.45063">
        <ele>78.48217010498</ele>
        <time>2017-09-03T08:37:29.000Z</time>
      </trkpt>
      <trkpt lat="49.38986" lon="1.45072">
        <ele>78.764358520508</ele>
        <time>2017-09-03T08:37:31.000Z</time>
      </trkpt>
      <trkpt lat="49.38995" lon="1.4508">
        <ele>78.895217895508</ele>
        <time>2017-09-03T08:37:34.000Z</time>
      </trkpt>
      <trkpt lat="49.39004" lon="1.45087">
        <ele>78.932540893555</ele>
        <time>2017-09-03T08:37:37.000Z</time>
      </trkpt>
      <trkpt lat="49.39008" lon="1.45092">
        <ele>78.884315490723</ele>
        <time>2017-09-03T08:37:40.000Z</time>
      </trkpt>
      <trkpt lat="49.39011" lon="1.45089">
        <ele>78.73429107666</ele>
        <time>2017-09-03T08:37:52.000Z</time>
      </trkpt>
      <trkpt lat="49.39012" lon="1.4509">
        <ele>78.509017944336</ele>
        <time>2017-09-03T08:38:09.000Z</time>
      </trkpt>
      <trkpt lat="49.39013" lon="1.45091">
        <ele>78.299201965332</ele>
        <time>2017-09-03T08:38:21.000Z</time>
      </trkpt>
      <trkpt lat="49.39011" lon="1.45092">
        <ele>78.191452026367</ele>
        <time>2017-09-03T08:38:37.000Z</time>
      </trkpt>
      <trkpt lat="49.39011" lon="1.45092">
        <ele>78.191452026367</ele>
        <time>2017-09-03T08:38:57.000Z</time>
      </trkpt>
      <trkpt lat="49.3901" lon="1.45094">
        <ele>78.160919189453</ele>
        <time>2017-09-03T08:38:59.000Z</time>
      </trkpt>
      <trkpt lat="49.39009" lon="1.45094">
        <ele>78.189353942871</ele>
        <time>2017-09-03T08:39:18.000Z</time>
      </trkpt>
      <trkpt lat="49.3901" lon="1.45092">
        <ele>78.212280273438</ele>
        <time>2017-09-03T08:39:27.000Z</time>
      </trkpt>
      <trkpt lat="49.39012" lon="1.45091">
        <ele>78.224182128906</ele>
        <time>2017-09-03T08:39:34.000Z</time>
      </trkpt>
      <trkpt lat="49.39013" lon="1.4509">
        <ele>78.206932067871</ele>
        <time>2017-09-03T08:39:36.000Z</time>
      </trkpt>
      <trkpt lat="49.39011" lon="1.45088">
        <ele>78.197044372559</ele>
        <time>2017-09-03T08:39:39.000Z</time>
      </trkpt>
      <trkpt lat="49.39011" lon="1.45087">
        <ele>78.181175231934</ele>
        <time>2017-09-03T08:39:41.000Z</time>
      </trkpt>
      <trkpt lat="49.39009" lon="1.45086">
        <ele>78.200645446777</ele>
        <time>2017-09-03T08:39:43.000Z</time>
      </trkpt>
      <trkpt lat="49.39009" lon="1.45088">
        <ele>78.23713684082</ele>
        <time>2017-09-03T08:39:47.000Z</time>
      </trkpt>
      <trkpt lat="49.39009" lon="1.45091">
        <ele>78.278366088867</ele>
        <time>2017-09-03T08:40:02.000Z</time>
      </trkpt>
      <trkpt lat="49.39011" lon="1.45089">
        <ele>78.289649963379</ele>
        <time>2017-09-03T08:40:09.000Z</time>
      </trkpt>
      <trkpt lat="49.3901" lon="1.45088">
        <ele>78.28931427002</ele>
        <time>2017-09-03T08:40:13.000Z</time>
      </trkpt>
      <trkpt lat="49.39011" lon="1.45087">
        <ele>78.265556335449</ele>
        <time>2017-09-03T08:40:16.000Z</time>
      </trkpt>
      <trkpt lat="49.39012" lon="1.45088">
        <ele>78.230270385742</ele>
        <time>2017-09-03T08:40:22.000Z</time>
      </trkpt>
      <trkpt lat="49.39013" lon="1.45089">
        <ele>78.189407348633</ele>
        <time>2017-09-03T08:40:26.000Z</time>
      </trkpt>
      <trkpt lat="49.39012" lon="1.45087">
        <ele>78.166397094727</ele>
        <time>2017-09-03T08:40:38.000Z</time>
      </trkpt>
      <trkpt lat="49.39013" lon="1.45084">
        <ele>78.132247924805</ele>
        <time>2017-09-03T08:40:49.000Z</time>
      </trkpt>
      <trkpt lat="49.39014" lon="1.45083">
        <ele>78.078414916992</ele>
        <time>2017-09-03T08:40:54.000Z</time>
      </trkpt>
      <trkpt lat="49.39015" lon="1.45081">
        <ele>78.017211914062</ele>
        <time>2017-09-03T08:40:56.000Z</time>
      </trkpt>
      <trkpt lat="49.39014" lon="1.45079">
        <ele>77.969833374023</ele>
        <time>2017-09-03T08:40:59.000Z</time>
      </trkpt>
      <trkpt lat="49.39013" lon="1.45079">
        <ele>77.940521240234</ele>
        <time>2017-09-03T08:41:01.000Z</time>
      </trkpt>
      <trkpt lat="49.39009" lon="1.45082">
        <ele>77.979553222656</ele>
        <time>2017-09-03T08:41:04.000Z</time>
      </trkpt>
      <trkpt lat="49.39005" lon="1.45092">
        <ele>78.121276855469</ele>
        <time>2017-09-03T08:41:07.000Z</time>
      </trkpt>
      <trkpt lat="49.38999" lon="1.45102">
        <ele>78.362434387207</ele>
        <time>2017-09-03T08:41:10.000Z</time>
      </trkpt>
      <trkpt lat="49.38993" lon="1.45114">
        <ele>78.683151245117</ele>
        <time>2017-09-03T08:41:13.000Z</time>
      </trkpt>
      <trkpt lat="49.38988" lon="1.4512">
        <ele>79.034858703613</ele>
        <time>2017-09-03T08:41:16.000Z</time>
      </trkpt>
      <trkpt lat="49.38984" lon="1.45127">
        <ele>79.389846801758</ele>
        <time>2017-09-03T08:41:19.000Z</time>
      </trkpt>
      <trkpt lat="49.3898" lon="1.45132">
        <ele>79.731178283691</ele>
        <time>2017-09-03T08:41:22.000Z</time>
      </trkpt>
      <trkpt lat="49.38978" lon="1.45136">
        <ele>80.028137207031</ele>
        <time>2017-09-03T08:41:24.000Z</time>
      </trkpt>
      <trkpt lat="49.38976" lon="1.4514">
        <ele>80.280624389648</ele>
        <time>2017-09-03T08:41:26.000Z</time>
      </trkpt>
      <trkpt lat="49.38972" lon="1.45144">
        <ele>80.545677185059</ele>
        <time>2017-09-03T08:41:29.000Z</time>
      </trkpt>
      <trkpt lat="49.38969" lon="1.45147">
        <ele>80.811714172363</ele>
        <time>2017-09-03T08:41:31.000Z</time>
      </trkpt>
      <trkpt lat="49.38964" lon="1.45152">
        <ele>81.105735778809</ele>
        <time>2017-09-03T08:41:34.000Z</time>
      </trkpt>
      <trkpt lat="49.38961" lon="1.45156">
        <ele>81.414505004883</ele>
        <time>2017-09-03T08:41:36.000Z</time>
      </trkpt>
      <trkpt lat="49.38956" lon="1.45162">
        <ele>81.786926269531</ele>
        <time>2017-09-03T08:41:39.000Z</time>
      </trkpt>
      <trkpt lat="49.38954" lon="1.45166">
        <ele>82.141822814941</ele>
        <time>2017-09-03T08:41:41.000Z</time>
      </trkpt>
      <trkpt lat="49.38953" lon="1.45171">
        <ele>82.519920349121</ele>
        <time>2017-09-03T08:41:43.000Z</time>
      </trkpt>
      <trkpt lat="49.38951" lon="1.45176">
        <ele>82.890335083008</ele>
        <time>2017-09-03T08:41:45.000Z</time>
      </trkpt>
      <trkpt lat="49.38948" lon="1.45181">
        <ele>83.321823120117</ele>
        <time>2017-09-03T08:41:48.000Z</time>
      </trkpt>
      <trkpt lat="49.38945" lon="1.45185">
        <ele>83.752159118652</ele>
        <time>2017-09-03T08:41:51.000Z</time>
      </trkpt>
      <trkpt lat="49.38943" lon="1.45189">
        <ele>84.21630859375</ele>
        <time>2017-09-03T08:41:53.000Z</time>
      </trkpt>
      <trkpt lat="49.3894" lon="1.45194">
        <ele>84.688720703125</ele>
        <time>2017-09-03T08:41:55.000Z</time>
      </trkpt>
      <trkpt lat="49.38937" lon="1.45199">
        <ele>85.192779541016</ele>
        <time>2017-09-03T08:41:58.000Z</time>
      </trkpt>
      <trkpt lat="49.38935" lon="1.45202">
        <ele>85.6640625</ele>
        <time>2017-09-03T08:42:00.000Z</time>
      </trkpt>
      <trkpt lat="49.38932" lon="1.45208">
        <ele>86.16064453125</ele>
        <time>2017-09-03T08:42:03.000Z</time>
      </trkpt>
      <trkpt lat="49.38929" lon="1.45215">
        <ele>86.698852539062</ele>
        <time>2017-09-03T08:42:06.000Z</time>
      </trkpt>
      <trkpt lat="49.38927" lon="1.45224">
        <ele>87.284393310547</ele>
        <time>2017-09-03T08:42:09.000Z</time>
      </trkpt>
      <trkpt lat="49.38925" lon="1.45232">
        <ele>87.88818359375</ele>
        <time>2017-09-03T08:42:12.000Z</time>
      </trkpt>
      <trkpt lat="49.38923" lon="1.45237">
        <ele>88.503479003906</ele>
        <time>2017-09-03T08:42:14.000Z</time>
      </trkpt>
      <trkpt lat="49.38921" lon="1.45245">
        <ele>89.126007080078</ele>
        <time>2017-09-03T08:42:17.000Z</time>
      </trkpt>
      <trkpt lat="49.38918" lon="1.45251">
        <ele>89.741966247559</ele>
        <time>2017-09-03T08:42:20.000Z</time>
      </trkpt>
      <trkpt lat="49.38916" lon="1.45258">
        <ele>90.375816345215</ele>
        <time>2017-09-03T08:42:23.000Z</time>
      </trkpt>
      <trkpt lat="49.38914" lon="1.45263">
        <ele>90.998092651367</ele>
        <time>2017-09-03T08:42:25.000Z</time>
      </trkpt>
      <trkpt lat="49.38912" lon="1.4527">
        <ele>91.708503723145</ele>
        <time>2017-09-03T08:42:28.000Z</time>
      </trkpt>
      <trkpt lat="49.38909" lon="1.45277">
        <ele>92.486053466797</ele>
        <time>2017-09-03T08:42:31.000Z</time>
      </trkpt>
      <trkpt lat="49.38908" lon="1.45283">
        <ele>93.293159484863</ele>
        <time>2017-09-03T08:42:33.000Z</time>
      </trkpt>
      <trkpt lat="49.38906" lon="1.45292">
        <ele>94.13298034668</ele>
        <time>2017-09-03T08:42:36.000Z</time>
      </trkpt>
      <trkpt lat="49.38903" lon="1.45301">
        <ele>95.078239440918</ele>
        <time>2017-09-03T08:42:39.000Z</time>
      </trkpt>
      <trkpt lat="49.389" lon="1.45309">
        <ele>96.050979614258</ele>
        <time>2017-09-03T08:42:42.000Z</time>
      </trkpt>
      <trkpt lat="49.38897" lon="1.45317">
        <ele>97.059829711914</ele>
        <time>2017-09-03T08:42:45.000Z</time>
      </trkpt>
      <trkpt lat="49.38895" lon="1.45322">
        <ele>98.085739135742</ele>
        <time>2017-09-03T08:42:47.000Z</time>
      </trkpt>
      <trkpt lat="49.38893" lon="1.45327">
        <ele>99.05126953125</ele>
        <time>2017-09-03T08:42:49.000Z</time>
      </trkpt>
      <trkpt lat="49.38891" lon="1.45332">
        <ele>99.946517944336</ele>
        <time>2017-09-03T08:42:51.000Z</time>
      </trkpt>
      <trkpt lat="49.38887" lon="1.45338">
        <ele>100.8363571167</ele>
        <time>2017-09-03T08:42:54.000Z</time>
      </trkpt>
      <trkpt lat="49.38885" lon="1.45343">
        <ele>101.64215087891</ele>
        <time>2017-09-03T08:42:56.000Z</time>
      </trkpt>
      <trkpt lat="49.38882" lon="1.45349">
        <ele>102.45185852051</ele>
        <time>2017-09-03T08:42:59.000Z</time>
      </trkpt>
      <trkpt lat="49.38878" lon="1.45355">
        <ele>103.32336425781</ele>
        <time>2017-09-03T08:43:02.000Z</time>
      </trkpt>
      <trkpt lat="49.38874" lon="1.45359">
        <ele>104.20664215088</ele>
        <time>2017-09-03T08:43:05.000Z</time>
      </trkpt>
      <trkpt lat="49.38873" lon="1.4536">
        <ele>104.96220397949</ele>
        <time>2017-09-03T08:43:07.000Z</time>
      </trkpt>
      <trkpt lat="49.3887" lon="1.45364">
        <ele>105.69089508057</ele>
        <time>2017-09-03T08:43:10.000Z</time>
      </trkpt>
      <trkpt lat="49.38869" lon="1.45368">
        <ele>106.32279968262</ele>
        <time>2017-09-03T08:43:12.000Z</time>
      </trkpt>
      <trkpt lat="49.38866" lon="1.45373">
        <ele>106.92915344238</ele>
        <time>2017-09-03T08:43:15.000Z</time>
      </trkpt>
      <trkpt lat="49.38864" lon="1.45377">
        <ele>107.46618652344</ele>
        <time>2017-09-03T08:43:17.000Z</time>
      </trkpt>
      <trkpt lat="49.38862" lon="1.45382">
        <ele>108.04931640625</ele>
        <time>2017-09-03T08:43:20.000Z</time>
      </trkpt>
      <trkpt lat="49.38861" lon="1.45386">
        <ele>108.55432128906</ele>
        <time>2017-09-03T08:43:22.000Z</time>
      </trkpt>
      <trkpt lat="49.3886" lon="1.45391">
        <ele>109.07543945312</ele>
        <time>2017-09-03T08:43:25.000Z</time>
      </trkpt>
      <trkpt lat="49.3886" lon="1.45396">
        <ele>109.48498535156</ele>
        <time>2017-09-03T08:43:28.000Z</time>
      </trkpt>
      <trkpt lat="49.38858" lon="1.45401">
        <ele>109.8977432251</ele>
        <time>2017-09-03T08:43:31.000Z</time>
      </trkpt>
      <trkpt lat="49.38857" lon="1.45405">
        <ele>110.27690124512</ele>
        <time>2017-09-03T08:43:33.000Z</time>
      </trkpt>
      <trkpt lat="49.38855" lon="1.45409">
        <ele>110.6781463623</ele>
        <time>2017-09-03T08:43:35.000Z</time>
      </trkpt>
      <trkpt lat="49.38854" lon="1.45414">
        <ele>111.07437896729</ele>
        <time>2017-09-03T08:43:38.000Z</time>
      </trkpt>
      <trkpt lat="49.38853" lon="1.4542">
        <ele>111.50099182129</ele>
        <time>2017-09-03T08:43:41.000Z</time>
      </trkpt>
      <trkpt lat="49.38852" lon="1.45424">
        <ele>111.87066650391</ele>
        <time>2017-09-03T08:43:43.000Z</time>
      </trkpt>
      <trkpt lat="49.38849" lon="1.45429">
        <ele>112.24906158447</ele>
        <time>2017-09-03T08:43:46.000Z</time>
      </trkpt>
      <trkpt lat="49.38848" lon="1.45433">
        <ele>112.62200927734</ele>
        <time>2017-09-03T08:43:48.000Z</time>
      </trkpt>
      <trkpt lat="49.38846" lon="1.45437">
        <ele>112.9732208252</ele>
        <time>2017-09-03T08:43:50.000Z</time>
      </trkpt>
      <trkpt lat="49.38844" lon="1.45444">
        <ele>113.3263092041</ele>
        <time>2017-09-03T08:43:53.000Z</time>
      </trkpt>
      <trkpt lat="49.38842" lon="1.45449">
        <ele>113.68556213379</ele>
        <time>2017-09-03T08:43:56.000Z</time>
      </trkpt>
      <trkpt lat="49.3884" lon="1.45454">
        <ele>114.03433990479</ele>
        <time>2017-09-03T08:43:59.000Z</time>
      </trkpt>
      <trkpt lat="49.38837" lon="1.45458">
        <ele>114.39576721191</ele>
        <time>2017-09-03T08:44:01.000Z</time>
      </trkpt>
      <trkpt lat="49.38834" lon="1.45463">
        <ele>114.76818847656</ele>
        <time>2017-09-03T08:44:04.000Z</time>
      </trkpt>
      <trkpt lat="49.3883" lon="1.45467">
        <ele>115.23484039307</ele>
        <time>2017-09-03T08:44:07.000Z</time>
      </trkpt>
      <trkpt lat="49.38827" lon="1.45467">
        <ele>115.81559753418</ele>
        <time>2017-09-03T08:44:10.000Z</time>
      </trkpt>
      <trkpt lat="49.38822" lon="1.45465">
        <ele>116.56034851074</ele>
        <time>2017-09-03T08:44:13.000Z</time>
      </trkpt>
      <trkpt lat="49.3882" lon="1.45462">
        <ele>117.3282699585</ele>
        <time>2017-09-03T08:44:15.000Z</time>
      </trkpt>
      <trkpt lat="49.38819" lon="1.4546">
        <ele>118.08107757568</ele>
        <time>2017-09-03T08:44:17.000Z</time>
      </trkpt>
      <trkpt lat="49.38818" lon="1.45456">
        <ele>118.70741271973</ele>
        <time>2017-09-03T08:44:19.000Z</time>
      </trkpt>
      <trkpt lat="49.38818" lon="1.45448">
        <ele>119.10949707031</ele>
        <time>2017-09-03T08:44:22.000Z</time>
      </trkpt>
      <trkpt lat="49.3882" lon="1.45438">
        <ele>119.13918304443</ele>
        <time>2017-09-03T08:44:25.000Z</time>
      </trkpt>
      <trkpt lat="49.38822" lon="1.4543">
        <ele>118.96826171875</ele>
        <time>2017-09-03T08:44:28.000Z</time>
      </trkpt>
      <trkpt lat="49.38825" lon="1.45425">
        <ele>118.57900238037</ele>
        <time>2017-09-03T08:44:30.000Z</time>
      </trkpt>
      <trkpt lat="49.38827" lon="1.4542">
        <ele>118.01631164551</ele>
        <time>2017-09-03T08:44:32.000Z</time>
      </trkpt>
      <trkpt lat="49.38828" lon="1.45409">
        <ele>117.3844833374</ele>
        <time>2017-09-03T08:44:35.000Z</time>
      </trkpt>
      <trkpt lat="49.38828" lon="1.45399">
        <ele>116.80904388428</ele>
        <time>2017-09-03T08:44:37.000Z</time>
      </trkpt>
      <trkpt lat="49.38827" lon="1.45389">
        <ele>116.32967376709</ele>
        <time>2017-09-03T08:44:39.000Z</time>
      </trkpt>
      <trkpt lat="49.38822" lon="1.45372">
        <ele>116.15480804443</ele>
        <time>2017-09-03T08:44:42.000Z</time>
      </trkpt>
      <trkpt lat="49.38817" lon="1.45355">
        <ele>116.27210998535</ele>
        <time>2017-09-03T08:44:45.000Z</time>
      </trkpt>
      <trkpt lat="49.38813" lon="1.45344">
        <ele>116.64359283447</ele>
        <time>2017-09-03T08:44:47.000Z</time>
      </trkpt>
      <trkpt lat="49.3881" lon="1.45337">
        <ele>117.21535491943</ele>
        <time>2017-09-03T08:44:49.000Z</time>
      </trkpt>
      <trkpt lat="49.38805" lon="1.45326">
        <ele>117.96949768066</ele>
        <time>2017-09-03T08:44:52.000Z</time>
      </trkpt>
      <trkpt lat="49.388" lon="1.45311">
        <ele>118.64479064941</ele>
        <time>2017-09-03T08:44:55.000Z</time>
      </trkpt>
      <trkpt lat="49.38799" lon="1.45304">
        <ele>119.1876373291</ele>
        <time>2017-09-03T08:44:57.000Z</time>
      </trkpt>
      <trkpt lat="49.38796" lon="1.45297">
        <ele>119.67806243896</ele>
        <time>2017-09-03T08:44:59.000Z</time>
      </trkpt>
      <trkpt lat="49.38794" lon="1.45289">
        <ele>120.08166503906</ele>
        <time>2017-09-03T08:45:01.000Z</time>
      </trkpt>
      <trkpt lat="49.3879" lon="1.45277">
        <ele>120.45529937744</ele>
        <time>2017-09-03T08:45:04.000Z</time>
      </trkpt>
      <trkpt lat="49.38787" lon="1.45271">
        <ele>120.92510986328</ele>
        <time>2017-09-03T08:45:06.000Z</time>
      </trkpt>
      <trkpt lat="49.38783" lon="1.45261">
        <ele>121.54406738281</ele>
        <time>2017-09-03T08:45:09.000Z</time>
      </trkpt>
      <trkpt lat="49.38777" lon="1.45254">
        <ele>122.42004394531</ele>
        <time>2017-09-03T08:45:12.000Z</time>
      </trkpt>
      <trkpt lat="49.38771" lon="1.45251">
        <ele>123.59944915771</ele>
        <time>2017-09-03T08:45:14.000Z</time>
      </trkpt>
      <trkpt lat="49.38765" lon="1.45251">
        <ele>125.0821762085</ele>
        <time>2017-09-03T08:45:17.000Z</time>
      </trkpt>
      <trkpt lat="49.38759" lon="1.45253">
        <ele>126.8059463501</ele>
        <time>2017-09-03T08:45:20.000Z</time>
      </trkpt>
      <trkpt lat="49.38756" lon="1.45254">
        <ele>128.56909179688</ele>
        <time>2017-09-03T08:45:22.000Z</time>
      </trkpt>
      <trkpt lat="49.38754" lon="1.45256">
        <ele>130.14610290527</ele>
        <time>2017-09-03T08:45:24.000Z</time>
      </trkpt>
      <trkpt lat="49.3875" lon="1.45262">
        <ele>131.66816711426</ele>
        <time>2017-09-03T08:45:27.000Z</time>
      </trkpt>
      <trkpt lat="49.38748" lon="1.45265">
        <ele>132.8120880127</ele>
        <time>2017-09-03T08:45:29.000Z</time>
      </trkpt>
      <trkpt lat="49.38746" lon="1.45272">
        <ele>133.6353302002</ele>
        <time>2017-09-03T08:45:32.000Z</time>
      </trkpt>
      <trkpt lat="49.38745" lon="1.45277">
        <ele>134.27186584473</ele>
        <time>2017-09-03T08:45:34.000Z</time>
      </trkpt>
      <trkpt lat="49.38744" lon="1.45283">
        <ele>134.80795288086</ele>
        <time>2017-09-03T08:45:36.000Z</time>
      </trkpt>
      <trkpt lat="49.38743" lon="1.4529">
        <ele>135.12870788574</ele>
        <time>2017-09-03T08:45:39.000Z</time>
      </trkpt>
      <trkpt lat="49.38742" lon="1.45295">
        <ele>135.40968322754</ele>
        <time>2017-09-03T08:45:41.000Z</time>
      </trkpt>
      <trkpt lat="49.38742" lon="1.45303">
        <ele>135.64950561523</ele>
        <time>2017-09-03T08:45:44.000Z</time>
      </trkpt>
      <trkpt lat="49.38742" lon="1.45309">
        <ele>135.8678894043</ele>
        <time>2017-09-03T08:45:46.000Z</time>
      </trkpt>
      <trkpt lat="49.38742" lon="1.45318">
        <ele>136.05888366699</ele>
        <time>2017-09-03T08:45:49.000Z</time>
      </trkpt>
      <trkpt lat="49.38743" lon="1.45325">
        <ele>136.18020629883</ele>
        <time>2017-09-03T08:45:51.000Z</time>
      </trkpt>
      <trkpt lat="49.38744" lon="1.45336">
        <ele>136.28105163574</ele>
        <time>2017-09-03T08:45:54.000Z</time>
      </trkpt>
      <trkpt lat="49.38744" lon="1.45343">
        <ele>136.35690307617</ele>
        <time>2017-09-03T08:45:56.000Z</time>
      </trkpt>
      <trkpt lat="49.38743" lon="1.45352">
        <ele>136.4921875</ele>
        <time>2017-09-03T08:45:59.000Z</time>
      </trkpt>
      <trkpt lat="49.38742" lon="1.45363">
        <ele>136.7004699707</ele>
        <time>2017-09-03T08:46:02.000Z</time>
      </trkpt>
      <trkpt lat="49.38742" lon="1.45374">
        <ele>136.9748840332</ele>
        <time>2017-09-03T08:46:05.000Z</time>
      </trkpt>
      <trkpt lat="49.38741" lon="1.45382">
        <ele>137.30044555664</ele>
        <time>2017-09-03T08:46:08.000Z</time>
      </trkpt>
      <trkpt lat="49.3874" lon="1.45386">
        <ele>137.68402099609</ele>
        <time>2017-09-03T08:46:10.000Z</time>
      </trkpt>
      <trkpt lat="49.38739" lon="1.45393">
        <ele>138.09349060059</ele>
        <time>2017-09-03T08:46:13.000Z</time>
      </trkpt>
      <trkpt lat="49.38738" lon="1.45397">
        <ele>138.47267150879</ele>
        <time>2017-09-03T08:46:15.000Z</time>
      </trkpt>
      <trkpt lat="49.38737" lon="1.45402">
        <ele>138.82038879395</ele>
        <time>2017-09-03T08:46:18.000Z</time>
      </trkpt>
      <trkpt lat="49.38737" lon="1.45405">
        <ele>139.12379455566</ele>
        <time>2017-09-03T08:46:21.000Z</time>
      </trkpt>
      <trkpt lat="49.38741" lon="1.45409">
        <ele>139.22631835938</ele>
        <time>2017-09-03T08:46:36.000Z</time>
      </trkpt>
      <trkpt lat="49.38738" lon="1.45416">
        <ele>139.39294433594</ele>
        <time>2017-09-03T08:46:39.000Z</time>
      </trkpt>
      <trkpt lat="49.38736" lon="1.45426">
        <ele>139.60025024414</ele>
        <time>2017-09-03T08:46:42.000Z</time>
      </trkpt>
      <trkpt lat="49.38735" lon="1.45431">
        <ele>139.80630493164</ele>
        <time>2017-09-03T08:46:44.000Z</time>
      </trkpt>
      <trkpt lat="49.38733" lon="1.45438">
        <ele>140.09573364258</ele>
        <time>2017-09-03T08:46:47.000Z</time>
      </trkpt>
      <trkpt lat="49.38731" lon="1.45448">
        <ele>140.63734436035</ele>
        <time>2017-09-03T08:46:50.000Z</time>
      </trkpt>
      <trkpt lat="49.38729" lon="1.45454">
        <ele>141.05335998535</ele>
        <time>2017-09-03T08:46:52.000Z</time>
      </trkpt>
      <trkpt lat="49.38727" lon="1.45465">
        <ele>141.49868774414</ele>
        <time>2017-09-03T08:46:55.000Z</time>
      </trkpt>
      <trkpt lat="49.38726" lon="1.4547">
        <ele>141.98852539062</ele>
        <time>2017-09-03T08:46:57.000Z</time>
      </trkpt>
      <trkpt lat="49.38725" lon="1.45476">
        <ele>142.40509033203</ele>
        <time>2017-09-03T08:46:59.000Z</time>
      </trkpt>
      <trkpt lat="49.38726" lon="1.45482">
        <ele>142.6852722168</ele>
        <time>2017-09-03T08:47:02.000Z</time>
      </trkpt>
      <trkpt lat="49.38724" lon="1.45492">
        <ele>143.01414489746</ele>
        <time>2017-09-03T08:47:05.000Z</time>
      </trkpt>
      <trkpt lat="49.38723" lon="1.45497">
        <ele>143.28073120117</ele>
        <time>2017-09-03T08:47:07.000Z</time>
      </trkpt>
      <trkpt lat="49.38721" lon="1.45504">
        <ele>143.56062316895</ele>
        <time>2017-09-03T08:47:10.000Z</time>
      </trkpt>
      <trkpt lat="49.38718" lon="1.4551">
        <ele>143.92384338379</ele>
        <time>2017-09-03T08:47:12.000Z</time>
      </trkpt>
      <trkpt lat="49.38716" lon="1.45514">
        <ele>144.41494750977</ele>
        <time>2017-09-03T08:47:14.000Z</time>
      </trkpt>
      <trkpt lat="49.38713" lon="1.45518">
        <ele>144.97296142578</ele>
        <time>2017-09-03T08:47:16.000Z</time>
      </trkpt>
      <trkpt lat="49.38709" lon="1.45525">
        <ele>145.62252807617</ele>
        <time>2017-09-03T08:47:19.000Z</time>
      </trkpt>
      <trkpt lat="49.38707" lon="1.45529">
        <ele>146.31869506836</ele>
        <time>2017-09-03T08:47:21.000Z</time>
      </trkpt>
      <trkpt lat="49.38704" lon="1.45534">
        <ele>147.04992675781</ele>
        <time>2017-09-03T08:47:24.000Z</time>
      </trkpt>
      <trkpt lat="49.38701" lon="1.45541">
        <ele>147.81185913086</ele>
        <time>2017-09-03T08:47:27.000Z</time>
      </trkpt>
      <trkpt lat="49.38699" lon="1.45545">
        <ele>148.47651672363</ele>
        <time>2017-09-03T08:47:29.000Z</time>
      </trkpt>
      <trkpt lat="49.38697" lon="1.4555">
        <ele>149.11245727539</ele>
        <time>2017-09-03T08:47:32.000Z</time>
      </trkpt>
      <trkpt lat="49.38694" lon="1.45556">
        <ele>149.80322265625</ele>
        <time>2017-09-03T08:47:35.000Z</time>
      </trkpt>
      <trkpt lat="49.38691" lon="1.4556">
        <ele>150.50608825684</ele>
        <time>2017-09-03T08:47:37.000Z</time>
      </trkpt>
      <trkpt lat="49.38689" lon="1.45565">
        <ele>151.17692565918</ele>
        <time>2017-09-03T08:47:39.000Z</time>
      </trkpt>
      <trkpt lat="49.38687" lon="1.45571">
        <ele>151.87823486328</ele>
        <time>2017-09-03T08:47:41.000Z</time>
      </trkpt>
      <trkpt lat="49.38684" lon="1.45578">
        <ele>152.59245300293</ele>
        <time>2017-09-03T08:47:44.000Z</time>
      </trkpt>
      <trkpt lat="49.38683" lon="1.45582">
        <ele>153.22665405273</ele>
        <time>2017-09-03T08:47:46.000Z</time>
      </trkpt>
      <trkpt lat="49.38679" lon="1.45589">
        <ele>153.84149169922</ele>
        <time>2017-09-03T08:47:49.000Z</time>
      </trkpt>
      <trkpt lat="49.38676" lon="1.45596">
        <ele>154.44955444336</ele>
        <time>2017-09-03T08:47:52.000Z</time>
      </trkpt>
      <trkpt lat="49.38674" lon="1.456">
        <ele>155.03332519531</ele>
        <time>2017-09-03T08:47:54.000Z</time>
      </trkpt>
      <trkpt lat="49.38671" lon="1.45604">
        <ele>155.58508300781</ele>
        <time>2017-09-03T08:47:56.000Z</time>
      </trkpt>
      <trkpt lat="49.38669" lon="1.45608">
        <ele>156.09716796875</ele>
        <time>2017-09-03T08:47:58.000Z</time>
      </trkpt>
      <trkpt lat="49.38666" lon="1.45615">
        <ele>156.52578735352</ele>
        <time>2017-09-03T08:48:01.000Z</time>
      </trkpt>
      <trkpt lat="49.38662" lon="1.45621">
        <ele>156.89709472656</ele>
        <time>2017-09-03T08:48:04.000Z</time>
      </trkpt>
      <trkpt lat="49.3866" lon="1.45626">
        <ele>157.22897338867</ele>
        <time>2017-09-03T08:48:06.000Z</time>
      </trkpt>
      <trkpt lat="49.38658" lon="1.45632">
        <ele>157.46310424805</ele>
        <time>2017-09-03T08:48:08.000Z</time>
      </trkpt>
      <trkpt lat="49.38655" lon="1.45638">
        <ele>157.65203857422</ele>
        <time>2017-09-03T08:48:11.000Z</time>
      </trkpt>
      <trkpt lat="49.38653" lon="1.45644">
        <ele>157.83390808105</ele>
        <time>2017-09-03T08:48:14.000Z</time>
      </trkpt>
      <trkpt lat="49.38651" lon="1.45647">
        <ele>158.01315307617</ele>
        <time>2017-09-03T08:48:16.000Z</time>
      </trkpt>
      <trkpt lat="49.38648" lon="1.45653">
        <ele>158.20022583008</ele>
        <time>2017-09-03T08:48:19.000Z</time>
      </trkpt>
      <trkpt lat="49.38647" lon="1.45656">
        <ele>158.39904785156</ele>
        <time>2017-09-03T08:48:21.000Z</time>
      </trkpt>
      <trkpt lat="49.38643" lon="1.45661">
        <ele>158.6883392334</ele>
        <time>2017-09-03T08:48:24.000Z</time>
      </trkpt>
      <trkpt lat="49.38639" lon="1.45666">
        <ele>159.03176879883</ele>
        <time>2017-09-03T08:48:27.000Z</time>
      </trkpt>
      <trkpt lat="49.38636" lon="1.45672">
        <ele>159.49404907227</ele>
        <time>2017-09-03T08:48:30.000Z</time>
      </trkpt>
      <trkpt lat="49.38634" lon="1.45675">
        <ele>160.04061889648</ele>
        <time>2017-09-03T08:48:32.000Z</time>
      </trkpt>
      <trkpt lat="49.38631" lon="1.4568">
        <ele>160.70257568359</ele>
        <time>2017-09-03T08:48:35.000Z</time>
      </trkpt>
      <trkpt lat="49.38629" lon="1.45685">
        <ele>161.33981323242</ele>
        <time>2017-09-03T08:48:37.000Z</time>
      </trkpt>
      <trkpt lat="49.38626" lon="1.45692">
        <ele>161.99737548828</ele>
        <time>2017-09-03T08:48:40.000Z</time>
      </trkpt>
      <trkpt lat="49.38624" lon="1.45697">
        <ele>162.58378601074</ele>
        <time>2017-09-03T08:48:42.000Z</time>
      </trkpt>
      <trkpt lat="49.38623" lon="1.45704">
        <ele>163.12734985352</ele>
        <time>2017-09-03T08:48:44.000Z</time>
      </trkpt>
      <trkpt lat="49.38622" lon="1.4571">
        <ele>163.59045410156</ele>
        <time>2017-09-03T08:48:46.000Z</time>
      </trkpt>
      <trkpt lat="49.38621" lon="1.45718">
        <ele>164.00137329102</ele>
        <time>2017-09-03T08:48:49.000Z</time>
      </trkpt>
      <trkpt lat="49.3862" lon="1.45724">
        <ele>164.33125305176</ele>
        <time>2017-09-03T08:48:51.000Z</time>
      </trkpt>
      <trkpt lat="49.38618" lon="1.45734">
        <ele>164.6276550293</ele>
        <time>2017-09-03T08:48:54.000Z</time>
      </trkpt>
      <trkpt lat="49.38618" lon="1.4574">
        <ele>164.87995910645</ele>
        <time>2017-09-03T08:48:56.000Z</time>
      </trkpt>
      <trkpt lat="49.38617" lon="1.45748">
        <ele>165.1217956543</ele>
        <time>2017-09-03T08:48:59.000Z</time>
      </trkpt>
      <trkpt lat="49.38616" lon="1.45758">
        <ele>165.47027587891</ele>
        <time>2017-09-03T08:49:02.000Z</time>
      </trkpt>
      <trkpt lat="49.38615" lon="1.45766">
        <ele>165.91104125977</ele>
        <time>2017-09-03T08:49:04.000Z</time>
      </trkpt>
      <trkpt lat="49.38614" lon="1.45777">
        <ele>166.49240112305</ele>
        <time>2017-09-03T08:49:07.000Z</time>
      </trkpt>
      <trkpt lat="49.38614" lon="1.45787">
        <ele>167.20750427246</ele>
        <time>2017-09-03T08:49:10.000Z</time>
      </trkpt>
      <trkpt lat="49.38614" lon="1.45799">
        <ele>168.05958557129</ele>
        <time>2017-09-03T08:49:13.000Z</time>
      </trkpt>
      <trkpt lat="49.38614" lon="1.45811">
        <ele>168.94665527344</ele>
        <time>2017-09-03T08:49:16.000Z</time>
      </trkpt>
      <trkpt lat="49.38613" lon="1.45817">
        <ele>169.81588745117</ele>
        <time>2017-09-03T08:49:18.000Z</time>
      </trkpt>
      <trkpt lat="49.38613" lon="1.45825">
        <ele>170.60293579102</ele>
        <time>2017-09-03T08:49:20.000Z</time>
      </trkpt>
      <trkpt lat="49.38614" lon="1.45836">
        <ele>171.41918945312</ele>
        <time>2017-09-03T08:49:23.000Z</time>
      </trkpt>
      <trkpt lat="49.38614" lon="1.45843">
        <ele>172.21699523926</ele>
        <time>2017-09-03T08:49:25.000Z</time>
      </trkpt>
      <trkpt lat="49.38615" lon="1.45853">
        <ele>173.08044433594</ele>
        <time>2017-09-03T08:49:28.000Z</time>
      </trkpt>
      <trkpt lat="49.38616" lon="1.45862">
        <ele>174.05978393555</ele>
        <time>2017-09-03T08:49:31.000Z</time>
      </trkpt>
      <trkpt lat="49.38617" lon="1.45868">
        <ele>175.07730102539</ele>
        <time>2017-09-03T08:49:33.000Z</time>
      </trkpt>
      <trkpt lat="49.38619" lon="1.45877">
        <ele>176.11552429199</ele>
        <time>2017-09-03T08:49:36.000Z</time>
      </trkpt>
      <trkpt lat="49.38621" lon="1.45887">
        <ele>177.21778869629</ele>
        <time>2017-09-03T08:49:39.000Z</time>
      </trkpt>
      <trkpt lat="49.38622" lon="1.45893">
        <ele>178.21228027344</ele>
        <time>2017-09-03T08:49:41.000Z</time>
      </trkpt>
      <trkpt lat="49.38623" lon="1.45899">
        <ele>179.11218261719</ele>
        <time>2017-09-03T08:49:43.000Z</time>
      </trkpt>
      <trkpt lat="49.38625" lon="1.45907">
        <ele>180.03811645508</ele>
        <time>2017-09-03T08:49:46.000Z</time>
      </trkpt>
      <trkpt lat="49.38627" lon="1.45914">
        <ele>180.92138671875</ele>
        <time>2017-09-03T08:49:49.000Z</time>
      </trkpt>
      <trkpt lat="49.38629" lon="1.45922">
        <ele>181.67523193359</ele>
        <time>2017-09-03T08:49:52.000Z</time>
      </trkpt>
      <trkpt lat="49.38631" lon="1.45929">
        <ele>182.33860778809</ele>
        <time>2017-09-03T08:49:55.000Z</time>
      </trkpt>
      <trkpt lat="49.38632" lon="1.45934">
        <ele>182.90478515625</ele>
        <time>2017-09-03T08:49:57.000Z</time>
      </trkpt>
      <trkpt lat="49.38634" lon="1.45942">
        <ele>183.34555053711</ele>
        <time>2017-09-03T08:50:00.000Z</time>
      </trkpt>
      <trkpt lat="49.38636" lon="1.45947">
        <ele>183.66165161133</ele>
        <time>2017-09-03T08:50:02.000Z</time>
      </trkpt>
      <trkpt lat="49.38637" lon="1.45953">
        <ele>183.92387390137</ele>
        <time>2017-09-03T08:50:04.000Z</time>
      </trkpt>
      <trkpt lat="49.38639" lon="1.45961">
        <ele>184.20777893066</ele>
        <time>2017-09-03T08:50:07.000Z</time>
      </trkpt>
      <trkpt lat="49.38641" lon="1.45971">
        <ele>184.53897094727</ele>
        <time>2017-09-03T08:50:10.000Z</time>
      </trkpt>
      <trkpt lat="49.38642" lon="1.45977">
        <ele>184.87161254883</ele>
        <time>2017-09-03T08:50:12.000Z</time>
      </trkpt>
      <trkpt lat="49.38643" lon="1.45983">
        <ele>185.20626831055</ele>
        <time>2017-09-03T08:50:14.000Z</time>
      </trkpt>
      <trkpt lat="49.38644" lon="1.45989">
        <ele>185.55184936523</ele>
        <time>2017-09-03T08:50:17.000Z</time>
      </trkpt>
      <trkpt lat="49.38646" lon="1.45996">
        <ele>185.88862609863</ele>
        <time>2017-09-03T08:50:20.000Z</time>
      </trkpt>
      <trkpt lat="49.38649" lon="1.46004">
        <ele>186.18392944336</ele>
        <time>2017-09-03T08:50:23.000Z</time>
      </trkpt>
      <trkpt lat="49.38651" lon="1.46009">
        <ele>186.4352722168</ele>
        <time>2017-09-03T08:50:25.000Z</time>
      </trkpt>
      <trkpt lat="49.38654" lon="1.46017">
        <ele>186.66487121582</ele>
        <time>2017-09-03T08:50:28.000Z</time>
      </trkpt>
      <trkpt lat="49.38656" lon="1.46025">
        <ele>186.87228393555</ele>
        <time>2017-09-03T08:50:31.000Z</time>
      </trkpt>
      <trkpt lat="49.38657" lon="1.4603">
        <ele>187.03491210938</ele>
        <time>2017-09-03T08:50:33.000Z</time>
      </trkpt>
      <trkpt lat="49.38658" lon="1.46035">
        <ele>187.18269348145</ele>
        <time>2017-09-03T08:50:35.000Z</time>
      </trkpt>
      <trkpt lat="49.38661" lon="1.46045">
        <ele>187.35888671875</ele>
        <time>2017-09-03T08:50:38.000Z</time>
      </trkpt>
      <trkpt lat="49.38663" lon="1.46049">
        <ele>187.52421569824</ele>
        <time>2017-09-03T08:50:40.000Z</time>
      </trkpt>
      <trkpt lat="49.38664" lon="1.46055">
        <ele>187.68769836426</ele>
        <time>2017-09-03T08:50:42.000Z</time>
      </trkpt>
      <trkpt lat="49.38666" lon="1.46064">
        <ele>187.87847900391</ele>
        <time>2017-09-03T08:50:45.000Z</time>
      </trkpt>
      <trkpt lat="49.38668" lon="1.46069">
        <ele>188.06723022461</ele>
        <time>2017-09-03T08:50:47.000Z</time>
      </trkpt>
      <trkpt lat="49.3867" lon="1.46075">
        <ele>188.23554992676</ele>
        <time>2017-09-03T08:50:49.000Z</time>
      </trkpt>
      <trkpt lat="49.38671" lon="1.46081">
        <ele>188.40553283691</ele>
        <time>2017-09-03T08:50:51.000Z</time>
      </trkpt>
      <trkpt lat="49.38674" lon="1.4609">
        <ele>188.54368591309</ele>
        <time>2017-09-03T08:50:54.000Z</time>
      </trkpt>
      <trkpt lat="49.38675" lon="1.46096">
        <ele>188.62680053711</ele>
        <time>2017-09-03T08:50:56.000Z</time>
      </trkpt>
      <trkpt lat="49.38676" lon="1.461">
        <ele>188.68034362793</ele>
        <time>2017-09-03T08:50:59.000Z</time>
      </trkpt>
      <trkpt lat="49.38678" lon="1.46101">
        <ele>188.69221496582</ele>
        <time>2017-09-03T08:51:02.000Z</time>
      </trkpt>
      <trkpt lat="49.38678" lon="1.46101">
        <ele>188.69221496582</ele>
        <time>2017-09-03T08:51:22.000Z</time>
      </trkpt>
      <trkpt lat="49.38677" lon="1.461">
        <ele>188.68228149414</ele>
        <time>2017-09-03T08:53:26.000Z</time>
      </trkpt>
      <trkpt lat="49.38677" lon="1.461">
        <ele>188.68228149414</ele>
        <time>2017-09-03T08:53:46.000Z</time>
      </trkpt>
      <trkpt lat="49.38678" lon="1.46101">
        <ele>188.66572570801</ele>
        <time>2017-09-03T08:54:10.000Z</time>
      </trkpt>
      <trkpt lat="49.38679" lon="1.46111">
        <ele>188.65446472168</ele>
        <time>2017-09-03T08:54:13.000Z</time>
      </trkpt>
      <trkpt lat="49.3868" lon="1.4612">
        <ele>188.64416503906</ele>
        <time>2017-09-03T08:54:15.000Z</time>
      </trkpt>
      <trkpt lat="49.38682" lon="1.46133">
        <ele>188.65104675293</ele>
        <time>2017-09-03T08:54:18.000Z</time>
      </trkpt>
      <trkpt lat="49.38682" lon="1.46142">
        <ele>188.66946411133</ele>
        <time>2017-09-03T08:54:20.000Z</time>
      </trkpt>
      <trkpt lat="49.38683" lon="1.46158">
        <ele>188.70317077637</ele>
        <time>2017-09-03T08:54:23.000Z</time>
      </trkpt>
      <trkpt lat="49.38683" lon="1.46169">
        <ele>188.7184753418</ele>
        <time>2017-09-03T08:54:25.000Z</time>
      </trkpt>
      <trkpt lat="49.38683" lon="1.46182">
        <ele>188.5803527832</ele>
        <time>2017-09-03T08:54:28.000Z</time>
      </trkpt>
      <trkpt lat="49.38682" lon="1.46197">
        <ele>188.29666137695</ele>
        <time>2017-09-03T08:54:31.000Z</time>
      </trkpt>
      <trkpt lat="49.38681" lon="1.46207">
        <ele>187.9001159668</ele>
        <time>2017-09-03T08:54:33.000Z</time>
      </trkpt>
      <trkpt lat="49.38679" lon="1.46219">
        <ele>187.37208557129</ele>
        <time>2017-09-03T08:54:36.000Z</time>
      </trkpt>
      <trkpt lat="49.38676" lon="1.46232">
        <ele>186.74406433105</ele>
        <time>2017-09-03T08:54:39.000Z</time>
      </trkpt>
      <trkpt lat="49.38675" lon="1.46239">
        <ele>186.18998718262</ele>
        <time>2017-09-03T08:54:41.000Z</time>
      </trkpt>
      <trkpt lat="49.38671" lon="1.46251">
        <ele>185.67784118652</ele>
        <time>2017-09-03T08:54:44.000Z</time>
      </trkpt>
      <trkpt lat="49.38669" lon="1.46259">
        <ele>185.19592285156</ele>
        <time>2017-09-03T08:54:46.000Z</time>
      </trkpt>
      <trkpt lat="49.38666" lon="1.46271">
        <ele>184.72201538086</ele>
        <time>2017-09-03T08:54:49.000Z</time>
      </trkpt>
      <trkpt lat="49.38662" lon="1.46281">
        <ele>184.25769042969</ele>
        <time>2017-09-03T08:54:52.000Z</time>
      </trkpt>
      <trkpt lat="49.3866" lon="1.46287">
        <ele>183.81466674805</ele>
        <time>2017-09-03T08:54:54.000Z</time>
      </trkpt>
      <trkpt lat="49.38657" lon="1.46296">
        <ele>183.39712524414</ele>
        <time>2017-09-03T08:54:57.000Z</time>
      </trkpt>
      <trkpt lat="49.38653" lon="1.46302">
        <ele>183.01512145996</ele>
        <time>2017-09-03T08:54:59.000Z</time>
      </trkpt>
      <trkpt lat="49.3865" lon="1.46307">
        <ele>182.7116394043</ele>
        <time>2017-09-03T08:55:01.000Z</time>
      </trkpt>
      <trkpt lat="49.38645" lon="1.46315">
        <ele>182.4649810791</ele>
        <time>2017-09-03T08:55:04.000Z</time>
      </trkpt>
      <trkpt lat="49.38641" lon="1.46325">
        <ele>182.20622253418</ele>
        <time>2017-09-03T08:55:07.000Z</time>
      </trkpt>
      <trkpt lat="49.38636" lon="1.46336">
        <ele>181.94633483887</ele>
        <time>2017-09-03T08:55:10.000Z</time>
      </trkpt>
      <trkpt lat="49.38632" lon="1.46347">
        <ele>181.63624572754</ele>
        <time>2017-09-03T08:55:13.000Z</time>
      </trkpt>
      <trkpt lat="49.3863" lon="1.46355">
        <ele>181.29977416992</ele>
        <time>2017-09-03T08:55:15.000Z</time>
      </trkpt>
      <trkpt lat="49.38627" lon="1.46362">
        <ele>180.96041870117</ele>
        <time>2017-09-03T08:55:17.000Z</time>
      </trkpt>
      <trkpt lat="49.38623" lon="1.46374">
        <ele>180.6177520752</ele>
        <time>2017-09-03T08:55:20.000Z</time>
      </trkpt>
      <trkpt lat="49.38618" lon="1.46385">
        <ele>180.28614807129</ele>
        <time>2017-09-03T08:55:23.000Z</time>
      </trkpt>
      <trkpt lat="49.38616" lon="1.46393">
        <ele>179.99995422363</ele>
        <time>2017-09-03T08:55:25.000Z</time>
      </trkpt>
      <trkpt lat="49.38612" lon="1.46405">
        <ele>179.71968078613</ele>
        <time>2017-09-03T08:55:28.000Z</time>
      </trkpt>
      <trkpt lat="49.38607" lon="1.46417">
        <ele>179.44430541992</ele>
        <time>2017-09-03T08:55:31.000Z</time>
      </trkpt>
      <trkpt lat="49.38603" lon="1.4643">
        <ele>179.31686401367</ele>
        <time>2017-09-03T08:55:34.000Z</time>
      </trkpt>
      <trkpt lat="49.38601" lon="1.46439">
        <ele>179.29032897949</ele>
        <time>2017-09-03T08:55:36.000Z</time>
      </trkpt>
      <trkpt lat="49.38596" lon="1.46452">
        <ele>179.39120483398</ele>
        <time>2017-09-03T08:55:39.000Z</time>
      </trkpt>
      <trkpt lat="49.38593" lon="1.46462">
        <ele>179.591796875</ele>
        <time>2017-09-03T08:55:41.000Z</time>
      </trkpt>
      <trkpt lat="49.38589" lon="1.46472">
        <ele>179.892578125</ele>
        <time>2017-09-03T08:55:43.000Z</time>
      </trkpt>
      <trkpt lat="49.38584" lon="1.46487">
        <ele>180.2138671875</ele>
        <time>2017-09-03T08:55:46.000Z</time>
      </trkpt>
      <trkpt lat="49.38579" lon="1.46502">
        <ele>180.53172302246</ele>
        <time>2017-09-03T08:55:49.000Z</time>
      </trkpt>
      <trkpt lat="49.38573" lon="1.46517">
        <ele>180.79019165039</ele>
        <time>2017-09-03T08:55:52.000Z</time>
      </trkpt>
      <trkpt lat="49.38567" lon="1.46533">
        <ele>181.08084106445</ele>
        <time>2017-09-03T08:55:55.000Z</time>
      </trkpt>
      <trkpt lat="49.3856" lon="1.4655">
        <ele>181.44888305664</ele>
        <time>2017-09-03T08:55:58.000Z</time>
      </trkpt>
      <trkpt lat="49.38556" lon="1.46562">
        <ele>181.84112548828</ele>
        <time>2017-09-03T08:56:00.000Z</time>
      </trkpt>
      <trkpt lat="49.38549" lon="1.4658">
        <ele>182.41708374023</ele>
        <time>2017-09-03T08:56:03.000Z</time>
      </trkpt>
      <trkpt lat="49.38543" lon="1.46599">
        <ele>183.06442260742</ele>
        <time>2017-09-03T08:56:06.000Z</time>
      </trkpt>
      <trkpt lat="49.38537" lon="1.46617">
        <ele>183.69233703613</ele>
        <time>2017-09-03T08:56:09.000Z</time>
      </trkpt>
      <trkpt lat="49.38533" lon="1.46628">
        <ele>184.21002197266</ele>
        <time>2017-09-03T08:56:11.000Z</time>
      </trkpt>
      <trkpt lat="49.38529" lon="1.46647">
        <ele>184.63514709473</ele>
        <time>2017-09-03T08:56:14.000Z</time>
      </trkpt>
      <trkpt lat="49.38526" lon="1.4666">
        <ele>184.84216308594</ele>
        <time>2017-09-03T08:56:16.000Z</time>
      </trkpt>
      <trkpt lat="49.38525" lon="1.46673">
        <ele>184.90512084961</ele>
        <time>2017-09-03T08:56:18.000Z</time>
      </trkpt>
      <trkpt lat="49.38522" lon="1.46687">
        <ele>184.8616027832</ele>
        <time>2017-09-03T08:56:20.000Z</time>
      </trkpt>
      <trkpt lat="49.3852" lon="1.46706">
        <ele>184.68991088867</ele>
        <time>2017-09-03T08:56:23.000Z</time>
      </trkpt>
      <trkpt lat="49.38519" lon="1.4672">
        <ele>184.4130859375</ele>
        <time>2017-09-03T08:56:25.000Z</time>
      </trkpt>
      <trkpt lat="49.38517" lon="1.46735">
        <ele>184.05288696289</ele>
        <time>2017-09-03T08:56:27.000Z</time>
      </trkpt>
      <trkpt lat="49.38514" lon="1.46757">
        <ele>183.67196655273</ele>
        <time>2017-09-03T08:56:30.000Z</time>
      </trkpt>
      <trkpt lat="49.38512" lon="1.4678">
        <ele>183.44680786133</ele>
        <time>2017-09-03T08:56:33.000Z</time>
      </trkpt>
      <trkpt lat="49.3851" lon="1.46795">
        <ele>183.39343261719</ele>
        <time>2017-09-03T08:56:35.000Z</time>
      </trkpt>
      <trkpt lat="49.38508" lon="1.46817">
        <ele>183.50105285645</ele>
        <time>2017-09-03T08:56:38.000Z</time>
      </trkpt>
      <trkpt lat="49.38506" lon="1.46832">
        <ele>183.76528930664</ele>
        <time>2017-09-03T08:56:40.000Z</time>
      </trkpt>
      <trkpt lat="49.38504" lon="1.46844">
        <ele>184.21002197266</ele>
        <time>2017-09-03T08:56:42.000Z</time>
      </trkpt>
      <trkpt lat="49.38502" lon="1.46858">
        <ele>184.67532348633</ele>
        <time>2017-09-03T08:56:44.000Z</time>
      </trkpt>
      <trkpt lat="49.385" lon="1.46879">
        <ele>185.24847412109</ele>
        <time>2017-09-03T08:56:47.000Z</time>
      </trkpt>
      <trkpt lat="49.38499" lon="1.46896">
        <ele>185.85488891602</ele>
        <time>2017-09-03T08:56:50.000Z</time>
      </trkpt>
      <trkpt lat="49.38497" lon="1.46913">
        <ele>186.50157165527</ele>
        <time>2017-09-03T08:56:53.000Z</time>
      </trkpt>
      <trkpt lat="49.38496" lon="1.46927">
        <ele>186.88383483887</ele>
        <time>2017-09-03T08:56:56.000Z</time>
      </trkpt>
      <trkpt lat="49.38495" lon="1.46935">
        <ele>186.99977111816</ele>
        <time>2017-09-03T08:56:58.000Z</time>
      </trkpt>
      <trkpt lat="49.38493" lon="1.46943">
        <ele>186.81454467773</ele>
        <time>2017-09-03T08:57:00.000Z</time>
      </trkpt>
      <trkpt lat="49.38492" lon="1.46953">
        <ele>186.36215209961</ele>
        <time>2017-09-03T08:57:03.000Z</time>
      </trkpt>
      <trkpt lat="49.38491" lon="1.46962">
        <ele>185.66697692871</ele>
        <time>2017-09-03T08:57:06.000Z</time>
      </trkpt>
      <trkpt lat="49.3849" lon="1.46966">
        <ele>185.06567382812</ele>
        <time>2017-09-03T08:57:08.000Z</time>
      </trkpt>
      <trkpt lat="49.38486" lon="1.46971">
        <ele>184.52990722656</ele>
        <time>2017-09-03T08:57:11.000Z</time>
      </trkpt>
      <trkpt lat="49.3848" lon="1.46977">
        <ele>184.06811523438</ele>
        <time>2017-09-03T08:57:13.000Z</time>
      </trkpt>
      <trkpt lat="49.38469" lon="1.46992">
        <ele>183.65655517578</ele>
        <time>2017-09-03T08:57:16.000Z</time>
      </trkpt>
      <trkpt lat="49.38457" lon="1.47009">
        <ele>183.3120880127</ele>
        <time>2017-09-03T08:57:19.000Z</time>
      </trkpt>
      <trkpt lat="49.38448" lon="1.47025">
        <ele>182.94750976562</ele>
        <time>2017-09-03T08:57:22.000Z</time>
      </trkpt>
      <trkpt lat="49.38441" lon="1.47035">
        <ele>182.61729431152</ele>
        <time>2017-09-03T08:57:24.000Z</time>
      </trkpt>
      <trkpt lat="49.38428" lon="1.4705">
        <ele>182.32917785645</ele>
        <time>2017-09-03T08:57:27.000Z</time>
      </trkpt>
      <trkpt lat="49.38415" lon="1.47072">
        <ele>182.0524597168</ele>
        <time>2017-09-03T08:57:30.000Z</time>
      </trkpt>
      <trkpt lat="49.38404" lon="1.47083">
        <ele>181.712890625</ele>
        <time>2017-09-03T08:57:32.000Z</time>
      </trkpt>
      <trkpt lat="49.3839" lon="1.47096">
        <ele>181.2059173584</ele>
        <time>2017-09-03T08:57:35.000Z</time>
      </trkpt>
      <trkpt lat="49.38382" lon="1.47112">
        <ele>180.53605651855</ele>
        <time>2017-09-03T08:57:38.000Z</time>
      </trkpt>
      <trkpt lat="49.38381" lon="1.47122">
        <ele>179.74447631836</ele>
        <time>2017-09-03T08:57:40.000Z</time>
      </trkpt>
      <trkpt lat="49.38381" lon="1.47141">
        <ele>178.78268432617</ele>
        <time>2017-09-03T08:57:43.000Z</time>
      </trkpt>
      <trkpt lat="49.38381" lon="1.47151">
        <ele>177.81407165527</ele>
        <time>2017-09-03T08:57:45.000Z</time>
      </trkpt>
      <trkpt lat="49.3838" lon="1.47165">
        <ele>176.91914367676</ele>
        <time>2017-09-03T08:57:48.000Z</time>
      </trkpt>
      <trkpt lat="49.38381" lon="1.47175">
        <ele>176.14764404297</ele>
        <time>2017-09-03T08:57:50.000Z</time>
      </trkpt>
      <trkpt lat="49.38381" lon="1.47186">
        <ele>175.44760131836</ele>
        <time>2017-09-03T08:57:53.000Z</time>
      </trkpt>
      <trkpt lat="49.38381" lon="1.47195">
        <ele>174.96870422363</ele>
        <time>2017-09-03T08:57:55.000Z</time>
      </trkpt>
      <trkpt lat="49.3838" lon="1.47213">
        <ele>174.5472869873</ele>
        <time>2017-09-03T08:57:58.000Z</time>
      </trkpt>
      <trkpt lat="49.38382" lon="1.47225">
        <ele>174.21600341797</ele>
        <time>2017-09-03T08:58:00.000Z</time>
      </trkpt>
      <trkpt lat="49.3838" lon="1.47245">
        <ele>173.89007568359</ele>
        <time>2017-09-03T08:58:03.000Z</time>
      </trkpt>
      <trkpt lat="49.38379" lon="1.47259">
        <ele>173.62591552734</ele>
        <time>2017-09-03T08:58:05.000Z</time>
      </trkpt>
      <trkpt lat="49.38379" lon="1.47274">
        <ele>173.39707946777</ele>
        <time>2017-09-03T08:58:07.000Z</time>
      </trkpt>
      <trkpt lat="49.38382" lon="1.47288">
        <ele>173.20825195312</ele>
        <time>2017-09-03T08:58:09.000Z</time>
      </trkpt>
      <trkpt lat="49.38384" lon="1.47302">
        <ele>173.07453918457</ele>
        <time>2017-09-03T08:58:11.000Z</time>
      </trkpt>
      <trkpt lat="49.38383" lon="1.47321">
        <ele>173.03176879883</ele>
        <time>2017-09-03T08:58:14.000Z</time>
      </trkpt>
      <trkpt lat="49.38386" lon="1.47338">
        <ele>172.95388793945</ele>
        <time>2017-09-03T08:58:17.000Z</time>
      </trkpt>
      <trkpt lat="49.38388" lon="1.47351">
        <ele>172.81890869141</ele>
        <time>2017-09-03T08:58:20.000Z</time>
      </trkpt>
      <trkpt lat="49.38389" lon="1.47362">
        <ele>172.68676757812</ele>
        <time>2017-09-03T08:58:22.000Z</time>
      </trkpt>
      <trkpt lat="49.3839" lon="1.47375">
        <ele>172.54055786133</ele>
        <time>2017-09-03T08:58:24.000Z</time>
      </trkpt>
      <trkpt lat="49.3839" lon="1.47395">
        <ele>172.32565307617</ele>
        <time>2017-09-03T08:58:27.000Z</time>
      </trkpt>
      <trkpt lat="49.3839" lon="1.47408">
        <ele>172.10903930664</ele>
        <time>2017-09-03T08:58:29.000Z</time>
      </trkpt>
      <trkpt lat="49.3839" lon="1.47427">
        <ele>171.96054077148</ele>
        <time>2017-09-03T08:58:32.000Z</time>
      </trkpt>
      <trkpt lat="49.38391" lon="1.47448">
        <ele>171.9084777832</ele>
        <time>2017-09-03T08:58:35.000Z</time>
      </trkpt>
      <trkpt lat="49.38392" lon="1.47466">
        <ele>171.94671630859</ele>
        <time>2017-09-03T08:58:37.000Z</time>
      </trkpt>
      <trkpt lat="49.38393" lon="1.47483">
        <ele>172.07461547852</ele>
        <time>2017-09-03T08:58:39.000Z</time>
      </trkpt>
      <trkpt lat="49.38395" lon="1.47498">
        <ele>172.28042602539</ele>
        <time>2017-09-03T08:58:41.000Z</time>
      </trkpt>
      <trkpt lat="49.384" lon="1.47509">
        <ele>172.49809265137</ele>
        <time>2017-09-03T08:58:43.000Z</time>
      </trkpt>
      <trkpt lat="49.38398" lon="1.47527">
        <ele>172.76174926758</ele>
        <time>2017-09-03T08:58:46.000Z</time>
      </trkpt>
      <trkpt lat="49.38396" lon="1.47538">
        <ele>173.05563354492</ele>
        <time>2017-09-03T08:58:48.000Z</time>
      </trkpt>
      <trkpt lat="49.38394" lon="1.47552">
        <ele>173.40130615234</ele>
        <time>2017-09-03T08:58:50.000Z</time>
      </trkpt>
      <trkpt lat="49.38391" lon="1.47561">
        <ele>173.80932617188</ele>
        <time>2017-09-03T08:58:52.000Z</time>
      </trkpt>
      <trkpt lat="49.38391" lon="1.47573">
        <ele>174.2608795166</ele>
        <time>2017-09-03T08:58:55.000Z</time>
      </trkpt>
      <trkpt lat="49.38394" lon="1.47578">
        <ele>174.59310913086</ele>
        <time>2017-09-03T08:58:57.000Z</time>
      </trkpt>
      <trkpt lat="49.38397" lon="1.47585">
        <ele>174.79414367676</ele>
        <time>2017-09-03T08:58:59.000Z</time>
      </trkpt>
      <trkpt lat="49.38402" lon="1.47594">
        <ele>174.73170471191</ele>
        <time>2017-09-03T08:59:02.000Z</time>
      </trkpt>
      <trkpt lat="49.38405" lon="1.47602">
        <ele>174.43098449707</ele>
        <time>2017-09-03T08:59:05.000Z</time>
      </trkpt>
      <trkpt lat="49.38407" lon="1.47612">
        <ele>173.94844055176</ele>
        <time>2017-09-03T08:59:08.000Z</time>
      </trkpt>
      <trkpt lat="49.38409" lon="1.47624">
        <ele>173.30732727051</ele>
        <time>2017-09-03T08:59:11.000Z</time>
      </trkpt>
      <trkpt lat="49.38411" lon="1.47629">
        <ele>172.63682556152</ele>
        <time>2017-09-03T08:59:13.000Z</time>
      </trkpt>
      <trkpt lat="49.38412" lon="1.47641">
        <ele>172.00485229492</ele>
        <time>2017-09-03T08:59:20.000Z</time>
      </trkpt>
      <trkpt lat="49.38412" lon="1.4765">
        <ele>171.41998291016</ele>
        <time>2017-09-03T08:59:20.000Z</time>
      </trkpt>
      <trkpt lat="49.38414" lon="1.47665">
        <ele>170.75294494629</ele>
        <time>2017-09-03T08:59:21.000Z</time>
      </trkpt>
      <trkpt lat="49.38416" lon="1.47676">
        <ele>170.20381164551</ele>
        <time>2017-09-03T08:59:23.000Z</time>
      </trkpt>
      <trkpt lat="49.38418" lon="1.47692">
        <ele>169.71220397949</ele>
        <time>2017-09-03T08:59:26.000Z</time>
      </trkpt>
      <trkpt lat="49.38419" lon="1.47708">
        <ele>169.35122680664</ele>
        <time>2017-09-03T08:59:29.000Z</time>
      </trkpt>
      <trkpt lat="49.3842" lon="1.47724">
        <ele>169.07830810547</ele>
        <time>2017-09-03T08:59:32.000Z</time>
      </trkpt>
      <trkpt lat="49.38421" lon="1.47741">
        <ele>169.0075378418</ele>
        <time>2017-09-03T08:59:35.000Z</time>
      </trkpt>
      <trkpt lat="49.38422" lon="1.47757">
        <ele>169.00784301758</ele>
        <time>2017-09-03T08:59:38.000Z</time>
      </trkpt>
      <trkpt lat="49.38423" lon="1.47771">
        <ele>169.06030273438</ele>
        <time>2017-09-03T08:59:41.000Z</time>
      </trkpt>
      <trkpt lat="49.38423" lon="1.47778">
        <ele>169.13095092773</ele>
        <time>2017-09-03T08:59:43.000Z</time>
      </trkpt>
      <trkpt lat="49.38423" lon="1.47784">
        <ele>169.21589660645</ele>
        <time>2017-09-03T08:59:45.000Z</time>
      </trkpt>
      <trkpt lat="49.38422" lon="1.47793">
        <ele>169.31921386719</ele>
        <time>2017-09-03T08:59:48.000Z</time>
      </trkpt>
      <trkpt lat="49.38418" lon="1.47797">
        <ele>169.41543579102</ele>
        <time>2017-09-03T08:59:50.000Z</time>
      </trkpt>
      <trkpt lat="49.38415" lon="1.47802">
        <ele>169.50736999512</ele>
        <time>2017-09-03T08:59:52.000Z</time>
      </trkpt>
      <trkpt lat="49.38411" lon="1.47807">
        <ele>169.62414550781</ele>
        <time>2017-09-03T08:59:54.000Z</time>
      </trkpt>
      <trkpt lat="49.38402" lon="1.4781">
        <ele>169.79545593262</ele>
        <time>2017-09-03T08:59:57.000Z</time>
      </trkpt>
      <trkpt lat="49.38393" lon="1.47812">
        <ele>170.00996398926</ele>
        <time>2017-09-03T09:00:00.000Z</time>
      </trkpt>
      <trkpt lat="49.38387" lon="1.47812">
        <ele>170.2603302002</ele>
        <time>2017-09-03T09:00:02.000Z</time>
      </trkpt>
      <trkpt lat="49.38378" lon="1.47812">
        <ele>170.546875</ele>
        <time>2017-09-03T09:00:05.000Z</time>
      </trkpt>
      <trkpt lat="49.38372" lon="1.47811">
        <ele>170.83419799805</ele>
        <time>2017-09-03T09:00:07.000Z</time>
      </trkpt>
      <trkpt lat="49.38366" lon="1.4781">
        <ele>171.10238647461</ele>
        <time>2017-09-03T09:00:09.000Z</time>
      </trkpt>
      <trkpt lat="49.38357" lon="1.47808">
        <ele>171.38638305664</ele>
        <time>2017-09-03T09:00:12.000Z</time>
      </trkpt>
      <trkpt lat="49.3835" lon="1.47807">
        <ele>171.67831420898</ele>
        <time>2017-09-03T09:00:14.000Z</time>
      </trkpt>
      <trkpt lat="49.38341" lon="1.47807">
        <ele>171.98165893555</ele>
        <time>2017-09-03T09:00:17.000Z</time>
      </trkpt>
      <trkpt lat="49.3834" lon="1.47807">
        <ele>172.24745178223</ele>
        <time>2017-09-03T09:00:20.000Z</time>
      </trkpt>
      <trkpt lat="49.38342" lon="1.47808">
        <ele>172.44638061523</ele>
        <time>2017-09-03T09:00:24.000Z</time>
      </trkpt>
      <trkpt lat="49.3834" lon="1.47807">
        <ele>172.58590698242</ele>
        <time>2017-09-03T09:00:28.000Z</time>
      </trkpt>
      <trkpt lat="49.38336" lon="1.47805">
        <ele>172.71168518066</ele>
        <time>2017-09-03T09:00:31.000Z</time>
      </trkpt>
      <trkpt lat="49.38332" lon="1.47805">
        <ele>172.7946472168</ele>
        <time>2017-09-03T09:00:33.000Z</time>
      </trkpt>
      <trkpt lat="49.38327" lon="1.47806">
        <ele>172.93045043945</ele>
        <time>2017-09-03T09:00:35.000Z</time>
      </trkpt>
      <trkpt lat="49.38321" lon="1.47805">
        <ele>173.1475982666</ele>
        <time>2017-09-03T09:00:38.000Z</time>
      </trkpt>
      <trkpt lat="49.38313" lon="1.47802">
        <ele>173.47329711914</ele>
        <time>2017-09-03T09:00:41.000Z</time>
      </trkpt>
      <trkpt lat="49.38301" lon="1.478">
        <ele>173.8991394043</ele>
        <time>2017-09-03T09:00:44.000Z</time>
      </trkpt>
      <trkpt lat="49.38292" lon="1.47798">
        <ele>174.41621398926</ele>
        <time>2017-09-03T09:00:47.000Z</time>
      </trkpt>
      <trkpt lat="49.38284" lon="1.47796">
        <ele>174.98710632324</ele>
        <time>2017-09-03T09:00:50.000Z</time>
      </trkpt>
      <trkpt lat="49.38275" lon="1.47795">
        <ele>175.61267089844</ele>
        <time>2017-09-03T09:00:53.000Z</time>
      </trkpt>
      <trkpt lat="49.38265" lon="1.47796">
        <ele>176.2239074707</ele>
        <time>2017-09-03T09:00:56.000Z</time>
      </trkpt>
      <trkpt lat="49.38256" lon="1.47796">
        <ele>176.78787231445</ele>
        <time>2017-09-03T09:00:58.000Z</time>
      </trkpt>
      <trkpt lat="49.38248" lon="1.47796">
        <ele>177.32383728027</ele>
        <time>2017-09-03T09:01:00.000Z</time>
      </trkpt>
      <trkpt lat="49.38238" lon="1.47795">
        <ele>177.8860168457</ele>
        <time>2017-09-03T09:01:03.000Z</time>
      </trkpt>
      <trkpt lat="49.38231" lon="1.47795">
        <ele>178.39916992188</ele>
        <time>2017-09-03T09:01:05.000Z</time>
      </trkpt>
      <trkpt lat="49.38221" lon="1.47796">
        <ele>178.90548706055</ele>
        <time>2017-09-03T09:01:08.000Z</time>
      </trkpt>
      <trkpt lat="49.38211" lon="1.47795">
        <ele>179.45401000977</ele>
        <time>2017-09-03T09:01:11.000Z</time>
      </trkpt>
      <trkpt lat="49.38202" lon="1.47792">
        <ele>180.06857299805</ele>
        <time>2017-09-03T09:01:14.000Z</time>
      </trkpt>
      <trkpt lat="49.38192" lon="1.47791">
        <ele>180.67349243164</ele>
        <time>2017-09-03T09:01:17.000Z</time>
      </trkpt>
      <trkpt lat="49.38181" lon="1.47792">
        <ele>181.31541442871</ele>
        <time>2017-09-03T09:01:20.000Z</time>
      </trkpt>
      <trkpt lat="49.38175" lon="1.47792">
        <ele>181.92587280273</ele>
        <time>2017-09-03T09:01:22.000Z</time>
      </trkpt>
      <trkpt lat="49.38165" lon="1.47791">
        <ele>182.51823425293</ele>
        <time>2017-09-03T09:01:25.000Z</time>
      </trkpt>
      <trkpt lat="49.38158" lon="1.47789">
        <ele>182.9739074707</ele>
        <time>2017-09-03T09:01:27.000Z</time>
      </trkpt>
      <trkpt lat="49.38151" lon="1.47786">
        <ele>183.36041259766</ele>
        <time>2017-09-03T09:01:29.000Z</time>
      </trkpt>
      <trkpt lat="49.3814" lon="1.47783">
        <ele>183.68466186523</ele>
        <time>2017-09-03T09:01:32.000Z</time>
      </trkpt>
      <trkpt lat="49.3813" lon="1.47783">
        <ele>183.93920898438</ele>
        <time>2017-09-03T09:01:35.000Z</time>
      </trkpt>
      <trkpt lat="49.38123" lon="1.47783">
        <ele>184.07250976562</ele>
        <time>2017-09-03T09:01:37.000Z</time>
      </trkpt>
      <trkpt lat="49.3811" lon="1.47784">
        <ele>184.1607208252</ele>
        <time>2017-09-03T09:01:40.000Z</time>
      </trkpt>
      <trkpt lat="49.381" lon="1.47786">
        <ele>184.16609191895</ele>
        <time>2017-09-03T09:01:43.000Z</time>
      </trkpt>
      <trkpt lat="49.38089" lon="1.47784">
        <ele>184.14706420898</ele>
        <time>2017-09-03T09:01:46.000Z</time>
      </trkpt>
      <trkpt lat="49.3808" lon="1.47783">
        <ele>184.15121459961</ele>
        <time>2017-09-03T09:01:49.000Z</time>
      </trkpt>
      <trkpt lat="49.3807" lon="1.47782">
        <ele>184.17304992676</ele>
        <time>2017-09-03T09:01:52.000Z</time>
      </trkpt>
      <trkpt lat="49.38062" lon="1.47783">
        <ele>184.18841552734</ele>
        <time>2017-09-03T09:01:54.000Z</time>
      </trkpt>
      <trkpt lat="49.38052" lon="1.47785">
        <ele>184.20370483398</ele>
        <time>2017-09-03T09:01:57.000Z</time>
      </trkpt>
      <trkpt lat="49.38044" lon="1.47784">
        <ele>184.21530151367</ele>
        <time>2017-09-03T09:01:59.000Z</time>
      </trkpt>
      <trkpt lat="49.38032" lon="1.47782">
        <ele>184.21127319336</ele>
        <time>2017-09-03T09:02:02.000Z</time>
      </trkpt>
      <trkpt lat="49.38023" lon="1.47784">
        <ele>184.17875671387</ele>
        <time>2017-09-03T09:02:04.000Z</time>
      </trkpt>
      <trkpt lat="49.3801" lon="1.47787">
        <ele>184.15451049805</ele>
        <time>2017-09-03T09:02:07.000Z</time>
      </trkpt>
      <trkpt lat="49.38002" lon="1.47787">
        <ele>184.15632629395</ele>
        <time>2017-09-03T09:02:09.000Z</time>
      </trkpt>
      <trkpt lat="49.37992" lon="1.47787">
        <ele>184.08407592773</ele>
        <time>2017-09-03T09:02:12.000Z</time>
      </trkpt>
      <trkpt lat="49.37984" lon="1.47786">
        <ele>183.94380187988</ele>
        <time>2017-09-03T09:02:14.000Z</time>
      </trkpt>
      <trkpt lat="49.37972" lon="1.47792">
        <ele>183.70707702637</ele>
        <time>2017-09-03T09:02:17.000Z</time>
      </trkpt>
      <trkpt lat="49.37968" lon="1.47802">
        <ele>183.40591430664</ele>
        <time>2017-09-03T09:02:19.000Z</time>
      </trkpt>
      <trkpt lat="49.37965" lon="1.47813">
        <ele>183.0361328125</ele>
        <time>2017-09-03T09:02:21.000Z</time>
      </trkpt>
      <trkpt lat="49.37964" lon="1.47818">
        <ele>182.68988037109</ele>
        <time>2017-09-03T09:02:24.000Z</time>
      </trkpt>
      <trkpt lat="49.37964" lon="1.47818">
        <ele>182.68988037109</ele>
        <time>2017-09-03T09:02:44.000Z</time>
      </trkpt>
      <trkpt lat="49.37963" lon="1.47823">
        <ele>182.36529541016</ele>
        <time>2017-09-03T09:02:49.000Z</time>
      </trkpt>
      <trkpt lat="49.37964" lon="1.47829">
        <ele>182.13134765625</ele>
        <time>2017-09-03T09:02:52.000Z</time>
      </trkpt>
      <trkpt lat="49.37962" lon="1.47835">
        <ele>181.92971801758</ele>
        <time>2017-09-03T09:02:54.000Z</time>
      </trkpt>
      <trkpt lat="49.3796" lon="1.47843">
        <ele>181.73413085938</ele>
        <time>2017-09-03T09:02:56.000Z</time>
      </trkpt>
      <trkpt lat="49.3796" lon="1.47852">
        <ele>181.52169799805</ele>
        <time>2017-09-03T09:02:58.000Z</time>
      </trkpt>
      <trkpt lat="49.37961" lon="1.47861">
        <ele>181.28846740723</ele>
        <time>2017-09-03T09:03:00.000Z</time>
      </trkpt>
      <trkpt lat="49.3796" lon="1.47877">
        <ele>180.97102355957</ele>
        <time>2017-09-03T09:03:03.000Z</time>
      </trkpt>
      <trkpt lat="49.3796" lon="1.47892">
        <ele>180.61251831055</ele>
        <time>2017-09-03T09:03:06.000Z</time>
      </trkpt>
      <trkpt lat="49.3796" lon="1.479">
        <ele>180.27015686035</ele>
        <time>2017-09-03T09:03:08.000Z</time>
      </trkpt>
      <trkpt lat="49.37961" lon="1.47909">
        <ele>179.92544555664</ele>
        <time>2017-09-03T09:03:11.000Z</time>
      </trkpt>
      <trkpt lat="49.37964" lon="1.47919">
        <ele>179.60160827637</ele>
        <time>2017-09-03T09:03:14.000Z</time>
      </trkpt>
      <trkpt lat="49.37965" lon="1.47926">
        <ele>179.38745117188</ele>
        <time>2017-09-03T09:03:16.000Z</time>
      </trkpt>
      <trkpt lat="49.37964" lon="1.47937">
        <ele>179.2594909668</ele>
        <time>2017-09-03T09:03:19.000Z</time>
      </trkpt>
      <trkpt lat="49.37964" lon="1.47951">
        <ele>179.17362976074</ele>
        <time>2017-09-03T09:03:22.000Z</time>
      </trkpt>
      <trkpt lat="49.37967" lon="1.4797">
        <ele>179.15625</ele>
        <time>2017-09-03T09:03:25.000Z</time>
      </trkpt>
      <trkpt lat="49.37968" lon="1.47979">
        <ele>179.177734375</ele>
        <time>2017-09-03T09:03:27.000Z</time>
      </trkpt>
      <trkpt lat="49.37971" lon="1.47996">
        <ele>179.20703125</ele>
        <time>2017-09-03T09:03:30.000Z</time>
      </trkpt>
      <trkpt lat="49.37973" lon="1.48008">
        <ele>179.21524047852</ele>
        <time>2017-09-03T09:03:32.000Z</time>
      </trkpt>
      <trkpt lat="49.37975" lon="1.48022">
        <ele>179.17826843262</ele>
        <time>2017-09-03T09:03:34.000Z</time>
      </trkpt>
      <trkpt lat="49.37979" lon="1.48039">
        <ele>179.0714263916</ele>
        <time>2017-09-03T09:03:37.000Z</time>
      </trkpt>
      <trkpt lat="49.37987" lon="1.48062">
        <ele>178.88493347168</ele>
        <time>2017-09-03T09:03:40.000Z</time>
      </trkpt>
      <trkpt lat="49.38005" lon="1.48093">
        <ele>178.61227416992</ele>
        <time>2017-09-03T09:03:44.000Z</time>
      </trkpt>
      <trkpt lat="49.38013" lon="1.48115">
        <ele>178.34509277344</ele>
        <time>2017-09-03T09:03:46.000Z</time>
      </trkpt>
      <trkpt lat="49.38016" lon="1.48127">
        <ele>178.11721801758</ele>
        <time>2017-09-03T09:03:48.000Z</time>
      </trkpt>
      <trkpt lat="49.38018" lon="1.48136">
        <ele>177.93774414062</ele>
        <time>2017-09-03T09:03:50.000Z</time>
      </trkpt>
      <trkpt lat="49.38021" lon="1.48155">
        <ele>177.82421875</ele>
        <time>2017-09-03T09:03:53.000Z</time>
      </trkpt>
      <trkpt lat="49.38024" lon="1.48175">
        <ele>177.76248168945</ele>
        <time>2017-09-03T09:03:56.000Z</time>
      </trkpt>
      <trkpt lat="49.38026" lon="1.4819">
        <ele>177.69064331055</ele>
        <time>2017-09-03T09:03:58.000Z</time>
      </trkpt>
      <trkpt lat="49.38028" lon="1.48205">
        <ele>177.60092163086</ele>
        <time>2017-09-03T09:04:00.000Z</time>
      </trkpt>
      <trkpt lat="49.38029" lon="1.48221">
        <ele>177.49089050293</ele>
        <time>2017-09-03T09:04:02.000Z</time>
      </trkpt>
      <trkpt lat="49.38035" lon="1.4824">
        <ele>177.35632324219</ele>
        <time>2017-09-03T09:04:05.000Z</time>
      </trkpt>
      <trkpt lat="49.38037" lon="1.48252">
        <ele>177.22355651855</ele>
        <time>2017-09-03T09:04:07.000Z</time>
      </trkpt>
      <trkpt lat="49.3804" lon="1.48271">
        <ele>177.05039978027</ele>
        <time>2017-09-03T09:04:10.000Z</time>
      </trkpt>
      <trkpt lat="49.38045" lon="1.48292">
        <ele>176.82453918457</ele>
        <time>2017-09-03T09:04:13.000Z</time>
      </trkpt>
      <trkpt lat="49.3805" lon="1.48313">
        <ele>176.53805541992</ele>
        <time>2017-09-03T09:04:16.000Z</time>
      </trkpt>
      <trkpt lat="49.38054" lon="1.48336">
        <ele>176.19650268555</ele>
        <time>2017-09-03T09:04:19.000Z</time>
      </trkpt>
      <trkpt lat="49.38054" lon="1.48356">
        <ele>175.89309692383</ele>
        <time>2017-09-03T09:04:22.000Z</time>
      </trkpt>
      <trkpt lat="49.38052" lon="1.48362">
        <ele>175.6676940918</ele>
        <time>2017-09-03T09:04:24.000Z</time>
      </trkpt>
      <trkpt lat="49.38053" lon="1.4837">
        <ele>175.52827453613</ele>
        <time>2017-09-03T09:04:26.000Z</time>
      </trkpt>
      <trkpt lat="49.38054" lon="1.48384">
        <ele>175.48469543457</ele>
        <time>2017-09-03T09:04:29.000Z</time>
      </trkpt>
      <trkpt lat="49.38056" lon="1.48397">
        <ele>175.52922058105</ele>
        <time>2017-09-03T09:04:31.000Z</time>
      </trkpt>
      <trkpt lat="49.38062" lon="1.48413">
        <ele>175.54049682617</ele>
        <time>2017-09-03T09:04:33.000Z</time>
      </trkpt>
      <trkpt lat="49.38067" lon="1.48436">
        <ele>175.48162841797</ele>
        <time>2017-09-03T09:04:36.000Z</time>
      </trkpt>
      <trkpt lat="49.38073" lon="1.48462">
        <ele>175.33053588867</ele>
        <time>2017-09-03T09:04:39.000Z</time>
      </trkpt>
      <trkpt lat="49.38076" lon="1.48479">
        <ele>175.11137390137</ele>
        <time>2017-09-03T09:04:42.000Z</time>
      </trkpt>
      <trkpt lat="49.38078" lon="1.48491">
        <ele>174.85261535645</ele>
        <time>2017-09-03T09:04:44.000Z</time>
      </trkpt>
      <trkpt lat="49.38085" lon="1.48517">
        <ele>174.58584594727</ele>
        <time>2017-09-03T09:04:47.000Z</time>
      </trkpt>
      <trkpt lat="49.3809" lon="1.48535">
        <ele>174.40107727051</ele>
        <time>2017-09-03T09:04:49.000Z</time>
      </trkpt>
      <trkpt lat="49.38092" lon="1.48556">
        <ele>174.32991027832</ele>
        <time>2017-09-03T09:04:52.000Z</time>
      </trkpt>
      <trkpt lat="49.38091" lon="1.4857">
        <ele>174.35659790039</ele>
        <time>2017-09-03T09:04:55.000Z</time>
      </trkpt>
      <trkpt lat="49.38092" lon="1.48585">
        <ele>174.43659973145</ele>
        <time>2017-09-03T09:04:57.000Z</time>
      </trkpt>
      <trkpt lat="49.38097" lon="1.48609">
        <ele>174.51309204102</ele>
        <time>2017-09-03T09:05:00.000Z</time>
      </trkpt>
      <trkpt lat="49.38099" lon="1.48627">
        <ele>174.56709289551</ele>
        <time>2017-09-03T09:05:02.000Z</time>
      </trkpt>
      <trkpt lat="49.38101" lon="1.4865">
        <ele>174.58715820312</ele>
        <time>2017-09-03T09:05:05.000Z</time>
      </trkpt>
      <trkpt lat="49.38103" lon="1.48668">
        <ele>174.56607055664</ele>
        <time>2017-09-03T09:05:07.000Z</time>
      </trkpt>
      <trkpt lat="49.38107" lon="1.48694">
        <ele>174.48635864258</ele>
        <time>2017-09-03T09:05:10.000Z</time>
      </trkpt>
      <trkpt lat="49.38108" lon="1.48711">
        <ele>174.4118347168</ele>
        <time>2017-09-03T09:05:12.000Z</time>
      </trkpt>
      <trkpt lat="49.38113" lon="1.48732">
        <ele>174.31491088867</ele>
        <time>2017-09-03T09:05:15.000Z</time>
      </trkpt>
      <trkpt lat="49.38118" lon="1.48746">
        <ele>174.21200561523</ele>
        <time>2017-09-03T09:05:17.000Z</time>
      </trkpt>
      <trkpt lat="49.38124" lon="1.48769">
        <ele>174.20260620117</ele>
        <time>2017-09-03T09:05:20.000Z</time>
      </trkpt>
      <trkpt lat="49.38127" lon="1.48789">
        <ele>174.33724975586</ele>
        <time>2017-09-03T09:05:23.000Z</time>
      </trkpt>
      <trkpt lat="49.38129" lon="1.48803">
        <ele>174.56828308105</ele>
        <time>2017-09-03T09:05:25.000Z</time>
      </trkpt>
      <trkpt lat="49.38131" lon="1.48816">
        <ele>174.89883422852</ele>
        <time>2017-09-03T09:05:27.000Z</time>
      </trkpt>
      <trkpt lat="49.38133" lon="1.4883">
        <ele>175.31904602051</ele>
        <time>2017-09-03T09:05:30.000Z</time>
      </trkpt>
      <trkpt lat="49.38135" lon="1.48842">
        <ele>175.7561340332</ele>
        <time>2017-09-03T09:05:32.000Z</time>
      </trkpt>
      <trkpt lat="49.38139" lon="1.48854">
        <ele>176.24197387695</ele>
        <time>2017-09-03T09:05:34.000Z</time>
      </trkpt>
      <trkpt lat="49.38139" lon="1.48871">
        <ele>176.83142089844</ele>
        <time>2017-09-03T09:05:37.000Z</time>
      </trkpt>
      <trkpt lat="49.38136" lon="1.48878">
        <ele>177.40022277832</ele>
        <time>2017-09-03T09:05:40.000Z</time>
      </trkpt>
      <trkpt lat="49.38132" lon="1.48886">
        <ele>177.93298339844</ele>
        <time>2017-09-03T09:05:43.000Z</time>
      </trkpt>
      <trkpt lat="49.38129" lon="1.48893">
        <ele>178.40629577637</ele>
        <time>2017-09-03T09:05:46.000Z</time>
      </trkpt>
      <trkpt lat="49.38126" lon="1.48899">
        <ele>178.76399230957</ele>
        <time>2017-09-03T09:05:48.000Z</time>
      </trkpt>
      <trkpt lat="49.38123" lon="1.48907">
        <ele>178.98944091797</ele>
        <time>2017-09-03T09:05:51.000Z</time>
      </trkpt>
      <trkpt lat="49.38118" lon="1.48911">
        <ele>179.16683959961</ele>
        <time>2017-09-03T09:05:54.000Z</time>
      </trkpt>
      <trkpt lat="49.38115" lon="1.48916">
        <ele>179.30102539062</ele>
        <time>2017-09-03T09:05:56.000Z</time>
      </trkpt>
      <trkpt lat="49.38111" lon="1.48921">
        <ele>179.42929077148</ele>
        <time>2017-09-03T09:05:58.000Z</time>
      </trkpt>
      <trkpt lat="49.3811" lon="1.48925">
        <ele>179.57136535645</ele>
        <time>2017-09-03T09:06:01.000Z</time>
      </trkpt>
      <trkpt lat="49.38109" lon="1.48927">
        <ele>179.69416809082</ele>
        <time>2017-09-03T09:06:17.000Z</time>
      </trkpt>
      <trkpt lat="49.38107" lon="1.4893">
        <ele>179.84725952148</ele>
        <time>2017-09-03T09:06:20.000Z</time>
      </trkpt>
      <trkpt lat="49.38104" lon="1.48934">
        <ele>180.04696655273</ele>
        <time>2017-09-03T09:06:23.000Z</time>
      </trkpt>
      <trkpt lat="49.38102" lon="1.48937">
        <ele>180.23458862305</ele>
        <time>2017-09-03T09:06:25.000Z</time>
      </trkpt>
      <trkpt lat="49.38099" lon="1.4894">
        <ele>180.40841674805</ele>
        <time>2017-09-03T09:06:27.000Z</time>
      </trkpt>
      <trkpt lat="49.38101" lon="1.48945">
        <ele>180.64335632324</ele>
        <time>2017-09-03T09:06:46.000Z</time>
      </trkpt>
      <trkpt lat="49.38101" lon="1.48949">
        <ele>180.90628051758</ele>
        <time>2017-09-03T09:06:48.000Z</time>
      </trkpt>
      <trkpt lat="49.38101" lon="1.48954">
        <ele>181.2025604248</ele>
        <time>2017-09-03T09:06:59.000Z</time>
      </trkpt>
      <trkpt lat="49.38101" lon="1.48956">
        <ele>181.51080322266</ele>
        <time>2017-09-03T09:07:01.000Z</time>
      </trkpt>
      <trkpt lat="49.38101" lon="1.48959">
        <ele>181.83853149414</ele>
        <time>2017-09-03T09:07:03.000Z</time>
      </trkpt>
      <trkpt lat="49.38101" lon="1.48962">
        <ele>182.11840820312</ele>
        <time>2017-09-03T09:07:06.000Z</time>
      </trkpt>
      <trkpt lat="49.38101" lon="1.48962">
        <ele>182.11840820312</ele>
        <time>2017-09-03T09:07:26.000Z</time>
      </trkpt>
      <trkpt lat="49.38099" lon="1.48962">
        <ele>182.32498168945</ele>
        <time>2017-09-03T09:07:28.000Z</time>
      </trkpt>
      <trkpt lat="49.38099" lon="1.48962">
        <ele>182.45205688477</ele>
        <time>2017-09-03T09:07:30.000Z</time>
      </trkpt>
      <trkpt lat="49.38097" lon="1.48961">
        <ele>182.51684570312</ele>
        <time>2017-09-03T09:07:40.000Z</time>
      </trkpt>
      <trkpt lat="49.38097" lon="1.48961">
        <ele>182.51684570312</ele>
        <time>2017-09-03T09:08:00.000Z</time>
      </trkpt>
      <trkpt lat="49.38097" lon="1.48963">
        <ele>182.56665039062</ele>
        <time>2017-09-03T09:08:05.000Z</time>
      </trkpt>
      <trkpt lat="49.38096" lon="1.48968">
        <ele>182.66474914551</ele>
        <time>2017-09-03T09:08:08.000Z</time>
      </trkpt>
      <trkpt lat="49.38095" lon="1.4897">
        <ele>182.79296875</ele>
        <time>2017-09-03T09:08:10.000Z</time>
      </trkpt>
      <trkpt lat="49.3809" lon="1.4897">
        <ele>182.92658996582</ele>
        <time>2017-09-03T09:08:13.000Z</time>
      </trkpt>
      <trkpt lat="49.38085" lon="1.48976">
        <ele>183.16654968262</ele>
        <time>2017-09-03T09:08:16.000Z</time>
      </trkpt>
      <trkpt lat="49.38082" lon="1.4898">
        <ele>183.43734741211</ele>
        <time>2017-09-03T09:08:18.000Z</time>
      </trkpt>
      <trkpt lat="49.38076" lon="1.48987">
        <ele>183.69087219238</ele>
        <time>2017-09-03T09:08:21.000Z</time>
      </trkpt>
      <trkpt lat="49.38073" lon="1.48992">
        <ele>183.98397827148</ele>
        <time>2017-09-03T09:08:23.000Z</time>
      </trkpt>
      <trkpt lat="49.3807" lon="1.48999">
        <ele>184.36381530762</ele>
        <time>2017-09-03T09:08:25.000Z</time>
      </trkpt>
      <trkpt lat="49.38066" lon="1.49012">
        <ele>184.84391784668</ele>
        <time>2017-09-03T09:08:28.000Z</time>
      </trkpt>
      <trkpt lat="49.3806" lon="1.49021">
        <ele>185.34762573242</ele>
        <time>2017-09-03T09:08:30.000Z</time>
      </trkpt>
      <trkpt lat="49.38056" lon="1.49031">
        <ele>185.91076660156</ele>
        <time>2017-09-03T09:08:32.000Z</time>
      </trkpt>
      <trkpt lat="49.3805" lon="1.49049">
        <ele>186.66735839844</ele>
        <time>2017-09-03T09:08:35.000Z</time>
      </trkpt>
      <trkpt lat="49.38047" lon="1.49061">
        <ele>187.51020812988</ele>
        <time>2017-09-03T09:08:37.000Z</time>
      </trkpt>
      <trkpt lat="49.38043" lon="1.4907">
        <ele>188.27928161621</ele>
        <time>2017-09-03T09:08:39.000Z</time>
      </trkpt>
      <trkpt lat="49.38036" lon="1.49087">
        <ele>189.13441467285</ele>
        <time>2017-09-03T09:08:42.000Z</time>
      </trkpt>
      <trkpt lat="49.38031" lon="1.49102">
        <ele>189.92291259766</ele>
        <time>2017-09-03T09:08:44.000Z</time>
      </trkpt>
      <trkpt lat="49.38026" lon="1.49123">
        <ele>190.59284973145</ele>
        <time>2017-09-03T09:08:47.000Z</time>
      </trkpt>
      <trkpt lat="49.38017" lon="1.49141">
        <ele>191.17416381836</ele>
        <time>2017-09-03T09:08:50.000Z</time>
      </trkpt>
      <trkpt lat="49.38013" lon="1.49154">
        <ele>191.74632263184</ele>
        <time>2017-09-03T09:08:52.000Z</time>
      </trkpt>
      <trkpt lat="49.38006" lon="1.49178">
        <ele>192.17190551758</ele>
        <time>2017-09-03T09:08:55.000Z</time>
      </trkpt>
      <trkpt lat="49.37997" lon="1.492">
        <ele>192.37319946289</ele>
        <time>2017-09-03T09:08:58.000Z</time>
      </trkpt>
      <trkpt lat="49.37988" lon="1.49223">
        <ele>192.30651855469</ele>
        <time>2017-09-03T09:09:01.000Z</time>
      </trkpt>
      <trkpt lat="49.3798" lon="1.49253">
        <ele>192.05700683594</ele>
        <time>2017-09-03T09:09:04.000Z</time>
      </trkpt>
      <trkpt lat="49.37975" lon="1.4928">
        <ele>191.7035369873</ele>
        <time>2017-09-03T09:09:06.000Z</time>
      </trkpt>
      <trkpt lat="49.3797" lon="1.49328">
        <ele>191.31872558594</ele>
        <time>2017-09-03T09:09:09.000Z</time>
      </trkpt>
      <trkpt lat="49.37962" lon="1.49354">
        <ele>191.00015258789</ele>
        <time>2017-09-03T09:09:11.000Z</time>
      </trkpt>
      <trkpt lat="49.37955" lon="1.4938">
        <ele>190.67604064941</ele>
        <time>2017-09-03T09:09:13.000Z</time>
      </trkpt>
      <trkpt lat="49.37944" lon="1.49422">
        <ele>190.21315002441</ele>
        <time>2017-09-03T09:09:16.000Z</time>
      </trkpt>
      <trkpt lat="49.37934" lon="1.49458">
        <ele>189.71809387207</ele>
        <time>2017-09-03T09:09:19.000Z</time>
      </trkpt>
      <trkpt lat="49.37931" lon="1.4949">
        <ele>189.21926879883</ele>
        <time>2017-09-03T09:09:21.000Z</time>
      </trkpt>
      <trkpt lat="49.37924" lon="1.49514">
        <ele>188.72506713867</ele>
        <time>2017-09-03T09:09:23.000Z</time>
      </trkpt>
      <trkpt lat="49.37918" lon="1.4954">
        <ele>188.26765441895</ele>
        <time>2017-09-03T09:09:25.000Z</time>
      </trkpt>
      <trkpt lat="49.37908" lon="1.49579">
        <ele>187.89421081543</ele>
        <time>2017-09-03T09:09:28.000Z</time>
      </trkpt>
      <trkpt lat="49.37903" lon="1.49606">
        <ele>187.44128417969</ele>
        <time>2017-09-03T09:09:30.000Z</time>
      </trkpt>
      <trkpt lat="49.37894" lon="1.4965">
        <ele>186.84197998047</ele>
        <time>2017-09-03T09:09:33.000Z</time>
      </trkpt>
      <trkpt lat="49.37887" lon="1.49678">
        <ele>186.22436523438</ele>
        <time>2017-09-03T09:09:35.000Z</time>
      </trkpt>
      <trkpt lat="49.37875" lon="1.4972">
        <ele>185.49118041992</ele>
        <time>2017-09-03T09:09:38.000Z</time>
      </trkpt>
      <trkpt lat="49.37864" lon="1.49761">
        <ele>184.78338623047</ele>
        <time>2017-09-03T09:09:41.000Z</time>
      </trkpt>
      <trkpt lat="49.37857" lon="1.49787">
        <ele>184.2184753418</ele>
        <time>2017-09-03T09:09:43.000Z</time>
      </trkpt>
      <trkpt lat="49.37847" lon="1.49823">
        <ele>183.8525390625</ele>
        <time>2017-09-03T09:09:46.000Z</time>
      </trkpt>
      <trkpt lat="49.37837" lon="1.49857">
        <ele>183.63758850098</ele>
        <time>2017-09-03T09:09:49.000Z</time>
      </trkpt>
      <trkpt lat="49.37825" lon="1.49892">
        <ele>183.58850097656</ele>
        <time>2017-09-03T09:09:52.000Z</time>
      </trkpt>
      <trkpt lat="49.37819" lon="1.49918">
        <ele>183.57638549805</ele>
        <time>2017-09-03T09:09:55.000Z</time>
      </trkpt>
      <trkpt lat="49.37812" lon="1.49939">
        <ele>183.27339172363</ele>
        <time>2017-09-03T09:09:57.000Z</time>
      </trkpt>
      <trkpt lat="49.37807" lon="1.49958">
        <ele>182.68571472168</ele>
        <time>2017-09-03T09:09:59.000Z</time>
      </trkpt>
      <trkpt lat="49.378" lon="1.49991">
        <ele>181.67272949219</ele>
        <time>2017-09-03T09:10:02.000Z</time>
      </trkpt>
      <trkpt lat="49.3779" lon="1.50021">
        <ele>180.30224609375</ele>
        <time>2017-09-03T09:10:05.000Z</time>
      </trkpt>
      <trkpt lat="49.37785" lon="1.50062">
        <ele>178.52056884766</ele>
        <time>2017-09-03T09:10:08.000Z</time>
      </trkpt>
      <trkpt lat="49.37778" lon="1.50082">
        <ele>176.6953125</ele>
        <time>2017-09-03T09:10:10.000Z</time>
      </trkpt>
      <trkpt lat="49.37769" lon="1.50111">
        <ele>174.94009399414</ele>
        <time>2017-09-03T09:10:13.000Z</time>
      </trkpt>
      <trkpt lat="49.3776" lon="1.50147">
        <ele>173.45291137695</ele>
        <time>2017-09-03T09:10:16.000Z</time>
      </trkpt>
      <trkpt lat="49.37754" lon="1.5017">
        <ele>172.29751586914</ele>
        <time>2017-09-03T09:10:18.000Z</time>
      </trkpt>
      <trkpt lat="49.37747" lon="1.50191">
        <ele>171.4333190918</ele>
        <time>2017-09-03T09:10:20.000Z</time>
      </trkpt>
      <trkpt lat="49.37742" lon="1.50214">
        <ele>170.65585327148</ele>
        <time>2017-09-03T09:10:22.000Z</time>
      </trkpt>
      <trkpt lat="49.37734" lon="1.50247">
        <ele>169.73245239258</ele>
        <time>2017-09-03T09:10:25.000Z</time>
      </trkpt>
      <trkpt lat="49.37725" lon="1.50281">
        <ele>168.64254760742</ele>
        <time>2017-09-03T09:10:28.000Z</time>
      </trkpt>
      <trkpt lat="49.37716" lon="1.50315">
        <ele>167.34194946289</ele>
        <time>2017-09-03T09:10:31.000Z</time>
      </trkpt>
      <trkpt lat="49.37709" lon="1.50333">
        <ele>166.05561828613</ele>
        <time>2017-09-03T09:10:33.000Z</time>
      </trkpt>
      <trkpt lat="49.377" lon="1.50363">
        <ele>164.50769042969</ele>
        <time>2017-09-03T09:10:36.000Z</time>
      </trkpt>
      <trkpt lat="49.37693" lon="1.50386">
        <ele>162.91961669922</ele>
        <time>2017-09-03T09:10:38.000Z</time>
      </trkpt>
      <trkpt lat="49.37683" lon="1.50409">
        <ele>161.2219543457</ele>
        <time>2017-09-03T09:10:40.000Z</time>
      </trkpt>
      <trkpt lat="49.37669" lon="1.50448">
        <ele>159.02136230469</ele>
        <time>2017-09-03T09:10:43.000Z</time>
      </trkpt>
      <trkpt lat="49.37661" lon="1.50481">
        <ele>156.35848999023</ele>
        <time>2017-09-03T09:10:45.000Z</time>
      </trkpt>
      <trkpt lat="49.37652" lon="1.50511">
        <ele>153.4873046875</ele>
        <time>2017-09-03T09:10:48.000Z</time>
      </trkpt>
      <trkpt lat="49.37645" lon="1.50547">
        <ele>150.15328979492</ele>
        <time>2017-09-03T09:10:51.000Z</time>
      </trkpt>
      <trkpt lat="49.37637" lon="1.50568">
        <ele>146.7518157959</ele>
        <time>2017-09-03T09:10:54.000Z</time>
      </trkpt>
      <trkpt lat="49.37634" lon="1.50576">
        <ele>143.95602416992</ele>
        <time>2017-09-03T09:10:57.000Z</time>
      </trkpt>
      <trkpt lat="49.37631" lon="1.50601">
        <ele>141.21577453613</ele>
        <time>2017-09-03T09:11:00.000Z</time>
      </trkpt>
      <trkpt lat="49.37624" lon="1.50614">
        <ele>138.78312683105</ele>
        <time>2017-09-03T09:11:02.000Z</time>
      </trkpt>
      <trkpt lat="49.37613" lon="1.50643">
        <ele>136.31510925293</ele>
        <time>2017-09-03T09:11:05.000Z</time>
      </trkpt>
      <trkpt lat="49.376" lon="1.50679">
        <ele>133.14430236816</ele>
        <time>2017-09-03T09:11:08.000Z</time>
      </trkpt>
      <trkpt lat="49.3759" lon="1.50714">
        <ele>128.89791870117</ele>
        <time>2017-09-03T09:11:11.000Z</time>
      </trkpt>
      <trkpt lat="49.37583" lon="1.50733">
        <ele>124.54455566406</ele>
        <time>2017-09-03T09:11:13.000Z</time>
      </trkpt>
      <trkpt lat="49.37579" lon="1.50762">
        <ele>119.85968017578</ele>
        <time>2017-09-03T09:11:16.000Z</time>
      </trkpt>
      <trkpt lat="49.37578" lon="1.50789">
        <ele>115.77117919922</ele>
        <time>2017-09-03T09:11:19.000Z</time>
      </trkpt>
      <trkpt lat="49.37581" lon="1.50807">
        <ele>112.6923828125</ele>
        <time>2017-09-03T09:11:22.000Z</time>
      </trkpt>
      <trkpt lat="49.37579" lon="1.50813">
        <ele>110.80069732666</ele>
        <time>2017-09-03T09:11:24.000Z</time>
      </trkpt>
      <trkpt lat="49.37575" lon="1.50823">
        <ele>109.50327301025</ele>
        <time>2017-09-03T09:11:27.000Z</time>
      </trkpt>
      <trkpt lat="49.37574" lon="1.50831">
        <ele>108.83283996582</ele>
        <time>2017-09-03T09:11:30.000Z</time>
      </trkpt>
      <trkpt lat="49.37572" lon="1.50836">
        <ele>108.43682861328</ele>
        <time>2017-09-03T09:11:32.000Z</time>
      </trkpt>
      <trkpt lat="49.37571" lon="1.50844">
        <ele>108.36676025391</ele>
        <time>2017-09-03T09:11:35.000Z</time>
      </trkpt>
      <trkpt lat="49.37571" lon="1.50852">
        <ele>108.54368591309</ele>
        <time>2017-09-03T09:11:37.000Z</time>
      </trkpt>
      <trkpt lat="49.37573" lon="1.50856">
        <ele>108.91203308105</ele>
        <time>2017-09-03T09:11:40.000Z</time>
      </trkpt>
      <trkpt lat="49.37573" lon="1.50857">
        <ele>109.39570617676</ele>
        <time>2017-09-03T09:11:44.000Z</time>
      </trkpt>
      <trkpt lat="49.37575" lon="1.50861">
        <ele>109.94850921631</ele>
        <time>2017-09-03T09:11:47.000Z</time>
      </trkpt>
      <trkpt lat="49.37576" lon="1.50864">
        <ele>110.40447998047</ele>
        <time>2017-09-03T09:11:49.000Z</time>
      </trkpt>
      <trkpt lat="49.37577" lon="1.50868">
        <ele>110.76387023926</ele>
        <time>2017-09-03T09:11:52.000Z</time>
      </trkpt>
      <trkpt lat="49.37577" lon="1.50868">
        <ele>110.76387023926</ele>
        <time>2017-09-03T09:12:12.000Z</time>
      </trkpt>
      <trkpt lat="49.37578" lon="1.50869">
        <ele>111.07060241699</ele>
        <time>2017-09-03T09:13:09.000Z</time>
      </trkpt>
      <trkpt lat="49.37578" lon="1.50869">
        <ele>111.07060241699</ele>
        <time>2017-09-03T09:13:29.000Z</time>
      </trkpt>
      <trkpt lat="49.37578" lon="1.50871">
        <ele>111.38301849365</ele>
        <time>2017-09-03T09:13:36.000Z</time>
      </trkpt>
      <trkpt lat="49.37578" lon="1.50871">
        <ele>111.38301849365</ele>
        <time>2017-09-03T09:13:56.000Z</time>
      </trkpt>
      <trkpt lat="49.37579" lon="1.5087">
        <ele>111.59671783447</ele>
        <time>2017-09-03T09:16:31.000Z</time>
      </trkpt>
      <trkpt lat="49.3758" lon="1.5087">
        <ele>111.75156402588</ele>
        <time>2017-09-03T09:16:44.000Z</time>
      </trkpt>
      <trkpt lat="49.37579" lon="1.50869">
        <ele>111.80155944824</ele>
        <time>2017-09-03T09:17:04.000Z</time>
      </trkpt>
      <trkpt lat="49.37579" lon="1.50868">
        <ele>111.7928237915</ele>
        <time>2017-09-03T09:17:07.000Z</time>
      </trkpt>
      <trkpt lat="49.3758" lon="1.5087">
        <ele>111.80024719238</ele>
        <time>2017-09-03T09:17:17.000Z</time>
      </trkpt>
      <trkpt lat="49.3758" lon="1.5087">
        <ele>111.80024719238</ele>
        <time>2017-09-03T09:17:37.000Z</time>
      </trkpt>
      <trkpt lat="49.3758" lon="1.50868">
        <ele>111.77767181396</ele>
        <time>2017-09-03T09:18:15.000Z</time>
      </trkpt>
      <trkpt lat="49.3758" lon="1.50868">
        <ele>111.77767181396</ele>
        <time>2017-09-03T09:18:35.000Z</time>
      </trkpt>
      <trkpt lat="49.37579" lon="1.50868">
        <ele>111.71224212646</ele>
        <time>2017-09-03T09:18:42.000Z</time>
      </trkpt>
      <trkpt lat="49.37578" lon="1.50867">
        <ele>111.65811920166</ele>
        <time>2017-09-03T09:18:45.000Z</time>
      </trkpt>
      <trkpt lat="49.37577" lon="1.50868">
        <ele>111.64605712891</ele>
        <time>2017-09-03T09:18:48.000Z</time>
      </trkpt>
      <trkpt lat="49.37577" lon="1.50868">
        <ele>111.64605712891</ele>
        <time>2017-09-03T09:19:08.000Z</time>
      </trkpt>
      <trkpt lat="49.37577" lon="1.50866">
        <ele>111.54209899902</ele>
        <time>2017-09-03T09:19:26.000Z</time>
      </trkpt>
      <trkpt lat="49.37579" lon="1.50867">
        <ele>111.49796295166</ele>
        <time>2017-09-03T09:19:38.000Z</time>
      </trkpt>
      <trkpt lat="49.3758" lon="1.50867">
        <ele>111.48529052734</ele>
        <time>2017-09-03T09:19:40.000Z</time>
      </trkpt>
      <trkpt lat="49.3758" lon="1.50868">
        <ele>111.51963043213</ele>
        <time>2017-09-03T09:19:43.000Z</time>
      </trkpt>
      <trkpt lat="49.37579" lon="1.50867">
        <ele>111.50846862793</ele>
        <time>2017-09-03T09:19:51.000Z</time>
      </trkpt>
      <trkpt lat="49.37581" lon="1.50869">
        <ele>111.58360290527</ele>
        <time>2017-09-03T09:19:54.000Z</time>
      </trkpt>
      <trkpt lat="49.37583" lon="1.50871">
        <ele>111.69050598145</ele>
        <time>2017-09-03T09:20:02.000Z</time>
      </trkpt>
      <trkpt lat="49.37583" lon="1.50871">
        <ele>111.69050598145</ele>
        <time>2017-09-03T09:20:22.000Z</time>
      </trkpt>
      <trkpt lat="49.37582" lon="1.50872">
        <ele>111.81758117676</ele>
        <time>2017-09-03T09:20:28.000Z</time>
      </trkpt>
      <trkpt lat="49.37582" lon="1.50874">
        <ele>111.95399475098</ele>
        <time>2017-09-03T09:20:30.000Z</time>
      </trkpt>
      <trkpt lat="49.3758" lon="1.50874">
        <ele>112.11289978027</ele>
        <time>2017-09-03T09:20:34.000Z</time>
      </trkpt>
      <trkpt lat="49.37579" lon="1.50873">
        <ele>112.19413757324</ele>
        <time>2017-09-03T09:20:37.000Z</time>
      </trkpt>
      <trkpt lat="49.37579" lon="1.50871">
        <ele>112.18334960938</ele>
        <time>2017-09-03T09:20:45.000Z</time>
      </trkpt>
      <trkpt lat="49.37574" lon="1.50876">
        <ele>112.21142578125</ele>
        <time>2017-09-03T09:20:48.000Z</time>
      </trkpt>
      <trkpt lat="49.37572" lon="1.50881">
        <ele>112.30507659912</ele>
        <time>2017-09-03T09:20:50.000Z</time>
      </trkpt>
      <trkpt lat="49.3757" lon="1.50887">
        <ele>112.53031921387</ele>
        <time>2017-09-03T09:20:52.000Z</time>
      </trkpt>
      <trkpt lat="49.37566" lon="1.50899">
        <ele>113.00434875488</ele>
        <time>2017-09-03T09:20:55.000Z</time>
      </trkpt>
      <trkpt lat="49.37564" lon="1.50907">
        <ele>113.6686630249</ele>
        <time>2017-09-03T09:20:57.000Z</time>
      </trkpt>
      <trkpt lat="49.37561" lon="1.50916">
        <ele>114.44250488281</ele>
        <time>2017-09-03T09:21:00.000Z</time>
      </trkpt>
      <trkpt lat="49.37559" lon="1.50926">
        <ele>115.25144195557</ele>
        <time>2017-09-03T09:21:02.000Z</time>
      </trkpt>
      <trkpt lat="49.37553" lon="1.50941">
        <ele>116.15223693848</ele>
        <time>2017-09-03T09:21:05.000Z</time>
      </trkpt>
      <trkpt lat="49.37549" lon="1.50954">
        <ele>117.02655029297</ele>
        <time>2017-09-03T09:21:08.000Z</time>
      </trkpt>
      <trkpt lat="49.37549" lon="1.50962">
        <ele>117.88468933105</ele>
        <time>2017-09-03T09:21:11.000Z</time>
      </trkpt>
      <trkpt lat="49.37549" lon="1.50965">
        <ele>118.61346435547</ele>
        <time>2017-09-03T09:21:13.000Z</time>
      </trkpt>
      <trkpt lat="49.37547" lon="1.50966">
        <ele>119.2099609375</ele>
        <time>2017-09-03T09:21:15.000Z</time>
      </trkpt>
      <trkpt lat="49.37545" lon="1.50971">
        <ele>119.66027832031</ele>
        <time>2017-09-03T09:21:18.000Z</time>
      </trkpt>
      <trkpt lat="49.37542" lon="1.50976">
        <ele>119.97161865234</ele>
        <time>2017-09-03T09:21:20.000Z</time>
      </trkpt>
      <trkpt lat="49.37537" lon="1.50984">
        <ele>120.26263427734</ele>
        <time>2017-09-03T09:21:23.000Z</time>
      </trkpt>
      <trkpt lat="49.37532" lon="1.50994">
        <ele>120.64105224609</ele>
        <time>2017-09-03T09:21:26.000Z</time>
      </trkpt>
      <trkpt lat="49.37529" lon="1.51001">
        <ele>121.09338378906</ele>
        <time>2017-09-03T09:21:28.000Z</time>
      </trkpt>
      <trkpt lat="49.37526" lon="1.51011">
        <ele>121.59794616699</ele>
        <time>2017-09-03T09:21:31.000Z</time>
      </trkpt>
      <trkpt lat="49.37526" lon="1.5102">
        <ele>122.15943908691</ele>
        <time>2017-09-03T09:21:34.000Z</time>
      </trkpt>
      <trkpt lat="49.37523" lon="1.51028">
        <ele>122.67921447754</ele>
        <time>2017-09-03T09:21:37.000Z</time>
      </trkpt>
      <trkpt lat="49.37521" lon="1.51033">
        <ele>123.10618591309</ele>
        <time>2017-09-03T09:21:40.000Z</time>
      </trkpt>
      <trkpt lat="49.37517" lon="1.51037">
        <ele>123.4546661377</ele>
        <time>2017-09-03T09:21:43.000Z</time>
      </trkpt>
      <trkpt lat="49.37514" lon="1.51044">
        <ele>123.72961425781</ele>
        <time>2017-09-03T09:21:46.000Z</time>
      </trkpt>
      <trkpt lat="49.37512" lon="1.51048">
        <ele>123.901222229</ele>
        <time>2017-09-03T09:21:48.000Z</time>
      </trkpt>
      <trkpt lat="49.37509" lon="1.51055">
        <ele>124.0361328125</ele>
        <time>2017-09-03T09:21:51.000Z</time>
      </trkpt>
      <trkpt lat="49.37508" lon="1.51062">
        <ele>124.1915512085</ele>
        <time>2017-09-03T09:21:54.000Z</time>
      </trkpt>
      <trkpt lat="49.37505" lon="1.51069">
        <ele>124.36047363281</ele>
        <time>2017-09-03T09:21:57.000Z</time>
      </trkpt>
      <trkpt lat="49.37501" lon="1.51074">
        <ele>124.4750213623</ele>
        <time>2017-09-03T09:21:59.000Z</time>
      </trkpt>
      <trkpt lat="49.37494" lon="1.51079">
        <ele>124.91306304932</ele>
        <time>2017-09-03T09:22:02.000Z</time>
      </trkpt>
      <trkpt lat="49.37487" lon="1.51087">
        <ele>125.80827331543</ele>
        <time>2017-09-03T09:22:05.000Z</time>
      </trkpt>
      <trkpt lat="49.37483" lon="1.51091">
        <ele>126.88932037354</ele>
        <time>2017-09-03T09:22:07.000Z</time>
      </trkpt>
      <trkpt lat="49.3748" lon="1.511">
        <ele>128.20239257812</ele>
        <time>2017-09-03T09:22:10.000Z</time>
      </trkpt>
      <trkpt lat="49.37478" lon="1.51105">
        <ele>129.67260742188</ele>
        <time>2017-09-03T09:22:12.000Z</time>
      </trkpt>
      <trkpt lat="49.37474" lon="1.51114">
        <ele>131.14096069336</ele>
        <time>2017-09-03T09:22:15.000Z</time>
      </trkpt>
      <trkpt lat="49.37471" lon="1.51119">
        <ele>132.25346374512</ele>
        <time>2017-09-03T09:22:17.000Z</time>
      </trkpt>
      <trkpt lat="49.37469" lon="1.51125">
        <ele>133.30448913574</ele>
        <time>2017-09-03T09:22:20.000Z</time>
      </trkpt>
      <trkpt lat="49.37466" lon="1.51131">
        <ele>134.24702453613</ele>
        <time>2017-09-03T09:22:23.000Z</time>
      </trkpt>
      <trkpt lat="49.37463" lon="1.51136">
        <ele>135.23361206055</ele>
        <time>2017-09-03T09:22:25.000Z</time>
      </trkpt>
      <trkpt lat="49.3746" lon="1.51141">
        <ele>136.04890441895</ele>
        <time>2017-09-03T09:22:27.000Z</time>
      </trkpt>
      <trkpt lat="49.37455" lon="1.51149">
        <ele>136.97166442871</ele>
        <time>2017-09-03T09:22:30.000Z</time>
      </trkpt>
      <trkpt lat="49.37453" lon="1.51155">
        <ele>137.81625366211</ele>
        <time>2017-09-03T09:22:32.000Z</time>
      </trkpt>
      <trkpt lat="49.37454" lon="1.51163">
        <ele>138.54423522949</ele>
        <time>2017-09-03T09:22:35.000Z</time>
      </trkpt>
      <trkpt lat="49.37455" lon="1.51168">
        <ele>139.10653686523</ele>
        <time>2017-09-03T09:22:37.000Z</time>
      </trkpt>
      <trkpt lat="49.37451" lon="1.51174">
        <ele>139.67498779297</ele>
        <time>2017-09-03T09:22:40.000Z</time>
      </trkpt>
      <trkpt lat="49.3745" lon="1.51179">
        <ele>140.06588745117</ele>
        <time>2017-09-03T09:22:42.000Z</time>
      </trkpt>
      <trkpt lat="49.3745" lon="1.51184">
        <ele>140.39419555664</ele>
        <time>2017-09-03T09:22:44.000Z</time>
      </trkpt>
      <trkpt lat="49.37448" lon="1.51189">
        <ele>140.80973815918</ele>
        <time>2017-09-03T09:22:47.000Z</time>
      </trkpt>
      <trkpt lat="49.37445" lon="1.51193">
        <ele>141.31294250488</ele>
        <time>2017-09-03T09:22:49.000Z</time>
      </trkpt>
      <trkpt lat="49.3744" lon="1.512">
        <ele>141.80197143555</ele>
        <time>2017-09-03T09:22:52.000Z</time>
      </trkpt>
      <trkpt lat="49.37436" lon="1.51207">
        <ele>142.3522644043</ele>
        <time>2017-09-03T09:22:55.000Z</time>
      </trkpt>
      <trkpt lat="49.37434" lon="1.51213">
        <ele>142.90617370605</ele>
        <time>2017-09-03T09:22:57.000Z</time>
      </trkpt>
      <trkpt lat="49.37432" lon="1.51222">
        <ele>143.41189575195</ele>
        <time>2017-09-03T09:23:00.000Z</time>
      </trkpt>
      <trkpt lat="49.37429" lon="1.51229">
        <ele>143.85968017578</ele>
        <time>2017-09-03T09:23:02.000Z</time>
      </trkpt>
      <trkpt lat="49.37427" lon="1.51238">
        <ele>144.19644165039</ele>
        <time>2017-09-03T09:23:05.000Z</time>
      </trkpt>
      <trkpt lat="49.37426" lon="1.51243">
        <ele>144.41848754883</ele>
        <time>2017-09-03T09:23:07.000Z</time>
      </trkpt>
      <trkpt lat="49.37424" lon="1.5125">
        <ele>144.60263061523</ele>
        <time>2017-09-03T09:23:10.000Z</time>
      </trkpt>
      <trkpt lat="49.37416" lon="1.51259">
        <ele>144.84408569336</ele>
        <time>2017-09-03T09:23:13.000Z</time>
      </trkpt>
      <trkpt lat="49.37411" lon="1.51263">
        <ele>145.2067565918</ele>
        <time>2017-09-03T09:23:15.000Z</time>
      </trkpt>
      <trkpt lat="49.37407" lon="1.51268">
        <ele>145.69454956055</ele>
        <time>2017-09-03T09:23:17.000Z</time>
      </trkpt>
      <trkpt lat="49.37401" lon="1.51274">
        <ele>146.33248901367</ele>
        <time>2017-09-03T09:23:19.000Z</time>
      </trkpt>
      <trkpt lat="49.37395" lon="1.51282">
        <ele>147.138671875</ele>
        <time>2017-09-03T09:23:22.000Z</time>
      </trkpt>
      <trkpt lat="49.37392" lon="1.51287">
        <ele>147.8948059082</ele>
        <time>2017-09-03T09:23:24.000Z</time>
      </trkpt>
      <trkpt lat="49.37387" lon="1.51294">
        <ele>148.60971069336</ele>
        <time>2017-09-03T09:23:27.000Z</time>
      </trkpt>
      <trkpt lat="49.37381" lon="1.51299">
        <ele>149.27424621582</ele>
        <time>2017-09-03T09:23:30.000Z</time>
      </trkpt>
      <trkpt lat="49.37374" lon="1.51304">
        <ele>149.88882446289</ele>
        <time>2017-09-03T09:23:33.000Z</time>
      </trkpt>
      <trkpt lat="49.37371" lon="1.51306">
        <ele>150.38020324707</ele>
        <time>2017-09-03T09:23:35.000Z</time>
      </trkpt>
      <trkpt lat="49.37367" lon="1.5131">
        <ele>150.85206604004</ele>
        <time>2017-09-03T09:23:38.000Z</time>
      </trkpt>
      <trkpt lat="49.37362" lon="1.51314">
        <ele>151.25744628906</ele>
        <time>2017-09-03T09:23:41.000Z</time>
      </trkpt>
      <trkpt lat="49.3736" lon="1.51315">
        <ele>151.57797241211</ele>
        <time>2017-09-03T09:23:43.000Z</time>
      </trkpt>
      <trkpt lat="49.37355" lon="1.51318">
        <ele>151.83395385742</ele>
        <time>2017-09-03T09:23:45.000Z</time>
      </trkpt>
      <trkpt lat="49.3735" lon="1.51321">
        <ele>152.07611083984</ele>
        <time>2017-09-03T09:23:48.000Z</time>
      </trkpt>
      <trkpt lat="49.3735" lon="1.51325">
        <ele>152.25282287598</ele>
        <time>2017-09-03T09:23:51.000Z</time>
      </trkpt>
      <trkpt lat="49.37349" lon="1.51327">
        <ele>152.3503112793</ele>
        <time>2017-09-03T09:23:53.000Z</time>
      </trkpt>
      <trkpt lat="49.37345" lon="1.51333">
        <ele>152.42922973633</ele>
        <time>2017-09-03T09:23:56.000Z</time>
      </trkpt>
      <trkpt lat="49.37336" lon="1.51336">
        <ele>152.57022094727</ele>
        <time>2017-09-03T09:23:59.000Z</time>
      </trkpt>
      <trkpt lat="49.37331" lon="1.51338">
        <ele>152.72462463379</ele>
        <time>2017-09-03T09:24:01.000Z</time>
      </trkpt>
      <trkpt lat="49.37328" lon="1.51339">
        <ele>152.92919921875</ele>
        <time>2017-09-03T09:24:03.000Z</time>
      </trkpt>
      <trkpt lat="49.37325" lon="1.51343">
        <ele>153.19578552246</ele>
        <time>2017-09-03T09:24:06.000Z</time>
      </trkpt>
      <trkpt lat="49.37321" lon="1.51348">
        <ele>153.50534057617</ele>
        <time>2017-09-03T09:24:09.000Z</time>
      </trkpt>
      <trkpt lat="49.3732" lon="1.51351">
        <ele>153.73397827148</ele>
        <time>2017-09-03T09:24:11.000Z</time>
      </trkpt>
      <trkpt lat="49.3732" lon="1.51356">
        <ele>153.94151306152</ele>
        <time>2017-09-03T09:24:14.000Z</time>
      </trkpt>
      <trkpt lat="49.3732" lon="1.51361">
        <ele>154.15209960938</ele>
        <time>2017-09-03T09:24:17.000Z</time>
      </trkpt>
      <trkpt lat="49.37318" lon="1.51366">
        <ele>154.35406494141</ele>
        <time>2017-09-03T09:24:20.000Z</time>
      </trkpt>
      <trkpt lat="49.37318" lon="1.51371">
        <ele>154.54429626465</ele>
        <time>2017-09-03T09:24:23.000Z</time>
      </trkpt>
      <trkpt lat="49.37318" lon="1.51375">
        <ele>154.73483276367</ele>
        <time>2017-09-03T09:24:25.000Z</time>
      </trkpt>
      <trkpt lat="49.37319" lon="1.5138">
        <ele>154.92430114746</ele>
        <time>2017-09-03T09:24:28.000Z</time>
      </trkpt>
      <trkpt lat="49.37319" lon="1.51384">
        <ele>155.1018371582</ele>
        <time>2017-09-03T09:24:30.000Z</time>
      </trkpt>
      <trkpt lat="49.3732" lon="1.51388">
        <ele>155.26748657227</ele>
        <time>2017-09-03T09:24:32.000Z</time>
      </trkpt>
      <trkpt lat="49.37321" lon="1.51396">
        <ele>155.45497131348</ele>
        <time>2017-09-03T09:24:35.000Z</time>
      </trkpt>
      <trkpt lat="49.37324" lon="1.51402">
        <ele>155.66854858398</ele>
        <time>2017-09-03T09:24:38.000Z</time>
      </trkpt>
      <trkpt lat="49.37325" lon="1.51407">
        <ele>155.88749694824</ele>
        <time>2017-09-03T09:24:41.000Z</time>
      </trkpt>
      <trkpt lat="49.37328" lon="1.51413">
        <ele>156.14595031738</ele>
        <time>2017-09-03T09:24:44.000Z</time>
      </trkpt>
      <trkpt lat="49.37329" lon="1.51418">
        <ele>156.43663024902</ele>
        <time>2017-09-03T09:24:47.000Z</time>
      </trkpt>
      <trkpt lat="49.3733" lon="1.51425">
        <ele>156.76571655273</ele>
        <time>2017-09-03T09:24:50.000Z</time>
      </trkpt>
      <trkpt lat="49.3733" lon="1.51431">
        <ele>157.1178894043</ele>
        <time>2017-09-03T09:24:53.000Z</time>
      </trkpt>
      <trkpt lat="49.3733" lon="1.51435">
        <ele>157.48965454102</ele>
        <time>2017-09-03T09:24:55.000Z</time>
      </trkpt>
      <trkpt lat="49.3733" lon="1.51437">
        <ele>157.83428955078</ele>
        <time>2017-09-03T09:24:57.000Z</time>
      </trkpt>
      <trkpt lat="49.37331" lon="1.51441">
        <ele>158.16580200195</ele>
        <time>2017-09-03T09:24:59.000Z</time>
      </trkpt>
      <trkpt lat="49.37333" lon="1.51445">
        <ele>158.45907592773</ele>
        <time>2017-09-03T09:25:02.000Z</time>
      </trkpt>
      <trkpt lat="49.37334" lon="1.5145">
        <ele>158.75183105469</ele>
        <time>2017-09-03T09:25:05.000Z</time>
      </trkpt>
      <trkpt lat="49.37333" lon="1.51453">
        <ele>159.03073120117</ele>
        <time>2017-09-03T09:25:08.000Z</time>
      </trkpt>
      <trkpt lat="49.37332" lon="1.51456">
        <ele>159.31022644043</ele>
        <time>2017-09-03T09:25:10.000Z</time>
      </trkpt>
      <trkpt lat="49.37332" lon="1.5146">
        <ele>159.59762573242</ele>
        <time>2017-09-03T09:25:13.000Z</time>
      </trkpt>
      <trkpt lat="49.37333" lon="1.51464">
        <ele>159.86968994141</ele>
        <time>2017-09-03T09:25:15.000Z</time>
      </trkpt>
      <trkpt lat="49.37335" lon="1.5147">
        <ele>160.16914367676</ele>
        <time>2017-09-03T09:25:18.000Z</time>
      </trkpt>
      <trkpt lat="49.37338" lon="1.51476">
        <ele>160.53591918945</ele>
        <time>2017-09-03T09:25:21.000Z</time>
      </trkpt>
      <trkpt lat="49.37341" lon="1.51481">
        <ele>160.97459411621</ele>
        <time>2017-09-03T09:25:24.000Z</time>
      </trkpt>
      <trkpt lat="49.37344" lon="1.51485">
        <ele>161.43106079102</ele>
        <time>2017-09-03T09:25:27.000Z</time>
      </trkpt>
      <trkpt lat="49.37346" lon="1.5149">
        <ele>161.93005371094</ele>
        <time>2017-09-03T09:25:30.000Z</time>
      </trkpt>
      <trkpt lat="49.37346" lon="1.51492">
        <ele>162.35180664062</ele>
        <time>2017-09-03T09:25:32.000Z</time>
      </trkpt>
      <trkpt lat="49.37345" lon="1.51495">
        <ele>162.69372558594</ele>
        <time>2017-09-03T09:25:35.000Z</time>
      </trkpt>
      <trkpt lat="49.37346" lon="1.51499">
        <ele>162.98883056641</ele>
        <time>2017-09-03T09:25:38.000Z</time>
      </trkpt>
      <trkpt lat="49.37348" lon="1.51502">
        <ele>163.26162719727</ele>
        <time>2017-09-03T09:25:41.000Z</time>
      </trkpt>
      <trkpt lat="49.37349" lon="1.51505">
        <ele>163.46766662598</ele>
        <time>2017-09-03T09:25:43.000Z</time>
      </trkpt>
      <trkpt lat="49.3735" lon="1.51509">
        <ele>163.67959594727</ele>
        <time>2017-09-03T09:25:46.000Z</time>
      </trkpt>
      <trkpt lat="49.37349" lon="1.51512">
        <ele>163.86796569824</ele>
        <time>2017-09-03T09:25:48.000Z</time>
      </trkpt>
      <trkpt lat="49.37349" lon="1.51516">
        <ele>164.0143737793</ele>
        <time>2017-09-03T09:25:51.000Z</time>
      </trkpt>
      <trkpt lat="49.37348" lon="1.51518">
        <ele>164.10995483398</ele>
        <time>2017-09-03T09:25:53.000Z</time>
      </trkpt>
      <trkpt lat="49.37347" lon="1.51521">
        <ele>164.19108581543</ele>
        <time>2017-09-03T09:25:56.000Z</time>
      </trkpt>
      <trkpt lat="49.37349" lon="1.51527">
        <ele>164.28884887695</ele>
        <time>2017-09-03T09:25:59.000Z</time>
      </trkpt>
      <trkpt lat="49.37351" lon="1.51532">
        <ele>164.41242980957</ele>
        <time>2017-09-03T09:26:01.000Z</time>
      </trkpt>
      <trkpt lat="49.37352" lon="1.51539">
        <ele>164.56396484375</ele>
        <time>2017-09-03T09:26:04.000Z</time>
      </trkpt>
      <trkpt lat="49.37354" lon="1.51543">
        <ele>164.74922180176</ele>
        <time>2017-09-03T09:26:06.000Z</time>
      </trkpt>
      <trkpt lat="49.37355" lon="1.5155">
        <ele>164.96260070801</ele>
        <time>2017-09-03T09:26:09.000Z</time>
      </trkpt>
      <trkpt lat="49.37354" lon="1.51555">
        <ele>165.14970397949</ele>
        <time>2017-09-03T09:26:12.000Z</time>
      </trkpt>
      <trkpt lat="49.37356" lon="1.51562">
        <ele>165.34474182129</ele>
        <time>2017-09-03T09:26:14.000Z</time>
      </trkpt>
      <trkpt lat="49.37358" lon="1.51568">
        <ele>165.52976989746</ele>
        <time>2017-09-03T09:26:16.000Z</time>
      </trkpt>
      <trkpt lat="49.37361" lon="1.51573">
        <ele>165.71481323242</ele>
        <time>2017-09-03T09:26:19.000Z</time>
      </trkpt>
      <trkpt lat="49.37365" lon="1.51579">
        <ele>165.89869689941</ele>
        <time>2017-09-03T09:26:22.000Z</time>
      </trkpt>
      <trkpt lat="49.37366" lon="1.51583">
        <ele>166.07748413086</ele>
        <time>2017-09-03T09:26:24.000Z</time>
      </trkpt>
      <trkpt lat="49.37369" lon="1.51586">
        <ele>166.23202514648</ele>
        <time>2017-09-03T09:26:26.000Z</time>
      </trkpt>
      <trkpt lat="49.37372" lon="1.51587">
        <ele>166.35568237305</ele>
        <time>2017-09-03T09:26:29.000Z</time>
      </trkpt>
      <trkpt lat="49.37373" lon="1.51585">
        <ele>166.43916320801</ele>
        <time>2017-09-03T09:26:31.000Z</time>
      </trkpt>
      <trkpt lat="49.37373" lon="1.51583">
        <ele>166.47819519043</ele>
        <time>2017-09-03T09:26:33.000Z</time>
      </trkpt>
      <trkpt lat="49.37374" lon="1.51577">
        <ele>166.4765625</ele>
        <time>2017-09-03T09:26:36.000Z</time>
      </trkpt>
      <trkpt lat="49.37372" lon="1.51575">
        <ele>166.43920898438</ele>
        <time>2017-09-03T09:26:38.000Z</time>
      </trkpt>
      <trkpt lat="49.37369" lon="1.51576">
        <ele>166.38679504395</ele>
        <time>2017-09-03T09:26:40.000Z</time>
      </trkpt>
      <trkpt lat="49.37365" lon="1.51583">
        <ele>166.35702514648</ele>
        <time>2017-09-03T09:26:43.000Z</time>
      </trkpt>
      <trkpt lat="49.37363" lon="1.51589">
        <ele>166.35531616211</ele>
        <time>2017-09-03T09:26:46.000Z</time>
      </trkpt>
      <trkpt lat="49.37361" lon="1.51596">
        <ele>166.39743041992</ele>
        <time>2017-09-03T09:26:49.000Z</time>
      </trkpt>
      <trkpt lat="49.37359" lon="1.51599">
        <ele>166.46466064453</ele>
        <time>2017-09-03T09:26:51.000Z</time>
      </trkpt>
      <trkpt lat="49.37355" lon="1.51603">
        <ele>166.54606628418</ele>
        <time>2017-09-03T09:26:54.000Z</time>
      </trkpt>
      <trkpt lat="49.37353" lon="1.51604">
        <ele>166.60882568359</ele>
        <time>2017-09-03T09:26:56.000Z</time>
      </trkpt>
      <trkpt lat="49.3735" lon="1.51606">
        <ele>166.65310668945</ele>
        <time>2017-09-03T09:26:58.000Z</time>
      </trkpt>
      <trkpt lat="49.37346" lon="1.51607">
        <ele>166.67092895508</ele>
        <time>2017-09-03T09:27:01.000Z</time>
      </trkpt>
      <trkpt lat="49.37344" lon="1.51608">
        <ele>166.67953491211</ele>
        <time>2017-09-03T09:27:03.000Z</time>
      </trkpt>
      <trkpt lat="49.37341" lon="1.5161">
        <ele>166.68283081055</ele>
        <time>2017-09-03T09:27:05.000Z</time>
      </trkpt>
      <trkpt lat="49.3734" lon="1.51612">
        <ele>166.69299316406</ele>
        <time>2017-09-03T09:27:07.000Z</time>
      </trkpt>
      <trkpt lat="49.37337" lon="1.51614">
        <ele>166.71018981934</ele>
        <time>2017-09-03T09:27:10.000Z</time>
      </trkpt>
      <trkpt lat="49.37334" lon="1.51619">
        <ele>166.74589538574</ele>
        <time>2017-09-03T09:27:12.000Z</time>
      </trkpt>
      <trkpt lat="49.37328" lon="1.51625">
        <ele>166.81607055664</ele>
        <time>2017-09-03T09:27:15.000Z</time>
      </trkpt>
      <trkpt lat="49.37323" lon="1.51626">
        <ele>166.89360046387</ele>
        <time>2017-09-03T09:27:17.000Z</time>
      </trkpt>
      <trkpt lat="49.37319" lon="1.51627">
        <ele>166.97326660156</ele>
        <time>2017-09-03T09:27:19.000Z</time>
      </trkpt>
      <trkpt lat="49.37313" lon="1.51629">
        <ele>167.05718994141</ele>
        <time>2017-09-03T09:27:22.000Z</time>
      </trkpt>
      <trkpt lat="49.3731" lon="1.5163">
        <ele>167.13488769531</ele>
        <time>2017-09-03T09:27:24.000Z</time>
      </trkpt>
      <trkpt lat="49.37308" lon="1.51631">
        <ele>167.18310546875</ele>
        <time>2017-09-03T09:27:26.000Z</time>
      </trkpt>
      <trkpt lat="49.37304" lon="1.51631">
        <ele>167.22645568848</ele>
        <time>2017-09-03T09:27:29.000Z</time>
      </trkpt>
      <trkpt lat="49.37299" lon="1.51633">
        <ele>167.27143859863</ele>
        <time>2017-09-03T09:27:31.000Z</time>
      </trkpt>
      <trkpt lat="49.37291" lon="1.51637">
        <ele>167.32846069336</ele>
        <time>2017-09-03T09:27:34.000Z</time>
      </trkpt>
      <trkpt lat="49.37286" lon="1.51641">
        <ele>167.39038085938</ele>
        <time>2017-09-03T09:27:36.000Z</time>
      </trkpt>
      <trkpt lat="49.37279" lon="1.51646">
        <ele>167.46994018555</ele>
        <time>2017-09-03T09:27:39.000Z</time>
      </trkpt>
      <trkpt lat="49.37275" lon="1.51651">
        <ele>167.56056213379</ele>
        <time>2017-09-03T09:27:41.000Z</time>
      </trkpt>
      <trkpt lat="49.37272" lon="1.51656">
        <ele>167.65719604492</ele>
        <time>2017-09-03T09:27:43.000Z</time>
      </trkpt>
      <trkpt lat="49.37263" lon="1.51663">
        <ele>167.75068664551</ele>
        <time>2017-09-03T09:27:46.000Z</time>
      </trkpt>
      <trkpt lat="49.37259" lon="1.51663">
        <ele>167.83128356934</ele>
        <time>2017-09-03T09:27:48.000Z</time>
      </trkpt>
      <trkpt lat="49.37248" lon="1.51667">
        <ele>167.90237426758</ele>
        <time>2017-09-03T09:27:51.000Z</time>
      </trkpt>
      <trkpt lat="49.37239" lon="1.5167">
        <ele>167.9838104248</ele>
        <time>2017-09-03T09:27:53.000Z</time>
      </trkpt>
      <trkpt lat="49.3723" lon="1.51672">
        <ele>168.07373046875</ele>
        <time>2017-09-03T09:27:56.000Z</time>
      </trkpt>
      <trkpt lat="49.37223" lon="1.51672">
        <ele>168.15921020508</ele>
        <time>2017-09-03T09:27:59.000Z</time>
      </trkpt>
      <trkpt lat="49.37214" lon="1.51676">
        <ele>168.26736450195</ele>
        <time>2017-09-03T09:28:02.000Z</time>
      </trkpt>
      <trkpt lat="49.37203" lon="1.5168">
        <ele>168.39004516602</ele>
        <time>2017-09-03T09:28:05.000Z</time>
      </trkpt>
      <trkpt lat="49.37191" lon="1.51683">
        <ele>168.51148986816</ele>
        <time>2017-09-03T09:28:08.000Z</time>
      </trkpt>
      <trkpt lat="49.37184" lon="1.51683">
        <ele>168.62089538574</ele>
        <time>2017-09-03T09:28:10.000Z</time>
      </trkpt>
      <trkpt lat="49.37178" lon="1.51684">
        <ele>168.72439575195</ele>
        <time>2017-09-03T09:28:12.000Z</time>
      </trkpt>
      <trkpt lat="49.37169" lon="1.51685">
        <ele>168.82197570801</ele>
        <time>2017-09-03T09:28:15.000Z</time>
      </trkpt>
      <trkpt lat="49.37161" lon="1.51685">
        <ele>168.88537597656</ele>
        <time>2017-09-03T09:28:17.000Z</time>
      </trkpt>
      <trkpt lat="49.37151" lon="1.51686">
        <ele>168.90336608887</ele>
        <time>2017-09-03T09:28:20.000Z</time>
      </trkpt>
      <trkpt lat="49.37147" lon="1.51687">
        <ele>168.90107727051</ele>
        <time>2017-09-03T09:28:22.000Z</time>
      </trkpt>
      <trkpt lat="49.37136" lon="1.51689">
        <ele>168.8685760498</ele>
        <time>2017-09-03T09:28:25.000Z</time>
      </trkpt>
      <trkpt lat="49.37125" lon="1.5169">
        <ele>168.79965209961</ele>
        <time>2017-09-03T09:28:28.000Z</time>
      </trkpt>
      <trkpt lat="49.37113" lon="1.51694">
        <ele>168.72250366211</ele>
        <time>2017-09-03T09:28:31.000Z</time>
      </trkpt>
      <trkpt lat="49.37105" lon="1.51696">
        <ele>168.65466308594</ele>
        <time>2017-09-03T09:28:33.000Z</time>
      </trkpt>
      <trkpt lat="49.37096" lon="1.51697">
        <ele>168.58375549316</ele>
        <time>2017-09-03T09:28:35.000Z</time>
      </trkpt>
      <trkpt lat="49.37083" lon="1.51699">
        <ele>168.5147857666</ele>
        <time>2017-09-03T09:28:38.000Z</time>
      </trkpt>
      <trkpt lat="49.37077" lon="1.517">
        <ele>168.46647644043</ele>
        <time>2017-09-03T09:28:40.000Z</time>
      </trkpt>
      <trkpt lat="49.37071" lon="1.51701">
        <ele>168.43588256836</ele>
        <time>2017-09-03T09:28:43.000Z</time>
      </trkpt>
      <trkpt lat="49.37062" lon="1.51703">
        <ele>168.41906738281</ele>
        <time>2017-09-03T09:28:46.000Z</time>
      </trkpt>
      <trkpt lat="49.37056" lon="1.51705">
        <ele>168.41708374023</ele>
        <time>2017-09-03T09:28:48.000Z</time>
      </trkpt>
      <trkpt lat="49.3705" lon="1.51706">
        <ele>168.4358215332</ele>
        <time>2017-09-03T09:28:50.000Z</time>
      </trkpt>
      <trkpt lat="49.37042" lon="1.51708">
        <ele>168.45654296875</ele>
        <time>2017-09-03T09:28:53.000Z</time>
      </trkpt>
      <trkpt lat="49.37037" lon="1.5171">
        <ele>168.47821044922</ele>
        <time>2017-09-03T09:28:55.000Z</time>
      </trkpt>
      <trkpt lat="49.37025" lon="1.51713">
        <ele>168.50375366211</ele>
        <time>2017-09-03T09:28:58.000Z</time>
      </trkpt>
      <trkpt lat="49.37014" lon="1.51715">
        <ele>168.52862548828</ele>
        <time>2017-09-03T09:29:03.000Z</time>
      </trkpt>
      <trkpt lat="49.37005" lon="1.51714">
        <ele>168.54663085938</ele>
        <time>2017-09-03T09:29:04.000Z</time>
      </trkpt>
      <trkpt lat="49.36999" lon="1.51714">
        <ele>168.56294250488</ele>
        <time>2017-09-03T09:29:07.000Z</time>
      </trkpt>
      <trkpt lat="49.36995" lon="1.51713">
        <ele>168.58157348633</ele>
        <time>2017-09-03T09:29:10.000Z</time>
      </trkpt>
      <trkpt lat="49.36993" lon="1.5171">
        <ele>168.58987426758</ele>
        <time>2017-09-03T09:29:12.000Z</time>
      </trkpt>
      <trkpt lat="49.36992" lon="1.517">
        <ele>168.57319641113</ele>
        <time>2017-09-03T09:29:15.000Z</time>
      </trkpt>
      <trkpt lat="49.36993" lon="1.51688">
        <ele>168.52786254883</ele>
        <time>2017-09-03T09:29:18.000Z</time>
      </trkpt>
      <trkpt lat="49.36993" lon="1.51681">
        <ele>168.46255493164</ele>
        <time>2017-09-03T09:29:21.000Z</time>
      </trkpt>
      <trkpt lat="49.36992" lon="1.51683">
        <ele>168.3987121582</ele>
        <time>2017-09-03T09:29:24.000Z</time>
      </trkpt>
      <trkpt lat="49.36989" lon="1.51681">
        <ele>168.3384552002</ele>
        <time>2017-09-03T09:29:26.000Z</time>
      </trkpt>
      <trkpt lat="49.36987" lon="1.51675">
        <ele>168.29096984863</ele>
        <time>2017-09-03T09:29:28.000Z</time>
      </trkpt>
      <trkpt lat="49.36983" lon="1.51664">
        <ele>168.25552368164</ele>
        <time>2017-09-03T09:29:31.000Z</time>
      </trkpt>
      <trkpt lat="49.36981" lon="1.51656">
        <ele>168.22436523438</ele>
        <time>2017-09-03T09:29:33.000Z</time>
      </trkpt>
      <trkpt lat="49.36976" lon="1.51639">
        <ele>168.15582275391</ele>
        <time>2017-09-03T09:29:36.000Z</time>
      </trkpt>
      <trkpt lat="49.36971" lon="1.51629">
        <ele>168.07467651367</ele>
        <time>2017-09-03T09:29:39.000Z</time>
      </trkpt>
      <trkpt lat="49.36969" lon="1.51621">
        <ele>167.98797607422</ele>
        <time>2017-09-03T09:29:41.000Z</time>
      </trkpt>
      <trkpt lat="49.36964" lon="1.51606">
        <ele>167.89785766602</ele>
        <time>2017-09-03T09:29:44.000Z</time>
      </trkpt>
      <trkpt lat="49.3696" lon="1.51598">
        <ele>167.80932617188</ele>
        <time>2017-09-03T09:29:47.000Z</time>
      </trkpt>
      <trkpt lat="49.36958" lon="1.51592">
        <ele>167.74041748047</ele>
        <time>2017-09-03T09:29:50.000Z</time>
      </trkpt>
      <trkpt lat="49.36958" lon="1.5159">
        <ele>167.67825317383</ele>
        <time>2017-09-03T09:29:52.000Z</time>
      </trkpt>
      <trkpt lat="49.36956" lon="1.51587">
        <ele>167.6257019043</ele>
        <time>2017-09-03T09:29:54.000Z</time>
      </trkpt>
      <trkpt lat="49.36954" lon="1.51584">
        <ele>167.59548950195</ele>
        <time>2017-09-03T09:29:57.000Z</time>
      </trkpt>
      <trkpt lat="49.36952" lon="1.51583">
        <ele>167.5795135498</ele>
        <time>2017-09-03T09:29:59.000Z</time>
      </trkpt>
      <trkpt lat="49.36949" lon="1.51584">
        <ele>167.58207702637</ele>
        <time>2017-09-03T09:30:04.000Z</time>
      </trkpt>
      <trkpt lat="49.36948" lon="1.51584">
        <ele>167.59323120117</ele>
        <time>2017-09-03T09:30:06.000Z</time>
      </trkpt>
      <trkpt lat="49.36943" lon="1.51583">
        <ele>167.6206817627</ele>
        <time>2017-09-03T09:30:13.000Z</time>
      </trkpt>
      <trkpt lat="49.36942" lon="1.51582">
        <ele>167.65386962891</ele>
        <time>2017-09-03T09:30:15.000Z</time>
      </trkpt>
      <trkpt lat="49.36942" lon="1.51582">
        <ele>167.65386962891</ele>
        <time>2017-09-03T09:30:35.000Z</time>
      </trkpt>
      <trkpt lat="49.36941" lon="1.51581">
        <ele>167.69412231445</ele>
        <time>2017-09-03T09:30:42.000Z</time>
      </trkpt>
      <trkpt lat="49.3694" lon="1.51579">
        <ele>167.73913574219</ele>
        <time>2017-09-03T09:30:48.000Z</time>
      </trkpt>
      <trkpt lat="49.3694" lon="1.51579">
        <ele>167.73913574219</ele>
        <time>2017-09-03T09:31:08.000Z</time>
      </trkpt>
      <trkpt lat="49.36939" lon="1.51577">
        <ele>167.79722595215</ele>
        <time>2017-09-03T09:31:09.000Z</time>
      </trkpt>
      <trkpt lat="49.36936" lon="1.51579">
        <ele>167.84393310547</ele>
        <time>2017-09-03T09:31:15.000Z</time>
      </trkpt>
      <trkpt lat="49.36936" lon="1.51579">
        <ele>167.84393310547</ele>
        <time>2017-09-03T09:31:35.000Z</time>
      </trkpt>
      <trkpt lat="49.36933" lon="1.51579">
        <ele>167.89193725586</ele>
        <time>2017-09-03T09:31:37.000Z</time>
      </trkpt>
      <trkpt lat="49.36933" lon="1.51576">
        <ele>167.95010375977</ele>
        <time>2017-09-03T09:31:39.000Z</time>
      </trkpt>
      <trkpt lat="49.36928" lon="1.51569">
        <ele>168.06832885742</ele>
        <time>2017-09-03T09:31:42.000Z</time>
      </trkpt>
      <trkpt lat="49.36923" lon="1.51567">
        <ele>168.21243286133</ele>
        <time>2017-09-03T09:31:44.000Z</time>
      </trkpt>
      <trkpt lat="49.36914" lon="1.51572">
        <ele>168.35539245605</ele>
        <time>2017-09-03T09:31:47.000Z</time>
      </trkpt>
      <trkpt lat="49.36908" lon="1.51578">
        <ele>168.47903442383</ele>
        <time>2017-09-03T09:31:49.000Z</time>
      </trkpt>
      <trkpt lat="49.36901" lon="1.51584">
        <ele>168.57760620117</ele>
        <time>2017-09-03T09:31:51.000Z</time>
      </trkpt>
      <trkpt lat="49.36892" lon="1.51591">
        <ele>168.66134643555</ele>
        <time>2017-09-03T09:31:54.000Z</time>
      </trkpt>
      <trkpt lat="49.36883" lon="1.516">
        <ele>168.74800109863</ele>
        <time>2017-09-03T09:31:57.000Z</time>
      </trkpt>
      <trkpt lat="49.36872" lon="1.51609">
        <ele>168.86994934082</ele>
        <time>2017-09-03T09:32:00.000Z</time>
      </trkpt>
      <trkpt lat="49.36862" lon="1.51614">
        <ele>169.02670288086</ele>
        <time>2017-09-03T09:32:03.000Z</time>
      </trkpt>
      <trkpt lat="49.36856" lon="1.51618">
        <ele>169.19314575195</ele>
        <time>2017-09-03T09:32:05.000Z</time>
      </trkpt>
      <trkpt lat="49.36851" lon="1.51623">
        <ele>169.29077148438</ele>
        <time>2017-09-03T09:32:07.000Z</time>
      </trkpt>
      <trkpt lat="49.3684" lon="1.51633">
        <ele>169.30961608887</ele>
        <time>2017-09-03T09:32:10.000Z</time>
      </trkpt>
      <trkpt lat="49.36832" lon="1.51639">
        <ele>169.24150085449</ele>
        <time>2017-09-03T09:32:12.000Z</time>
      </trkpt>
      <trkpt lat="49.36825" lon="1.51646">
        <ele>169.05009460449</ele>
        <time>2017-09-03T09:32:14.000Z</time>
      </trkpt>
      <trkpt lat="49.36814" lon="1.51655">
        <ele>168.70529174805</ele>
        <time>2017-09-03T09:32:17.000Z</time>
      </trkpt>
      <trkpt lat="49.36806" lon="1.5166">
        <ele>168.28475952148</ele>
        <time>2017-09-03T09:32:19.000Z</time>
      </trkpt>
      <trkpt lat="49.36797" lon="1.51668">
        <ele>167.77932739258</ele>
        <time>2017-09-03T09:32:22.000Z</time>
      </trkpt>
      <trkpt lat="49.3679" lon="1.51673">
        <ele>167.26844787598</ele>
        <time>2017-09-03T09:32:24.000Z</time>
      </trkpt>
      <trkpt lat="49.3678" lon="1.5168">
        <ele>166.77743530273</ele>
        <time>2017-09-03T09:32:27.000Z</time>
      </trkpt>
      <trkpt lat="49.36773" lon="1.51685">
        <ele>166.38389587402</ele>
        <time>2017-09-03T09:32:29.000Z</time>
      </trkpt>
      <trkpt lat="49.36766" lon="1.51689">
        <ele>166.0297088623</ele>
        <time>2017-09-03T09:32:31.000Z</time>
      </trkpt>
      <trkpt lat="49.3676" lon="1.51694">
        <ele>165.75466918945</ele>
        <time>2017-09-03T09:32:33.000Z</time>
      </trkpt>
      <trkpt lat="49.3675" lon="1.51701">
        <ele>165.48417663574</ele>
        <time>2017-09-03T09:32:36.000Z</time>
      </trkpt>
      <trkpt lat="49.36741" lon="1.51707">
        <ele>165.38179016113</ele>
        <time>2017-09-03T09:32:39.000Z</time>
      </trkpt>
      <trkpt lat="49.36735" lon="1.51712">
        <ele>165.38871765137</ele>
        <time>2017-09-03T09:32:41.000Z</time>
      </trkpt>
      <trkpt lat="49.36726" lon="1.51718">
        <ele>165.52830505371</ele>
        <time>2017-09-03T09:32:44.000Z</time>
      </trkpt>
      <trkpt lat="49.3672" lon="1.51721">
        <ele>165.7611541748</ele>
        <time>2017-09-03T09:32:46.000Z</time>
      </trkpt>
      <trkpt lat="49.36714" lon="1.51725">
        <ele>166.10546875</ele>
        <time>2017-09-03T09:32:48.000Z</time>
      </trkpt>
      <trkpt lat="49.36708" lon="1.51729">
        <ele>166.41796875</ele>
        <time>2017-09-03T09:32:50.000Z</time>
      </trkpt>
      <trkpt lat="49.36699" lon="1.51735">
        <ele>166.7578125</ele>
        <time>2017-09-03T09:32:53.000Z</time>
      </trkpt>
      <trkpt lat="49.36694" lon="1.51738">
        <ele>167.06640625</ele>
        <time>2017-09-03T09:32:55.000Z</time>
      </trkpt>
      <trkpt lat="49.36688" lon="1.51742">
        <ele>167.375</ele>
        <time>2017-09-03T09:32:57.000Z</time>
      </trkpt>
      <trkpt lat="49.36679" lon="1.51748">
        <ele>167.7109375</ele>
        <time>2017-09-03T09:33:00.000Z</time>
      </trkpt>
      <trkpt lat="49.36673" lon="1.51751">
        <ele>168.0471496582</ele>
        <time>2017-09-03T09:33:02.000Z</time>
      </trkpt>
      <trkpt lat="49.36665" lon="1.51757">
        <ele>168.36410522461</ele>
        <time>2017-09-03T09:33:05.000Z</time>
      </trkpt>
      <trkpt lat="49.36656" lon="1.51763">
        <ele>168.64427185059</ele>
        <time>2017-09-03T09:33:08.000Z</time>
      </trkpt>
      <trkpt lat="49.36647" lon="1.51768">
        <ele>168.88319396973</ele>
        <time>2017-09-03T09:33:11.000Z</time>
      </trkpt>
      <trkpt lat="49.36639" lon="1.51774">
        <ele>169.04867553711</ele>
        <time>2017-09-03T09:33:14.000Z</time>
      </trkpt>
      <trkpt lat="49.36633" lon="1.51777">
        <ele>169.1657409668</ele>
        <time>2017-09-03T09:33:16.000Z</time>
      </trkpt>
      <trkpt lat="49.36625" lon="1.51782">
        <ele>169.22354125977</ele>
        <time>2017-09-03T09:33:19.000Z</time>
      </trkpt>
      <trkpt lat="49.36616" lon="1.51788">
        <ele>169.2677154541</ele>
        <time>2017-09-03T09:33:22.000Z</time>
      </trkpt>
      <trkpt lat="49.36607" lon="1.51793">
        <ele>169.30020141602</ele>
        <time>2017-09-03T09:33:25.000Z</time>
      </trkpt>
      <trkpt lat="49.36602" lon="1.51797">
        <ele>169.31918334961</ele>
        <time>2017-09-03T09:33:27.000Z</time>
      </trkpt>
      <trkpt lat="49.36596" lon="1.51801">
        <ele>169.32989501953</ele>
        <time>2017-09-03T09:33:29.000Z</time>
      </trkpt>
      <trkpt lat="49.36589" lon="1.51806">
        <ele>169.32862854004</ele>
        <time>2017-09-03T09:33:32.000Z</time>
      </trkpt>
      <trkpt lat="49.36582" lon="1.51811">
        <ele>169.31552124023</ele>
        <time>2017-09-03T09:33:35.000Z</time>
      </trkpt>
      <trkpt lat="49.36574" lon="1.51816">
        <ele>169.28523254395</ele>
        <time>2017-09-03T09:33:38.000Z</time>
      </trkpt>
      <trkpt lat="49.36568" lon="1.5182">
        <ele>169.24458312988</ele>
        <time>2017-09-03T09:33:40.000Z</time>
      </trkpt>
      <trkpt lat="49.36561" lon="1.51824">
        <ele>169.19483947754</ele>
        <time>2017-09-03T09:33:42.000Z</time>
      </trkpt>
      <trkpt lat="49.36551" lon="1.51832">
        <ele>169.13565063477</ele>
        <time>2017-09-03T09:33:45.000Z</time>
      </trkpt>
      <trkpt lat="49.36543" lon="1.51838">
        <ele>169.07662963867</ele>
        <time>2017-09-03T09:33:47.000Z</time>
      </trkpt>
      <trkpt lat="49.36533" lon="1.51848">
        <ele>169.0177154541</ele>
        <time>2017-09-03T09:33:50.000Z</time>
      </trkpt>
      <trkpt lat="49.36526" lon="1.51855">
        <ele>168.95608520508</ele>
        <time>2017-09-03T09:33:52.000Z</time>
      </trkpt>
      <trkpt lat="49.36515" lon="1.51866">
        <ele>168.87655639648</ele>
        <time>2017-09-03T09:33:55.000Z</time>
      </trkpt>
      <trkpt lat="49.36506" lon="1.51878">
        <ele>168.7741394043</ele>
        <time>2017-09-03T09:33:58.000Z</time>
      </trkpt>
      <trkpt lat="49.36497" lon="1.5189">
        <ele>168.65426635742</ele>
        <time>2017-09-03T09:34:01.000Z</time>
      </trkpt>
      <trkpt lat="49.36487" lon="1.51904">
        <ele>168.5581817627</ele>
        <time>2017-09-03T09:34:04.000Z</time>
      </trkpt>
      <trkpt lat="49.36478" lon="1.51918">
        <ele>168.49421691895</ele>
        <time>2017-09-03T09:34:07.000Z</time>
      </trkpt>
      <trkpt lat="49.36471" lon="1.51927">
        <ele>168.45471191406</ele>
        <time>2017-09-03T09:34:09.000Z</time>
      </trkpt>
      <trkpt lat="49.3646" lon="1.51943">
        <ele>168.45048522949</ele>
        <time>2017-09-03T09:34:12.000Z</time>
      </trkpt>
      <trkpt lat="49.36449" lon="1.51959">
        <ele>168.47883605957</ele>
        <time>2017-09-03T09:34:15.000Z</time>
      </trkpt>
      <trkpt lat="49.3644" lon="1.51974">
        <ele>168.50823974609</ele>
        <time>2017-09-03T09:34:18.000Z</time>
      </trkpt>
      <trkpt lat="49.36434" lon="1.51983">
        <ele>168.53178405762</ele>
        <time>2017-09-03T09:34:20.000Z</time>
      </trkpt>
      <trkpt lat="49.36424" lon="1.51997">
        <ele>168.58847045898</ele>
        <time>2017-09-03T09:34:23.000Z</time>
      </trkpt>
      <trkpt lat="49.36418" lon="1.52006">
        <ele>168.65565490723</ele>
        <time>2017-09-03T09:34:25.000Z</time>
      </trkpt>
      <trkpt lat="49.36408" lon="1.5202">
        <ele>168.69442749023</ele>
        <time>2017-09-03T09:34:28.000Z</time>
      </trkpt>
      <trkpt lat="49.36399" lon="1.52032">
        <ele>168.6976776123</ele>
        <time>2017-09-03T09:34:31.000Z</time>
      </trkpt>
      <trkpt lat="49.3639" lon="1.52036">
        <ele>168.69924926758</ele>
        <time>2017-09-03T09:34:34.000Z</time>
      </trkpt>
      <trkpt lat="49.36386" lon="1.52029">
        <ele>168.72956848145</ele>
        <time>2017-09-03T09:34:36.000Z</time>
      </trkpt>
      <trkpt lat="49.36383" lon="1.52015">
        <ele>168.84658813477</ele>
        <time>2017-09-03T09:34:39.000Z</time>
      </trkpt>
      <trkpt lat="49.3638" lon="1.52006">
        <ele>169.04306030273</ele>
        <time>2017-09-03T09:34:41.000Z</time>
      </trkpt>
      <trkpt lat="49.36376" lon="1.51995">
        <ele>169.32846069336</ele>
        <time>2017-09-03T09:34:44.000Z</time>
      </trkpt>
      <trkpt lat="49.36371" lon="1.51983">
        <ele>169.63943481445</ele>
        <time>2017-09-03T09:34:47.000Z</time>
      </trkpt>
      <trkpt lat="49.36368" lon="1.51974">
        <ele>169.91520690918</ele>
        <time>2017-09-03T09:34:49.000Z</time>
      </trkpt>
      <trkpt lat="49.36364" lon="1.5196">
        <ele>170.12397766113</ele>
        <time>2017-09-03T09:34:52.000Z</time>
      </trkpt>
      <trkpt lat="49.36362" lon="1.51951">
        <ele>170.29022216797</ele>
        <time>2017-09-03T09:34:54.000Z</time>
      </trkpt>
      <trkpt lat="49.36358" lon="1.51938">
        <ele>170.41555786133</ele>
        <time>2017-09-03T09:34:57.000Z</time>
      </trkpt>
      <trkpt lat="49.36356" lon="1.51928">
        <ele>170.51699829102</ele>
        <time>2017-09-03T09:34:59.000Z</time>
      </trkpt>
      <trkpt lat="49.36354" lon="1.5192">
        <ele>170.60659790039</ele>
        <time>2017-09-03T09:35:01.000Z</time>
      </trkpt>
      <trkpt lat="49.3635" lon="1.51907">
        <ele>170.67462158203</ele>
        <time>2017-09-03T09:35:04.000Z</time>
      </trkpt>
      <trkpt lat="49.36345" lon="1.51893">
        <ele>170.73629760742</ele>
        <time>2017-09-03T09:35:07.000Z</time>
      </trkpt>
      <trkpt lat="49.3634" lon="1.51884">
        <ele>170.78790283203</ele>
        <time>2017-09-03T09:35:09.000Z</time>
      </trkpt>
      <trkpt lat="49.36332" lon="1.51869">
        <ele>170.84939575195</ele>
        <time>2017-09-03T09:35:12.000Z</time>
      </trkpt>
      <trkpt lat="49.36327" lon="1.51858">
        <ele>170.90017700195</ele>
        <time>2017-09-03T09:35:14.000Z</time>
      </trkpt>
      <trkpt lat="49.36322" lon="1.51842">
        <ele>170.9440612793</ele>
        <time>2017-09-03T09:35:17.000Z</time>
      </trkpt>
      <trkpt lat="49.36319" lon="1.51831">
        <ele>170.97187805176</ele>
        <time>2017-09-03T09:35:19.000Z</time>
      </trkpt>
      <trkpt lat="49.36313" lon="1.51813">
        <ele>170.93348693848</ele>
        <time>2017-09-03T09:35:22.000Z</time>
      </trkpt>
      <trkpt lat="49.36308" lon="1.51796">
        <ele>170.81497192383</ele>
        <time>2017-09-03T09:35:25.000Z</time>
      </trkpt>
      <trkpt lat="49.36302" lon="1.51785">
        <ele>170.65412902832</ele>
        <time>2017-09-03T09:35:27.000Z</time>
      </trkpt>
      <trkpt lat="49.36293" lon="1.51769">
        <ele>170.42300415039</ele>
        <time>2017-09-03T09:35:30.000Z</time>
      </trkpt>
      <trkpt lat="49.36282" lon="1.51752">
        <ele>170.11407470703</ele>
        <time>2017-09-03T09:35:33.000Z</time>
      </trkpt>
      <trkpt lat="49.36275" lon="1.51741">
        <ele>169.81889343262</ele>
        <time>2017-09-03T09:35:35.000Z</time>
      </trkpt>
      <trkpt lat="49.36264" lon="1.51725">
        <ele>169.52059936523</ele>
        <time>2017-09-03T09:35:38.000Z</time>
      </trkpt>
      <trkpt lat="49.36254" lon="1.5171">
        <ele>169.19891357422</ele>
        <time>2017-09-03T09:35:41.000Z</time>
      </trkpt>
      <trkpt lat="49.36248" lon="1.51699">
        <ele>168.8994140625</ele>
        <time>2017-09-03T09:35:43.000Z</time>
      </trkpt>
      <trkpt lat="49.36238" lon="1.51684">
        <ele>168.6061706543</ele>
        <time>2017-09-03T09:35:46.000Z</time>
      </trkpt>
      <trkpt lat="49.36229" lon="1.51668">
        <ele>168.26165771484</ele>
        <time>2017-09-03T09:35:49.000Z</time>
      </trkpt>
      <trkpt lat="49.36222" lon="1.51656">
        <ele>167.95170593262</ele>
        <time>2017-09-03T09:35:51.000Z</time>
      </trkpt>
      <trkpt lat="49.36215" lon="1.51646">
        <ele>167.6742401123</ele>
        <time>2017-09-03T09:35:53.000Z</time>
      </trkpt>
      <trkpt lat="49.36203" lon="1.51631">
        <ele>167.36976623535</ele>
        <time>2017-09-03T09:35:56.000Z</time>
      </trkpt>
      <trkpt lat="49.36195" lon="1.51622">
        <ele>167.07722473145</ele>
        <time>2017-09-03T09:35:58.000Z</time>
      </trkpt>
      <trkpt lat="49.3618" lon="1.51609">
        <ele>166.75134277344</ele>
        <time>2017-09-03T09:36:01.000Z</time>
      </trkpt>
      <trkpt lat="49.36171" lon="1.51602">
        <ele>166.35995483398</ele>
        <time>2017-09-03T09:36:03.000Z</time>
      </trkpt>
      <trkpt lat="49.36156" lon="1.51591">
        <ele>165.89080810547</ele>
        <time>2017-09-03T09:36:06.000Z</time>
      </trkpt>
      <trkpt lat="49.36147" lon="1.51583">
        <ele>165.43341064453</ele>
        <time>2017-09-03T09:36:08.000Z</time>
      </trkpt>
      <trkpt lat="49.36132" lon="1.51571">
        <ele>164.95805358887</ele>
        <time>2017-09-03T09:36:11.000Z</time>
      </trkpt>
      <trkpt lat="49.36122" lon="1.51565">
        <ele>164.54739379883</ele>
        <time>2017-09-03T09:36:13.000Z</time>
      </trkpt>
      <trkpt lat="49.36107" lon="1.51557">
        <ele>164.13244628906</ele>
        <time>2017-09-03T09:36:16.000Z</time>
      </trkpt>
      <trkpt lat="49.36097" lon="1.51552">
        <ele>163.76519775391</ele>
        <time>2017-09-03T09:36:18.000Z</time>
      </trkpt>
      <trkpt lat="49.36081" lon="1.51547">
        <ele>163.36714172363</ele>
        <time>2017-09-03T09:36:21.000Z</time>
      </trkpt>
      <trkpt lat="49.36071" lon="1.51544">
        <ele>163.03254699707</ele>
        <time>2017-09-03T09:36:23.000Z</time>
      </trkpt>
      <trkpt lat="49.36055" lon="1.51539">
        <ele>162.73165893555</ele>
        <time>2017-09-03T09:36:26.000Z</time>
      </trkpt>
      <trkpt lat="49.36045" lon="1.51537">
        <ele>162.51264953613</ele>
        <time>2017-09-03T09:36:28.000Z</time>
      </trkpt>
      <trkpt lat="49.36029" lon="1.51536">
        <ele>162.33839416504</ele>
        <time>2017-09-03T09:36:31.000Z</time>
      </trkpt>
      <trkpt lat="49.36014" lon="1.51535">
        <ele>162.2428894043</ele>
        <time>2017-09-03T09:36:34.000Z</time>
      </trkpt>
      <trkpt lat="49.35999" lon="1.51534">
        <ele>162.15640258789</ele>
        <time>2017-09-03T09:36:37.000Z</time>
      </trkpt>
      <trkpt lat="49.35988" lon="1.51535">
        <ele>162.11486816406</ele>
        <time>2017-09-03T09:36:39.000Z</time>
      </trkpt>
      <trkpt lat="49.35975" lon="1.51536">
        <ele>162.10946655273</ele>
        <time>2017-09-03T09:36:42.000Z</time>
      </trkpt>
      <trkpt lat="49.35965" lon="1.5154">
        <ele>162.12710571289</ele>
        <time>2017-09-03T09:36:44.000Z</time>
      </trkpt>
      <trkpt lat="49.35952" lon="1.51549">
        <ele>162.13989257812</ele>
        <time>2017-09-03T09:36:47.000Z</time>
      </trkpt>
      <trkpt lat="49.3594" lon="1.51564">
        <ele>162.09371948242</ele>
        <time>2017-09-03T09:36:50.000Z</time>
      </trkpt>
      <trkpt lat="49.35933" lon="1.51572">
        <ele>161.97784423828</ele>
        <time>2017-09-03T09:36:52.000Z</time>
      </trkpt>
      <trkpt lat="49.35922" lon="1.51586">
        <ele>161.74212646484</ele>
        <time>2017-09-03T09:36:55.000Z</time>
      </trkpt>
      <trkpt lat="49.35913" lon="1.51598">
        <ele>161.4457244873</ele>
        <time>2017-09-03T09:36:57.000Z</time>
      </trkpt>
      <trkpt lat="49.35897" lon="1.51619">
        <ele>161.07960510254</ele>
        <time>2017-09-03T09:37:00.000Z</time>
      </trkpt>
      <trkpt lat="49.35885" lon="1.51636">
        <ele>160.74092102051</ele>
        <time>2017-09-03T09:37:02.000Z</time>
      </trkpt>
      <trkpt lat="49.35873" lon="1.51652">
        <ele>160.43431091309</ele>
        <time>2017-09-03T09:37:04.000Z</time>
      </trkpt>
      <trkpt lat="49.35856" lon="1.51676">
        <ele>160.27159118652</ele>
        <time>2017-09-03T09:37:07.000Z</time>
      </trkpt>
      <trkpt lat="49.35846" lon="1.51691">
        <ele>160.23643493652</ele>
        <time>2017-09-03T09:37:09.000Z</time>
      </trkpt>
      <trkpt lat="49.35839" lon="1.51703">
        <ele>160.34791564941</ele>
        <time>2017-09-03T09:37:11.000Z</time>
      </trkpt>
      <trkpt lat="49.35833" lon="1.51718">
        <ele>160.57579040527</ele>
        <time>2017-09-03T09:37:14.000Z</time>
      </trkpt>
      <trkpt lat="49.3583" lon="1.51727">
        <ele>160.83242797852</ele>
        <time>2017-09-03T09:37:16.000Z</time>
      </trkpt>
      <trkpt lat="49.35825" lon="1.51735">
        <ele>161.03680419922</ele>
        <time>2017-09-03T09:37:18.000Z</time>
      </trkpt>
      <trkpt lat="49.3582" lon="1.51741">
        <ele>161.15872192383</ele>
        <time>2017-09-03T09:37:20.000Z</time>
      </trkpt>
      <trkpt lat="49.35815" lon="1.5175">
        <ele>161.20622253418</ele>
        <time>2017-09-03T09:37:23.000Z</time>
      </trkpt>
      <trkpt lat="49.35809" lon="1.51757">
        <ele>161.12606811523</ele>
        <time>2017-09-03T09:37:26.000Z</time>
      </trkpt>
      <trkpt lat="49.35804" lon="1.51763">
        <ele>160.98971557617</ele>
        <time>2017-09-03T09:37:29.000Z</time>
      </trkpt>
      <trkpt lat="49.35804" lon="1.51765">
        <ele>160.85610961914</ele>
        <time>2017-09-03T09:37:32.000Z</time>
      </trkpt>
      <trkpt lat="49.35804" lon="1.51765">
        <ele>160.74145507812</ele>
        <time>2017-09-03T09:37:37.000Z</time>
      </trkpt>
      <trkpt lat="49.35804" lon="1.51766">
        <ele>160.63671875</ele>
        <time>2017-09-03T09:37:39.000Z</time>
      </trkpt>
      <trkpt lat="49.35804" lon="1.51766">
        <ele>160.63671875</ele>
        <time>2017-09-03T09:37:59.000Z</time>
      </trkpt>
      <trkpt lat="49.35803" lon="1.51767">
        <ele>160.578125</ele>
        <time>2017-09-03T09:38:27.000Z</time>
      </trkpt>
      <trkpt lat="49.35802" lon="1.51768">
        <ele>160.55859375</ele>
        <time>2017-09-03T09:38:30.000Z</time>
      </trkpt>
      <trkpt lat="49.35801" lon="1.51769">
        <ele>160.53515625</ele>
        <time>2017-09-03T09:38:33.000Z</time>
      </trkpt>
      <trkpt lat="49.35801" lon="1.51771">
        <ele>160.49609375</ele>
        <time>2017-09-03T09:38:36.000Z</time>
      </trkpt>
      <trkpt lat="49.35799" lon="1.51772">
        <ele>160.453125</ele>
        <time>2017-09-03T09:38:52.000Z</time>
      </trkpt>
      <trkpt lat="49.35793" lon="1.51777">
        <ele>160.36328125</ele>
        <time>2017-09-03T09:38:55.000Z</time>
      </trkpt>
      <trkpt lat="49.3579" lon="1.51783">
        <ele>160.24609375</ele>
        <time>2017-09-03T09:38:57.000Z</time>
      </trkpt>
      <trkpt lat="49.35786" lon="1.5179">
        <ele>160.09765625</ele>
        <time>2017-09-03T09:38:59.000Z</time>
      </trkpt>
      <trkpt lat="49.35776" lon="1.51803">
        <ele>159.859375</ele>
        <time>2017-09-03T09:39:02.000Z</time>
      </trkpt>
      <trkpt lat="49.35769" lon="1.51812">
        <ele>159.56640625</ele>
        <time>2017-09-03T09:39:04.000Z</time>
      </trkpt>
      <trkpt lat="49.35759" lon="1.51819">
        <ele>159.234375</ele>
        <time>2017-09-03T09:39:06.000Z</time>
      </trkpt>
      <trkpt lat="49.35746" lon="1.51829">
        <ele>158.79765319824</ele>
        <time>2017-09-03T09:39:09.000Z</time>
      </trkpt>
      <trkpt lat="49.35736" lon="1.51835">
        <ele>158.27864074707</ele>
        <time>2017-09-03T09:39:11.000Z</time>
      </trkpt>
      <trkpt lat="49.35722" lon="1.51846">
        <ele>157.64869689941</ele>
        <time>2017-09-03T09:39:14.000Z</time>
      </trkpt>
      <trkpt lat="49.35713" lon="1.51854">
        <ele>156.94799804688</ele>
        <time>2017-09-03T09:39:16.000Z</time>
      </trkpt>
      <trkpt lat="49.35704" lon="1.51861">
        <ele>156.21046447754</ele>
        <time>2017-09-03T09:39:18.000Z</time>
      </trkpt>
      <trkpt lat="49.35687" lon="1.51872">
        <ele>155.39535522461</ele>
        <time>2017-09-03T09:39:21.000Z</time>
      </trkpt>
      <trkpt lat="49.35677" lon="1.51879">
        <ele>154.56742858887</ele>
        <time>2017-09-03T09:39:23.000Z</time>
      </trkpt>
      <trkpt lat="49.35659" lon="1.51892">
        <ele>153.75473022461</ele>
        <time>2017-09-03T09:39:26.000Z</time>
      </trkpt>
      <trkpt lat="49.35647" lon="1.51901">
        <ele>152.96725463867</ele>
        <time>2017-09-03T09:39:28.000Z</time>
      </trkpt>
      <trkpt lat="49.3563" lon="1.51914">
        <ele>152.15899658203</ele>
        <time>2017-09-03T09:39:31.000Z</time>
      </trkpt>
      <trkpt lat="49.35619" lon="1.51922">
        <ele>151.50588989258</ele>
        <time>2017-09-03T09:39:33.000Z</time>
      </trkpt>
      <trkpt lat="49.35602" lon="1.51936">
        <ele>150.92872619629</ele>
        <time>2017-09-03T09:39:36.000Z</time>
      </trkpt>
      <trkpt lat="49.35593" lon="1.51948">
        <ele>150.5339050293</ele>
        <time>2017-09-03T09:39:38.000Z</time>
      </trkpt>
      <trkpt lat="49.35578" lon="1.51967">
        <ele>150.24862670898</ele>
        <time>2017-09-03T09:39:41.000Z</time>
      </trkpt>
      <trkpt lat="49.35565" lon="1.51985">
        <ele>150.11343383789</ele>
        <time>2017-09-03T09:39:44.000Z</time>
      </trkpt>
      <trkpt lat="49.35558" lon="1.51996">
        <ele>150.03190612793</ele>
        <time>2017-09-03T09:39:46.000Z</time>
      </trkpt>
      <trkpt lat="49.3555" lon="1.52004">
        <ele>149.97969055176</ele>
        <time>2017-09-03T09:39:48.000Z</time>
      </trkpt>
      <trkpt lat="49.35541" lon="1.52009">
        <ele>149.8786315918</ele>
        <time>2017-09-03T09:39:50.000Z</time>
      </trkpt>
      <trkpt lat="49.35527" lon="1.52013">
        <ele>149.67727661133</ele>
        <time>2017-09-03T09:39:53.000Z</time>
      </trkpt>
      <trkpt lat="49.35517" lon="1.52016">
        <ele>149.40444946289</ele>
        <time>2017-09-03T09:39:55.000Z</time>
      </trkpt>
      <trkpt lat="49.35506" lon="1.52021">
        <ele>149.05404663086</ele>
        <time>2017-09-03T09:39:57.000Z</time>
      </trkpt>
      <trkpt lat="49.35495" lon="1.52023">
        <ele>148.6623840332</ele>
        <time>2017-09-03T09:39:59.000Z</time>
      </trkpt>
      <trkpt lat="49.35477" lon="1.5202">
        <ele>148.24465942383</ele>
        <time>2017-09-03T09:40:02.000Z</time>
      </trkpt>
      <trkpt lat="49.35466" lon="1.52016">
        <ele>147.87881469727</ele>
        <time>2017-09-03T09:40:04.000Z</time>
      </trkpt>
      <trkpt lat="49.35449" lon="1.52015">
        <ele>147.50373840332</ele>
        <time>2017-09-03T09:40:07.000Z</time>
      </trkpt>
      <trkpt lat="49.35437" lon="1.52013">
        <ele>147.158203125</ele>
        <time>2017-09-03T09:40:09.000Z</time>
      </trkpt>
      <trkpt lat="49.35418" lon="1.52011">
        <ele>146.791015625</ele>
        <time>2017-09-03T09:40:12.000Z</time>
      </trkpt>
      <trkpt lat="49.354" lon="1.52009">
        <ele>146.3422088623</ele>
        <time>2017-09-03T09:40:15.000Z</time>
      </trkpt>
      <trkpt lat="49.35388" lon="1.52003">
        <ele>145.82939147949</ele>
        <time>2017-09-03T09:40:17.000Z</time>
      </trkpt>
      <trkpt lat="49.3537" lon="1.5199">
        <ele>145.23045349121</ele>
        <time>2017-09-03T09:40:20.000Z</time>
      </trkpt>
      <trkpt lat="49.35352" lon="1.5198">
        <ele>144.53634643555</ele>
        <time>2017-09-03T09:40:23.000Z</time>
      </trkpt>
      <trkpt lat="49.35334" lon="1.51978">
        <ele>143.79048156738</ele>
        <time>2017-09-03T09:40:26.000Z</time>
      </trkpt>
      <trkpt lat="49.35324" lon="1.51986">
        <ele>143.13146972656</ele>
        <time>2017-09-03T09:40:28.000Z</time>
      </trkpt>
      <trkpt lat="49.35315" lon="1.52014">
        <ele>142.56889343262</ele>
        <time>2017-09-03T09:40:31.000Z</time>
      </trkpt>
      <trkpt lat="49.35312" lon="1.52033">
        <ele>142.22994995117</ele>
        <time>2017-09-03T09:40:33.000Z</time>
      </trkpt>
      <trkpt lat="49.35309" lon="1.52052">
        <ele>142.10342407227</ele>
        <time>2017-09-03T09:40:35.000Z</time>
      </trkpt>
      <trkpt lat="49.35305" lon="1.52079">
        <ele>142.22610473633</ele>
        <time>2017-09-03T09:40:38.000Z</time>
      </trkpt>
      <trkpt lat="49.35302" lon="1.52098">
        <ele>142.45829772949</ele>
        <time>2017-09-03T09:40:40.000Z</time>
      </trkpt>
      <trkpt lat="49.35287" lon="1.52113">
        <ele>142.73419189453</ele>
        <time>2017-09-03T09:40:43.000Z</time>
      </trkpt>
      <trkpt lat="49.35275" lon="1.52114">
        <ele>142.96810913086</ele>
        <time>2017-09-03T09:40:45.000Z</time>
      </trkpt>
      <trkpt lat="49.35257" lon="1.52119">
        <ele>143.16650390625</ele>
        <time>2017-09-03T09:40:48.000Z</time>
      </trkpt>
      <trkpt lat="49.35241" lon="1.52128">
        <ele>143.29016113281</ele>
        <time>2017-09-03T09:40:51.000Z</time>
      </trkpt>
      <trkpt lat="49.35226" lon="1.5214">
        <ele>143.41275024414</ele>
        <time>2017-09-03T09:40:54.000Z</time>
      </trkpt>
      <trkpt lat="49.35212" lon="1.52152">
        <ele>143.53996276855</ele>
        <time>2017-09-03T09:40:57.000Z</time>
      </trkpt>
      <trkpt lat="49.35202" lon="1.5216">
        <ele>143.67053222656</ele>
        <time>2017-09-03T09:40:59.000Z</time>
      </trkpt>
      <trkpt lat="49.35187" lon="1.52169">
        <ele>143.796875</ele>
        <time>2017-09-03T09:41:02.000Z</time>
      </trkpt>
      <trkpt lat="49.35172" lon="1.52171">
        <ele>143.89775085449</ele>
        <time>2017-09-03T09:41:05.000Z</time>
      </trkpt>
      <trkpt lat="49.35161" lon="1.52158">
        <ele>143.96977233887</ele>
        <time>2017-09-03T09:41:08.000Z</time>
      </trkpt>
      <trkpt lat="49.35155" lon="1.52146">
        <ele>144.00903320312</ele>
        <time>2017-09-03T09:41:10.000Z</time>
      </trkpt>
      <trkpt lat="49.35146" lon="1.52127">
        <ele>144.03126525879</ele>
        <time>2017-09-03T09:41:13.000Z</time>
      </trkpt>
      <trkpt lat="49.35136" lon="1.52107">
        <ele>144.03096008301</ele>
        <time>2017-09-03T09:41:16.000Z</time>
      </trkpt>
      <trkpt lat="49.35124" lon="1.5209">
        <ele>144.04489135742</ele>
        <time>2017-09-03T09:41:19.000Z</time>
      </trkpt>
      <trkpt lat="49.35114" lon="1.52089">
        <ele>144.10586547852</ele>
        <time>2017-09-03T09:41:21.000Z</time>
      </trkpt>
      <trkpt lat="49.35104" lon="1.52096">
        <ele>144.23016357422</ele>
        <time>2017-09-03T09:41:23.000Z</time>
      </trkpt>
      <trkpt lat="49.35091" lon="1.52107">
        <ele>144.44555664062</ele>
        <time>2017-09-03T09:41:26.000Z</time>
      </trkpt>
      <trkpt lat="49.35079" lon="1.52117">
        <ele>144.74873352051</ele>
        <time>2017-09-03T09:41:29.000Z</time>
      </trkpt>
      <trkpt lat="49.35067" lon="1.52128">
        <ele>145.13021850586</ele>
        <time>2017-09-03T09:41:32.000Z</time>
      </trkpt>
      <trkpt lat="49.35055" lon="1.52138">
        <ele>145.57083129883</ele>
        <time>2017-09-03T09:41:35.000Z</time>
      </trkpt>
      <trkpt lat="49.35044" lon="1.52149">
        <ele>146.06353759766</ele>
        <time>2017-09-03T09:41:38.000Z</time>
      </trkpt>
      <trkpt lat="49.35032" lon="1.52159">
        <ele>146.58024597168</ele>
        <time>2017-09-03T09:41:41.000Z</time>
      </trkpt>
      <trkpt lat="49.3502" lon="1.5217">
        <ele>147.12652587891</ele>
        <time>2017-09-03T09:41:44.000Z</time>
      </trkpt>
      <trkpt lat="49.35008" lon="1.52181">
        <ele>147.63919067383</ele>
        <time>2017-09-03T09:41:47.000Z</time>
      </trkpt>
      <trkpt lat="49.35" lon="1.52187">
        <ele>148.08073425293</ele>
        <time>2017-09-03T09:41:49.000Z</time>
      </trkpt>
      <trkpt lat="49.34988" lon="1.52197">
        <ele>148.45663452148</ele>
        <time>2017-09-03T09:41:52.000Z</time>
      </trkpt>
      <trkpt lat="49.34977" lon="1.52208">
        <ele>148.75938415527</ele>
        <time>2017-09-03T09:41:55.000Z</time>
      </trkpt>
      <trkpt lat="49.34969" lon="1.52215">
        <ele>148.96711730957</ele>
        <time>2017-09-03T09:41:57.000Z</time>
      </trkpt>
      <trkpt lat="49.34958" lon="1.52226">
        <ele>149.14135742188</ele>
        <time>2017-09-03T09:42:00.000Z</time>
      </trkpt>
      <trkpt lat="49.34948" lon="1.52236">
        <ele>149.29870605469</ele>
        <time>2017-09-03T09:42:03.000Z</time>
      </trkpt>
      <trkpt lat="49.34941" lon="1.52241">
        <ele>149.41691589355</ele>
        <time>2017-09-03T09:42:05.000Z</time>
      </trkpt>
      <trkpt lat="49.34936" lon="1.52247">
        <ele>149.4997253418</ele>
        <time>2017-09-03T09:42:07.000Z</time>
      </trkpt>
      <trkpt lat="49.34927" lon="1.52254">
        <ele>149.58345031738</ele>
        <time>2017-09-03T09:42:10.000Z</time>
      </trkpt>
      <trkpt lat="49.34921" lon="1.5226">
        <ele>149.65129089355</ele>
        <time>2017-09-03T09:42:12.000Z</time>
      </trkpt>
      <trkpt lat="49.34914" lon="1.52267">
        <ele>149.69636535645</ele>
        <time>2017-09-03T09:42:14.000Z</time>
      </trkpt>
      <trkpt lat="49.34903" lon="1.52278">
        <ele>149.67959594727</ele>
        <time>2017-09-03T09:42:17.000Z</time>
      </trkpt>
      <trkpt lat="49.34892" lon="1.52292">
        <ele>149.5964050293</ele>
        <time>2017-09-03T09:42:20.000Z</time>
      </trkpt>
      <trkpt lat="49.3488" lon="1.52306">
        <ele>149.42794799805</ele>
        <time>2017-09-03T09:42:23.000Z</time>
      </trkpt>
      <trkpt lat="49.34868" lon="1.52322">
        <ele>149.17793273926</ele>
        <time>2017-09-03T09:42:26.000Z</time>
      </trkpt>
      <trkpt lat="49.34856" lon="1.52339">
        <ele>148.86819458008</ele>
        <time>2017-09-03T09:42:29.000Z</time>
      </trkpt>
      <trkpt lat="49.34843" lon="1.52355">
        <ele>148.54544067383</ele>
        <time>2017-09-03T09:42:32.000Z</time>
      </trkpt>
      <trkpt lat="49.34835" lon="1.52367">
        <ele>148.2320098877</ele>
        <time>2017-09-03T09:42:34.000Z</time>
      </trkpt>
      <trkpt lat="49.34823" lon="1.52383">
        <ele>147.87644958496</ele>
        <time>2017-09-03T09:42:37.000Z</time>
      </trkpt>
      <trkpt lat="49.34809" lon="1.52401">
        <ele>147.48013305664</ele>
        <time>2017-09-03T09:42:40.000Z</time>
      </trkpt>
      <trkpt lat="49.34801" lon="1.52412">
        <ele>147.08569335938</ele>
        <time>2017-09-03T09:42:42.000Z</time>
      </trkpt>
      <trkpt lat="49.34787" lon="1.5243">
        <ele>146.68923950195</ele>
        <time>2017-09-03T09:42:45.000Z</time>
      </trkpt>
      <trkpt lat="49.34778" lon="1.52442">
        <ele>146.31838989258</ele>
        <time>2017-09-03T09:42:47.000Z</time>
      </trkpt>
      <trkpt lat="49.34766" lon="1.5246">
        <ele>146.0393371582</ele>
        <time>2017-09-03T09:42:50.000Z</time>
      </trkpt>
      <trkpt lat="49.34756" lon="1.52472">
        <ele>145.86898803711</ele>
        <time>2017-09-03T09:42:52.000Z</time>
      </trkpt>
      <trkpt lat="49.34742" lon="1.52489">
        <ele>145.73687744141</ele>
        <time>2017-09-03T09:42:55.000Z</time>
      </trkpt>
      <trkpt lat="49.34728" lon="1.52507">
        <ele>145.56147766113</ele>
        <time>2017-09-03T09:42:58.000Z</time>
      </trkpt>
      <trkpt lat="49.34719" lon="1.5252">
        <ele>145.2878112793</ele>
        <time>2017-09-03T09:43:00.000Z</time>
      </trkpt>
      <trkpt lat="49.3471" lon="1.52532">
        <ele>144.90664672852</ele>
        <time>2017-09-03T09:43:02.000Z</time>
      </trkpt>
      <trkpt lat="49.34697" lon="1.52548">
        <ele>144.34771728516</ele>
        <time>2017-09-03T09:43:05.000Z</time>
      </trkpt>
      <trkpt lat="49.34684" lon="1.52563">
        <ele>143.65374755859</ele>
        <time>2017-09-03T09:43:08.000Z</time>
      </trkpt>
      <trkpt lat="49.34671" lon="1.52582">
        <ele>142.88848876953</ele>
        <time>2017-09-03T09:43:11.000Z</time>
      </trkpt>
      <trkpt lat="49.3466" lon="1.52598">
        <ele>142.15475463867</ele>
        <time>2017-09-03T09:43:14.000Z</time>
      </trkpt>
      <trkpt lat="49.34648" lon="1.52612">
        <ele>141.46055603027</ele>
        <time>2017-09-03T09:43:17.000Z</time>
      </trkpt>
      <trkpt lat="49.34639" lon="1.52623">
        <ele>140.88111877441</ele>
        <time>2017-09-03T09:43:19.000Z</time>
      </trkpt>
      <trkpt lat="49.34631" lon="1.52634">
        <ele>140.39755249023</ele>
        <time>2017-09-03T09:43:21.000Z</time>
      </trkpt>
      <trkpt lat="49.34621" lon="1.52645">
        <ele>140.033203125</ele>
        <time>2017-09-03T09:43:23.000Z</time>
      </trkpt>
      <trkpt lat="49.34608" lon="1.52663">
        <ele>139.6611328125</ele>
        <time>2017-09-03T09:43:26.000Z</time>
      </trkpt>
      <trkpt lat="49.34598" lon="1.52676">
        <ele>139.28269958496</ele>
        <time>2017-09-03T09:43:28.000Z</time>
      </trkpt>
      <trkpt lat="49.34588" lon="1.52688">
        <ele>138.8614654541</ele>
        <time>2017-09-03T09:43:30.000Z</time>
      </trkpt>
      <trkpt lat="49.34572" lon="1.52708">
        <ele>138.28982543945</ele>
        <time>2017-09-03T09:43:33.000Z</time>
      </trkpt>
      <trkpt lat="49.34561" lon="1.52722">
        <ele>137.61828613281</ele>
        <time>2017-09-03T09:43:35.000Z</time>
      </trkpt>
      <trkpt lat="49.34545" lon="1.52743">
        <ele>136.80029296875</ele>
        <time>2017-09-03T09:43:38.000Z</time>
      </trkpt>
      <trkpt lat="49.34534" lon="1.52758">
        <ele>135.9030456543</ele>
        <time>2017-09-03T09:43:40.000Z</time>
      </trkpt>
      <trkpt lat="49.34517" lon="1.5278">
        <ele>134.84735107422</ele>
        <time>2017-09-03T09:43:43.000Z</time>
      </trkpt>
      <trkpt lat="49.34503" lon="1.52793">
        <ele>133.80993652344</ele>
        <time>2017-09-03T09:43:45.000Z</time>
      </trkpt>
      <trkpt lat="49.34488" lon="1.52804">
        <ele>132.81039428711</ele>
        <time>2017-09-03T09:43:47.000Z</time>
      </trkpt>
      <trkpt lat="49.34473" lon="1.52813">
        <ele>131.9533996582</ele>
        <time>2017-09-03T09:43:49.000Z</time>
      </trkpt>
      <trkpt lat="49.34452" lon="1.52825">
        <ele>131.1389465332</ele>
        <time>2017-09-03T09:43:52.000Z</time>
      </trkpt>
      <trkpt lat="49.34434" lon="1.52837">
        <ele>130.45816040039</ele>
        <time>2017-09-03T09:43:55.000Z</time>
      </trkpt>
      <trkpt lat="49.34412" lon="1.52859">
        <ele>129.60990905762</ele>
        <time>2017-09-03T09:43:58.000Z</time>
      </trkpt>
      <trkpt lat="49.34403" lon="1.5289">
        <ele>128.47862243652</ele>
        <time>2017-09-03T09:44:01.000Z</time>
      </trkpt>
      <trkpt lat="49.34403" lon="1.52912">
        <ele>127.25300598145</ele>
        <time>2017-09-03T09:44:03.000Z</time>
      </trkpt>
      <trkpt lat="49.34403" lon="1.52933">
        <ele>126.03887939453</ele>
        <time>2017-09-03T09:44:05.000Z</time>
      </trkpt>
      <trkpt lat="49.34404" lon="1.52963">
        <ele>124.83013916016</ele>
        <time>2017-09-03T09:44:08.000Z</time>
      </trkpt>
      <trkpt lat="49.34403" lon="1.52992">
        <ele>123.84716796875</ele>
        <time>2017-09-03T09:44:11.000Z</time>
      </trkpt>
      <trkpt lat="49.34403" lon="1.53023">
        <ele>123.19450378418</ele>
        <time>2017-09-03T09:44:14.000Z</time>
      </trkpt>
      <trkpt lat="49.34402" lon="1.53041">
        <ele>122.70210266113</ele>
        <time>2017-09-03T09:44:16.000Z</time>
      </trkpt>
      <trkpt lat="49.34402" lon="1.5306">
        <ele>122.28643798828</ele>
        <time>2017-09-03T09:44:18.000Z</time>
      </trkpt>
      <trkpt lat="49.34404" lon="1.53091">
        <ele>121.96824645996</ele>
        <time>2017-09-03T09:44:21.000Z</time>
      </trkpt>
      <trkpt lat="49.34404" lon="1.53113">
        <ele>121.83799743652</ele>
        <time>2017-09-03T09:44:24.000Z</time>
      </trkpt>
      <trkpt lat="49.34408" lon="1.53136">
        <ele>121.86781311035</ele>
        <time>2017-09-03T09:44:27.000Z</time>
      </trkpt>
      <trkpt lat="49.3441" lon="1.53147">
        <ele>121.97493743896</ele>
        <time>2017-09-03T09:44:29.000Z</time>
      </trkpt>
      <trkpt lat="49.34417" lon="1.53161">
        <ele>122.21311950684</ele>
        <time>2017-09-03T09:44:31.000Z</time>
      </trkpt>
      <trkpt lat="49.34422" lon="1.53178">
        <ele>122.51828765869</ele>
        <time>2017-09-03T09:44:34.000Z</time>
      </trkpt>
      <trkpt lat="49.34418" lon="1.5319">
        <ele>122.70343017578</ele>
        <time>2017-09-03T09:44:36.000Z</time>
      </trkpt>
      <trkpt lat="49.34419" lon="1.53209">
        <ele>122.771484375</ele>
        <time>2017-09-03T09:44:39.000Z</time>
      </trkpt>
      <trkpt lat="49.34403" lon="1.53223">
        <ele>122.65962982178</ele>
        <time>2017-09-03T09:44:42.000Z</time>
      </trkpt>
      <trkpt lat="49.34391" lon="1.53235">
        <ele>122.36794281006</ele>
        <time>2017-09-03T09:44:44.000Z</time>
      </trkpt>
      <trkpt lat="49.34373" lon="1.53251">
        <ele>121.92980957031</ele>
        <time>2017-09-03T09:44:47.000Z</time>
      </trkpt>
      <trkpt lat="49.34357" lon="1.5327">
        <ele>121.44026184082</ele>
        <time>2017-09-03T09:44:50.000Z</time>
      </trkpt>
      <trkpt lat="49.34348" lon="1.53279">
        <ele>120.92128753662</ele>
        <time>2017-09-03T09:44:52.000Z</time>
      </trkpt>
      <trkpt lat="49.34339" lon="1.53289">
        <ele>120.47664642334</ele>
        <time>2017-09-03T09:44:54.000Z</time>
      </trkpt>
      <trkpt lat="49.34331" lon="1.53298">
        <ele>120.05471038818</ele>
        <time>2017-09-03T09:44:56.000Z</time>
      </trkpt>
      <trkpt lat="49.34322" lon="1.53312">
        <ele>119.6565322876</ele>
        <time>2017-09-03T09:44:59.000Z</time>
      </trkpt>
      <trkpt lat="49.34317" lon="1.53316">
        <ele>119.34733581543</ele>
        <time>2017-09-03T09:45:01.000Z</time>
      </trkpt>
      <trkpt lat="49.34314" lon="1.53323">
        <ele>119.07542419434</ele>
        <time>2017-09-03T09:45:03.000Z</time>
      </trkpt>
      <trkpt lat="49.34314" lon="1.53332">
        <ele>118.85203552246</ele>
        <time>2017-09-03T09:45:05.000Z</time>
      </trkpt>
      <trkpt lat="49.34312" lon="1.53343">
        <ele>118.65895843506</ele>
        <time>2017-09-03T09:45:08.000Z</time>
      </trkpt>
      <trkpt lat="49.34311" lon="1.53351">
        <ele>118.53034973145</ele>
        <time>2017-09-03T09:45:10.000Z</time>
      </trkpt>
      <trkpt lat="49.34309" lon="1.53359">
        <ele>118.41691589355</ele>
        <time>2017-09-03T09:45:12.000Z</time>
      </trkpt>
      <trkpt lat="49.34309" lon="1.53365">
        <ele>118.31729888916</ele>
        <time>2017-09-03T09:45:14.000Z</time>
      </trkpt>
      <trkpt lat="49.34307" lon="1.53374">
        <ele>118.21287536621</ele>
        <time>2017-09-03T09:45:17.000Z</time>
      </trkpt>
      <trkpt lat="49.34306" lon="1.53377">
        <ele>118.13403320312</ele>
        <time>2017-09-03T09:45:20.000Z</time>
      </trkpt>
      <trkpt lat="49.34307" lon="1.53379">
        <ele>118.07348632812</ele>
        <time>2017-09-03T09:45:23.000Z</time>
      </trkpt>
      <trkpt lat="49.34308" lon="1.5338">
        <ele>118.0308380127</ele>
        <time>2017-09-03T09:45:29.000Z</time>
      </trkpt>
      <trkpt lat="49.34309" lon="1.53383">
        <ele>118.00368499756</ele>
        <time>2017-09-03T09:45:42.000Z</time>
      </trkpt>
      <trkpt lat="49.34309" lon="1.53383">
        <ele>117.99552154541</ele>
        <time>2017-09-03T09:45:45.000Z</time>
      </trkpt>
      <trkpt lat="49.34307" lon="1.53385">
        <ele>117.98793792725</ele>
        <time>2017-09-03T09:45:52.000Z</time>
      </trkpt>
      <trkpt lat="49.34308" lon="1.53386">
        <ele>117.97817230225</ele>
        <time>2017-09-03T09:46:01.000Z</time>
      </trkpt>
      <trkpt lat="49.34307" lon="1.53385">
        <ele>117.96897125244</ele>
        <time>2017-09-03T09:46:10.000Z</time>
      </trkpt>
      <trkpt lat="49.34307" lon="1.53381">
        <ele>117.96339416504</ele>
        <time>2017-09-03T09:46:25.000Z</time>
      </trkpt>
      <trkpt lat="49.34308" lon="1.53381">
        <ele>117.965675354</ele>
        <time>2017-09-03T09:46:30.000Z</time>
      </trkpt>
      <trkpt lat="49.34309" lon="1.53382">
        <ele>117.97769927979</ele>
        <time>2017-09-03T09:46:33.000Z</time>
      </trkpt>
      <trkpt lat="49.34309" lon="1.5338">
        <ele>117.99179840088</ele>
        <time>2017-09-03T09:46:36.000Z</time>
      </trkpt>
      <trkpt lat="49.3431" lon="1.53379">
        <ele>118.01086425781</ele>
        <time>2017-09-03T09:46:41.000Z</time>
      </trkpt>
      <trkpt lat="49.3431" lon="1.53376">
        <ele>118.03062438965</ele>
        <time>2017-09-03T09:46:56.000Z</time>
      </trkpt>
      <trkpt lat="49.34311" lon="1.53376">
        <ele>118.04909515381</ele>
        <time>2017-09-03T09:47:01.000Z</time>
      </trkpt>
      <trkpt lat="49.34311" lon="1.53377">
        <ele>118.06103515625</ele>
        <time>2017-09-03T09:47:08.000Z</time>
      </trkpt>
      <trkpt lat="49.34311" lon="1.53376">
        <ele>118.07430267334</ele>
        <time>2017-09-03T09:47:11.000Z</time>
      </trkpt>
      <trkpt lat="49.34312" lon="1.53375">
        <ele>118.08673095703</ele>
        <time>2017-09-03T09:47:14.000Z</time>
      </trkpt>
      <trkpt lat="49.34312" lon="1.53373">
        <ele>118.09958648682</ele>
        <time>2017-09-03T09:47:16.000Z</time>
      </trkpt>
      <trkpt lat="49.34312" lon="1.53371">
        <ele>118.11312103271</ele>
        <time>2017-09-03T09:47:19.000Z</time>
      </trkpt>
      <trkpt lat="49.3431" lon="1.53371">
        <ele>118.12083435059</ele>
        <time>2017-09-03T09:47:36.000Z</time>
      </trkpt>
      <trkpt lat="49.34309" lon="1.5337">
        <ele>118.1238861084</ele>
        <time>2017-09-03T09:47:46.000Z</time>
      </trkpt>
      <trkpt lat="49.34309" lon="1.53372">
        <ele>118.11965179443</ele>
        <time>2017-09-03T09:47:50.000Z</time>
      </trkpt>
      <trkpt lat="49.34309" lon="1.53377">
        <ele>118.09930419922</ele>
        <time>2017-09-03T09:47:53.000Z</time>
      </trkpt>
      <trkpt lat="49.34309" lon="1.53379">
        <ele>118.07175445557</ele>
        <time>2017-09-03T09:47:55.000Z</time>
      </trkpt>
      <trkpt lat="49.34311" lon="1.53382">
        <ele>118.05549621582</ele>
        <time>2017-09-03T09:48:01.000Z</time>
      </trkpt>
      <trkpt lat="49.3431" lon="1.53381">
        <ele>118.0412979126</ele>
        <time>2017-09-03T09:48:08.000Z</time>
      </trkpt>
      <trkpt lat="49.34309" lon="1.5338">
        <ele>118.0274810791</ele>
        <time>2017-09-03T09:48:22.000Z</time>
      </trkpt>
      <trkpt lat="49.34309" lon="1.5338">
        <ele>118.0274810791</ele>
        <time>2017-09-03T09:48:42.000Z</time>
      </trkpt>
      <trkpt lat="49.3431" lon="1.53381">
        <ele>118.02763366699</ele>
        <time>2017-09-03T09:48:49.000Z</time>
      </trkpt>
      <trkpt lat="49.3431" lon="1.53381">
        <ele>118.02763366699</ele>
        <time>2017-09-03T09:49:05.000Z</time>
      </trkpt>
    </trkseg>
  </trk>
</gpx>